<?xml version='1.0' encoding='UTF-8'?><gpx version="1.1" creator="JPX - https://github.com/jenetics/jpx" xmlns="http://www.topografix.com/GPX/1/1"><trk><trkseg><trkpt lat="44.4611717" lon="11.423905"><ele>67.0</ele><time>2026-04-17T08:28:44.1Z</time></trkpt><trkpt lat="44.46123" lon="11.42387"><ele>67.0</ele><time>2026-04-17T08:28:47.1Z</time></trkpt><trkpt lat="44.46128" lon="11.4237667"><ele>67.0</ele><time>2026-04-17T08:28:51.101Z</time></trkpt><trkpt lat="44.4613283" lon="11.4237067"><ele>67.0</ele><time>2026-04-17T08:28:59.101Z</time></trkpt><trkpt lat="44.4613117" lon="11.4236183"><ele>67.0</ele><time>2026-04-17T08:29:39.1Z</time></trkpt><trkpt lat="44.4612267" lon="11.423665"><ele>67.0</ele><time>2026-04-17T08:30:50.099Z</time></trkpt><trkpt lat="44.46118" lon="11.423575"><ele>67.66666666666666</ele><time>2026-04-17T08:30:52.1Z</time></trkpt><trkpt lat="44.4611383" lon="11.4234967"><ele>68.33333333333333</ele><time>2026-04-17T08:30:54.099Z</time></trkpt><trkpt lat="44.4611117" lon="11.423385"><ele>69.0</ele><time>2026-04-17T08:30:56.099Z</time></trkpt><trkpt lat="44.461105" lon="11.4232533"><ele>69.66666666666667</ele><time>2026-04-17T08:30:59.099Z</time></trkpt><trkpt lat="44.4610867" lon="11.4231567"><ele>70.33333333333334</ele><time>2026-04-17T08:31:02.099Z</time></trkpt><trkpt lat="44.4610317" lon="11.4232167"><ele>71.0</ele><time>2026-04-17T08:31:11.099Z</time></trkpt><trkpt lat="44.4609948" lon="11.4233054"><ele>71.0</ele><time>2026-04-17T08:31:17.131Z</time></trkpt><trkpt lat="44.4609333" lon="11.42338"><ele>71.0</ele><time>2026-04-17T08:36:59.097Z</time></trkpt><trkpt lat="44.4608733" lon="11.4235117"><ele>71.0</ele><time>2026-04-17T08:37:01.098Z</time></trkpt><trkpt lat="44.4607967" lon="11.42365"><ele>71.0</ele><time>2026-04-17T08:37:03.097Z</time></trkpt><trkpt lat="44.4607617" lon="11.423725"><ele>71.0</ele><time>2026-04-17T08:37:04.097Z</time></trkpt><trkpt lat="44.4607267" lon="11.4238017"><ele>71.0</ele><time>2026-04-17T08:37:05.097Z</time></trkpt><trkpt lat="44.4606867" lon="11.4238733"><ele>70.33333333333334</ele><time>2026-04-17T08:37:06.098Z</time></trkpt><trkpt lat="44.460645" lon="11.42395"><ele>69.66666666666667</ele><time>2026-04-17T08:37:07.098Z</time></trkpt><trkpt lat="44.4605967" lon="11.4240267"><ele>69.0</ele><time>2026-04-17T08:37:08.097Z</time></trkpt><trkpt lat="44.460555" lon="11.4241067"><ele>68.33333333333333</ele><time>2026-04-17T08:37:09.097Z</time></trkpt><trkpt lat="44.460515" lon="11.424185"><ele>67.66666666666666</ele><time>2026-04-17T08:37:10.097Z</time></trkpt><trkpt lat="44.4604767" lon="11.4242617"><ele>67.0</ele><time>2026-04-17T08:37:11.097Z</time></trkpt><trkpt lat="44.4604117" lon="11.424395"><ele>66.66666666666666</ele><time>2026-04-17T08:37:13.097Z</time></trkpt><trkpt lat="44.4603567" lon="11.4245017"><ele>66.33333333333333</ele><time>2026-04-17T08:37:21.098Z</time></trkpt><trkpt lat="44.4603833" lon="11.4246183"><ele>66.0</ele><time>2026-04-17T08:37:23.097Z</time></trkpt><trkpt lat="44.4604367" lon="11.4246917"><ele>65.66666666666667</ele><time>2026-04-17T08:37:24.098Z</time></trkpt><trkpt lat="44.460505" lon="11.4247767"><ele>65.33333333333334</ele><time>2026-04-17T08:37:25.097Z</time></trkpt><trkpt lat="44.4605817" lon="11.4248667"><ele>65.0</ele><time>2026-04-17T08:37:26.098Z</time></trkpt><trkpt lat="44.4606617" lon="11.4249683"><ele>65.0</ele><time>2026-04-17T08:37:27.098Z</time></trkpt><trkpt lat="44.4607367" lon="11.4250667"><ele>65.0</ele><time>2026-04-17T08:37:28.097Z</time></trkpt><trkpt lat="44.4608117" lon="11.4251617"><ele>65.0</ele><time>2026-04-17T08:37:29.097Z</time></trkpt><trkpt lat="44.4608883" lon="11.425255"><ele>65.0</ele><time>2026-04-17T08:37:30.098Z</time></trkpt><trkpt lat="44.46096" lon="11.4253517"><ele>65.0</ele><time>2026-04-17T08:37:31.097Z</time></trkpt><trkpt lat="44.4610283" lon="11.4254367"><ele>65.0</ele><time>2026-04-17T08:37:32.097Z</time></trkpt><trkpt lat="44.4610917" lon="11.425515"><ele>65.0</ele><time>2026-04-17T08:37:33.098Z</time></trkpt><trkpt lat="44.4611517" lon="11.4255783"><ele>65.0</ele><time>2026-04-17T08:37:34.098Z</time></trkpt><trkpt lat="44.461225" lon="11.425655"><ele>65.0</ele><time>2026-04-17T08:37:36.097Z</time></trkpt><trkpt lat="44.4613183" lon="11.4256633"><ele>65.0</ele><time>2026-04-17T08:37:38.097Z</time></trkpt><trkpt lat="44.4613833" lon="11.4256283"><ele>65.0</ele><time>2026-04-17T08:37:39.098Z</time></trkpt><trkpt lat="44.4614583" lon="11.4255833"><ele>65.0</ele><time>2026-04-17T08:37:40.097Z</time></trkpt><trkpt lat="44.461545" lon="11.4255367"><ele>65.0</ele><time>2026-04-17T08:37:41.098Z</time></trkpt><trkpt lat="44.4616317" lon="11.425485"><ele>65.0</ele><time>2026-04-17T08:37:42.097Z</time></trkpt><trkpt lat="44.4617233" lon="11.4254367"><ele>65.0</ele><time>2026-04-17T08:37:43.097Z</time></trkpt><trkpt lat="44.4618167" lon="11.4253783"><ele>65.0</ele><time>2026-04-17T08:37:44.097Z</time></trkpt><trkpt lat="44.46191" lon="11.4253183"><ele>65.0</ele><time>2026-04-17T08:37:45.097Z</time></trkpt><trkpt lat="44.46201" lon="11.4252567"><ele>65.0</ele><time>2026-04-17T08:37:46.098Z</time></trkpt><trkpt lat="44.4620967" lon="11.425165"><ele>65.0</ele><time>2026-04-17T08:37:47.097Z</time></trkpt><trkpt lat="44.462195" lon="11.425065"><ele>65.0</ele><time>2026-04-17T08:37:48.097Z</time></trkpt><trkpt lat="44.4622917" lon="11.4249533"><ele>65.5</ele><time>2026-04-17T08:37:49.098Z</time></trkpt><trkpt lat="44.4623833" lon="11.42484"><ele>66.0</ele><time>2026-04-17T08:37:50.098Z</time></trkpt><trkpt lat="44.4624783" lon="11.4247233"><ele>66.5</ele><time>2026-04-17T08:37:51.098Z</time></trkpt><trkpt lat="44.462565" lon="11.424605"><ele>67.0</ele><time>2026-04-17T08:37:52.098Z</time></trkpt><trkpt lat="44.46264" lon="11.4244967"><ele>67.0</ele><time>2026-04-17T08:37:53.097Z</time></trkpt><trkpt lat="44.46272" lon="11.42437"><ele>67.0</ele><time>2026-04-17T08:37:54.098Z</time></trkpt><trkpt lat="44.462805" lon="11.42425"><ele>67.0</ele><time>2026-04-17T08:37:55.098Z</time></trkpt><trkpt lat="44.4629017" lon="11.4241217"><ele>67.0</ele><time>2026-04-17T08:37:56.098Z</time></trkpt><trkpt lat="44.4630033" lon="11.4239833"><ele>67.0</ele><time>2026-04-17T08:37:57.098Z</time></trkpt><trkpt lat="44.4631117" lon="11.423845"><ele>67.0</ele><time>2026-04-17T08:37:58.098Z</time></trkpt><trkpt lat="44.4632217" lon="11.4237233"><ele>67.0</ele><time>2026-04-17T08:37:59.098Z</time></trkpt><trkpt lat="44.46333" lon="11.4236233"><ele>67.0</ele><time>2026-04-17T08:38:00.097Z</time></trkpt><trkpt lat="44.4634367" lon="11.423515"><ele>67.0</ele><time>2026-04-17T08:38:01.097Z</time></trkpt><trkpt lat="44.4635383" lon="11.4234117"><ele>67.0</ele><time>2026-04-17T08:38:02.098Z</time></trkpt><trkpt lat="44.4636367" lon="11.42331"><ele>67.0</ele><time>2026-04-17T08:38:03.097Z</time></trkpt><trkpt lat="44.4637333" lon="11.42322"><ele>67.0</ele><time>2026-04-17T08:38:04.097Z</time></trkpt><trkpt lat="44.4638383" lon="11.4231333"><ele>66.75</ele><time>2026-04-17T08:38:05.097Z</time></trkpt><trkpt lat="44.4639317" lon="11.4230417"><ele>66.5</ele><time>2026-04-17T08:38:06.098Z</time></trkpt><trkpt lat="44.464025" lon="11.4229467"><ele>66.25</ele><time>2026-04-17T08:38:07.097Z</time></trkpt><trkpt lat="44.4641183" lon="11.422865"><ele>66.0</ele><time>2026-04-17T08:38:08.098Z</time></trkpt><trkpt lat="44.4642083" lon="11.42277"><ele>65.8</ele><time>2026-04-17T08:38:09.097Z</time></trkpt><trkpt lat="44.4642967" lon="11.4226917"><ele>65.6</ele><time>2026-04-17T08:38:10.098Z</time></trkpt><trkpt lat="44.4643933" lon="11.4226233"><ele>65.4</ele><time>2026-04-17T08:38:11.097Z</time></trkpt><trkpt lat="44.464475" lon="11.4225567"><ele>65.2</ele><time>2026-04-17T08:38:12.097Z</time></trkpt><trkpt lat="44.4645567" lon="11.4224817"><ele>65.0</ele><time>2026-04-17T08:38:13.097Z</time></trkpt><trkpt lat="44.4646283" lon="11.42239"><ele>65.8</ele><time>2026-04-17T08:38:14.097Z</time></trkpt><trkpt lat="44.4646917" lon="11.42228"><ele>66.6</ele><time>2026-04-17T08:38:15.097Z</time></trkpt><trkpt lat="44.4647517" lon="11.4221717"><ele>67.4</ele><time>2026-04-17T08:38:16.098Z</time></trkpt><trkpt lat="44.4648083" lon="11.42208"><ele>68.2</ele><time>2026-04-17T08:38:17.098Z</time></trkpt><trkpt lat="44.464885" lon="11.4220167"><ele>69.0</ele><time>2026-04-17T08:38:18.098Z</time></trkpt><trkpt lat="44.464965" lon="11.42198"><ele>69.0</ele><time>2026-04-17T08:38:19.097Z</time></trkpt><trkpt lat="44.4650517" lon="11.4219783"><ele>69.0</ele><time>2026-04-17T08:38:20.097Z</time></trkpt><trkpt lat="44.46513" lon="11.421995"><ele>69.0</ele><time>2026-04-17T08:38:21.097Z</time></trkpt><trkpt lat="44.465205" lon="11.4220267"><ele>69.0</ele><time>2026-04-17T08:38:22.097Z</time></trkpt><trkpt lat="44.4652867" lon="11.4220883"><ele>69.0</ele><time>2026-04-17T08:38:24.097Z</time></trkpt><trkpt lat="44.465325" lon="11.42216"><ele>69.0</ele><time>2026-04-17T08:38:40.097Z</time></trkpt><trkpt lat="44.4653533" lon="11.4222817"><ele>69.0</ele><time>2026-04-17T08:38:45.098Z</time></trkpt><trkpt lat="44.4653333" lon="11.42237"><ele>69.0</ele><time>2026-04-17T08:38:46.098Z</time></trkpt><trkpt lat="44.4653017" lon="11.422455"><ele>69.0</ele><time>2026-04-17T08:38:47.097Z</time></trkpt><trkpt lat="44.4652233" lon="11.42261"><ele>69.0</ele><time>2026-04-17T08:38:49.097Z</time></trkpt><trkpt lat="44.4651883" lon="11.4226883"><ele>69.0</ele><time>2026-04-17T08:38:50.097Z</time></trkpt><trkpt lat="44.46513" lon="11.4228367"><ele>69.0</ele><time>2026-04-17T08:38:52.098Z</time></trkpt><trkpt lat="44.46509" lon="11.42294"><ele>69.0</ele><time>2026-04-17T08:38:54.098Z</time></trkpt><trkpt lat="44.46505" lon="11.423035"><ele>69.0</ele><time>2026-04-17T08:38:59.097Z</time></trkpt><trkpt lat="44.465005" lon="11.423135"><ele>69.0</ele><time>2026-04-17T08:39:01.098Z</time></trkpt><trkpt lat="44.4649367" lon="11.4232817"><ele>69.0</ele><time>2026-04-17T08:39:03.098Z</time></trkpt><trkpt lat="44.464895" lon="11.423355"><ele>69.0</ele><time>2026-04-17T08:39:04.097Z</time></trkpt><trkpt lat="44.46486" lon="11.4234317"><ele>68.71428571428572</ele><time>2026-04-17T08:39:05.097Z</time></trkpt><trkpt lat="44.4648267" lon="11.4235067"><ele>68.42857142857143</ele><time>2026-04-17T08:39:06.097Z</time></trkpt><trkpt lat="44.464795" lon="11.4235967"><ele>68.14285714285714</ele><time>2026-04-17T08:39:07.097Z</time></trkpt><trkpt lat="44.4647667" lon="11.4236867"><ele>67.85714285714286</ele><time>2026-04-17T08:39:08.098Z</time></trkpt><trkpt lat="44.464735" lon="11.423785"><ele>67.57142857142857</ele><time>2026-04-17T08:39:09.097Z</time></trkpt><trkpt lat="44.4646983" lon="11.4238783"><ele>67.28571428571429</ele><time>2026-04-17T08:39:10.097Z</time></trkpt><trkpt lat="44.464655" lon="11.4239783"><ele>67.0</ele><time>2026-04-17T08:39:11.097Z</time></trkpt><trkpt lat="44.4646033" lon="11.4240767"><ele>66.8</ele><time>2026-04-17T08:39:12.097Z</time></trkpt><trkpt lat="44.464555" lon="11.424185"><ele>66.6</ele><time>2026-04-17T08:39:13.098Z</time></trkpt><trkpt lat="44.4645183" lon="11.4243017"><ele>66.39999999999999</ele><time>2026-04-17T08:39:14.098Z</time></trkpt><trkpt lat="44.4644733" lon="11.4244083"><ele>66.2</ele><time>2026-04-17T08:39:15.097Z</time></trkpt><trkpt lat="44.4644233" lon="11.4245167"><ele>66.0</ele><time>2026-04-17T08:39:16.097Z</time></trkpt><trkpt lat="44.4643833" lon="11.424625"><ele>66.2</ele><time>2026-04-17T08:39:17.097Z</time></trkpt><trkpt lat="44.4643417" lon="11.4247383"><ele>66.39999999999999</ele><time>2026-04-17T08:39:18.098Z</time></trkpt><trkpt lat="44.4643033" lon="11.42486"><ele>66.6</ele><time>2026-04-17T08:39:19.098Z</time></trkpt><trkpt lat="44.4642683" lon="11.4249817"><ele>66.8</ele><time>2026-04-17T08:39:20.097Z</time></trkpt><trkpt lat="44.464235" lon="11.4250933"><ele>67.0</ele><time>2026-04-17T08:39:21.098Z</time></trkpt><trkpt lat="44.4642033" lon="11.4252083"><ele>67.0</ele><time>2026-04-17T08:39:22.097Z</time></trkpt><trkpt lat="44.4641667" lon="11.425315"><ele>67.0</ele><time>2026-04-17T08:39:23.098Z</time></trkpt><trkpt lat="44.464135" lon="11.4254233"><ele>67.0</ele><time>2026-04-17T08:39:24.097Z</time></trkpt><trkpt lat="44.4641067" lon="11.4255267"><ele>67.0</ele><time>2026-04-17T08:39:25.097Z</time></trkpt><trkpt lat="44.4640717" lon="11.4256167"><ele>67.0</ele><time>2026-04-17T08:39:26.097Z</time></trkpt><trkpt lat="44.464035" lon="11.4257017"><ele>67.0</ele><time>2026-04-17T08:39:27.098Z</time></trkpt><trkpt lat="44.4640067" lon="11.4257817"><ele>66.83333333333333</ele><time>2026-04-17T08:39:28.097Z</time></trkpt><trkpt lat="44.463945" lon="11.425925"><ele>66.66666666666666</ele><time>2026-04-17T08:39:30.096Z</time></trkpt><trkpt lat="44.4638783" lon="11.4260683"><ele>66.5</ele><time>2026-04-17T08:39:32.097Z</time></trkpt><trkpt lat="44.463845" lon="11.426145"><ele>66.33333333333333</ele><time>2026-04-17T08:39:33.097Z</time></trkpt><trkpt lat="44.4638167" lon="11.4262267"><ele>66.16666666666667</ele><time>2026-04-17T08:39:34.096Z</time></trkpt><trkpt lat="44.4637933" lon="11.4263117"><ele>66.0</ele><time>2026-04-17T08:39:35.097Z</time></trkpt><trkpt lat="44.4637617" lon="11.426405"><ele>66.0</ele><time>2026-04-17T08:39:36.096Z</time></trkpt><trkpt lat="44.463725" lon="11.426505"><ele>66.0</ele><time>2026-04-17T08:39:37.096Z</time></trkpt><trkpt lat="44.4636817" lon="11.4266233"><ele>66.0</ele><time>2026-04-17T08:39:38.097Z</time></trkpt><trkpt lat="44.4636283" lon="11.42675"><ele>66.0</ele><time>2026-04-17T08:39:39.097Z</time></trkpt><trkpt lat="44.46358" lon="11.4268833"><ele>66.0</ele><time>2026-04-17T08:39:40.096Z</time></trkpt><trkpt lat="44.4635233" lon="11.4270217"><ele>65.75</ele><time>2026-04-17T08:39:41.097Z</time></trkpt><trkpt lat="44.4634683" lon="11.42715"><ele>65.5</ele><time>2026-04-17T08:39:42.097Z</time></trkpt><trkpt lat="44.46342" lon="11.4272917"><ele>65.25</ele><time>2026-04-17T08:39:43.097Z</time></trkpt><trkpt lat="44.46337" lon="11.4274317"><ele>65.0</ele><time>2026-04-17T08:39:44.096Z</time></trkpt><trkpt lat="44.4633167" lon="11.4275833"><ele>65.0</ele><time>2026-04-17T08:39:45.096Z</time></trkpt><trkpt lat="44.4632617" lon="11.42773"><ele>65.0</ele><time>2026-04-17T08:39:46.097Z</time></trkpt><trkpt lat="44.46321" lon="11.4278733"><ele>65.0</ele><time>2026-04-17T08:39:47.097Z</time></trkpt><trkpt lat="44.4631617" lon="11.428"><ele>65.0</ele><time>2026-04-17T08:39:48.096Z</time></trkpt><trkpt lat="44.4631183" lon="11.4281033"><ele>65.0</ele><time>2026-04-17T08:39:49.096Z</time></trkpt><trkpt lat="44.4630833" lon="11.4281867"><ele>65.16666666666667</ele><time>2026-04-17T08:39:50.097Z</time></trkpt><trkpt lat="44.4630367" lon="11.428325"><ele>65.33333333333334</ele><time>2026-04-17T08:39:52.097Z</time></trkpt><trkpt lat="44.4629917" lon="11.4284267"><ele>65.5</ele><time>2026-04-17T08:39:54.097Z</time></trkpt><trkpt lat="44.4629433" lon="11.4285417"><ele>65.66666666666667</ele><time>2026-04-17T08:39:56.097Z</time></trkpt><trkpt lat="44.4629167" lon="11.4286233"><ele>65.83333333333333</ele><time>2026-04-17T08:39:57.096Z</time></trkpt><trkpt lat="44.462885" lon="11.4287017"><ele>66.0</ele><time>2026-04-17T08:39:58.096Z</time></trkpt><trkpt lat="44.4628533" lon="11.428795"><ele>66.33333333333333</ele><time>2026-04-17T08:39:59.096Z</time></trkpt><trkpt lat="44.46282" lon="11.4288933"><ele>66.66666666666667</ele><time>2026-04-17T08:40:00.096Z</time></trkpt><trkpt lat="44.4627833" lon="11.4289967"><ele>67.0</ele><time>2026-04-17T08:40:01.097Z</time></trkpt><trkpt lat="44.4627467" lon="11.429105"><ele>67.33333333333334</ele><time>2026-04-17T08:40:02.096Z</time></trkpt><trkpt lat="44.4627083" lon="11.4292133"><ele>67.66666666666667</ele><time>2026-04-17T08:40:03.096Z</time></trkpt><trkpt lat="44.4626633" lon="11.4293233"><ele>68.0</ele><time>2026-04-17T08:40:04.096Z</time></trkpt><trkpt lat="44.4626183" lon="11.4294317"><ele>68.0</ele><time>2026-04-17T08:40:05.096Z</time></trkpt><trkpt lat="44.46257" lon="11.4295433"><ele>68.0</ele><time>2026-04-17T08:40:06.096Z</time></trkpt><trkpt lat="44.46253" lon="11.4296517"><ele>68.0</ele><time>2026-04-17T08:40:07.097Z</time></trkpt><trkpt lat="44.4624933" lon="11.4297733"><ele>68.0</ele><time>2026-04-17T08:40:08.096Z</time></trkpt><trkpt lat="44.4624517" lon="11.4298917"><ele>68.0</ele><time>2026-04-17T08:40:09.096Z</time></trkpt><trkpt lat="44.4624117" lon="11.4300117"><ele>67.66666666666667</ele><time>2026-04-17T08:40:10.096Z</time></trkpt><trkpt lat="44.4623717" lon="11.4301317"><ele>67.33333333333334</ele><time>2026-04-17T08:40:11.096Z</time></trkpt><trkpt lat="44.462325" lon="11.43025"><ele>67.0</ele><time>2026-04-17T08:40:12.096Z</time></trkpt><trkpt lat="44.4622917" lon="11.43037"><ele>66.66666666666667</ele><time>2026-04-17T08:40:13.096Z</time></trkpt><trkpt lat="44.46226" lon="11.4304833"><ele>66.33333333333333</ele><time>2026-04-17T08:40:14.096Z</time></trkpt><trkpt lat="44.4622383" lon="11.43058"><ele>66.0</ele><time>2026-04-17T08:40:15.096Z</time></trkpt><trkpt lat="44.4622183" lon="11.4306667"><ele>66.0</ele><time>2026-04-17T08:40:16.096Z</time></trkpt><trkpt lat="44.4621583" lon="11.430825"><ele>66.0</ele><time>2026-04-17T08:40:18.096Z</time></trkpt><trkpt lat="44.46211" lon="11.4308917"><ele>66.0</ele><time>2026-04-17T08:40:19.097Z</time></trkpt><trkpt lat="44.4620617" lon="11.4309683"><ele>66.0</ele><time>2026-04-17T08:40:20.097Z</time></trkpt><trkpt lat="44.462015" lon="11.43106"><ele>66.0</ele><time>2026-04-17T08:40:21.096Z</time></trkpt><trkpt lat="44.4619867" lon="11.43118"><ele>66.0</ele><time>2026-04-17T08:40:22.097Z</time></trkpt><trkpt lat="44.46197" lon="11.43131"><ele>66.25</ele><time>2026-04-17T08:40:23.097Z</time></trkpt><trkpt lat="44.4619467" lon="11.4314517"><ele>66.5</ele><time>2026-04-17T08:40:24.096Z</time></trkpt><trkpt lat="44.461905" lon="11.43159"><ele>66.75</ele><time>2026-04-17T08:40:25.097Z</time></trkpt><trkpt lat="44.4618383" lon="11.4317267"><ele>67.0</ele><time>2026-04-17T08:40:26.096Z</time></trkpt><trkpt lat="44.461765" lon="11.4318667"><ele>67.0</ele><time>2026-04-17T08:40:27.097Z</time></trkpt><trkpt lat="44.46169" lon="11.4320033"><ele>67.0</ele><time>2026-04-17T08:40:28.096Z</time></trkpt><trkpt lat="44.46162" lon="11.4321467"><ele>67.0</ele><time>2026-04-17T08:40:29.097Z</time></trkpt><trkpt lat="44.4615517" lon="11.4322917"><ele>67.0</ele><time>2026-04-17T08:40:30.097Z</time></trkpt><trkpt lat="44.4614883" lon="11.4324417"><ele>67.0</ele><time>2026-04-17T08:40:31.096Z</time></trkpt><trkpt lat="44.4614317" lon="11.4325933"><ele>67.0</ele><time>2026-04-17T08:40:32.097Z</time></trkpt><trkpt lat="44.4613767" lon="11.4327417"><ele>67.0</ele><time>2026-04-17T08:40:33.096Z</time></trkpt><trkpt lat="44.4613217" lon="11.43288"><ele>67.0</ele><time>2026-04-17T08:40:34.096Z</time></trkpt><trkpt lat="44.4612683" lon="11.4330183"><ele>67.2</ele><time>2026-04-17T08:40:35.097Z</time></trkpt><trkpt lat="44.4612217" lon="11.4331417"><ele>67.4</ele><time>2026-04-17T08:40:36.096Z</time></trkpt><trkpt lat="44.4611817" lon="11.433265"><ele>67.6</ele><time>2026-04-17T08:40:37.097Z</time></trkpt><trkpt lat="44.4611417" lon="11.433375"><ele>67.8</ele><time>2026-04-17T08:40:38.096Z</time></trkpt><trkpt lat="44.4610967" lon="11.43348"><ele>68.0</ele><time>2026-04-17T08:40:39.097Z</time></trkpt><trkpt lat="44.4610583" lon="11.4335933"><ele>68.0</ele><time>2026-04-17T08:40:40.096Z</time></trkpt><trkpt lat="44.4610133" lon="11.4337117"><ele>68.0</ele><time>2026-04-17T08:40:41.097Z</time></trkpt><trkpt lat="44.460965" lon="11.4338417"><ele>68.0</ele><time>2026-04-17T08:40:42.097Z</time></trkpt><trkpt lat="44.4609133" lon="11.43398"><ele>68.0</ele><time>2026-04-17T08:40:43.096Z</time></trkpt><trkpt lat="44.4608667" lon="11.434125"><ele>68.0</ele><time>2026-04-17T08:40:44.097Z</time></trkpt><trkpt lat="44.4608167" lon="11.4342667"><ele>67.75</ele><time>2026-04-17T08:40:45.096Z</time></trkpt><trkpt lat="44.4607683" lon="11.4344117"><ele>67.5</ele><time>2026-04-17T08:40:46.096Z</time></trkpt><trkpt lat="44.4607167" lon="11.4345617"><ele>67.25</ele><time>2026-04-17T08:40:47.096Z</time></trkpt><trkpt lat="44.4606633" lon="11.434705"><ele>67.0</ele><time>2026-04-17T08:40:48.097Z</time></trkpt><trkpt lat="44.46061" lon="11.4348517"><ele>66.8</ele><time>2026-04-17T08:40:49.096Z</time></trkpt><trkpt lat="44.4605617" lon="11.4349867"><ele>66.6</ele><time>2026-04-17T08:40:50.096Z</time></trkpt><trkpt lat="44.46052" lon="11.4351233"><ele>66.39999999999999</ele><time>2026-04-17T08:40:51.096Z</time></trkpt><trkpt lat="44.4604683" lon="11.43525"><ele>66.2</ele><time>2026-04-17T08:40:52.096Z</time></trkpt><trkpt lat="44.4604283" lon="11.43539"><ele>66.0</ele><time>2026-04-17T08:40:53.097Z</time></trkpt><trkpt lat="44.4603833" lon="11.4355267"><ele>65.39999999999999</ele><time>2026-04-17T08:40:54.096Z</time></trkpt><trkpt lat="44.4603233" lon="11.43565"><ele>64.8</ele><time>2026-04-17T08:40:55.097Z</time></trkpt><trkpt lat="44.4602683" lon="11.4357633"><ele>64.19999999999999</ele><time>2026-04-17T08:40:56.096Z</time></trkpt><trkpt lat="44.4602183" lon="11.43587"><ele>63.599999999999994</ele><time>2026-04-17T08:40:57.097Z</time></trkpt><trkpt lat="44.46017" lon="11.435985"><ele>63.0</ele><time>2026-04-17T08:40:58.096Z</time></trkpt><trkpt lat="44.4601317" lon="11.4360917"><ele>63.0</ele><time>2026-04-17T08:40:59.097Z</time></trkpt><trkpt lat="44.46009" lon="11.4361933"><ele>63.0</ele><time>2026-04-17T08:41:00.097Z</time></trkpt><trkpt lat="44.4600533" lon="11.436295"><ele>63.0</ele><time>2026-04-17T08:41:01.096Z</time></trkpt><trkpt lat="44.460005" lon="11.4364033"><ele>63.0</ele><time>2026-04-17T08:41:02.096Z</time></trkpt><trkpt lat="44.459945" lon="11.4365083"><ele>63.0</ele><time>2026-04-17T08:41:03.097Z</time></trkpt><trkpt lat="44.4598867" lon="11.4366117"><ele>63.0</ele><time>2026-04-17T08:41:04.097Z</time></trkpt><trkpt lat="44.4598333" lon="11.4367233"><ele>63.0</ele><time>2026-04-17T08:41:05.097Z</time></trkpt><trkpt lat="44.459775" lon="11.436825"><ele>63.0</ele><time>2026-04-17T08:41:06.097Z</time></trkpt><trkpt lat="44.4597183" lon="11.4369267"><ele>63.0</ele><time>2026-04-17T08:41:07.097Z</time></trkpt><trkpt lat="44.45966" lon="11.4370317"><ele>63.0</ele><time>2026-04-17T08:41:08.096Z</time></trkpt><trkpt lat="44.4596017" lon="11.43713"><ele>63.0</ele><time>2026-04-17T08:41:09.096Z</time></trkpt><trkpt lat="44.4595483" lon="11.4372117"><ele>62.57142857142857</ele><time>2026-04-17T08:41:10.097Z</time></trkpt><trkpt lat="44.459495" lon="11.4372917"><ele>62.14285714285714</ele><time>2026-04-17T08:41:11.097Z</time></trkpt><trkpt lat="44.45945" lon="11.4373733"><ele>61.714285714285715</ele><time>2026-04-17T08:41:12.096Z</time></trkpt><trkpt lat="44.459405" lon="11.4374517"><ele>61.285714285714285</ele><time>2026-04-17T08:41:13.097Z</time></trkpt><trkpt lat="44.4593633" lon="11.4375283"><ele>60.857142857142854</ele><time>2026-04-17T08:41:14.097Z</time></trkpt><trkpt lat="44.4593183" lon="11.4376"><ele>60.42857142857143</ele><time>2026-04-17T08:41:15.096Z</time></trkpt><trkpt lat="44.45928" lon="11.43768"><ele>60.0</ele><time>2026-04-17T08:41:16.096Z</time></trkpt><trkpt lat="44.4592333" lon="11.4377483"><ele>60.0</ele><time>2026-04-17T08:41:17.096Z</time></trkpt><trkpt lat="44.459155" lon="11.4378817"><ele>60.0</ele><time>2026-04-17T08:41:19.096Z</time></trkpt><trkpt lat="44.4591067" lon="11.4379483"><ele>60.0</ele><time>2026-04-17T08:41:20.096Z</time></trkpt><trkpt lat="44.4590383" lon="11.43809"><ele>60.0</ele><time>2026-04-17T08:41:22.096Z</time></trkpt><trkpt lat="44.4589433" lon="11.4382067"><ele>60.0</ele><time>2026-04-17T08:41:24.097Z</time></trkpt><trkpt lat="44.4589033" lon="11.43828"><ele>59.833333333333336</ele><time>2026-04-17T08:41:25.097Z</time></trkpt><trkpt lat="44.458865" lon="11.4383567"><ele>59.66666666666667</ele><time>2026-04-17T08:41:26.096Z</time></trkpt><trkpt lat="44.4588267" lon="11.4384367"><ele>59.5</ele><time>2026-04-17T08:41:27.096Z</time></trkpt><trkpt lat="44.4587783" lon="11.43852"><ele>59.333333333333336</ele><time>2026-04-17T08:41:28.096Z</time></trkpt><trkpt lat="44.4587167" lon="11.438605"><ele>59.16666666666667</ele><time>2026-04-17T08:41:29.097Z</time></trkpt><trkpt lat="44.4586517" lon="11.438695"><ele>59.0</ele><time>2026-04-17T08:41:30.097Z</time></trkpt><trkpt lat="44.4585983" lon="11.4387983"><ele>58.800000000000004</ele><time>2026-04-17T08:41:31.096Z</time></trkpt><trkpt lat="44.458555" lon="11.4389083"><ele>58.60000000000001</ele><time>2026-04-17T08:41:32.096Z</time></trkpt><trkpt lat="44.4585067" lon="11.4390167"><ele>58.4</ele><time>2026-04-17T08:41:33.096Z</time></trkpt><trkpt lat="44.45846" lon="11.4391267"><ele>58.2</ele><time>2026-04-17T08:41:34.097Z</time></trkpt><trkpt lat="44.4584117" lon="11.4392467"><ele>58.0</ele><time>2026-04-17T08:41:35.096Z</time></trkpt><trkpt lat="44.4583667" lon="11.43937"><ele>58.0</ele><time>2026-04-17T08:41:36.096Z</time></trkpt><trkpt lat="44.4583283" lon="11.4395017"><ele>58.0</ele><time>2026-04-17T08:41:37.097Z</time></trkpt><trkpt lat="44.4582883" lon="11.4396333"><ele>58.0</ele><time>2026-04-17T08:41:38.097Z</time></trkpt><trkpt lat="44.4582367" lon="11.4397733"><ele>58.0</ele><time>2026-04-17T08:41:39.097Z</time></trkpt><trkpt lat="44.4581917" lon="11.4399083"><ele>58.0</ele><time>2026-04-17T08:41:40.097Z</time></trkpt><trkpt lat="44.4581483" lon="11.4400317"><ele>57.99999999999999</ele><time>2026-04-17T08:41:41.097Z</time></trkpt><trkpt lat="44.45811" lon="11.44015"><ele>58.0</ele><time>2026-04-17T08:41:42.097Z</time></trkpt><trkpt lat="44.4580683" lon="11.4402533"><ele>58.0</ele><time>2026-04-17T08:41:43.097Z</time></trkpt><trkpt lat="44.4580317" lon="11.440355"><ele>58.0</ele><time>2026-04-17T08:41:44.097Z</time></trkpt><trkpt lat="44.4579917" lon="11.4404633"><ele>57.99999999999999</ele><time>2026-04-17T08:41:45.097Z</time></trkpt><trkpt lat="44.457955" lon="11.440575"><ele>58.0</ele><time>2026-04-17T08:41:46.097Z</time></trkpt><trkpt lat="44.45792" lon="11.4406833"><ele>58.33333333333333</ele><time>2026-04-17T08:41:47.097Z</time></trkpt><trkpt lat="44.457885" lon="11.4407867"><ele>58.666666666666664</ele><time>2026-04-17T08:41:48.096Z</time></trkpt><trkpt lat="44.4578517" lon="11.4408983"><ele>59.0</ele><time>2026-04-17T08:41:49.096Z</time></trkpt><trkpt lat="44.45782" lon="11.440995"><ele>59.33333333333333</ele><time>2026-04-17T08:41:50.096Z</time></trkpt><trkpt lat="44.4577917" lon="11.4410917"><ele>59.666666666666664</ele><time>2026-04-17T08:41:51.096Z</time></trkpt><trkpt lat="44.4577633" lon="11.4411867"><ele>60.0</ele><time>2026-04-17T08:41:52.097Z</time></trkpt><trkpt lat="44.457735" lon="11.4412733"><ele>59.333333333333336</ele><time>2026-04-17T08:41:53.096Z</time></trkpt><trkpt lat="44.4577017" lon="11.4413617"><ele>58.66666666666667</ele><time>2026-04-17T08:41:54.097Z</time></trkpt><trkpt lat="44.45767" lon="11.44145"><ele>58.0</ele><time>2026-04-17T08:41:55.097Z</time></trkpt><trkpt lat="44.4576367" lon="11.4415417"><ele>57.333333333333336</ele><time>2026-04-17T08:41:56.096Z</time></trkpt><trkpt lat="44.4576033" lon="11.4416417"><ele>56.66666666666667</ele><time>2026-04-17T08:41:57.096Z</time></trkpt><trkpt lat="44.4575683" lon="11.4417433"><ele>56.0</ele><time>2026-04-17T08:41:58.096Z</time></trkpt><trkpt lat="44.457535" lon="11.4418517"><ele>56.00000000000001</ele><time>2026-04-17T08:41:59.096Z</time></trkpt><trkpt lat="44.4575" lon="11.4419567"><ele>56.0</ele><time>2026-04-17T08:42:00.096Z</time></trkpt><trkpt lat="44.4574683" lon="11.44206"><ele>56.0</ele><time>2026-04-17T08:42:01.096Z</time></trkpt><trkpt lat="44.4574383" lon="11.4421583"><ele>56.0</ele><time>2026-04-17T08:42:02.097Z</time></trkpt><trkpt lat="44.4574083" lon="11.442255"><ele>56.00000000000001</ele><time>2026-04-17T08:42:03.097Z</time></trkpt><trkpt lat="44.4573783" lon="11.44235"><ele>56.0</ele><time>2026-04-17T08:42:04.097Z</time></trkpt><trkpt lat="44.457345" lon="11.4424467"><ele>56.333333333333336</ele><time>2026-04-17T08:42:05.096Z</time></trkpt><trkpt lat="44.4573083" lon="11.442545"><ele>56.66666666666667</ele><time>2026-04-17T08:42:06.096Z</time></trkpt><trkpt lat="44.457275" lon="11.44264"><ele>57.0</ele><time>2026-04-17T08:42:07.096Z</time></trkpt><trkpt lat="44.4572433" lon="11.44274"><ele>57.33333333333333</ele><time>2026-04-17T08:42:08.096Z</time></trkpt><trkpt lat="44.4572117" lon="11.4428317"><ele>57.666666666666664</ele><time>2026-04-17T08:42:09.097Z</time></trkpt><trkpt lat="44.457185" lon="11.442925"><ele>58.0</ele><time>2026-04-17T08:42:10.096Z</time></trkpt><trkpt lat="44.4571517" lon="11.44302"><ele>58.571428571428584</ele><time>2026-04-17T08:42:11.097Z</time></trkpt><trkpt lat="44.4571133" lon="11.4431133"><ele>59.142857142857146</ele><time>2026-04-17T08:42:12.096Z</time></trkpt><trkpt lat="44.4570783" lon="11.4432033"><ele>59.71428571428572</ele><time>2026-04-17T08:42:13.097Z</time></trkpt><trkpt lat="44.4570483" lon="11.4432917"><ele>60.28571428571429</ele><time>2026-04-17T08:42:14.096Z</time></trkpt><trkpt lat="44.457015" lon="11.44339"><ele>60.85714285714286</ele><time>2026-04-17T08:42:15.096Z</time></trkpt><trkpt lat="44.456985" lon="11.443485"><ele>61.42857142857143</ele><time>2026-04-17T08:42:16.097Z</time></trkpt><trkpt lat="44.4569533" lon="11.44357"><ele>62.0</ele><time>2026-04-17T08:42:17.096Z</time></trkpt><trkpt lat="44.4569233" lon="11.4436567"><ele>62.0</ele><time>2026-04-17T08:42:18.096Z</time></trkpt><trkpt lat="44.4568983" lon="11.44375"><ele>62.0</ele><time>2026-04-17T08:42:19.097Z</time></trkpt><trkpt lat="44.4568633" lon="11.443845"><ele>62.0</ele><time>2026-04-17T08:42:20.096Z</time></trkpt><trkpt lat="44.45682" lon="11.4439633"><ele>62.0</ele><time>2026-04-17T08:42:21.097Z</time></trkpt><trkpt lat="44.4567683" lon="11.444095"><ele>62.0</ele><time>2026-04-17T08:42:22.097Z</time></trkpt><trkpt lat="44.456725" lon="11.444235"><ele>62.0</ele><time>2026-04-17T08:42:23.096Z</time></trkpt><trkpt lat="44.4566783" lon="11.4443717"><ele>62.0</ele><time>2026-04-17T08:42:24.096Z</time></trkpt><trkpt lat="44.4566367" lon="11.4444967"><ele>62.0</ele><time>2026-04-17T08:42:25.096Z</time></trkpt><trkpt lat="44.4565967" lon="11.44461"><ele>62.0</ele><time>2026-04-17T08:42:26.096Z</time></trkpt><trkpt lat="44.45656" lon="11.4447167"><ele>62.0</ele><time>2026-04-17T08:42:27.096Z</time></trkpt><trkpt lat="44.456525" lon="11.4448183"><ele>61.66666666666667</ele><time>2026-04-17T08:42:28.096Z</time></trkpt><trkpt lat="44.4564917" lon="11.4449083"><ele>61.333333333333336</ele><time>2026-04-17T08:42:29.095Z</time></trkpt><trkpt lat="44.4564633" lon="11.4449883"><ele>61.0</ele><time>2026-04-17T08:42:30.095Z</time></trkpt><trkpt lat="44.4564233" lon="11.445115"><ele>60.66666666666667</ele><time>2026-04-17T08:42:32.095Z</time></trkpt><trkpt lat="44.4564033" lon="11.445225"><ele>60.333333333333336</ele><time>2026-04-17T08:42:34.096Z</time></trkpt><trkpt lat="44.4563667" lon="11.4453633"><ele>60.0</ele><time>2026-04-17T08:42:36.096Z</time></trkpt><trkpt lat="44.45634" lon="11.445445"><ele>60.6</ele><time>2026-04-17T08:42:37.095Z</time></trkpt><trkpt lat="44.4562933" lon="11.4456017"><ele>61.2</ele><time>2026-04-17T08:42:39.096Z</time></trkpt><trkpt lat="44.456255" lon="11.445695"><ele>61.8</ele><time>2026-04-17T08:42:41.095Z</time></trkpt><trkpt lat="44.4562067" lon="11.4458083"><ele>62.4</ele><time>2026-04-17T08:42:56.095Z</time></trkpt><trkpt lat="44.4561617" lon="11.445915"><ele>63.0</ele><time>2026-04-17T08:42:57.095Z</time></trkpt><trkpt lat="44.4561167" lon="11.4460517"><ele>63.0</ele><time>2026-04-17T08:42:58.096Z</time></trkpt><trkpt lat="44.456055" lon="11.4462067"><ele>63.0</ele><time>2026-04-17T08:42:59.095Z</time></trkpt><trkpt lat="44.455995" lon="11.4463817"><ele>63.0</ele><time>2026-04-17T08:43:00.095Z</time></trkpt><trkpt lat="44.4559383" lon="11.44656"><ele>63.0</ele><time>2026-04-17T08:43:01.096Z</time></trkpt><trkpt lat="44.4558883" lon="11.4467433"><ele>63.5</ele><time>2026-04-17T08:43:02.096Z</time></trkpt><trkpt lat="44.45583" lon="11.4469267"><ele>64.0</ele><time>2026-04-17T08:43:03.095Z</time></trkpt><trkpt lat="44.4557683" lon="11.4471133"><ele>64.5</ele><time>2026-04-17T08:43:04.096Z</time></trkpt><trkpt lat="44.455705" lon="11.4472967"><ele>65.0</ele><time>2026-04-17T08:43:05.095Z</time></trkpt><trkpt lat="44.455645" lon="11.4474733"><ele>65.0</ele><time>2026-04-17T08:43:06.095Z</time></trkpt><trkpt lat="44.4555883" lon="11.4476483"><ele>65.0</ele><time>2026-04-17T08:43:07.095Z</time></trkpt><trkpt lat="44.4555333" lon="11.4478167"><ele>65.0</ele><time>2026-04-17T08:43:08.095Z</time></trkpt><trkpt lat="44.4554817" lon="11.4479667"><ele>65.0</ele><time>2026-04-17T08:43:09.096Z</time></trkpt><trkpt lat="44.45543" lon="11.44811"><ele>64.8</ele><time>2026-04-17T08:43:10.096Z</time></trkpt><trkpt lat="44.4553867" lon="11.4482433"><ele>64.6</ele><time>2026-04-17T08:43:11.095Z</time></trkpt><trkpt lat="44.4553333" lon="11.44837"><ele>64.4</ele><time>2026-04-17T08:43:12.095Z</time></trkpt><trkpt lat="44.4552767" lon="11.4484833"><ele>64.2</ele><time>2026-04-17T08:43:13.095Z</time></trkpt><trkpt lat="44.4552017" lon="11.4485767"><ele>64.0</ele><time>2026-04-17T08:43:14.096Z</time></trkpt><trkpt lat="44.455105" lon="11.4486183"><ele>64.0</ele><time>2026-04-17T08:43:15.095Z</time></trkpt><trkpt lat="44.45499" lon="11.4486067"><ele>64.0</ele><time>2026-04-17T08:43:16.096Z</time></trkpt><trkpt lat="44.454875" lon="11.4485583"><ele>64.0</ele><time>2026-04-17T08:43:17.095Z</time></trkpt><trkpt lat="44.4547517" lon="11.4484917"><ele>64.0</ele><time>2026-04-17T08:43:18.096Z</time></trkpt><trkpt lat="44.454625" lon="11.4484"><ele>64.66666666666666</ele><time>2026-04-17T08:43:19.095Z</time></trkpt><trkpt lat="44.4544917" lon="11.4483033"><ele>65.33333333333333</ele><time>2026-04-17T08:43:20.096Z</time></trkpt><trkpt lat="44.45436" lon="11.4481933"><ele>66.0</ele><time>2026-04-17T08:43:21.095Z</time></trkpt><trkpt lat="44.454215" lon="11.44809"><ele>66.0</ele><time>2026-04-17T08:43:22.095Z</time></trkpt><trkpt lat="44.454065" lon="11.4479917"><ele>66.0</ele><time>2026-04-17T08:43:23.096Z</time></trkpt><trkpt lat="44.4539167" lon="11.447895"><ele>66.0</ele><time>2026-04-17T08:43:24.095Z</time></trkpt><trkpt lat="44.4537667" lon="11.447795"><ele>66.66666666666667</ele><time>2026-04-17T08:43:25.095Z</time></trkpt><trkpt lat="44.4536117" lon="11.44769"><ele>67.33333333333334</ele><time>2026-04-17T08:43:26.095Z</time></trkpt><trkpt lat="44.45346" lon="11.4475867"><ele>68.0</ele><time>2026-04-17T08:43:27.096Z</time></trkpt><trkpt lat="44.4533083" lon="11.4474883"><ele>68.0</ele><time>2026-04-17T08:43:28.095Z</time></trkpt><trkpt lat="44.4531633" lon="11.4473833"><ele>68.0</ele><time>2026-04-17T08:43:29.095Z</time></trkpt><trkpt lat="44.4530117" lon="11.447275"><ele>68.0</ele><time>2026-04-17T08:43:30.095Z</time></trkpt><trkpt lat="44.4528667" lon="11.4471683"><ele>68.0</ele><time>2026-04-17T08:43:31.095Z</time></trkpt><trkpt lat="44.4527083" lon="11.4470717"><ele>68.0</ele><time>2026-04-17T08:43:32.095Z</time></trkpt><trkpt lat="44.45254" lon="11.4469867"><ele>68.0</ele><time>2026-04-17T08:43:33.095Z</time></trkpt><trkpt lat="44.4523717" lon="11.4469267"><ele>68.0</ele><time>2026-04-17T08:43:34.095Z</time></trkpt><trkpt lat="44.4522" lon="11.446885"><ele>68.0</ele><time>2026-04-17T08:43:35.095Z</time></trkpt><trkpt lat="44.452015" lon="11.4468567"><ele>68.0</ele><time>2026-04-17T08:43:36.096Z</time></trkpt><trkpt lat="44.4518333" lon="11.4468383"><ele>68.0</ele><time>2026-04-17T08:43:37.096Z</time></trkpt><trkpt lat="44.4516517" lon="11.446855"><ele>68.0</ele><time>2026-04-17T08:43:38.095Z</time></trkpt><trkpt lat="44.4514617" lon="11.446875"><ele>68.0</ele><time>2026-04-17T08:43:39.096Z</time></trkpt><trkpt lat="44.451275" lon="11.44689"><ele>67.33333333333334</ele><time>2026-04-17T08:43:40.095Z</time></trkpt><trkpt lat="44.4510933" lon="11.4468967"><ele>66.66666666666667</ele><time>2026-04-17T08:43:41.095Z</time></trkpt><trkpt lat="44.4509133" lon="11.4469117"><ele>66.0</ele><time>2026-04-17T08:43:42.096Z</time></trkpt><trkpt lat="44.45073" lon="11.4469383"><ele>66.0</ele><time>2026-04-17T08:43:43.095Z</time></trkpt><trkpt lat="44.4505483" lon="11.4469533"><ele>66.0</ele><time>2026-04-17T08:43:44.095Z</time></trkpt><trkpt lat="44.4503683" lon="11.446965"><ele>66.0</ele><time>2026-04-17T08:43:45.096Z</time></trkpt><trkpt lat="44.4501883" lon="11.4469717"><ele>66.0</ele><time>2026-04-17T08:43:46.096Z</time></trkpt><trkpt lat="44.450005" lon="11.44698"><ele>66.0</ele><time>2026-04-17T08:43:47.095Z</time></trkpt><trkpt lat="44.4498217" lon="11.446995"><ele>66.0</ele><time>2026-04-17T08:43:48.096Z</time></trkpt><trkpt lat="44.4496383" lon="11.44701"><ele>67.33333333333333</ele><time>2026-04-17T08:43:49.095Z</time></trkpt><trkpt lat="44.4494567" lon="11.4470233"><ele>68.66666666666666</ele><time>2026-04-17T08:43:50.096Z</time></trkpt><trkpt lat="44.4492767" lon="11.4470317"><ele>70.0</ele><time>2026-04-17T08:43:51.095Z</time></trkpt><trkpt lat="44.4490967" lon="11.44705"><ele>70.0</ele><time>2026-04-17T08:43:52.096Z</time></trkpt><trkpt lat="44.4489167" lon="11.4470667"><ele>70.0</ele><time>2026-04-17T08:43:53.096Z</time></trkpt><trkpt lat="44.4487417" lon="11.4470783"><ele>70.0</ele><time>2026-04-17T08:43:54.095Z</time></trkpt><trkpt lat="44.44856" lon="11.4470983"><ele>70.0</ele><time>2026-04-17T08:43:55.095Z</time></trkpt><trkpt lat="44.448375" lon="11.4471233"><ele>70.0</ele><time>2026-04-17T08:43:56.096Z</time></trkpt><trkpt lat="44.4481917" lon="11.4471383"><ele>70.0</ele><time>2026-04-17T08:43:57.096Z</time></trkpt><trkpt lat="44.4480083" lon="11.4471517"><ele>70.66666666666666</ele><time>2026-04-17T08:43:58.095Z</time></trkpt><trkpt lat="44.447825" lon="11.4471717"><ele>71.33333333333333</ele><time>2026-04-17T08:43:59.095Z</time></trkpt><trkpt lat="44.4476433" lon="11.4471883"><ele>72.0</ele><time>2026-04-17T08:44:00.096Z</time></trkpt><trkpt lat="44.4474517" lon="11.4472083"><ele>72.0</ele><time>2026-04-17T08:44:01.095Z</time></trkpt><trkpt lat="44.4472683" lon="11.447225"><ele>72.0</ele><time>2026-04-17T08:44:02.095Z</time></trkpt><trkpt lat="44.4470883" lon="11.4472467"><ele>72.0</ele><time>2026-04-17T08:44:03.096Z</time></trkpt><trkpt lat="44.446905" lon="11.447255"><ele>72.33333333333333</ele><time>2026-04-17T08:44:04.095Z</time></trkpt><trkpt lat="44.4467233" lon="11.4472767"><ele>72.66666666666666</ele><time>2026-04-17T08:44:05.096Z</time></trkpt><trkpt lat="44.4465433" lon="11.4473033"><ele>73.0</ele><time>2026-04-17T08:44:06.095Z</time></trkpt><trkpt lat="44.446375" lon="11.4473233"><ele>73.33333333333333</ele><time>2026-04-17T08:44:07.096Z</time></trkpt><trkpt lat="44.44621" lon="11.4473483"><ele>73.66666666666667</ele><time>2026-04-17T08:44:08.095Z</time></trkpt><trkpt lat="44.4460367" lon="11.44736"><ele>74.0</ele><time>2026-04-17T08:44:09.095Z</time></trkpt><trkpt lat="44.445875" lon="11.4473567"><ele>74.0</ele><time>2026-04-17T08:44:10.095Z</time></trkpt><trkpt lat="44.4457133" lon="11.447325"><ele>74.0</ele><time>2026-04-17T08:44:11.096Z</time></trkpt><trkpt lat="44.4455533" lon="11.44727"><ele>74.0</ele><time>2026-04-17T08:44:12.095Z</time></trkpt><trkpt lat="44.4454" lon="11.4471983"><ele>74.5</ele><time>2026-04-17T08:44:13.095Z</time></trkpt><trkpt lat="44.4452533" lon="11.4471333"><ele>75.0</ele><time>2026-04-17T08:44:14.095Z</time></trkpt><trkpt lat="44.4451133" lon="11.447075"><ele>75.5</ele><time>2026-04-17T08:44:15.095Z</time></trkpt><trkpt lat="44.4449833" lon="11.447015"><ele>76.0</ele><time>2026-04-17T08:44:16.095Z</time></trkpt><trkpt lat="44.4448667" lon="11.446965"><ele>75.6</ele><time>2026-04-17T08:44:17.095Z</time></trkpt><trkpt lat="44.4447717" lon="11.4469117"><ele>75.19999999999999</ele><time>2026-04-17T08:44:18.096Z</time></trkpt><trkpt lat="44.444685" lon="11.4468617"><ele>74.80000000000001</ele><time>2026-04-17T08:44:19.095Z</time></trkpt><trkpt lat="44.4446183" lon="11.446785"><ele>74.4</ele><time>2026-04-17T08:44:20.096Z</time></trkpt><trkpt lat="44.444555" lon="11.4466917"><ele>74.0</ele><time>2026-04-17T08:44:21.096Z</time></trkpt><trkpt lat="44.444495" lon="11.446605"><ele>74.0</ele><time>2026-04-17T08:44:22.095Z</time></trkpt><trkpt lat="44.4444283" lon="11.4465433"><ele>74.0</ele><time>2026-04-17T08:44:23.096Z</time></trkpt><trkpt lat="44.44435" lon="11.4465083"><ele>74.0</ele><time>2026-04-17T08:44:24.096Z</time></trkpt><trkpt lat="44.4442683" lon="11.4465017"><ele>74.0</ele><time>2026-04-17T08:44:25.095Z</time></trkpt><trkpt lat="44.4441833" lon="11.4465517"><ele>74.0</ele><time>2026-04-17T08:44:26.095Z</time></trkpt><trkpt lat="44.4441167" lon="11.4466383"><ele>74.0</ele><time>2026-04-17T08:44:27.096Z</time></trkpt><trkpt lat="44.4440767" lon="11.446755"><ele>74.0</ele><time>2026-04-17T08:44:28.095Z</time></trkpt><trkpt lat="44.444055" lon="11.446885"><ele>74.0</ele><time>2026-04-17T08:44:29.096Z</time></trkpt><trkpt lat="44.4440683" lon="11.447035"><ele>74.0</ele><time>2026-04-17T08:44:30.095Z</time></trkpt><trkpt lat="44.4440767" lon="11.4472"><ele>74.0</ele><time>2026-04-17T08:44:31.095Z</time></trkpt><trkpt lat="44.4440667" lon="11.4473767"><ele>74.0</ele><time>2026-04-17T08:44:32.095Z</time></trkpt><trkpt lat="44.4440317" lon="11.447555"><ele>74.25</ele><time>2026-04-17T08:44:33.096Z</time></trkpt><trkpt lat="44.4440233" lon="11.4477283"><ele>74.5</ele><time>2026-04-17T08:44:34.095Z</time></trkpt><trkpt lat="44.4440417" lon="11.4478967"><ele>74.75</ele><time>2026-04-17T08:44:35.095Z</time></trkpt><trkpt lat="44.4440783" lon="11.4480633"><ele>75.0</ele><time>2026-04-17T08:44:36.096Z</time></trkpt><trkpt lat="44.44412" lon="11.4482333"><ele>75.0</ele><time>2026-04-17T08:44:37.095Z</time></trkpt><trkpt lat="44.4441683" lon="11.44841"><ele>75.0</ele><time>2026-04-17T08:44:38.096Z</time></trkpt><trkpt lat="44.4442133" lon="11.448585"><ele>75.0</ele><time>2026-04-17T08:44:39.095Z</time></trkpt><trkpt lat="44.4442367" lon="11.4487683"><ele>75.0</ele><time>2026-04-17T08:44:40.095Z</time></trkpt><trkpt lat="44.4442267" lon="11.4489533"><ele>74.25</ele><time>2026-04-17T08:44:41.096Z</time></trkpt><trkpt lat="44.444185" lon="11.449135"><ele>73.5</ele><time>2026-04-17T08:44:42.096Z</time></trkpt><trkpt lat="44.4441167" lon="11.4493217"><ele>72.75</ele><time>2026-04-17T08:44:43.095Z</time></trkpt><trkpt lat="44.444045" lon="11.4495217"><ele>72.0</ele><time>2026-04-17T08:44:44.095Z</time></trkpt><trkpt lat="44.443975" lon="11.4497167"><ele>72.0</ele><time>2026-04-17T08:44:45.095Z</time></trkpt><trkpt lat="44.4439033" lon="11.4499117"><ele>72.0</ele><time>2026-04-17T08:44:46.096Z</time></trkpt><trkpt lat="44.4438317" lon="11.4501133"><ele>72.0</ele><time>2026-04-17T08:44:47.095Z</time></trkpt><trkpt lat="44.4437617" lon="11.4503083"><ele>72.66666666666667</ele><time>2026-04-17T08:44:48.096Z</time></trkpt><trkpt lat="44.4436867" lon="11.4505017"><ele>73.33333333333334</ele><time>2026-04-17T08:44:49.095Z</time></trkpt><trkpt lat="44.4436133" lon="11.450695"><ele>74.0</ele><time>2026-04-17T08:44:50.095Z</time></trkpt><trkpt lat="44.4435467" lon="11.4508883"><ele>74.0</ele><time>2026-04-17T08:44:51.095Z</time></trkpt><trkpt lat="44.4434783" lon="11.4510717"><ele>74.0</ele><time>2026-04-17T08:44:52.095Z</time></trkpt><trkpt lat="44.4434083" lon="11.4512633"><ele>74.0</ele><time>2026-04-17T08:44:53.096Z</time></trkpt><trkpt lat="44.4433383" lon="11.4514533"><ele>74.5</ele><time>2026-04-17T08:44:54.096Z</time></trkpt><trkpt lat="44.4432733" lon="11.4516433"><ele>75.0</ele><time>2026-04-17T08:44:55.095Z</time></trkpt><trkpt lat="44.4432033" lon="11.45183"><ele>75.5</ele><time>2026-04-17T08:44:56.095Z</time></trkpt><trkpt lat="44.4431383" lon="11.452005"><ele>76.0</ele><time>2026-04-17T08:44:57.095Z</time></trkpt><trkpt lat="44.443075" lon="11.452165"><ele>76.0</ele><time>2026-04-17T08:44:58.095Z</time></trkpt><trkpt lat="44.4430233" lon="11.4523233"><ele>76.0</ele><time>2026-04-17T08:44:59.095Z</time></trkpt><trkpt lat="44.44298" lon="11.4524567"><ele>76.0</ele><time>2026-04-17T08:45:00.095Z</time></trkpt><trkpt lat="44.44294" lon="11.4525667"><ele>76.0</ele><time>2026-04-17T08:45:01.095Z</time></trkpt><trkpt lat="44.442905" lon="11.4526533"><ele>76.0</ele><time>2026-04-17T08:45:02.096Z</time></trkpt><trkpt lat="44.44285" lon="11.4527567"><ele>76.0</ele><time>2026-04-17T08:45:04.096Z</time></trkpt><trkpt lat="44.442765" lon="11.4527467"><ele>76.0</ele><time>2026-04-17T08:45:06.095Z</time></trkpt><trkpt lat="44.4426983" lon="11.452695"><ele>76.0</ele><time>2026-04-17T08:45:07.096Z</time></trkpt><trkpt lat="44.4426117" lon="11.4526133"><ele>76.0</ele><time>2026-04-17T08:45:08.096Z</time></trkpt><trkpt lat="44.442505" lon="11.4525167"><ele>76.0</ele><time>2026-04-17T08:45:09.095Z</time></trkpt><trkpt lat="44.4423967" lon="11.4524167"><ele>76.0</ele><time>2026-04-17T08:45:10.095Z</time></trkpt><trkpt lat="44.442285" lon="11.45232"><ele>76.0</ele><time>2026-04-17T08:45:11.095Z</time></trkpt><trkpt lat="44.4421683" lon="11.4522233"><ele>76.0</ele><time>2026-04-17T08:45:12.095Z</time></trkpt><trkpt lat="44.44205" lon="11.4521217"><ele>76.0</ele><time>2026-04-17T08:45:13.096Z</time></trkpt><trkpt lat="44.4419367" lon="11.4520167"><ele>76.5</ele><time>2026-04-17T08:45:14.096Z</time></trkpt><trkpt lat="44.44182" lon="11.451915"><ele>77.0</ele><time>2026-04-17T08:45:15.095Z</time></trkpt><trkpt lat="44.44171" lon="11.4518167"><ele>77.5</ele><time>2026-04-17T08:45:16.095Z</time></trkpt><trkpt lat="44.4416017" lon="11.4517217"><ele>78.0</ele><time>2026-04-17T08:45:17.095Z</time></trkpt><trkpt lat="44.4415033" lon="11.4516367"><ele>78.0</ele><time>2026-04-17T08:45:18.096Z</time></trkpt><trkpt lat="44.44141" lon="11.451575"><ele>78.0</ele><time>2026-04-17T08:45:19.095Z</time></trkpt><trkpt lat="44.441305" lon="11.4515633"><ele>78.0</ele><time>2026-04-17T08:45:20.096Z</time></trkpt><trkpt lat="44.441205" lon="11.4516133"><ele>78.0</ele><time>2026-04-17T08:45:21.095Z</time></trkpt><trkpt lat="44.4411233" lon="11.45173"><ele>78.0</ele><time>2026-04-17T08:45:22.095Z</time></trkpt><trkpt lat="44.4410567" lon="11.4518917"><ele>77.66666666666667</ele><time>2026-04-17T08:45:23.095Z</time></trkpt><trkpt lat="44.4409967" lon="11.4520883"><ele>77.33333333333334</ele><time>2026-04-17T08:45:24.096Z</time></trkpt><trkpt lat="44.44093" lon="11.4522967"><ele>77.0</ele><time>2026-04-17T08:45:25.095Z</time></trkpt><trkpt lat="44.4408617" lon="11.4525167"><ele>77.0</ele><time>2026-04-17T08:45:26.096Z</time></trkpt><trkpt lat="44.44079" lon="11.45274"><ele>77.0</ele><time>2026-04-17T08:45:27.095Z</time></trkpt><trkpt lat="44.440715" lon="11.4529733"><ele>77.0</ele><time>2026-04-17T08:45:28.096Z</time></trkpt><trkpt lat="44.440635" lon="11.453205"><ele>77.66666666666667</ele><time>2026-04-17T08:45:29.095Z</time></trkpt><trkpt lat="44.4405617" lon="11.4534367"><ele>78.33333333333333</ele><time>2026-04-17T08:45:30.096Z</time></trkpt><trkpt lat="44.4404883" lon="11.453665"><ele>79.0</ele><time>2026-04-17T08:45:31.096Z</time></trkpt><trkpt lat="44.4404117" lon="11.4539017"><ele>80.0</ele><time>2026-04-17T08:45:32.095Z</time></trkpt><trkpt lat="44.4403383" lon="11.454135"><ele>81.0</ele><time>2026-04-17T08:45:33.095Z</time></trkpt><trkpt lat="44.4402733" lon="11.4543767"><ele>82.0</ele><time>2026-04-17T08:45:34.096Z</time></trkpt><trkpt lat="44.4402117" lon="11.4546167"><ele>81.33333333333333</ele><time>2026-04-17T08:45:35.096Z</time></trkpt><trkpt lat="44.4401517" lon="11.454865"><ele>80.66666666666667</ele><time>2026-04-17T08:45:36.096Z</time></trkpt><trkpt lat="44.440095" lon="11.455115"><ele>80.0</ele><time>2026-04-17T08:45:37.096Z</time></trkpt><trkpt lat="44.44004" lon="11.4553633"><ele>80.33333333333334</ele><time>2026-04-17T08:45:38.095Z</time></trkpt><trkpt lat="44.4399817" lon="11.4556067"><ele>80.66666666666667</ele><time>2026-04-17T08:45:39.096Z</time></trkpt><trkpt lat="44.4399183" lon="11.455855"><ele>81.0</ele><time>2026-04-17T08:45:40.096Z</time></trkpt><trkpt lat="44.4398567" lon="11.4560933"><ele>81.33333333333333</ele><time>2026-04-17T08:45:41.096Z</time></trkpt><trkpt lat="44.439795" lon="11.45634"><ele>81.66666666666666</ele><time>2026-04-17T08:45:42.096Z</time></trkpt><trkpt lat="44.439735" lon="11.45659"><ele>82.0</ele><time>2026-04-17T08:45:43.095Z</time></trkpt><trkpt lat="44.4396733" lon="11.456845"><ele>82.33333333333333</ele><time>2026-04-17T08:45:44.095Z</time></trkpt><trkpt lat="44.439615" lon="11.4570933"><ele>82.66666666666667</ele><time>2026-04-17T08:45:45.095Z</time></trkpt><trkpt lat="44.43956" lon="11.4573367"><ele>83.0</ele><time>2026-04-17T08:45:46.094Z</time></trkpt><trkpt lat="44.4395017" lon="11.45758"><ele>83.0</ele><time>2026-04-17T08:45:47.094Z</time></trkpt><trkpt lat="44.4394467" lon="11.4578217"><ele>83.0</ele><time>2026-04-17T08:45:48.094Z</time></trkpt><trkpt lat="44.4393883" lon="11.4580567"><ele>83.0</ele><time>2026-04-17T08:45:49.094Z</time></trkpt><trkpt lat="44.439335" lon="11.45829"><ele>84.0</ele><time>2026-04-17T08:45:50.095Z</time></trkpt><trkpt lat="44.43928" lon="11.4585183"><ele>85.0</ele><time>2026-04-17T08:45:51.094Z</time></trkpt><trkpt lat="44.43923" lon="11.4587517"><ele>86.0</ele><time>2026-04-17T08:45:52.094Z</time></trkpt><trkpt lat="44.4391833" lon="11.45898"><ele>86.0</ele><time>2026-04-17T08:45:53.094Z</time></trkpt><trkpt lat="44.4391183" lon="11.4592067"><ele>86.0</ele><time>2026-04-17T08:45:54.094Z</time></trkpt><trkpt lat="44.4390433" lon="11.459425"><ele>86.0</ele><time>2026-04-17T08:45:55.094Z</time></trkpt><trkpt lat="44.4389633" lon="11.45964"><ele>84.66666666666667</ele><time>2026-04-17T08:45:56.094Z</time></trkpt><trkpt lat="44.43888" lon="11.4598617"><ele>83.33333333333333</ele><time>2026-04-17T08:45:57.095Z</time></trkpt><trkpt lat="44.4387967" lon="11.46008"><ele>82.0</ele><time>2026-04-17T08:45:58.095Z</time></trkpt><trkpt lat="44.4387083" lon="11.46029"><ele>82.33333333333333</ele><time>2026-04-17T08:45:59.094Z</time></trkpt><trkpt lat="44.4386183" lon="11.4604883"><ele>82.66666666666667</ele><time>2026-04-17T08:46:00.094Z</time></trkpt><trkpt lat="44.4385117" lon="11.460675"><ele>83.0</ele><time>2026-04-17T08:46:01.094Z</time></trkpt><trkpt lat="44.43839" lon="11.4608367"><ele>83.0</ele><time>2026-04-17T08:46:02.094Z</time></trkpt><trkpt lat="44.4382583" lon="11.4609983"><ele>83.0</ele><time>2026-04-17T08:46:03.094Z</time></trkpt><trkpt lat="44.43812" lon="11.4611533"><ele>83.0</ele><time>2026-04-17T08:46:04.094Z</time></trkpt><trkpt lat="44.4379783" lon="11.4613083"><ele>82.0</ele><time>2026-04-17T08:46:05.094Z</time></trkpt><trkpt lat="44.4378433" lon="11.4614467"><ele>81.0</ele><time>2026-04-17T08:46:06.095Z</time></trkpt><trkpt lat="44.4377033" lon="11.4615683"><ele>80.0</ele><time>2026-04-17T08:46:07.095Z</time></trkpt><trkpt lat="44.437565" lon="11.4616983"><ele>80.0</ele><time>2026-04-17T08:46:08.094Z</time></trkpt><trkpt lat="44.4374433" lon="11.4618483"><ele>80.0</ele><time>2026-04-17T08:46:09.095Z</time></trkpt><trkpt lat="44.43733" lon="11.46202"><ele>80.0</ele><time>2026-04-17T08:46:10.095Z</time></trkpt><trkpt lat="44.4372317" lon="11.4621983"><ele>79.5</ele><time>2026-04-17T08:46:11.095Z</time></trkpt><trkpt lat="44.4371433" lon="11.462365"><ele>79.0</ele><time>2026-04-17T08:46:12.095Z</time></trkpt><trkpt lat="44.4370733" lon="11.4625283"><ele>78.5</ele><time>2026-04-17T08:46:13.095Z</time></trkpt><trkpt lat="44.4370033" lon="11.4626717"><ele>78.0</ele><time>2026-04-17T08:46:14.095Z</time></trkpt><trkpt lat="44.43694" lon="11.4628017"><ele>79.0</ele><time>2026-04-17T08:46:15.095Z</time></trkpt><trkpt lat="44.4368833" lon="11.4629067"><ele>80.0</ele><time>2026-04-17T08:46:16.094Z</time></trkpt><trkpt lat="44.4368333" lon="11.4630033"><ele>81.0</ele><time>2026-04-17T08:46:17.094Z</time></trkpt><trkpt lat="44.4367883" lon="11.4630783"><ele>82.0</ele><time>2026-04-17T08:46:18.094Z</time></trkpt><trkpt lat="44.4366633" lon="11.46307"><ele>83.0</ele><time>2026-04-17T08:46:20.094Z</time></trkpt><trkpt lat="44.4365967" lon="11.462995"><ele>83.0</ele><time>2026-04-17T08:46:21.094Z</time></trkpt><trkpt lat="44.436535" lon="11.4628833"><ele>83.0</ele><time>2026-04-17T08:46:22.094Z</time></trkpt><trkpt lat="44.4364633" lon="11.462745"><ele>83.0</ele><time>2026-04-17T08:46:23.095Z</time></trkpt><trkpt lat="44.4363917" lon="11.462595"><ele>83.0</ele><time>2026-04-17T08:46:24.095Z</time></trkpt><trkpt lat="44.436315" lon="11.4624383"><ele>84.75</ele><time>2026-04-17T08:46:25.094Z</time></trkpt><trkpt lat="44.4362333" lon="11.462275"><ele>86.5</ele><time>2026-04-17T08:46:26.094Z</time></trkpt><trkpt lat="44.436145" lon="11.4621167"><ele>88.25</ele><time>2026-04-17T08:46:27.095Z</time></trkpt><trkpt lat="44.4360483" lon="11.4619567"><ele>90.0</ele><time>2026-04-17T08:46:28.094Z</time></trkpt><trkpt lat="44.435955" lon="11.46181"><ele>90.25</ele><time>2026-04-17T08:46:29.095Z</time></trkpt><trkpt lat="44.4358417" lon="11.4616717"><ele>90.5</ele><time>2026-04-17T08:46:30.095Z</time></trkpt><trkpt lat="44.435725" lon="11.4615383"><ele>90.75</ele><time>2026-04-17T08:46:31.094Z</time></trkpt><trkpt lat="44.4356033" lon="11.4614267"><ele>91.0</ele><time>2026-04-17T08:46:32.094Z</time></trkpt><trkpt lat="44.435485" lon="11.461315"><ele>92.5</ele><time>2026-04-17T08:46:33.095Z</time></trkpt><trkpt lat="44.4353667" lon="11.46119"><ele>94.0</ele><time>2026-04-17T08:46:34.095Z</time></trkpt><trkpt lat="44.435255" lon="11.4610533"><ele>95.5</ele><time>2026-04-17T08:46:35.094Z</time></trkpt><trkpt lat="44.4351517" lon="11.4609117"><ele>97.0</ele><time>2026-04-17T08:46:36.094Z</time></trkpt><trkpt lat="44.43505" lon="11.4607583"><ele>97.0</ele><time>2026-04-17T08:46:37.094Z</time></trkpt><trkpt lat="44.4349433" lon="11.4606117"><ele>97.0</ele><time>2026-04-17T08:46:38.095Z</time></trkpt><trkpt lat="44.43484" lon="11.4604617"><ele>97.0</ele><time>2026-04-17T08:46:39.094Z</time></trkpt><trkpt lat="44.4347333" lon="11.4603217"><ele>97.0</ele><time>2026-04-17T08:46:40.094Z</time></trkpt><trkpt lat="44.4346267" lon="11.460175"><ele>99.5</ele><time>2026-04-17T08:46:41.094Z</time></trkpt><trkpt lat="44.434515" lon="11.460025"><ele>102.0</ele><time>2026-04-17T08:46:42.094Z</time></trkpt><trkpt lat="44.4344083" lon="11.459885"><ele>104.5</ele><time>2026-04-17T08:46:43.094Z</time></trkpt><trkpt lat="44.43431" lon="11.4597483"><ele>107.0</ele><time>2026-04-17T08:46:44.094Z</time></trkpt><trkpt lat="44.434205" lon="11.4596183"><ele>107.5</ele><time>2026-04-17T08:46:45.095Z</time></trkpt><trkpt lat="44.43409" lon="11.4595"><ele>108.0</ele><time>2026-04-17T08:46:46.094Z</time></trkpt><trkpt lat="44.4339633" lon="11.4593867"><ele>108.5</ele><time>2026-04-17T08:46:47.094Z</time></trkpt><trkpt lat="44.43384" lon="11.4592683"><ele>109.0</ele><time>2026-04-17T08:46:48.094Z</time></trkpt><trkpt lat="44.4337033" lon="11.4591583"><ele>110.0</ele><time>2026-04-17T08:46:49.094Z</time></trkpt><trkpt lat="44.4335717" lon="11.45904"><ele>111.0</ele><time>2026-04-17T08:46:50.094Z</time></trkpt><trkpt lat="44.433435" lon="11.4589233"><ele>112.0</ele><time>2026-04-17T08:46:51.095Z</time></trkpt><trkpt lat="44.4332933" lon="11.4588117"><ele>112.66666666666667</ele><time>2026-04-17T08:46:52.094Z</time></trkpt><trkpt lat="44.43315" lon="11.4587"><ele>113.33333333333334</ele><time>2026-04-17T08:46:53.094Z</time></trkpt><trkpt lat="44.43301" lon="11.45859"><ele>114.0</ele><time>2026-04-17T08:46:54.095Z</time></trkpt><trkpt lat="44.432865" lon="11.4584833"><ele>114.33333333333334</ele><time>2026-04-17T08:46:55.095Z</time></trkpt><trkpt lat="44.4327217" lon="11.45837"><ele>114.66666666666667</ele><time>2026-04-17T08:46:56.095Z</time></trkpt><trkpt lat="44.43258" lon="11.4582483"><ele>115.0</ele><time>2026-04-17T08:46:57.095Z</time></trkpt><trkpt lat="44.4324317" lon="11.45813"><ele>115.0</ele><time>2026-04-17T08:46:58.094Z</time></trkpt><trkpt lat="44.4322817" lon="11.4580133"><ele>115.0</ele><time>2026-04-17T08:46:59.094Z</time></trkpt><trkpt lat="44.4321333" lon="11.4578933"><ele>115.0</ele><time>2026-04-17T08:47:00.094Z</time></trkpt><trkpt lat="44.4319767" lon="11.4577683"><ele>116.0</ele><time>2026-04-17T08:47:01.094Z</time></trkpt><trkpt lat="44.4318267" lon="11.4576483"><ele>117.0</ele><time>2026-04-17T08:47:02.095Z</time></trkpt><trkpt lat="44.4316783" lon="11.4575283"><ele>118.0</ele><time>2026-04-17T08:47:03.095Z</time></trkpt><trkpt lat="44.431525" lon="11.45741"><ele>118.0</ele><time>2026-04-17T08:47:04.094Z</time></trkpt><trkpt lat="44.4313767" lon="11.45729"><ele>118.0</ele><time>2026-04-17T08:47:05.094Z</time></trkpt><trkpt lat="44.431225" lon="11.4571717"><ele>118.0</ele><time>2026-04-17T08:47:06.094Z</time></trkpt><trkpt lat="44.4310817" lon="11.4570417"><ele>118.66666666666667</ele><time>2026-04-17T08:47:07.094Z</time></trkpt><trkpt lat="44.430935" lon="11.4569217"><ele>119.33333333333334</ele><time>2026-04-17T08:47:08.094Z</time></trkpt><trkpt lat="44.4307933" lon="11.4568017"><ele>120.0</ele><time>2026-04-17T08:47:09.094Z</time></trkpt><trkpt lat="44.4306433" lon="11.4566833"><ele>120.0</ele><time>2026-04-17T08:47:10.094Z</time></trkpt><trkpt lat="44.4305033" lon="11.456555"><ele>120.0</ele><time>2026-04-17T08:47:11.094Z</time></trkpt><trkpt lat="44.4303633" lon="11.4564333"><ele>120.0</ele><time>2026-04-17T08:47:12.095Z</time></trkpt><trkpt lat="44.430225" lon="11.4563017"><ele>123.0</ele><time>2026-04-17T08:47:13.094Z</time></trkpt><trkpt lat="44.4300967" lon="11.4561667"><ele>126.0</ele><time>2026-04-17T08:47:14.094Z</time></trkpt><trkpt lat="44.4299667" lon="11.45604"><ele>129.0</ele><time>2026-04-17T08:47:15.094Z</time></trkpt><trkpt lat="44.4298317" lon="11.4559133"><ele>129.0</ele><time>2026-04-17T08:47:16.094Z</time></trkpt><trkpt lat="44.4296983" lon="11.4557983"><ele>129.0</ele><time>2026-04-17T08:47:17.094Z</time></trkpt><trkpt lat="44.42957" lon="11.4556883"><ele>129.0</ele><time>2026-04-17T08:47:18.094Z</time></trkpt><trkpt lat="44.4294583" lon="11.4556017"><ele>129.0</ele><time>2026-04-17T08:47:19.094Z</time></trkpt><trkpt lat="44.42934" lon="11.4555417"><ele>131.75</ele><time>2026-04-17T08:47:20.095Z</time></trkpt><trkpt lat="44.4292133" lon="11.4555267"><ele>134.5</ele><time>2026-04-17T08:47:21.095Z</time></trkpt><trkpt lat="44.4290733" lon="11.4555583"><ele>137.25</ele><time>2026-04-17T08:47:22.094Z</time></trkpt><trkpt lat="44.4289317" lon="11.45561"><ele>140.0</ele><time>2026-04-17T08:47:23.094Z</time></trkpt><trkpt lat="44.4287867" lon="11.4556517"><ele>140.5</ele><time>2026-04-17T08:47:24.094Z</time></trkpt><trkpt lat="44.428645" lon="11.4556517"><ele>141.0</ele><time>2026-04-17T08:47:25.094Z</time></trkpt><trkpt lat="44.4285033" lon="11.4556117"><ele>141.5</ele><time>2026-04-17T08:47:26.094Z</time></trkpt><trkpt lat="44.4283567" lon="11.4555533"><ele>142.0</ele><time>2026-04-17T08:47:27.094Z</time></trkpt><trkpt lat="44.4282017" lon="11.45549"><ele>142.25</ele><time>2026-04-17T08:47:28.094Z</time></trkpt><trkpt lat="44.42805" lon="11.455425"><ele>142.5</ele><time>2026-04-17T08:47:29.094Z</time></trkpt><trkpt lat="44.4279083" lon="11.4553633"><ele>142.75</ele><time>2026-04-17T08:47:30.094Z</time></trkpt><trkpt lat="44.4277783" lon="11.45531"><ele>143.0</ele><time>2026-04-17T08:47:31.094Z</time></trkpt><trkpt lat="44.4276533" lon="11.4552633"><ele>143.6</ele><time>2026-04-17T08:47:32.095Z</time></trkpt><trkpt lat="44.4275417" lon="11.4552267"><ele>144.20000000000002</ele><time>2026-04-17T08:47:33.094Z</time></trkpt><trkpt lat="44.4274417" lon="11.4551917"><ele>144.8</ele><time>2026-04-17T08:47:34.095Z</time></trkpt><trkpt lat="44.4273483" lon="11.4551567"><ele>145.4</ele><time>2026-04-17T08:47:35.094Z</time></trkpt><trkpt lat="44.4272517" lon="11.4551267"><ele>146.0</ele><time>2026-04-17T08:47:36.095Z</time></trkpt><trkpt lat="44.4271483" lon="11.4550983"><ele>146.75</ele><time>2026-04-17T08:47:37.095Z</time></trkpt><trkpt lat="44.427035" lon="11.4550567"><ele>147.5</ele><time>2026-04-17T08:47:38.094Z</time></trkpt><trkpt lat="44.4269217" lon="11.4550133"><ele>148.25</ele><time>2026-04-17T08:47:39.095Z</time></trkpt><trkpt lat="44.426805" lon="11.45496"><ele>149.0</ele><time>2026-04-17T08:47:40.095Z</time></trkpt><trkpt lat="44.4266883" lon="11.454885"><ele>149.0</ele><time>2026-04-17T08:47:41.094Z</time></trkpt><trkpt lat="44.426575" lon="11.454785"><ele>149.0</ele><time>2026-04-17T08:47:42.094Z</time></trkpt><trkpt lat="44.4264617" lon="11.454685"><ele>149.0</ele><time>2026-04-17T08:47:43.095Z</time></trkpt><trkpt lat="44.426345" lon="11.4545967"><ele>149.0</ele><time>2026-04-17T08:47:44.095Z</time></trkpt><trkpt lat="44.4262183" lon="11.4545333"><ele>149.5</ele><time>2026-04-17T08:47:45.094Z</time></trkpt><trkpt lat="44.426085" lon="11.45449"><ele>150.0</ele><time>2026-04-17T08:47:46.094Z</time></trkpt><trkpt lat="44.4259417" lon="11.454465"><ele>150.5</ele><time>2026-04-17T08:47:47.094Z</time></trkpt><trkpt lat="44.4257967" lon="11.4544383"><ele>151.0</ele><time>2026-04-17T08:47:48.095Z</time></trkpt><trkpt lat="44.4256567" lon="11.4544117"><ele>151.0</ele><time>2026-04-17T08:47:49.095Z</time></trkpt><trkpt lat="44.425515" lon="11.454405"><ele>151.0</ele><time>2026-04-17T08:47:50.094Z</time></trkpt><trkpt lat="44.4253783" lon="11.4543917"><ele>151.0</ele><time>2026-04-17T08:47:51.094Z</time></trkpt><trkpt lat="44.42525" lon="11.4543783"><ele>151.0</ele><time>2026-04-17T08:47:52.095Z</time></trkpt><trkpt lat="44.4251233" lon="11.4543767"><ele>153.25</ele><time>2026-04-17T08:47:53.094Z</time></trkpt><trkpt lat="44.4249967" lon="11.4543733"><ele>155.5</ele><time>2026-04-17T08:47:54.094Z</time></trkpt><trkpt lat="44.42487" lon="11.4543717"><ele>157.75</ele><time>2026-04-17T08:47:55.095Z</time></trkpt><trkpt lat="44.4247533" lon="11.4543583"><ele>160.0</ele><time>2026-04-17T08:47:56.094Z</time></trkpt><trkpt lat="44.4246433" lon="11.4543433"><ele>163.4</ele><time>2026-04-17T08:47:57.094Z</time></trkpt><trkpt lat="44.424555" lon="11.4543583"><ele>166.8</ele><time>2026-04-17T08:47:58.094Z</time></trkpt><trkpt lat="44.4244583" lon="11.4543917"><ele>170.2</ele><time>2026-04-17T08:47:59.094Z</time></trkpt><trkpt lat="44.4243683" lon="11.4544517"><ele>173.6</ele><time>2026-04-17T08:48:00.094Z</time></trkpt><trkpt lat="44.4242833" lon="11.4545483"><ele>177.0</ele><time>2026-04-17T08:48:01.095Z</time></trkpt><trkpt lat="44.4242017" lon="11.4546667"><ele>177.5</ele><time>2026-04-17T08:48:02.095Z</time></trkpt><trkpt lat="44.4241133" lon="11.4548067"><ele>178.0</ele><time>2026-04-17T08:48:03.094Z</time></trkpt><trkpt lat="44.4240333" lon="11.4549433"><ele>178.5</ele><time>2026-04-17T08:48:04.094Z</time></trkpt><trkpt lat="44.4239617" lon="11.4550817"><ele>179.0</ele><time>2026-04-17T08:48:05.094Z</time></trkpt><trkpt lat="44.4239117" lon="11.45522"><ele>179.0</ele><time>2026-04-17T08:48:06.094Z</time></trkpt><trkpt lat="44.42387" lon="11.455365"><ele>179.0</ele><time>2026-04-17T08:48:07.094Z</time></trkpt><trkpt lat="44.423825" lon="11.45552"><ele>179.0</ele><time>2026-04-17T08:48:08.095Z</time></trkpt><trkpt lat="44.4237617" lon="11.4556683"><ele>179.0</ele><time>2026-04-17T08:48:09.094Z</time></trkpt><trkpt lat="44.423675" lon="11.4558233"><ele>178.25</ele><time>2026-04-17T08:48:10.095Z</time></trkpt><trkpt lat="44.42359" lon="11.455975"><ele>177.5</ele><time>2026-04-17T08:48:11.095Z</time></trkpt><trkpt lat="44.4235" lon="11.4561067"><ele>176.75</ele><time>2026-04-17T08:48:12.094Z</time></trkpt><trkpt lat="44.4234117" lon="11.4562417"><ele>176.0</ele><time>2026-04-17T08:48:13.095Z</time></trkpt><trkpt lat="44.4233267" lon="11.45636"><ele>176.0</ele><time>2026-04-17T08:48:14.095Z</time></trkpt><trkpt lat="44.4232417" lon="11.4564783"><ele>176.0</ele><time>2026-04-17T08:48:15.094Z</time></trkpt><trkpt lat="44.4231583" lon="11.4566017"><ele>176.0</ele><time>2026-04-17T08:48:16.094Z</time></trkpt><trkpt lat="44.4230783" lon="11.45673"><ele>176.0</ele><time>2026-04-17T08:48:17.094Z</time></trkpt><trkpt lat="44.423" lon="11.4568517"><ele>177.25</ele><time>2026-04-17T08:48:18.094Z</time></trkpt><trkpt lat="44.4229183" lon="11.4569733"><ele>178.5</ele><time>2026-04-17T08:48:19.094Z</time></trkpt><trkpt lat="44.42283" lon="11.4570967"><ele>179.75</ele><time>2026-04-17T08:48:20.094Z</time></trkpt><trkpt lat="44.4227383" lon="11.45723"><ele>181.0</ele><time>2026-04-17T08:48:21.094Z</time></trkpt><trkpt lat="44.4226467" lon="11.457355"><ele>181.0</ele><time>2026-04-17T08:48:22.094Z</time></trkpt><trkpt lat="44.4225483" lon="11.4574983"><ele>181.0</ele><time>2026-04-17T08:48:23.094Z</time></trkpt><trkpt lat="44.4224417" lon="11.457635"><ele>181.0</ele><time>2026-04-17T08:48:24.094Z</time></trkpt><trkpt lat="44.4223433" lon="11.4577683"><ele>181.0</ele><time>2026-04-17T08:48:25.095Z</time></trkpt><trkpt lat="44.4222467" lon="11.4578917"><ele>180.0</ele><time>2026-04-17T08:48:26.094Z</time></trkpt><trkpt lat="44.4221567" lon="11.4580233"><ele>179.0</ele><time>2026-04-17T08:48:27.095Z</time></trkpt><trkpt lat="44.4220767" lon="11.4581383"><ele>178.0</ele><time>2026-04-17T08:48:28.095Z</time></trkpt><trkpt lat="44.422005" lon="11.458245"><ele>177.0</ele><time>2026-04-17T08:48:29.095Z</time></trkpt><trkpt lat="44.42195" lon="11.458325"><ele>176.0</ele><time>2026-04-17T08:48:30.094Z</time></trkpt><trkpt lat="44.4218633" lon="11.458385"><ele>178.0</ele><time>2026-04-17T08:48:32.094Z</time></trkpt><trkpt lat="44.421775" lon="11.4583233"><ele>180.0</ele><time>2026-04-17T08:48:34.095Z</time></trkpt><trkpt lat="44.4217317" lon="11.4582383"><ele>182.0</ele><time>2026-04-17T08:48:35.095Z</time></trkpt><trkpt lat="44.42169" lon="11.45814"><ele>184.0</ele><time>2026-04-17T08:48:36.095Z</time></trkpt><trkpt lat="44.4216733" lon="11.4580267"><ele>186.0</ele><time>2026-04-17T08:48:37.094Z</time></trkpt><trkpt lat="44.4217" lon="11.4578933"><ele>188.0</ele><time>2026-04-17T08:48:38.094Z</time></trkpt><trkpt lat="44.421755" lon="11.4577467"><ele>192.25</ele><time>2026-04-17T08:48:39.095Z</time></trkpt><trkpt lat="44.421815" lon="11.4575917"><ele>196.5</ele><time>2026-04-17T08:48:40.095Z</time></trkpt><trkpt lat="44.4218817" lon="11.45741"><ele>200.75</ele><time>2026-04-17T08:48:41.095Z</time></trkpt><trkpt lat="44.4219417" lon="11.4572183"><ele>205.0</ele><time>2026-04-17T08:48:42.094Z</time></trkpt><trkpt lat="44.421985" lon="11.457025"><ele>209.0</ele><time>2026-04-17T08:48:43.095Z</time></trkpt><trkpt lat="44.4220217" lon="11.4568383"><ele>213.0</ele><time>2026-04-17T08:48:44.094Z</time></trkpt><trkpt lat="44.42206" lon="11.4566567"><ele>217.0</ele><time>2026-04-17T08:48:45.094Z</time></trkpt><trkpt lat="44.422085" lon="11.4564933"><ele>221.0</ele><time>2026-04-17T08:48:46.094Z</time></trkpt><trkpt lat="44.4221233" lon="11.45633"><ele>220.33333333333334</ele><time>2026-04-17T08:48:47.094Z</time></trkpt><trkpt lat="44.422175" lon="11.4562"><ele>219.66666666666669</ele><time>2026-04-17T08:48:48.094Z</time></trkpt><trkpt lat="44.4222233" lon="11.4560933"><ele>219.0</ele><time>2026-04-17T08:48:49.095Z</time></trkpt><trkpt lat="44.4222517" lon="11.4559967"><ele>218.33333333333331</ele><time>2026-04-17T08:48:50.094Z</time></trkpt><trkpt lat="44.4222233" lon="11.4559117"><ele>217.66666666666666</ele><time>2026-04-17T08:48:52.094Z</time></trkpt><trkpt lat="44.4221517" lon="11.45594"><ele>217.0</ele><time>2026-04-17T08:48:53.094Z</time></trkpt><trkpt lat="44.4220817" lon="11.45599"><ele>218.0</ele><time>2026-04-17T08:48:54.094Z</time></trkpt><trkpt lat="44.4219967" lon="11.4560633"><ele>219.0</ele><time>2026-04-17T08:48:55.094Z</time></trkpt><trkpt lat="44.4219" lon="11.45616"><ele>220.0</ele><time>2026-04-17T08:48:56.094Z</time></trkpt><trkpt lat="44.4217917" lon="11.4562617"><ele>221.0</ele><time>2026-04-17T08:48:57.094Z</time></trkpt><trkpt lat="44.4217017" lon="11.4563833"><ele>221.0</ele><time>2026-04-17T08:48:58.095Z</time></trkpt><trkpt lat="44.4216217" lon="11.45653"><ele>221.0</ele><time>2026-04-17T08:48:59.094Z</time></trkpt><trkpt lat="44.421545" lon="11.4566833"><ele>221.0</ele><time>2026-04-17T08:49:00.094Z</time></trkpt><trkpt lat="44.42147" lon="11.456825"><ele>221.0</ele><time>2026-04-17T08:49:01.094Z</time></trkpt><trkpt lat="44.421405" lon="11.45694"><ele>221.0</ele><time>2026-04-17T08:49:02.094Z</time></trkpt><trkpt lat="44.4213383" lon="11.4570383"><ele>221.00000000000003</ele><time>2026-04-17T08:49:03.094Z</time></trkpt><trkpt lat="44.4212633" lon="11.4571067"><ele>221.00000000000003</ele><time>2026-04-17T08:49:04.095Z</time></trkpt><trkpt lat="44.42117" lon="11.4571317"><ele>221.0</ele><time>2026-04-17T08:49:05.094Z</time></trkpt><trkpt lat="44.4210567" lon="11.457095"><ele>221.0</ele><time>2026-04-17T08:49:06.094Z</time></trkpt><trkpt lat="44.4209417" lon="11.4570367"><ele>224.5</ele><time>2026-04-17T08:49:07.095Z</time></trkpt><trkpt lat="44.4208367" lon="11.456955"><ele>228.0</ele><time>2026-04-17T08:49:08.094Z</time></trkpt><trkpt lat="44.4207383" lon="11.4568783"><ele>231.5</ele><time>2026-04-17T08:49:09.094Z</time></trkpt><trkpt lat="44.4206417" lon="11.4567983"><ele>235.0</ele><time>2026-04-17T08:49:10.094Z</time></trkpt><trkpt lat="44.4205533" lon="11.4566983"><ele>233.0</ele><time>2026-04-17T08:49:11.094Z</time></trkpt><trkpt lat="44.4204817" lon="11.4565917"><ele>231.0</ele><time>2026-04-17T08:49:12.094Z</time></trkpt><trkpt lat="44.42042" lon="11.45646"><ele>229.0</ele><time>2026-04-17T08:49:13.095Z</time></trkpt><trkpt lat="44.4203517" lon="11.4563383"><ele>227.0</ele><time>2026-04-17T08:49:14.094Z</time></trkpt><trkpt lat="44.4202817" lon="11.4562317"><ele>225.0</ele><time>2026-04-17T08:49:15.094Z</time></trkpt><trkpt lat="44.4202067" lon="11.4561417"><ele>232.25</ele><time>2026-04-17T08:49:16.094Z</time></trkpt><trkpt lat="44.4201133" lon="11.456065"><ele>239.5</ele><time>2026-04-17T08:49:17.095Z</time></trkpt><trkpt lat="44.4199983" lon="11.4560067"><ele>246.75</ele><time>2026-04-17T08:49:18.095Z</time></trkpt><trkpt lat="44.4198883" lon="11.4559667"><ele>254.0</ele><time>2026-04-17T08:49:19.095Z</time></trkpt><trkpt lat="44.4197783" lon="11.455905"><ele>254.0</ele><time>2026-04-17T08:49:20.094Z</time></trkpt><trkpt lat="44.4196783" lon="11.4558233"><ele>254.0</ele><time>2026-04-17T08:49:21.094Z</time></trkpt><trkpt lat="44.4195783" lon="11.45573"><ele>254.0</ele><time>2026-04-17T08:49:22.094Z</time></trkpt><trkpt lat="44.41949" lon="11.4556267"><ele>254.0</ele><time>2026-04-17T08:49:23.094Z</time></trkpt><trkpt lat="44.4194" lon="11.45553"><ele>258.25</ele><time>2026-04-17T08:49:24.095Z</time></trkpt><trkpt lat="44.4193167" lon="11.455435"><ele>262.5</ele><time>2026-04-17T08:49:25.095Z</time></trkpt><trkpt lat="44.4192283" lon="11.455345"><ele>266.75</ele><time>2026-04-17T08:49:26.094Z</time></trkpt><trkpt lat="44.4191267" lon="11.4552717"><ele>271.0</ele><time>2026-04-17T08:49:27.095Z</time></trkpt><trkpt lat="44.4190167" lon="11.455205"><ele>271.0</ele><time>2026-04-17T08:49:28.094Z</time></trkpt><trkpt lat="44.418905" lon="11.4551567"><ele>271.0</ele><time>2026-04-17T08:49:29.094Z</time></trkpt><trkpt lat="44.4187833" lon="11.4551083"><ele>271.0</ele><time>2026-04-17T08:49:30.095Z</time></trkpt><trkpt lat="44.4186667" lon="11.455035"><ele>271.0</ele><time>2026-04-17T08:49:31.094Z</time></trkpt><trkpt lat="44.418565" lon="11.4549583"><ele>269.6</ele><time>2026-04-17T08:49:32.094Z</time></trkpt><trkpt lat="44.4184733" lon="11.4548783"><ele>268.20000000000005</ele><time>2026-04-17T08:49:33.094Z</time></trkpt><trkpt lat="44.41839" lon="11.454805"><ele>266.79999999999995</ele><time>2026-04-17T08:49:34.094Z</time></trkpt><trkpt lat="44.41832" lon="11.4547467"><ele>265.4</ele><time>2026-04-17T08:49:35.094Z</time></trkpt><trkpt lat="44.418255" lon="11.4546667"><ele>264.0</ele><time>2026-04-17T08:49:36.094Z</time></trkpt><trkpt lat="44.4182" lon="11.4545383"><ele>266.8</ele><time>2026-04-17T08:49:37.095Z</time></trkpt><trkpt lat="44.4181667" lon="11.454385"><ele>269.59999999999997</ele><time>2026-04-17T08:49:38.094Z</time></trkpt><trkpt lat="44.418135" lon="11.4542333"><ele>272.4</ele><time>2026-04-17T08:49:39.095Z</time></trkpt><trkpt lat="44.41811" lon="11.4540933"><ele>275.2</ele><time>2026-04-17T08:49:40.094Z</time></trkpt><trkpt lat="44.4180817" lon="11.4539617"><ele>278.0</ele><time>2026-04-17T08:49:41.094Z</time></trkpt><trkpt lat="44.418035" lon="11.4538433"><ele>279.2</ele><time>2026-04-17T08:49:42.095Z</time></trkpt><trkpt lat="44.4179767" lon="11.453735"><ele>280.4</ele><time>2026-04-17T08:49:43.095Z</time></trkpt><trkpt lat="44.41791" lon="11.4536567"><ele>281.59999999999997</ele><time>2026-04-17T08:49:44.094Z</time></trkpt><trkpt lat="44.417835" lon="11.45358"><ele>282.8</ele><time>2026-04-17T08:49:45.095Z</time></trkpt><trkpt lat="44.4177167" lon="11.45354"><ele>284.0</ele><time>2026-04-17T08:49:46.094Z</time></trkpt><trkpt lat="44.4175817" lon="11.4535"><ele>284.0</ele><time>2026-04-17T08:49:47.093Z</time></trkpt><trkpt lat="44.4174483" lon="11.4534533"><ele>284.0</ele><time>2026-04-17T08:49:48.093Z</time></trkpt><trkpt lat="44.4173017" lon="11.4533983"><ele>284.0</ele><time>2026-04-17T08:49:49.094Z</time></trkpt><trkpt lat="44.4171667" lon="11.4533467"><ele>284.0</ele><time>2026-04-17T08:49:50.093Z</time></trkpt><trkpt lat="44.4170283" lon="11.4533083"><ele>283.5</ele><time>2026-04-17T08:49:51.093Z</time></trkpt><trkpt lat="44.416905" lon="11.4532633"><ele>283.0</ele><time>2026-04-17T08:49:52.094Z</time></trkpt><trkpt lat="44.41679" lon="11.4532233"><ele>282.5</ele><time>2026-04-17T08:49:53.094Z</time></trkpt><trkpt lat="44.4166683" lon="11.4531867"><ele>282.0</ele><time>2026-04-17T08:49:54.093Z</time></trkpt><trkpt lat="44.41655" lon="11.45312"><ele>282.0</ele><time>2026-04-17T08:49:55.094Z</time></trkpt><trkpt lat="44.4164267" lon="11.45303"><ele>282.0</ele><time>2026-04-17T08:49:56.093Z</time></trkpt><trkpt lat="44.4162983" lon="11.4529467"><ele>282.0</ele><time>2026-04-17T08:49:57.094Z</time></trkpt><trkpt lat="44.41618" lon="11.452865"><ele>282.0</ele><time>2026-04-17T08:49:58.093Z</time></trkpt><trkpt lat="44.4160583" lon="11.45278"><ele>279.75</ele><time>2026-04-17T08:49:59.094Z</time></trkpt><trkpt lat="44.4159383" lon="11.4527017"><ele>277.5</ele><time>2026-04-17T08:50:00.093Z</time></trkpt><trkpt lat="44.4158267" lon="11.4526283"><ele>275.25</ele><time>2026-04-17T08:50:01.093Z</time></trkpt><trkpt lat="44.415725" lon="11.4525517"><ele>273.0</ele><time>2026-04-17T08:50:02.093Z</time></trkpt><trkpt lat="44.4156483" lon="11.4524683"><ele>273.0</ele><time>2026-04-17T08:50:03.094Z</time></trkpt><trkpt lat="44.4155783" lon="11.4523633"><ele>273.0</ele><time>2026-04-17T08:50:04.093Z</time></trkpt><trkpt lat="44.4155217" lon="11.4522317"><ele>273.0</ele><time>2026-04-17T08:50:05.093Z</time></trkpt><trkpt lat="44.415495" lon="11.4520733"><ele>273.0</ele><time>2026-04-17T08:50:06.094Z</time></trkpt><trkpt lat="44.4154767" lon="11.4518867"><ele>274.25</ele><time>2026-04-17T08:50:07.093Z</time></trkpt><trkpt lat="44.4154583" lon="11.45169"><ele>275.5</ele><time>2026-04-17T08:50:08.093Z</time></trkpt><trkpt lat="44.4154467" lon="11.4514967"><ele>276.75</ele><time>2026-04-17T08:50:09.093Z</time></trkpt><trkpt lat="44.4154217" lon="11.4513233"><ele>278.0</ele><time>2026-04-17T08:50:10.094Z</time></trkpt><trkpt lat="44.415385" lon="11.451155"><ele>279.25</ele><time>2026-04-17T08:50:11.093Z</time></trkpt><trkpt lat="44.4153333" lon="11.4510083"><ele>280.5</ele><time>2026-04-17T08:50:12.093Z</time></trkpt><trkpt lat="44.4152717" lon="11.4508733"><ele>281.75</ele><time>2026-04-17T08:50:13.094Z</time></trkpt><trkpt lat="44.4151967" lon="11.450755"><ele>283.0</ele><time>2026-04-17T08:50:14.094Z</time></trkpt><trkpt lat="44.41511" lon="11.4506533"><ele>283.0</ele><time>2026-04-17T08:50:15.093Z</time></trkpt><trkpt lat="44.4150183" lon="11.45055"><ele>283.0</ele><time>2026-04-17T08:50:16.093Z</time></trkpt><trkpt lat="44.4149217" lon="11.450435"><ele>283.0</ele><time>2026-04-17T08:50:17.093Z</time></trkpt><trkpt lat="44.4148217" lon="11.450325"><ele>283.0</ele><time>2026-04-17T08:50:18.094Z</time></trkpt><trkpt lat="44.41472" lon="11.4502033"><ele>282.75</ele><time>2026-04-17T08:50:19.094Z</time></trkpt><trkpt lat="44.41462" lon="11.4500933"><ele>282.5</ele><time>2026-04-17T08:50:20.093Z</time></trkpt><trkpt lat="44.4145167" lon="11.449975"><ele>282.25</ele><time>2026-04-17T08:50:21.094Z</time></trkpt><trkpt lat="44.4144133" lon="11.449865"><ele>282.0</ele><time>2026-04-17T08:50:22.094Z</time></trkpt><trkpt lat="44.41431" lon="11.4497583"><ele>282.0</ele><time>2026-04-17T08:50:23.093Z</time></trkpt><trkpt lat="44.414205" lon="11.4496483"><ele>282.0</ele><time>2026-04-17T08:50:24.094Z</time></trkpt><trkpt lat="44.4141" lon="11.449545"><ele>282.0</ele><time>2026-04-17T08:50:25.093Z</time></trkpt><trkpt lat="44.413995" lon="11.44945"><ele>282.0</ele><time>2026-04-17T08:50:26.093Z</time></trkpt><trkpt lat="44.413885" lon="11.44936"><ele>280.0</ele><time>2026-04-17T08:50:27.093Z</time></trkpt><trkpt lat="44.41378" lon="11.4492733"><ele>278.0</ele><time>2026-04-17T08:50:28.094Z</time></trkpt><trkpt lat="44.4136817" lon="11.4492017"><ele>276.0</ele><time>2026-04-17T08:50:29.093Z</time></trkpt><trkpt lat="44.4135833" lon="11.44914"><ele>274.0</ele><time>2026-04-17T08:50:30.093Z</time></trkpt><trkpt lat="44.413485" lon="11.44909"><ele>272.0</ele><time>2026-04-17T08:50:31.094Z</time></trkpt><trkpt lat="44.4134017" lon="11.449035"><ele>272.0</ele><time>2026-04-17T08:50:32.094Z</time></trkpt><trkpt lat="44.41331" lon="11.4489833"><ele>272.0</ele><time>2026-04-17T08:50:33.093Z</time></trkpt><trkpt lat="44.4132267" lon="11.4489217"><ele>272.0</ele><time>2026-04-17T08:50:34.093Z</time></trkpt><trkpt lat="44.41315" lon="11.44885"><ele>272.0</ele><time>2026-04-17T08:50:35.094Z</time></trkpt><trkpt lat="44.413085" lon="11.44877"><ele>272.0</ele><time>2026-04-17T08:50:36.093Z</time></trkpt><trkpt lat="44.41303" lon="11.448665"><ele>271.8</ele><time>2026-04-17T08:50:37.093Z</time></trkpt><trkpt lat="44.4129917" lon="11.4485483"><ele>271.6</ele><time>2026-04-17T08:50:38.093Z</time></trkpt><trkpt lat="44.41296" lon="11.4484167"><ele>271.40000000000003</ele><time>2026-04-17T08:50:39.094Z</time></trkpt><trkpt lat="44.41293" lon="11.4482633"><ele>271.2</ele><time>2026-04-17T08:50:40.093Z</time></trkpt><trkpt lat="44.4128883" lon="11.4481133"><ele>271.0</ele><time>2026-04-17T08:50:41.094Z</time></trkpt><trkpt lat="44.4128467" lon="11.4479733"><ele>275.40000000000003</ele><time>2026-04-17T08:50:42.094Z</time></trkpt><trkpt lat="44.412805" lon="11.4478417"><ele>279.8</ele><time>2026-04-17T08:50:43.093Z</time></trkpt><trkpt lat="44.412775" lon="11.4477"><ele>284.20000000000005</ele><time>2026-04-17T08:50:44.094Z</time></trkpt><trkpt lat="44.412775" lon="11.4475517"><ele>288.6</ele><time>2026-04-17T08:50:45.093Z</time></trkpt><trkpt lat="44.412785" lon="11.447395"><ele>293.0</ele><time>2026-04-17T08:50:46.093Z</time></trkpt><trkpt lat="44.41279" lon="11.4472233"><ele>293.4</ele><time>2026-04-17T08:50:47.093Z</time></trkpt><trkpt lat="44.4127917" lon="11.4470633"><ele>293.8</ele><time>2026-04-17T08:50:48.094Z</time></trkpt><trkpt lat="44.4127833" lon="11.44692"><ele>294.2</ele><time>2026-04-17T08:50:49.094Z</time></trkpt><trkpt lat="44.4127533" lon="11.44679"><ele>294.6</ele><time>2026-04-17T08:50:50.094Z</time></trkpt><trkpt lat="44.4127017" lon="11.446675"><ele>295.0</ele><time>2026-04-17T08:50:51.093Z</time></trkpt><trkpt lat="44.412635" lon="11.4465767"><ele>295.0</ele><time>2026-04-17T08:50:52.093Z</time></trkpt><trkpt lat="44.4125417" lon="11.4464933"><ele>295.0</ele><time>2026-04-17T08:50:53.093Z</time></trkpt><trkpt lat="44.4124383" lon="11.4464267"><ele>295.0</ele><time>2026-04-17T08:50:54.094Z</time></trkpt><trkpt lat="44.4123317" lon="11.4463617"><ele>295.0</ele><time>2026-04-17T08:50:55.093Z</time></trkpt><trkpt lat="44.4122317" lon="11.446305"><ele>295.0</ele><time>2026-04-17T08:50:56.094Z</time></trkpt><trkpt lat="44.41213" lon="11.446245"><ele>293.6</ele><time>2026-04-17T08:50:57.093Z</time></trkpt><trkpt lat="44.4120267" lon="11.44618"><ele>292.2</ele><time>2026-04-17T08:50:58.093Z</time></trkpt><trkpt lat="44.4119217" lon="11.446145"><ele>290.8</ele><time>2026-04-17T08:50:59.094Z</time></trkpt><trkpt lat="44.4118283" lon="11.446105"><ele>289.4</ele><time>2026-04-17T08:51:00.093Z</time></trkpt><trkpt lat="44.4117183" lon="11.4460817"><ele>288.0</ele><time>2026-04-17T08:51:01.094Z</time></trkpt><trkpt lat="44.4115967" lon="11.44609"><ele>288.0</ele><time>2026-04-17T08:51:02.093Z</time></trkpt><trkpt lat="44.411475" lon="11.44611"><ele>288.0</ele><time>2026-04-17T08:51:03.093Z</time></trkpt><trkpt lat="44.41136" lon="11.4461217"><ele>288.0</ele><time>2026-04-17T08:51:04.093Z</time></trkpt><trkpt lat="44.4112483" lon="11.44611"><ele>288.0</ele><time>2026-04-17T08:51:05.094Z</time></trkpt><trkpt lat="44.411145" lon="11.446075"><ele>290.14285714285717</ele><time>2026-04-17T08:51:06.093Z</time></trkpt><trkpt lat="44.411055" lon="11.44603"><ele>292.2857142857143</ele><time>2026-04-17T08:51:07.093Z</time></trkpt><trkpt lat="44.4109833" lon="11.4459767"><ele>294.42857142857144</ele><time>2026-04-17T08:51:08.093Z</time></trkpt><trkpt lat="44.410935" lon="11.4459117"><ele>296.57142857142856</ele><time>2026-04-17T08:51:09.093Z</time></trkpt><trkpt lat="44.4109183" lon="11.445825"><ele>298.7142857142857</ele><time>2026-04-17T08:51:10.093Z</time></trkpt><trkpt lat="44.4109083" lon="11.4457267"><ele>300.8571428571429</ele><time>2026-04-17T08:51:11.093Z</time></trkpt><trkpt lat="44.4108933" lon="11.4456317"><ele>303.0</ele><time>2026-04-17T08:51:12.093Z</time></trkpt><trkpt lat="44.4108583" lon="11.44555"><ele>303.0</ele><time>2026-04-17T08:51:13.093Z</time></trkpt><trkpt lat="44.4107417" lon="11.445485"><ele>303.0</ele><time>2026-04-17T08:51:15.094Z</time></trkpt><trkpt lat="44.41065" lon="11.4455017"><ele>303.0</ele><time>2026-04-17T08:51:16.094Z</time></trkpt><trkpt lat="44.4105467" lon="11.4455233"><ele>303.0</ele><time>2026-04-17T08:51:17.094Z</time></trkpt><trkpt lat="44.410425" lon="11.4455717"><ele>303.0</ele><time>2026-04-17T08:51:18.093Z</time></trkpt><trkpt lat="44.4103133" lon="11.4456067"><ele>305.1666666666667</ele><time>2026-04-17T08:51:19.093Z</time></trkpt><trkpt lat="44.4102233" lon="11.445625"><ele>307.3333333333333</ele><time>2026-04-17T08:51:20.093Z</time></trkpt><trkpt lat="44.4101433" lon="11.4456417"><ele>309.5</ele><time>2026-04-17T08:51:21.093Z</time></trkpt><trkpt lat="44.4100733" lon="11.445665"><ele>311.66666666666663</ele><time>2026-04-17T08:51:22.093Z</time></trkpt><trkpt lat="44.4100183" lon="11.4457183"><ele>313.8333333333333</ele><time>2026-04-17T08:51:23.093Z</time></trkpt><trkpt lat="44.4100017" lon="11.445805"><ele>316.0</ele><time>2026-04-17T08:51:24.094Z</time></trkpt><trkpt lat="44.4099967" lon="11.4459133"><ele>316.0</ele><time>2026-04-17T08:51:25.093Z</time></trkpt><trkpt lat="44.409985" lon="11.4460117"><ele>316.0</ele><time>2026-04-17T08:51:26.094Z</time></trkpt><trkpt lat="44.4099517" lon="11.446095"><ele>316.0</ele><time>2026-04-17T08:51:27.093Z</time></trkpt><trkpt lat="44.409885" lon="11.4461367"><ele>316.0</ele><time>2026-04-17T08:51:28.093Z</time></trkpt><trkpt lat="44.409805" lon="11.4461383"><ele>316.0</ele><time>2026-04-17T08:51:29.094Z</time></trkpt><trkpt lat="44.409715" lon="11.446095"><ele>316.0</ele><time>2026-04-17T08:51:30.093Z</time></trkpt><trkpt lat="44.4096117" lon="11.446015"><ele>317.75</ele><time>2026-04-17T08:51:31.093Z</time></trkpt><trkpt lat="44.4095067" lon="11.445915"><ele>319.5</ele><time>2026-04-17T08:51:32.094Z</time></trkpt><trkpt lat="44.4094017" lon="11.4458317"><ele>321.25</ele><time>2026-04-17T08:51:33.093Z</time></trkpt><trkpt lat="44.409305" lon="11.44575"><ele>323.0</ele><time>2026-04-17T08:51:34.093Z</time></trkpt><trkpt lat="44.4092217" lon="11.44566"><ele>323.0</ele><time>2026-04-17T08:51:35.093Z</time></trkpt><trkpt lat="44.4091617" lon="11.4455483"><ele>323.0</ele><time>2026-04-17T08:51:36.094Z</time></trkpt><trkpt lat="44.4091167" lon="11.4454217"><ele>323.0</ele><time>2026-04-17T08:51:37.093Z</time></trkpt><trkpt lat="44.4090883" lon="11.4452767"><ele>323.0</ele><time>2026-04-17T08:51:38.093Z</time></trkpt><trkpt lat="44.4090483" lon="11.44514"><ele>323.0</ele><time>2026-04-17T08:51:39.094Z</time></trkpt><trkpt lat="44.4089967" lon="11.445"><ele>326.5</ele><time>2026-04-17T08:51:40.093Z</time></trkpt><trkpt lat="44.40893" lon="11.44486"><ele>330.0</ele><time>2026-04-17T08:51:41.093Z</time></trkpt><trkpt lat="44.40887" lon="11.4447217"><ele>333.5</ele><time>2026-04-17T08:51:42.093Z</time></trkpt><trkpt lat="44.4088133" lon="11.4445833"><ele>337.0</ele><time>2026-04-17T08:51:43.094Z</time></trkpt><trkpt lat="44.4087717" lon="11.4444267"><ele>338.0</ele><time>2026-04-17T08:51:44.093Z</time></trkpt><trkpt lat="44.4087483" lon="11.4442717"><ele>339.0</ele><time>2026-04-17T08:51:45.093Z</time></trkpt><trkpt lat="44.4087283" lon="11.4441217"><ele>340.0</ele><time>2026-04-17T08:51:46.093Z</time></trkpt><trkpt lat="44.408705" lon="11.443995"><ele>341.0</ele><time>2026-04-17T08:51:47.093Z</time></trkpt><trkpt lat="44.408675" lon="11.4438867"><ele>342.0</ele><time>2026-04-17T08:51:48.094Z</time></trkpt><trkpt lat="44.4086383" lon="11.4437867"><ele>342.0</ele><time>2026-04-17T08:51:49.094Z</time></trkpt><trkpt lat="44.4086183" lon="11.443685"><ele>342.0</ele><time>2026-04-17T08:51:50.093Z</time></trkpt><trkpt lat="44.4086" lon="11.44358"><ele>342.0</ele><time>2026-04-17T08:51:51.093Z</time></trkpt><trkpt lat="44.4086" lon="11.4434833"><ele>342.0</ele><time>2026-04-17T08:51:52.093Z</time></trkpt><trkpt lat="44.40862" lon="11.44337"><ele>342.0</ele><time>2026-04-17T08:51:54.094Z</time></trkpt><trkpt lat="44.4085183" lon="11.4434283"><ele>342.0</ele><time>2026-04-17T08:51:59.094Z</time></trkpt><trkpt lat="44.4084667" lon="11.4434933"><ele>342.0</ele><time>2026-04-17T08:52:00.093Z</time></trkpt><trkpt lat="44.4084017" lon="11.4435717"><ele>342.0</ele><time>2026-04-17T08:52:01.094Z</time></trkpt><trkpt lat="44.40833" lon="11.44364"><ele>342.0</ele><time>2026-04-17T08:52:02.093Z</time></trkpt><trkpt lat="44.4082517" lon="11.4436733"><ele>342.0</ele><time>2026-04-17T08:52:03.093Z</time></trkpt><trkpt lat="44.40817" lon="11.44368"><ele>342.0</ele><time>2026-04-17T08:52:04.093Z</time></trkpt><trkpt lat="44.4080683" lon="11.44364"><ele>342.0</ele><time>2026-04-17T08:52:05.093Z</time></trkpt><trkpt lat="44.407975" lon="11.4435617"><ele>341.0</ele><time>2026-04-17T08:52:06.093Z</time></trkpt><trkpt lat="44.4078933" lon="11.4434633"><ele>340.0</ele><time>2026-04-17T08:52:07.094Z</time></trkpt><trkpt lat="44.4078083" lon="11.443375"><ele>339.0</ele><time>2026-04-17T08:52:08.093Z</time></trkpt><trkpt lat="44.4077433" lon="11.4433133"><ele>338.0</ele><time>2026-04-17T08:52:09.094Z</time></trkpt><trkpt lat="44.4076833" lon="11.443275"><ele>337.0</ele><time>2026-04-17T08:52:10.093Z</time></trkpt><trkpt lat="44.4075733" lon="11.4432667"><ele>337.0</ele><time>2026-04-17T08:52:12.094Z</time></trkpt><trkpt lat="44.407495" lon="11.4433583"><ele>337.0</ele><time>2026-04-17T08:52:14.093Z</time></trkpt><trkpt lat="44.4074717" lon="11.4434433"><ele>337.0</ele><time>2026-04-17T08:52:15.093Z</time></trkpt><trkpt lat="44.407465" lon="11.44355"><ele>337.0</ele><time>2026-04-17T08:52:16.093Z</time></trkpt><trkpt lat="44.407455" lon="11.4436817"><ele>337.0</ele><time>2026-04-17T08:52:17.093Z</time></trkpt><trkpt lat="44.4074483" lon="11.4438383"><ele>338.20000000000005</ele><time>2026-04-17T08:52:18.094Z</time></trkpt><trkpt lat="44.4074367" lon="11.4439967"><ele>339.4</ele><time>2026-04-17T08:52:19.093Z</time></trkpt><trkpt lat="44.4074233" lon="11.444155"><ele>340.6</ele><time>2026-04-17T08:52:20.094Z</time></trkpt><trkpt lat="44.4074017" lon="11.4443117"><ele>341.79999999999995</ele><time>2026-04-17T08:52:21.094Z</time></trkpt><trkpt lat="44.407385" lon="11.444455"><ele>343.0</ele><time>2026-04-17T08:52:22.093Z</time></trkpt><trkpt lat="44.4073717" lon="11.4445967"><ele>341.5</ele><time>2026-04-17T08:52:23.094Z</time></trkpt><trkpt lat="44.40735" lon="11.4447567"><ele>340.0</ele><time>2026-04-17T08:52:24.093Z</time></trkpt><trkpt lat="44.4073383" lon="11.4449167"><ele>338.5</ele><time>2026-04-17T08:52:25.094Z</time></trkpt><trkpt lat="44.4073267" lon="11.4450767"><ele>337.0</ele><time>2026-04-17T08:52:26.093Z</time></trkpt><trkpt lat="44.4073083" lon="11.4452233"><ele>337.0</ele><time>2026-04-17T08:52:27.094Z</time></trkpt><trkpt lat="44.4072767" lon="11.44537"><ele>337.0</ele><time>2026-04-17T08:52:28.094Z</time></trkpt><trkpt lat="44.4072317" lon="11.4455067"><ele>337.0</ele><time>2026-04-17T08:52:29.093Z</time></trkpt><trkpt lat="44.4071683" lon="11.4456367"><ele>337.0</ele><time>2026-04-17T08:52:30.093Z</time></trkpt><trkpt lat="44.4070967" lon="11.44577"><ele>337.0</ele><time>2026-04-17T08:52:31.093Z</time></trkpt><trkpt lat="44.407025" lon="11.4458933"><ele>335.8</ele><time>2026-04-17T08:52:32.094Z</time></trkpt><trkpt lat="44.4069583" lon="11.446005"><ele>334.6</ele><time>2026-04-17T08:52:33.094Z</time></trkpt><trkpt lat="44.40689" lon="11.4461067"><ele>333.40000000000003</ele><time>2026-04-17T08:52:34.093Z</time></trkpt><trkpt lat="44.40683" lon="11.446215"><ele>332.20000000000005</ele><time>2026-04-17T08:52:35.094Z</time></trkpt><trkpt lat="44.4067767" lon="11.44633"><ele>331.0</ele><time>2026-04-17T08:52:36.093Z</time></trkpt><trkpt lat="44.406735" lon="11.446465"><ele>331.0</ele><time>2026-04-17T08:52:37.094Z</time></trkpt><trkpt lat="44.406695" lon="11.4466133"><ele>331.0</ele><time>2026-04-17T08:52:38.093Z</time></trkpt><trkpt lat="44.4066683" lon="11.4467433"><ele>331.0</ele><time>2026-04-17T08:52:39.094Z</time></trkpt><trkpt lat="44.406645" lon="11.4468717"><ele>331.0</ele><time>2026-04-17T08:52:40.093Z</time></trkpt><trkpt lat="44.4066367" lon="11.4469967"><ele>331.0</ele><time>2026-04-17T08:52:41.094Z</time></trkpt><trkpt lat="44.4066367" lon="11.4471167"><ele>330.20000000000005</ele><time>2026-04-17T08:52:42.094Z</time></trkpt><trkpt lat="44.40665" lon="11.447235"><ele>329.40000000000003</ele><time>2026-04-17T08:52:43.093Z</time></trkpt><trkpt lat="44.40667" lon="11.4473667"><ele>328.6</ele><time>2026-04-17T08:52:44.093Z</time></trkpt><trkpt lat="44.4066833" lon="11.447505"><ele>327.8</ele><time>2026-04-17T08:52:45.093Z</time></trkpt><trkpt lat="44.4066883" lon="11.4476317"><ele>327.0</ele><time>2026-04-17T08:52:46.094Z</time></trkpt><trkpt lat="44.4066867" lon="11.447755"><ele>327.0</ele><time>2026-04-17T08:52:47.094Z</time></trkpt><trkpt lat="44.40667" lon="11.4478783"><ele>327.0</ele><time>2026-04-17T08:52:48.093Z</time></trkpt><trkpt lat="44.4066517" lon="11.44799"><ele>327.0</ele><time>2026-04-17T08:52:49.094Z</time></trkpt><trkpt lat="44.4066367" lon="11.4481033"><ele>327.0</ele><time>2026-04-17T08:52:50.093Z</time></trkpt><trkpt lat="44.4066333" lon="11.4482167"><ele>327.0</ele><time>2026-04-17T08:52:51.094Z</time></trkpt><trkpt lat="44.4066383" lon="11.4483317"><ele>327.0</ele><time>2026-04-17T08:52:52.093Z</time></trkpt><trkpt lat="44.406645" lon="11.448455"><ele>325.0</ele><time>2026-04-17T08:52:53.094Z</time></trkpt><trkpt lat="44.4066483" lon="11.44858"><ele>323.0</ele><time>2026-04-17T08:52:54.093Z</time></trkpt><trkpt lat="44.4066367" lon="11.448715"><ele>321.0</ele><time>2026-04-17T08:52:55.093Z</time></trkpt><trkpt lat="44.4066183" lon="11.4488567"><ele>319.0</ele><time>2026-04-17T08:52:56.093Z</time></trkpt><trkpt lat="44.4065983" lon="11.4489933"><ele>317.0</ele><time>2026-04-17T08:52:57.093Z</time></trkpt><trkpt lat="44.4065733" lon="11.4491267"><ele>316.0</ele><time>2026-04-17T08:52:58.094Z</time></trkpt><trkpt lat="44.4065433" lon="11.449265"><ele>315.0</ele><time>2026-04-17T08:52:59.093Z</time></trkpt><trkpt lat="44.4065233" lon="11.449395"><ele>314.0</ele><time>2026-04-17T08:53:00.093Z</time></trkpt><trkpt lat="44.4065083" lon="11.449535"><ele>313.0</ele><time>2026-04-17T08:53:01.093Z</time></trkpt><trkpt lat="44.4065067" lon="11.4496767"><ele>312.0</ele><time>2026-04-17T08:53:02.094Z</time></trkpt><trkpt lat="44.406515" lon="11.4498283"><ele>312.0</ele><time>2026-04-17T08:53:03.094Z</time></trkpt><trkpt lat="44.40653" lon="11.4499917"><ele>312.0</ele><time>2026-04-17T08:53:04.094Z</time></trkpt><trkpt lat="44.4065367" lon="11.4501533"><ele>312.0</ele><time>2026-04-17T08:53:05.093Z</time></trkpt><trkpt lat="44.40654" lon="11.4503233"><ele>312.0</ele><time>2026-04-17T08:53:06.093Z</time></trkpt><trkpt lat="44.4065417" lon="11.4504867"><ele>312.0</ele><time>2026-04-17T08:53:07.094Z</time></trkpt><trkpt lat="44.406545" lon="11.4506533"><ele>312.0</ele><time>2026-04-17T08:53:08.094Z</time></trkpt><trkpt lat="44.40654" lon="11.4508233"><ele>312.0</ele><time>2026-04-17T08:53:09.093Z</time></trkpt><trkpt lat="44.40654" lon="11.4509883"><ele>312.0</ele><time>2026-04-17T08:53:10.093Z</time></trkpt><trkpt lat="44.406535" lon="11.4511467"><ele>311.8</ele><time>2026-04-17T08:53:11.093Z</time></trkpt><trkpt lat="44.4065283" lon="11.4513083"><ele>311.6</ele><time>2026-04-17T08:53:12.094Z</time></trkpt><trkpt lat="44.4065217" lon="11.45147"><ele>311.40000000000003</ele><time>2026-04-17T08:53:13.094Z</time></trkpt><trkpt lat="44.4065167" lon="11.451615"><ele>311.2</ele><time>2026-04-17T08:53:14.094Z</time></trkpt><trkpt lat="44.4065183" lon="11.4517633"><ele>311.0</ele><time>2026-04-17T08:53:15.094Z</time></trkpt><trkpt lat="44.4065267" lon="11.4519133"><ele>311.0</ele><time>2026-04-17T08:53:16.094Z</time></trkpt><trkpt lat="44.4065267" lon="11.4520633"><ele>311.0</ele><time>2026-04-17T08:53:17.093Z</time></trkpt><trkpt lat="44.4065167" lon="11.452215"><ele>311.0</ele><time>2026-04-17T08:53:18.093Z</time></trkpt><trkpt lat="44.4064933" lon="11.4523633"><ele>311.0</ele><time>2026-04-17T08:53:19.093Z</time></trkpt><trkpt lat="44.4064567" lon="11.4524967"><ele>311.0</ele><time>2026-04-17T08:53:20.093Z</time></trkpt><trkpt lat="44.4063967" lon="11.4526083"><ele>309.6</ele><time>2026-04-17T08:53:21.094Z</time></trkpt><trkpt lat="44.406325" lon="11.4527017"><ele>308.20000000000005</ele><time>2026-04-17T08:53:22.093Z</time></trkpt><trkpt lat="44.406235" lon="11.452775"><ele>306.79999999999995</ele><time>2026-04-17T08:53:23.093Z</time></trkpt><trkpt lat="44.406145" lon="11.4528233"><ele>305.4</ele><time>2026-04-17T08:53:24.093Z</time></trkpt><trkpt lat="44.4060483" lon="11.452855"><ele>304.0</ele><time>2026-04-17T08:53:25.093Z</time></trkpt><trkpt lat="44.4059617" lon="11.4528883"><ele>304.0</ele><time>2026-04-17T08:53:26.093Z</time></trkpt><trkpt lat="44.4058783" lon="11.4529233"><ele>304.0</ele><time>2026-04-17T08:53:27.093Z</time></trkpt><trkpt lat="44.4057983" lon="11.4529767"><ele>304.0</ele><time>2026-04-17T08:53:28.094Z</time></trkpt><trkpt lat="44.40572" lon="11.4530583"><ele>304.0</ele><time>2026-04-17T08:53:29.094Z</time></trkpt><trkpt lat="44.405645" lon="11.4531583"><ele>304.0</ele><time>2026-04-17T08:53:30.093Z</time></trkpt><trkpt lat="44.4055717" lon="11.4532583"><ele>304.0</ele><time>2026-04-17T08:53:31.094Z</time></trkpt><trkpt lat="44.4055" lon="11.4533667"><ele>304.0</ele><time>2026-04-17T08:53:32.094Z</time></trkpt><trkpt lat="44.40544" lon="11.453485"><ele>304.0</ele><time>2026-04-17T08:53:33.094Z</time></trkpt><trkpt lat="44.40539" lon="11.4536017"><ele>304.0</ele><time>2026-04-17T08:53:34.093Z</time></trkpt><trkpt lat="44.40534" lon="11.45372"><ele>304.0</ele><time>2026-04-17T08:53:35.093Z</time></trkpt><trkpt lat="44.40529" lon="11.4538483"><ele>305.59999999999997</ele><time>2026-04-17T08:53:36.094Z</time></trkpt><trkpt lat="44.4052367" lon="11.453975"><ele>307.2</ele><time>2026-04-17T08:53:37.094Z</time></trkpt><trkpt lat="44.4051733" lon="11.4540983"><ele>308.79999999999995</ele><time>2026-04-17T08:53:38.093Z</time></trkpt><trkpt lat="44.4051017" lon="11.4542167"><ele>310.4</ele><time>2026-04-17T08:53:39.093Z</time></trkpt><trkpt lat="44.4050267" lon="11.454325"><ele>312.0</ele><time>2026-04-17T08:53:40.094Z</time></trkpt><trkpt lat="44.4049517" lon="11.4544367"><ele>312.0</ele><time>2026-04-17T08:53:41.093Z</time></trkpt><trkpt lat="44.4048767" lon="11.4545433"><ele>312.0</ele><time>2026-04-17T08:53:42.093Z</time></trkpt><trkpt lat="44.4048067" lon="11.4546517"><ele>312.0</ele><time>2026-04-17T08:53:43.094Z</time></trkpt><trkpt lat="44.404735" lon="11.45475"><ele>312.0</ele><time>2026-04-17T08:53:44.094Z</time></trkpt><trkpt lat="44.4046733" lon="11.4548467"><ele>312.0</ele><time>2026-04-17T08:53:45.094Z</time></trkpt><trkpt lat="44.4046183" lon="11.4549533"><ele>314.2</ele><time>2026-04-17T08:53:46.094Z</time></trkpt><trkpt lat="44.40457" lon="11.4550683"><ele>316.4</ele><time>2026-04-17T08:53:47.093Z</time></trkpt><trkpt lat="44.4045217" lon="11.45519"><ele>318.59999999999997</ele><time>2026-04-17T08:53:48.093Z</time></trkpt><trkpt lat="44.4044767" lon="11.4553133"><ele>320.79999999999995</ele><time>2026-04-17T08:53:49.094Z</time></trkpt><trkpt lat="44.40443" lon="11.4554433"><ele>323.0</ele><time>2026-04-17T08:53:50.093Z</time></trkpt><trkpt lat="44.40438" lon="11.4555733"><ele>323.4</ele><time>2026-04-17T08:53:51.094Z</time></trkpt><trkpt lat="44.40433" lon="11.455695"><ele>323.79999999999995</ele><time>2026-04-17T08:53:52.093Z</time></trkpt><trkpt lat="44.4042767" lon="11.4558167"><ele>324.2</ele><time>2026-04-17T08:53:53.093Z</time></trkpt><trkpt lat="44.404215" lon="11.455925"><ele>324.6</ele><time>2026-04-17T08:53:54.094Z</time></trkpt><trkpt lat="44.404145" lon="11.4560317"><ele>325.0</ele><time>2026-04-17T08:53:55.093Z</time></trkpt><trkpt lat="44.4040654" lon="11.4561345"><ele>325.0</ele><time>2026-04-17T08:53:56.093Z</time></trkpt><trkpt lat="44.4039797" lon="11.456244"><ele>325.0</ele><time>2026-04-17T08:53:57.093Z</time></trkpt><trkpt lat="44.4038919" lon="11.4563587"><ele>325.0</ele><time>2026-04-17T08:53:58.093Z</time></trkpt><trkpt lat="44.4037999" lon="11.4564681"><ele>325.0</ele><time>2026-04-17T08:53:59.093Z</time></trkpt><trkpt lat="44.403702" lon="11.456569"><ele>325.25</ele><time>2026-04-17T08:54:00.093Z</time></trkpt><trkpt lat="44.403608" lon="11.4566655"><ele>325.5</ele><time>2026-04-17T08:54:01.093Z</time></trkpt><trkpt lat="44.40352" lon="11.4567582"><ele>325.75</ele><time>2026-04-17T08:54:02.093Z</time></trkpt><trkpt lat="44.4034388" lon="11.4568596"><ele>326.0</ele><time>2026-04-17T08:54:03.093Z</time></trkpt><trkpt lat="44.4033572" lon="11.4569819"><ele>326.0</ele><time>2026-04-17T08:54:04.093Z</time></trkpt><trkpt lat="44.4032841" lon="11.4571101"><ele>326.0</ele><time>2026-04-17T08:54:05.094Z</time></trkpt><trkpt lat="44.4032116" lon="11.4572469"><ele>326.0</ele><time>2026-04-17T08:54:06.094Z</time></trkpt><trkpt lat="44.4031304" lon="11.4573861"><ele>326.0</ele><time>2026-04-17T08:54:07.093Z</time></trkpt><trkpt lat="44.4030522" lon="11.4575263"><ele>326.75</ele><time>2026-04-17T08:54:08.093Z</time></trkpt><trkpt lat="44.4029773" lon="11.4576671"><ele>327.5</ele><time>2026-04-17T08:54:09.094Z</time></trkpt><trkpt lat="44.4029071" lon="11.4577984"><ele>328.25</ele><time>2026-04-17T08:54:10.094Z</time></trkpt><trkpt lat="44.4028462" lon="11.4579231"><ele>329.0</ele><time>2026-04-17T08:54:11.093Z</time></trkpt><trkpt lat="44.4027846" lon="11.4580409"><ele>329.79999999999995</ele><time>2026-04-17T08:54:12.093Z</time></trkpt><trkpt lat="44.4027132" lon="11.4581484"><ele>330.59999999999997</ele><time>2026-04-17T08:54:13.094Z</time></trkpt><trkpt lat="44.4026346" lon="11.4582385"><ele>331.4</ele><time>2026-04-17T08:54:14.094Z</time></trkpt><trkpt lat="44.4025543" lon="11.4583119"><ele>332.2</ele><time>2026-04-17T08:54:15.094Z</time></trkpt><trkpt lat="44.4024618" lon="11.4583625"><ele>333.0</ele><time>2026-04-17T08:54:16.094Z</time></trkpt><trkpt lat="44.4023664" lon="11.4584095"><ele>333.0</ele><time>2026-04-17T08:54:17.092Z</time></trkpt><trkpt lat="44.4022737" lon="11.4584494"><ele>333.0</ele><time>2026-04-17T08:54:18.092Z</time></trkpt><trkpt lat="44.4021845" lon="11.4584758"><ele>333.0</ele><time>2026-04-17T08:54:19.092Z</time></trkpt><trkpt lat="44.4021074" lon="11.4585004"><ele>333.0</ele><time>2026-04-17T08:54:20.092Z</time></trkpt><trkpt lat="44.4020335" lon="11.4585271"><ele>333.0</ele><time>2026-04-17T08:54:21.092Z</time></trkpt><trkpt lat="44.4019577" lon="11.4585676"><ele>333.0</ele><time>2026-04-17T08:54:22.092Z</time></trkpt><trkpt lat="44.4018792" lon="11.4586333"><ele>333.0</ele><time>2026-04-17T08:54:23.093Z</time></trkpt><trkpt lat="44.4017979" lon="11.4587146"><ele>333.0</ele><time>2026-04-17T08:54:24.092Z</time></trkpt><trkpt lat="44.401718" lon="11.4588052"><ele>333.0</ele><time>2026-04-17T08:54:25.093Z</time></trkpt><trkpt lat="44.4016435" lon="11.4588897"><ele>333.0</ele><time>2026-04-17T08:54:26.092Z</time></trkpt><trkpt lat="44.4015723" lon="11.458962"><ele>333.0</ele><time>2026-04-17T08:54:27.093Z</time></trkpt><trkpt lat="44.401508" lon="11.4590283"><ele>333.0</ele><time>2026-04-17T08:54:28.092Z</time></trkpt><trkpt lat="44.4014484" lon="11.4590898"><ele>333.0</ele><time>2026-04-17T08:54:29.092Z</time></trkpt><trkpt lat="44.4013669" lon="11.4591824"><ele>333.0</ele><time>2026-04-17T08:54:31.093Z</time></trkpt><trkpt lat="44.4013717" lon="11.459295"><ele>333.0</ele><time>2026-04-17T08:54:34.092Z</time></trkpt><trkpt lat="44.4014567" lon="11.4593667"><ele>333.0</ele><time>2026-04-17T08:54:36.092Z</time></trkpt><trkpt lat="44.40153" lon="11.4594133"><ele>333.0</ele><time>2026-04-17T08:54:37.092Z</time></trkpt><trkpt lat="44.4016183" lon="11.4594683"><ele>333.0</ele><time>2026-04-17T08:54:38.092Z</time></trkpt><trkpt lat="44.4017183" lon="11.45953"><ele>333.0</ele><time>2026-04-17T08:54:39.092Z</time></trkpt><trkpt lat="44.40182" lon="11.4596"><ele>333.0</ele><time>2026-04-17T08:54:40.092Z</time></trkpt><trkpt lat="44.4019317" lon="11.45967"><ele>333.0</ele><time>2026-04-17T08:54:41.093Z</time></trkpt><trkpt lat="44.40205" lon="11.4597383"><ele>331.75</ele><time>2026-04-17T08:54:42.092Z</time></trkpt><trkpt lat="44.4021617" lon="11.4598067"><ele>330.5</ele><time>2026-04-17T08:54:43.092Z</time></trkpt><trkpt lat="44.40227" lon="11.4598783"><ele>329.25</ele><time>2026-04-17T08:54:44.092Z</time></trkpt><trkpt lat="44.40238" lon="11.4599617"><ele>328.0</ele><time>2026-04-17T08:54:45.092Z</time></trkpt><trkpt lat="44.40248" lon="11.4600583"><ele>328.0</ele><time>2026-04-17T08:54:46.092Z</time></trkpt><trkpt lat="44.4025883" lon="11.4601533"><ele>328.0</ele><time>2026-04-17T08:54:47.093Z</time></trkpt><trkpt lat="44.402695" lon="11.4602533"><ele>328.0</ele><time>2026-04-17T08:54:48.093Z</time></trkpt><trkpt lat="44.4028067" lon="11.4603517"><ele>328.0</ele><time>2026-04-17T08:54:49.093Z</time></trkpt><trkpt lat="44.4029217" lon="11.460445"><ele>327.5</ele><time>2026-04-17T08:54:50.093Z</time></trkpt><trkpt lat="44.4030317" lon="11.4605367"><ele>327.0</ele><time>2026-04-17T08:54:51.092Z</time></trkpt><trkpt lat="44.403135" lon="11.4606267"><ele>326.5</ele><time>2026-04-17T08:54:52.092Z</time></trkpt><trkpt lat="44.4032233" lon="11.4607267"><ele>326.0</ele><time>2026-04-17T08:54:53.092Z</time></trkpt><trkpt lat="44.403305" lon="11.4608517"><ele>326.0</ele><time>2026-04-17T08:54:54.093Z</time></trkpt><trkpt lat="44.40337" lon="11.4610117"><ele>326.0</ele><time>2026-04-17T08:54:55.092Z</time></trkpt><trkpt lat="44.4034233" lon="11.4612033"><ele>326.0</ele><time>2026-04-17T08:54:56.092Z</time></trkpt><trkpt lat="44.4034933" lon="11.46139"><ele>326.0</ele><time>2026-04-17T08:54:57.092Z</time></trkpt><trkpt lat="44.4035833" lon="11.4615783"><ele>324.33333333333337</ele><time>2026-04-17T08:54:58.092Z</time></trkpt><trkpt lat="44.4036683" lon="11.4617683"><ele>322.6666666666667</ele><time>2026-04-17T08:54:59.092Z</time></trkpt><trkpt lat="44.403765" lon="11.461955"><ele>321.0</ele><time>2026-04-17T08:55:00.093Z</time></trkpt><trkpt lat="44.4038617" lon="11.4621317"><ele>317.0</ele><time>2026-04-17T08:55:01.093Z</time></trkpt><trkpt lat="44.4039483" lon="11.4623017"><ele>313.0</ele><time>2026-04-17T08:55:02.093Z</time></trkpt><trkpt lat="44.40402" lon="11.46248"><ele>309.0</ele><time>2026-04-17T08:55:03.092Z</time></trkpt><trkpt lat="44.4040817" lon="11.462675"><ele>305.0</ele><time>2026-04-17T08:55:04.093Z</time></trkpt><trkpt lat="44.404135" lon="11.46287"><ele>303.6666666666667</ele><time>2026-04-17T08:55:05.092Z</time></trkpt><trkpt lat="44.4041883" lon="11.4630683"><ele>302.3333333333333</ele><time>2026-04-17T08:55:06.093Z</time></trkpt><trkpt lat="44.40423" lon="11.4632683"><ele>301.0</ele><time>2026-04-17T08:55:07.093Z</time></trkpt><trkpt lat="44.4042783" lon="11.46347"><ele>301.0</ele><time>2026-04-17T08:55:08.092Z</time></trkpt><trkpt lat="44.4043383" lon="11.4636617"><ele>301.0</ele><time>2026-04-17T08:55:09.092Z</time></trkpt><trkpt lat="44.40441" lon="11.46384"><ele>301.0</ele><time>2026-04-17T08:55:10.092Z</time></trkpt><trkpt lat="44.4044983" lon="11.4640033"><ele>301.0</ele><time>2026-04-17T08:55:11.092Z</time></trkpt><trkpt lat="44.404595" lon="11.4641583"><ele>296.0</ele><time>2026-04-17T08:55:12.092Z</time></trkpt><trkpt lat="44.40469" lon="11.4643067"><ele>291.0</ele><time>2026-04-17T08:55:13.092Z</time></trkpt><trkpt lat="44.4047767" lon="11.4644417"><ele>286.0</ele><time>2026-04-17T08:55:14.092Z</time></trkpt><trkpt lat="44.4048733" lon="11.4645633"><ele>281.0</ele><time>2026-04-17T08:55:15.092Z</time></trkpt><trkpt lat="44.4050017" lon="11.4646417"><ele>280.0</ele><time>2026-04-17T08:55:16.092Z</time></trkpt><trkpt lat="44.4051383" lon="11.4647067"><ele>279.0</ele><time>2026-04-17T08:55:17.092Z</time></trkpt><trkpt lat="44.4052767" lon="11.46476"><ele>278.0</ele><time>2026-04-17T08:55:18.092Z</time></trkpt><trkpt lat="44.4054" lon="11.4648383"><ele>277.0</ele><time>2026-04-17T08:55:19.092Z</time></trkpt><trkpt lat="44.405515" lon="11.4649433"><ele>274.75</ele><time>2026-04-17T08:55:20.093Z</time></trkpt><trkpt lat="44.4056133" lon="11.465085"><ele>272.5</ele><time>2026-04-17T08:55:21.092Z</time></trkpt><trkpt lat="44.405705" lon="11.4652483"><ele>270.25</ele><time>2026-04-17T08:55:22.093Z</time></trkpt><trkpt lat="44.4057917" lon="11.465425"><ele>268.0</ele><time>2026-04-17T08:55:23.092Z</time></trkpt><trkpt lat="44.4058817" lon="11.465595"><ele>267.3333333333333</ele><time>2026-04-17T08:55:24.092Z</time></trkpt><trkpt lat="44.405975" lon="11.4657717"><ele>266.6666666666667</ele><time>2026-04-17T08:55:25.093Z</time></trkpt><trkpt lat="44.4060717" lon="11.4659533"><ele>266.0</ele><time>2026-04-17T08:55:26.093Z</time></trkpt><trkpt lat="44.4061733" lon="11.46613"><ele>266.33333333333337</ele><time>2026-04-17T08:55:27.093Z</time></trkpt><trkpt lat="44.406275" lon="11.46631"><ele>266.6666666666667</ele><time>2026-04-17T08:55:28.092Z</time></trkpt><trkpt lat="44.4063783" lon="11.466485"><ele>267.0</ele><time>2026-04-17T08:55:29.092Z</time></trkpt><trkpt lat="44.40648" lon="11.4666683"><ele>267.0</ele><time>2026-04-17T08:55:30.092Z</time></trkpt><trkpt lat="44.40659" lon="11.46684"><ele>267.0</ele><time>2026-04-17T08:55:31.092Z</time></trkpt><trkpt lat="44.4066983" lon="11.4670167"><ele>267.0</ele><time>2026-04-17T08:55:32.092Z</time></trkpt><trkpt lat="44.40681" lon="11.4672017"><ele>266.3333333333333</ele><time>2026-04-17T08:55:33.093Z</time></trkpt><trkpt lat="44.406925" lon="11.4673833"><ele>265.66666666666663</ele><time>2026-04-17T08:55:34.092Z</time></trkpt><trkpt lat="44.40703" lon="11.46755"><ele>265.0</ele><time>2026-04-17T08:55:35.092Z</time></trkpt><trkpt lat="44.4071233" lon="11.46771"><ele>267.0</ele><time>2026-04-17T08:55:36.092Z</time></trkpt><trkpt lat="44.4071983" lon="11.4678917"><ele>269.0</ele><time>2026-04-17T08:55:37.092Z</time></trkpt><trkpt lat="44.4072717" lon="11.4680933"><ele>271.0</ele><time>2026-04-17T08:55:38.092Z</time></trkpt><trkpt lat="44.40733" lon="11.4683033"><ele>271.0</ele><time>2026-04-17T08:55:39.093Z</time></trkpt><trkpt lat="44.40737" lon="11.468525"><ele>271.0</ele><time>2026-04-17T08:55:40.092Z</time></trkpt><trkpt lat="44.4073917" lon="11.4687567"><ele>271.0</ele><time>2026-04-17T08:55:41.093Z</time></trkpt><trkpt lat="44.407395" lon="11.4689917"><ele>270.3333333333333</ele><time>2026-04-17T08:55:42.093Z</time></trkpt><trkpt lat="44.4073883" lon="11.469225"><ele>269.6666666666667</ele><time>2026-04-17T08:55:43.093Z</time></trkpt><trkpt lat="44.40737" lon="11.469455"><ele>269.0</ele><time>2026-04-17T08:55:44.092Z</time></trkpt><trkpt lat="44.407355" lon="11.4696667"><ele>268.0</ele><time>2026-04-17T08:55:45.092Z</time></trkpt><trkpt lat="44.40735" lon="11.4698683"><ele>267.0</ele><time>2026-04-17T08:55:46.093Z</time></trkpt><trkpt lat="44.4073583" lon="11.470055"><ele>266.0</ele><time>2026-04-17T08:55:47.092Z</time></trkpt><trkpt lat="44.4073917" lon="11.470235"><ele>265.0</ele><time>2026-04-17T08:55:48.092Z</time></trkpt><trkpt lat="44.40744" lon="11.4703983"><ele>265.25</ele><time>2026-04-17T08:55:49.093Z</time></trkpt><trkpt lat="44.4074867" lon="11.470565"><ele>265.5</ele><time>2026-04-17T08:55:50.092Z</time></trkpt><trkpt lat="44.4075067" lon="11.47074"><ele>265.75</ele><time>2026-04-17T08:55:51.093Z</time></trkpt><trkpt lat="44.4075017" lon="11.4709267"><ele>266.0</ele><time>2026-04-17T08:55:52.092Z</time></trkpt><trkpt lat="44.40746" lon="11.4711267"><ele>263.0</ele><time>2026-04-17T08:55:53.093Z</time></trkpt><trkpt lat="44.407405" lon="11.4713333"><ele>260.0</ele><time>2026-04-17T08:55:54.092Z</time></trkpt><trkpt lat="44.4073533" lon="11.471535"><ele>257.0</ele><time>2026-04-17T08:55:55.093Z</time></trkpt><trkpt lat="44.4073017" lon="11.4717267"><ele>257.0</ele><time>2026-04-17T08:55:56.092Z</time></trkpt><trkpt lat="44.407235" lon="11.4719033"><ele>257.0</ele><time>2026-04-17T08:55:57.093Z</time></trkpt><trkpt lat="44.407145" lon="11.4720617"><ele>257.0</ele><time>2026-04-17T08:55:58.092Z</time></trkpt><trkpt lat="44.4070567" lon="11.472195"><ele>257.0</ele><time>2026-04-17T08:55:59.093Z</time></trkpt><trkpt lat="44.406965" lon="11.4723133"><ele>255.0</ele><time>2026-04-17T08:56:00.092Z</time></trkpt><trkpt lat="44.4068633" lon="11.4724333"><ele>253.0</ele><time>2026-04-17T08:56:01.093Z</time></trkpt><trkpt lat="44.4067717" lon="11.472565"><ele>251.0</ele><time>2026-04-17T08:56:02.093Z</time></trkpt><trkpt lat="44.40667" lon="11.4726933"><ele>249.0</ele><time>2026-04-17T08:56:03.092Z</time></trkpt><trkpt lat="44.4065517" lon="11.4728217"><ele>248.5</ele><time>2026-04-17T08:56:04.092Z</time></trkpt><trkpt lat="44.406435" lon="11.4729433"><ele>248.0</ele><time>2026-04-17T08:56:05.092Z</time></trkpt><trkpt lat="44.4063167" lon="11.473065"><ele>247.5</ele><time>2026-04-17T08:56:06.092Z</time></trkpt><trkpt lat="44.4062067" lon="11.4731917"><ele>247.0</ele><time>2026-04-17T08:56:07.092Z</time></trkpt><trkpt lat="44.4061117" lon="11.47332"><ele>246.0</ele><time>2026-04-17T08:56:08.092Z</time></trkpt><trkpt lat="44.4060217" lon="11.47348"><ele>245.0</ele><time>2026-04-17T08:56:09.092Z</time></trkpt><trkpt lat="44.4059333" lon="11.4736417"><ele>244.0</ele><time>2026-04-17T08:56:10.092Z</time></trkpt><trkpt lat="44.405845" lon="11.4737967"><ele>243.0</ele><time>2026-04-17T08:56:11.092Z</time></trkpt><trkpt lat="44.4057617" lon="11.473935"><ele>245.4</ele><time>2026-04-17T08:56:12.092Z</time></trkpt><trkpt lat="44.405685" lon="11.4740733"><ele>247.8</ele><time>2026-04-17T08:56:13.093Z</time></trkpt><trkpt lat="44.4056267" lon="11.4742167"><ele>250.2</ele><time>2026-04-17T08:56:14.092Z</time></trkpt><trkpt lat="44.4055767" lon="11.4743517"><ele>252.6</ele><time>2026-04-17T08:56:15.092Z</time></trkpt><trkpt lat="44.4055417" lon="11.47447"><ele>255.0</ele><time>2026-04-17T08:56:16.093Z</time></trkpt><trkpt lat="44.4055083" lon="11.4745867"><ele>253.57142857142858</ele><time>2026-04-17T08:56:17.093Z</time></trkpt><trkpt lat="44.405475" lon="11.4746933"><ele>252.14285714285717</ele><time>2026-04-17T08:56:18.092Z</time></trkpt><trkpt lat="44.4054417" lon="11.47481"><ele>250.71428571428572</ele><time>2026-04-17T08:56:19.092Z</time></trkpt><trkpt lat="44.4054233" lon="11.4749033"><ele>249.28571428571428</ele><time>2026-04-17T08:56:20.092Z</time></trkpt><trkpt lat="44.40541" lon="11.4750017"><ele>247.85714285714286</ele><time>2026-04-17T08:56:21.092Z</time></trkpt><trkpt lat="44.4054017" lon="11.47509"><ele>246.42857142857144</ele><time>2026-04-17T08:56:22.093Z</time></trkpt><trkpt lat="44.4054017" lon="11.47519"><ele>245.0</ele><time>2026-04-17T08:56:23.093Z</time></trkpt><trkpt lat="44.40539" lon="11.4752883"><ele>245.00000000000003</ele><time>2026-04-17T08:56:24.092Z</time></trkpt><trkpt lat="44.4053683" lon="11.4753867"><ele>245.0</ele><time>2026-04-17T08:56:25.092Z</time></trkpt><trkpt lat="44.4053367" lon="11.4754883"><ele>245.0</ele><time>2026-04-17T08:56:26.092Z</time></trkpt><trkpt lat="44.4053033" lon="11.4755833"><ele>245.0</ele><time>2026-04-17T08:56:27.092Z</time></trkpt><trkpt lat="44.4052583" lon="11.475695"><ele>245.00000000000003</ele><time>2026-04-17T08:56:28.093Z</time></trkpt><trkpt lat="44.405205" lon="11.475845"><ele>245.0</ele><time>2026-04-17T08:56:29.093Z</time></trkpt><trkpt lat="44.4051417" lon="11.476005"><ele>242.33333333333334</ele><time>2026-04-17T08:56:30.093Z</time></trkpt><trkpt lat="44.405065" lon="11.476175"><ele>239.66666666666669</ele><time>2026-04-17T08:56:31.092Z</time></trkpt><trkpt lat="44.404985" lon="11.4763567"><ele>237.0</ele><time>2026-04-17T08:56:32.092Z</time></trkpt><trkpt lat="44.4049017" lon="11.4765533"><ele>235.0</ele><time>2026-04-17T08:56:33.093Z</time></trkpt><trkpt lat="44.4048117" lon="11.4767633"><ele>233.0</ele><time>2026-04-17T08:56:34.093Z</time></trkpt><trkpt lat="44.4047283" lon="11.4769583"><ele>231.0</ele><time>2026-04-17T08:56:35.092Z</time></trkpt><trkpt lat="44.4046417" lon="11.4771533"><ele>226.66666666666669</ele><time>2026-04-17T08:56:36.092Z</time></trkpt><trkpt lat="44.40456" lon="11.4773467"><ele>222.33333333333334</ele><time>2026-04-17T08:56:37.092Z</time></trkpt><trkpt lat="44.40448" lon="11.4775317"><ele>218.0</ele><time>2026-04-17T08:56:38.093Z</time></trkpt><trkpt lat="44.4043983" lon="11.4777133"><ele>218.0</ele><time>2026-04-17T08:56:39.093Z</time></trkpt><trkpt lat="44.4043233" lon="11.4778817"><ele>218.0</ele><time>2026-04-17T08:56:40.092Z</time></trkpt><trkpt lat="44.4042633" lon="11.4780367"><ele>218.0</ele><time>2026-04-17T08:56:41.093Z</time></trkpt><trkpt lat="44.4042" lon="11.4781833"><ele>218.0</ele><time>2026-04-17T08:56:42.093Z</time></trkpt><trkpt lat="44.4041267" lon="11.4783117"><ele>218.25</ele><time>2026-04-17T08:56:43.092Z</time></trkpt><trkpt lat="44.4040467" lon="11.4784367"><ele>218.5</ele><time>2026-04-17T08:56:44.093Z</time></trkpt><trkpt lat="44.4039567" lon="11.4785633"><ele>218.75</ele><time>2026-04-17T08:56:45.092Z</time></trkpt><trkpt lat="44.4038833" lon="11.478675"><ele>219.0</ele><time>2026-04-17T08:56:46.092Z</time></trkpt><trkpt lat="44.4038217" lon="11.4788183"><ele>219.0</ele><time>2026-04-17T08:56:47.092Z</time></trkpt><trkpt lat="44.4037783" lon="11.478955"><ele>219.0</ele><time>2026-04-17T08:56:48.093Z</time></trkpt><trkpt lat="44.40375" lon="11.479065"><ele>219.0</ele><time>2026-04-17T08:56:49.092Z</time></trkpt><trkpt lat="44.4037417" lon="11.479155"><ele>219.0</ele><time>2026-04-17T08:56:50.093Z</time></trkpt><trkpt lat="44.4038" lon="11.4792983"><ele>219.0</ele><time>2026-04-17T08:56:52.093Z</time></trkpt><trkpt lat="44.4038633" lon="11.4793583"><ele>219.0</ele><time>2026-04-17T08:56:53.092Z</time></trkpt><trkpt lat="44.4039367" lon="11.4794"><ele>219.0</ele><time>2026-04-17T08:56:54.093Z</time></trkpt><trkpt lat="44.4040133" lon="11.4794417"><ele>219.0</ele><time>2026-04-17T08:56:55.092Z</time></trkpt><trkpt lat="44.4040933" lon="11.4794867"><ele>219.0</ele><time>2026-04-17T08:56:56.093Z</time></trkpt><trkpt lat="44.4041667" lon="11.479525"><ele>219.0</ele><time>2026-04-17T08:56:57.093Z</time></trkpt><trkpt lat="44.40423" lon="11.4795717"><ele>219.0</ele><time>2026-04-17T08:56:58.093Z</time></trkpt><trkpt lat="44.4042867" lon="11.4796217"><ele>219.0</ele><time>2026-04-17T08:56:59.092Z</time></trkpt><trkpt lat="44.4043333" lon="11.479695"><ele>219.39999999999998</ele><time>2026-04-17T08:57:00.092Z</time></trkpt><trkpt lat="44.4043717" lon="11.4797783"><ele>219.79999999999998</ele><time>2026-04-17T08:57:01.093Z</time></trkpt><trkpt lat="44.4043967" lon="11.479885"><ele>220.20000000000002</ele><time>2026-04-17T08:57:02.092Z</time></trkpt><trkpt lat="44.4044067" lon="11.48003"><ele>220.60000000000002</ele><time>2026-04-17T08:57:03.092Z</time></trkpt><trkpt lat="44.404395" lon="11.4801933"><ele>221.0</ele><time>2026-04-17T08:57:04.092Z</time></trkpt><trkpt lat="44.4043867" lon="11.48036"><ele>220.25</ele><time>2026-04-17T08:57:05.092Z</time></trkpt><trkpt lat="44.4043867" lon="11.4805233"><ele>219.5</ele><time>2026-04-17T08:57:06.092Z</time></trkpt><trkpt lat="44.4043767" lon="11.4806983"><ele>218.75</ele><time>2026-04-17T08:57:07.093Z</time></trkpt><trkpt lat="44.40437" lon="11.4808583"><ele>218.0</ele><time>2026-04-17T08:57:08.092Z</time></trkpt><trkpt lat="44.4043717" lon="11.48101"><ele>218.0</ele><time>2026-04-17T08:57:09.092Z</time></trkpt><trkpt lat="44.404335" lon="11.4811483"><ele>218.0</ele><time>2026-04-17T08:57:10.092Z</time></trkpt><trkpt lat="44.4043517" lon="11.4812817"><ele>218.0</ele><time>2026-04-17T08:57:11.093Z</time></trkpt><trkpt lat="44.404375" lon="11.4814133"><ele>218.0</ele><time>2026-04-17T08:57:12.092Z</time></trkpt><trkpt lat="44.404395" lon="11.48155"><ele>218.0</ele><time>2026-04-17T08:57:13.093Z</time></trkpt><trkpt lat="44.4044117" lon="11.4816767"><ele>216.8</ele><time>2026-04-17T08:57:14.092Z</time></trkpt><trkpt lat="44.4044333" lon="11.4818"><ele>215.60000000000002</ele><time>2026-04-17T08:57:15.092Z</time></trkpt><trkpt lat="44.4044483" lon="11.4819417"><ele>214.39999999999998</ele><time>2026-04-17T08:57:16.092Z</time></trkpt><trkpt lat="44.4044617" lon="11.4820867"><ele>213.2</ele><time>2026-04-17T08:57:17.093Z</time></trkpt><trkpt lat="44.4044533" lon="11.48224"><ele>212.0</ele><time>2026-04-17T08:57:18.092Z</time></trkpt><trkpt lat="44.404425" lon="11.4824"><ele>210.39999999999998</ele><time>2026-04-17T08:57:19.093Z</time></trkpt><trkpt lat="44.4044033" lon="11.48256"><ele>208.79999999999998</ele><time>2026-04-17T08:57:20.092Z</time></trkpt><trkpt lat="44.40438" lon="11.4827117"><ele>207.2</ele><time>2026-04-17T08:57:21.092Z</time></trkpt><trkpt lat="44.4043583" lon="11.4828567"><ele>205.6</ele><time>2026-04-17T08:57:22.093Z</time></trkpt><trkpt lat="44.40435" lon="11.4829967"><ele>204.0</ele><time>2026-04-17T08:57:23.092Z</time></trkpt><trkpt lat="44.404355" lon="11.4831383"><ele>202.0</ele><time>2026-04-17T08:57:24.092Z</time></trkpt><trkpt lat="44.4043783" lon="11.4832783"><ele>200.0</ele><time>2026-04-17T08:57:25.092Z</time></trkpt><trkpt lat="44.40441" lon="11.4834283"><ele>198.0</ele><time>2026-04-17T08:57:26.092Z</time></trkpt><trkpt lat="44.4044517" lon="11.48358"><ele>196.0</ele><time>2026-04-17T08:57:27.093Z</time></trkpt><trkpt lat="44.4044933" lon="11.483735"><ele>194.0</ele><time>2026-04-17T08:57:28.092Z</time></trkpt><trkpt lat="44.40456" lon="11.48391"><ele>192.0</ele><time>2026-04-17T08:57:29.092Z</time></trkpt><trkpt lat="44.4046267" lon="11.4840833"><ele>190.0</ele><time>2026-04-17T08:57:30.092Z</time></trkpt><trkpt lat="44.4046817" lon="11.48425"><ele>188.0</ele><time>2026-04-17T08:57:31.092Z</time></trkpt><trkpt lat="44.4047383" lon="11.4844083"><ele>186.0</ele><time>2026-04-17T08:57:32.093Z</time></trkpt><trkpt lat="44.4047917" lon="11.4845683"><ele>184.75</ele><time>2026-04-17T08:57:33.093Z</time></trkpt><trkpt lat="44.4048383" lon="11.4847383"><ele>183.5</ele><time>2026-04-17T08:57:34.093Z</time></trkpt><trkpt lat="44.4048683" lon="11.4848917"><ele>182.25</ele><time>2026-04-17T08:57:35.092Z</time></trkpt><trkpt lat="44.40489" lon="11.4850533"><ele>181.0</ele><time>2026-04-17T08:57:36.092Z</time></trkpt><trkpt lat="44.4049117" lon="11.48522"><ele>181.0</ele><time>2026-04-17T08:57:37.092Z</time></trkpt><trkpt lat="44.404915" lon="11.48539"><ele>181.0</ele><time>2026-04-17T08:57:38.093Z</time></trkpt><trkpt lat="44.404915" lon="11.4855733"><ele>181.0</ele><time>2026-04-17T08:57:39.092Z</time></trkpt><trkpt lat="44.4049117" lon="11.4857633"><ele>181.0</ele><time>2026-04-17T08:57:40.093Z</time></trkpt><trkpt lat="44.40491" lon="11.485955"><ele>182.25</ele><time>2026-04-17T08:57:41.092Z</time></trkpt><trkpt lat="44.4049067" lon="11.4861517"><ele>183.5</ele><time>2026-04-17T08:57:42.093Z</time></trkpt><trkpt lat="44.4049033" lon="11.4863483"><ele>184.75</ele><time>2026-04-17T08:57:43.092Z</time></trkpt><trkpt lat="44.4048967" lon="11.4865417"><ele>186.0</ele><time>2026-04-17T08:57:44.092Z</time></trkpt><trkpt lat="44.404895" lon="11.486725"><ele>187.5</ele><time>2026-04-17T08:57:45.092Z</time></trkpt><trkpt lat="44.4048967" lon="11.4869133"><ele>189.0</ele><time>2026-04-17T08:57:46.092Z</time></trkpt><trkpt lat="44.404895" lon="11.48709"><ele>190.5</ele><time>2026-04-17T08:57:47.092Z</time></trkpt><trkpt lat="44.4048867" lon="11.4872683"><ele>192.0</ele><time>2026-04-17T08:57:48.092Z</time></trkpt><trkpt lat="44.4048667" lon="11.48745"><ele>192.5</ele><time>2026-04-17T08:57:49.093Z</time></trkpt><trkpt lat="44.404865" lon="11.4876217"><ele>193.0</ele><time>2026-04-17T08:57:50.092Z</time></trkpt><trkpt lat="44.4048633" lon="11.4878033"><ele>193.5</ele><time>2026-04-17T08:57:51.092Z</time></trkpt><trkpt lat="44.40488" lon="11.4879967"><ele>194.0</ele><time>2026-04-17T08:57:52.093Z</time></trkpt><trkpt lat="44.4049083" lon="11.48818"><ele>194.0</ele><time>2026-04-17T08:57:53.092Z</time></trkpt><trkpt lat="44.4049333" lon="11.48837"><ele>194.0</ele><time>2026-04-17T08:57:54.093Z</time></trkpt><trkpt lat="44.4049517" lon="11.4885633"><ele>194.0</ele><time>2026-04-17T08:57:55.092Z</time></trkpt><trkpt lat="44.404975" lon="11.4887567"><ele>194.0</ele><time>2026-04-17T08:57:56.093Z</time></trkpt><trkpt lat="44.4050167" lon="11.4889417"><ele>193.75</ele><time>2026-04-17T08:57:57.092Z</time></trkpt><trkpt lat="44.4050567" lon="11.48911"><ele>193.5</ele><time>2026-04-17T08:57:58.093Z</time></trkpt><trkpt lat="44.4050883" lon="11.48928"><ele>193.25</ele><time>2026-04-17T08:57:59.093Z</time></trkpt><trkpt lat="44.4051133" lon="11.48945"><ele>193.0</ele><time>2026-04-17T08:58:00.093Z</time></trkpt><trkpt lat="44.4051317" lon="11.4896317"><ele>192.0</ele><time>2026-04-17T08:58:01.093Z</time></trkpt><trkpt lat="44.40514" lon="11.4898233"><ele>191.0</ele><time>2026-04-17T08:58:02.092Z</time></trkpt><trkpt lat="44.40514" lon="11.4900267"><ele>190.0</ele><time>2026-04-17T08:58:03.092Z</time></trkpt><trkpt lat="44.405145" lon="11.4902333"><ele>189.0</ele><time>2026-04-17T08:58:04.092Z</time></trkpt><trkpt lat="44.40515" lon="11.4904433"><ele>188.0</ele><time>2026-04-17T08:58:05.092Z</time></trkpt><trkpt lat="44.4051567" lon="11.4906583"><ele>187.0</ele><time>2026-04-17T08:58:06.092Z</time></trkpt><trkpt lat="44.40516" lon="11.490875"><ele>186.0</ele><time>2026-04-17T08:58:07.092Z</time></trkpt><trkpt lat="44.4051633" lon="11.49109"><ele>186.0</ele><time>2026-04-17T08:58:08.093Z</time></trkpt><trkpt lat="44.405165" lon="11.4913067"><ele>186.0</ele><time>2026-04-17T08:58:09.093Z</time></trkpt><trkpt lat="44.4051667" lon="11.491525"><ele>186.0</ele><time>2026-04-17T08:58:10.093Z</time></trkpt><trkpt lat="44.4051733" lon="11.4917383"><ele>186.0</ele><time>2026-04-17T08:58:11.092Z</time></trkpt><trkpt lat="44.4051767" lon="11.4919533"><ele>186.0</ele><time>2026-04-17T08:58:12.092Z</time></trkpt><trkpt lat="44.405185" lon="11.4921617"><ele>186.0</ele><time>2026-04-17T08:58:13.092Z</time></trkpt><trkpt lat="44.4051883" lon="11.4923717"><ele>185.25</ele><time>2026-04-17T08:58:14.092Z</time></trkpt><trkpt lat="44.405195" lon="11.4925717"><ele>184.5</ele><time>2026-04-17T08:58:15.092Z</time></trkpt><trkpt lat="44.4051967" lon="11.492765"><ele>183.75</ele><time>2026-04-17T08:58:16.092Z</time></trkpt><trkpt lat="44.4051967" lon="11.4929433"><ele>183.0</ele><time>2026-04-17T08:58:17.093Z</time></trkpt><trkpt lat="44.4052017" lon="11.4931117"><ele>182.8</ele><time>2026-04-17T08:58:18.092Z</time></trkpt><trkpt lat="44.4052017" lon="11.4932767"><ele>182.60000000000002</ele><time>2026-04-17T08:58:19.092Z</time></trkpt><trkpt lat="44.4052017" lon="11.493425"><ele>182.39999999999998</ele><time>2026-04-17T08:58:20.092Z</time></trkpt><trkpt lat="44.405205" lon="11.49357"><ele>182.2</ele><time>2026-04-17T08:58:21.092Z</time></trkpt><trkpt lat="44.4052117" lon="11.4937133"><ele>182.0</ele><time>2026-04-17T08:58:22.093Z</time></trkpt><trkpt lat="44.4052167" lon="11.4938567"><ele>181.0</ele><time>2026-04-17T08:58:23.092Z</time></trkpt><trkpt lat="44.4052167" lon="11.4940067"><ele>180.0</ele><time>2026-04-17T08:58:24.093Z</time></trkpt><trkpt lat="44.4052167" lon="11.4941567"><ele>179.0</ele><time>2026-04-17T08:58:25.093Z</time></trkpt><trkpt lat="44.4052167" lon="11.49431"><ele>178.0</ele><time>2026-04-17T08:58:26.092Z</time></trkpt><trkpt lat="44.40522" lon="11.4944633"><ele>177.0</ele><time>2026-04-17T08:58:27.092Z</time></trkpt><trkpt lat="44.4052233" lon="11.494605"><ele>177.0</ele><time>2026-04-17T08:58:28.093Z</time></trkpt><trkpt lat="44.40524" lon="11.494735"><ele>177.0</ele><time>2026-04-17T08:58:29.092Z</time></trkpt><trkpt lat="44.405285" lon="11.49485"><ele>177.0</ele><time>2026-04-17T08:58:30.092Z</time></trkpt><trkpt lat="44.4053483" lon="11.4949617"><ele>177.0</ele><time>2026-04-17T08:58:31.092Z</time></trkpt><trkpt lat="44.40543" lon="11.495065"><ele>177.0</ele><time>2026-04-17T08:58:32.092Z</time></trkpt><trkpt lat="44.405525" lon="11.495165"><ele>177.0</ele><time>2026-04-17T08:58:33.092Z</time></trkpt><trkpt lat="44.4056267" lon="11.4952567"><ele>177.0</ele><time>2026-04-17T08:58:34.092Z</time></trkpt><trkpt lat="44.4057217" lon="11.495345"><ele>177.0</ele><time>2026-04-17T08:58:35.092Z</time></trkpt><trkpt lat="44.40581" lon="11.495435"><ele>177.0</ele><time>2026-04-17T08:58:36.093Z</time></trkpt><trkpt lat="44.4058917" lon="11.4955183"><ele>177.0</ele><time>2026-04-17T08:58:37.093Z</time></trkpt><trkpt lat="44.405975" lon="11.4956017"><ele>175.39999999999998</ele><time>2026-04-17T08:58:38.092Z</time></trkpt><trkpt lat="44.40606" lon="11.4956883"><ele>173.79999999999998</ele><time>2026-04-17T08:58:39.092Z</time></trkpt><trkpt lat="44.40615" lon="11.4957767"><ele>172.2</ele><time>2026-04-17T08:58:40.092Z</time></trkpt><trkpt lat="44.4062383" lon="11.4958617"><ele>170.6</ele><time>2026-04-17T08:58:41.092Z</time></trkpt><trkpt lat="44.4063167" lon="11.4959283"><ele>169.0</ele><time>2026-04-17T08:58:42.093Z</time></trkpt><trkpt lat="44.4063767" lon="11.49599"><ele>168.16666666666669</ele><time>2026-04-17T08:58:43.092Z</time></trkpt><trkpt lat="44.4064683" lon="11.4960733"><ele>167.33333333333334</ele><time>2026-04-17T08:58:45.092Z</time></trkpt><trkpt lat="44.4065433" lon="11.496135"><ele>166.5</ele><time>2026-04-17T08:58:47.092Z</time></trkpt><trkpt lat="44.406605" lon="11.4961933"><ele>165.66666666666666</ele><time>2026-04-17T08:58:49.093Z</time></trkpt><trkpt lat="44.4066667" lon="11.4962533"><ele>164.83333333333331</ele><time>2026-04-17T08:58:51.093Z</time></trkpt><trkpt lat="44.4067267" lon="11.4963217"><ele>164.0</ele><time>2026-04-17T08:58:54.093Z</time></trkpt><trkpt lat="44.4068067" lon="11.4964033"><ele>164.0</ele><time>2026-04-17T08:58:57.092Z</time></trkpt><trkpt lat="44.40688" lon="11.4964767"><ele>164.0</ele><time>2026-04-17T08:58:59.092Z</time></trkpt><trkpt lat="44.4069717" lon="11.49656"><ele>164.0</ele><time>2026-04-17T08:59:01.091Z</time></trkpt><trkpt lat="44.40707" lon="11.4966467"><ele>164.0</ele><time>2026-04-17T08:59:03.091Z</time></trkpt><trkpt lat="44.4071267" lon="11.49669"><ele>164.0</ele><time>2026-04-17T08:59:04.091Z</time></trkpt><trkpt lat="44.4072333" lon="11.4967883"><ele>162.66666666666666</ele><time>2026-04-17T08:59:06.092Z</time></trkpt><trkpt lat="44.4072917" lon="11.4968417"><ele>161.33333333333331</ele><time>2026-04-17T08:59:07.091Z</time></trkpt><trkpt lat="44.4073483" lon="11.4968967"><ele>160.0</ele><time>2026-04-17T08:59:08.092Z</time></trkpt><trkpt lat="44.407405" lon="11.4969483"><ele>158.66666666666666</ele><time>2026-04-17T08:59:09.092Z</time></trkpt><trkpt lat="44.4074617" lon="11.4969883"><ele>157.33333333333334</ele><time>2026-04-17T08:59:10.092Z</time></trkpt><trkpt lat="44.4075167" lon="11.4970367"><ele>156.0</ele><time>2026-04-17T08:59:11.092Z</time></trkpt><trkpt lat="44.4076167" lon="11.4971283"><ele>155.8</ele><time>2026-04-17T08:59:13.092Z</time></trkpt><trkpt lat="44.40771" lon="11.49722"><ele>155.6</ele><time>2026-04-17T08:59:15.092Z</time></trkpt><trkpt lat="44.4078083" lon="11.497315"><ele>155.4</ele><time>2026-04-17T08:59:17.091Z</time></trkpt><trkpt lat="44.407905" lon="11.4973967"><ele>155.2</ele><time>2026-04-17T08:59:19.092Z</time></trkpt><trkpt lat="44.407985" lon="11.4974683"><ele>155.0</ele><time>2026-04-17T08:59:21.091Z</time></trkpt><trkpt lat="44.408055" lon="11.49754"><ele>154.83333333333331</ele><time>2026-04-17T08:59:23.091Z</time></trkpt><trkpt lat="44.4081217" lon="11.4976083"><ele>154.66666666666666</ele><time>2026-04-17T08:59:25.092Z</time></trkpt><trkpt lat="44.4081883" lon="11.4976667"><ele>154.5</ele><time>2026-04-17T08:59:28.092Z</time></trkpt><trkpt lat="44.4082617" lon="11.49773"><ele>154.33333333333334</ele><time>2026-04-17T08:59:32.092Z</time></trkpt><trkpt lat="44.40831" lon="11.497815"><ele>154.16666666666669</ele><time>2026-04-17T08:59:36.091Z</time></trkpt><trkpt lat="44.408365" lon="11.497865"><ele>154.0</ele><time>2026-04-17T08:59:40.092Z</time></trkpt><trkpt lat="44.4084233" lon="11.4979"><ele>153.66666666666669</ele><time>2026-04-17T08:59:43.092Z</time></trkpt><trkpt lat="44.40852" lon="11.4979833"><ele>153.33333333333334</ele><time>2026-04-17T08:59:56.091Z</time></trkpt><trkpt lat="44.4085883" lon="11.4980467"><ele>153.0</ele><time>2026-04-17T08:59:59.091Z</time></trkpt><trkpt lat="44.4086433" lon="11.4981"><ele>152.66666666666666</ele><time>2026-04-17T09:00:01.092Z</time></trkpt><trkpt lat="44.4087167" lon="11.4981783"><ele>152.33333333333331</ele><time>2026-04-17T09:00:04.091Z</time></trkpt><trkpt lat="44.4087817" lon="11.4982383"><ele>152.0</ele><time>2026-04-17T09:00:07.091Z</time></trkpt><trkpt lat="44.4088767" lon="11.4983033"><ele>151.33333333333331</ele><time>2026-04-17T09:00:34.091Z</time></trkpt><trkpt lat="44.4089467" lon="11.4983683"><ele>150.66666666666666</ele><time>2026-04-17T09:00:37.091Z</time></trkpt><trkpt lat="44.4090083" lon="11.49846"><ele>150.0</ele><time>2026-04-17T09:01:00.091Z</time></trkpt><trkpt lat="44.4090633" lon="11.49851"><ele>149.33333333333334</ele><time>2026-04-17T09:01:02.091Z</time></trkpt><trkpt lat="44.4091467" lon="11.4985783"><ele>148.66666666666669</ele><time>2026-04-17T09:01:04.091Z</time></trkpt><trkpt lat="44.4092117" lon="11.498645"><ele>148.0</ele><time>2026-04-17T09:01:06.091Z</time></trkpt><trkpt lat="44.4092817" lon="11.49872"><ele>147.8</ele><time>2026-04-17T09:01:08.091Z</time></trkpt><trkpt lat="44.4093583" lon="11.4987617"><ele>147.60000000000002</ele><time>2026-04-17T09:01:11.092Z</time></trkpt><trkpt lat="44.4094433" lon="11.4988417"><ele>147.39999999999998</ele><time>2026-04-17T09:01:13.091Z</time></trkpt><trkpt lat="44.4095133" lon="11.4989133"><ele>147.2</ele><time>2026-04-17T09:01:14.091Z</time></trkpt><trkpt lat="44.4095983" lon="11.4989983"><ele>147.0</ele><time>2026-04-17T09:01:15.092Z</time></trkpt><trkpt lat="44.4096833" lon="11.499075"><ele>146.5</ele><time>2026-04-17T09:01:16.091Z</time></trkpt><trkpt lat="44.4097667" lon="11.499145"><ele>146.0</ele><time>2026-04-17T09:01:17.092Z</time></trkpt><trkpt lat="44.40986" lon="11.4992417"><ele>145.5</ele><time>2026-04-17T09:01:18.091Z</time></trkpt><trkpt lat="44.409965" lon="11.4993467"><ele>145.0</ele><time>2026-04-17T09:01:19.092Z</time></trkpt><trkpt lat="44.4100867" lon="11.49945"><ele>145.0</ele><time>2026-04-17T09:01:20.091Z</time></trkpt><trkpt lat="44.410195" lon="11.4995483"><ele>145.0</ele><time>2026-04-17T09:01:21.092Z</time></trkpt><trkpt lat="44.4103" lon="11.4996417"><ele>145.0</ele><time>2026-04-17T09:01:22.091Z</time></trkpt><trkpt lat="44.410395" lon="11.499725"><ele>145.0</ele><time>2026-04-17T09:01:23.091Z</time></trkpt><trkpt lat="44.4104783" lon="11.499795"><ele>143.0</ele><time>2026-04-17T09:01:24.091Z</time></trkpt><trkpt lat="44.410545" lon="11.49987"><ele>141.0</ele><time>2026-04-17T09:01:25.091Z</time></trkpt><trkpt lat="44.4105967" lon="11.49997"><ele>139.0</ele><time>2026-04-17T09:01:26.091Z</time></trkpt><trkpt lat="44.41063" lon="11.5000867"><ele>137.0</ele><time>2026-04-17T09:01:27.092Z</time></trkpt><trkpt lat="44.410645" lon="11.5002317"><ele>135.0</ele><time>2026-04-17T09:01:28.092Z</time></trkpt><trkpt lat="44.4106283" lon="11.50043"><ele>134.5</ele><time>2026-04-17T09:01:29.092Z</time></trkpt><trkpt lat="44.4106017" lon="11.5006267"><ele>134.0</ele><time>2026-04-17T09:01:30.092Z</time></trkpt><trkpt lat="44.410575" lon="11.5008033"><ele>133.5</ele><time>2026-04-17T09:01:31.091Z</time></trkpt><trkpt lat="44.4105483" lon="11.5009717"><ele>133.0</ele><time>2026-04-17T09:01:32.091Z</time></trkpt><trkpt lat="44.4105283" lon="11.5011183"><ele>132.0</ele><time>2026-04-17T09:01:33.091Z</time></trkpt><trkpt lat="44.4105183" lon="11.5012583"><ele>131.0</ele><time>2026-04-17T09:01:34.092Z</time></trkpt><trkpt lat="44.410525" lon="11.50139"><ele>130.0</ele><time>2026-04-17T09:01:35.091Z</time></trkpt><trkpt lat="44.410555" lon="11.5015067"><ele>129.0</ele><time>2026-04-17T09:01:36.092Z</time></trkpt><trkpt lat="44.4105867" lon="11.5016217"><ele>128.0</ele><time>2026-04-17T09:01:37.092Z</time></trkpt><trkpt lat="44.410615" lon="11.50172"><ele>127.0</ele><time>2026-04-17T09:01:38.092Z</time></trkpt><trkpt lat="44.4106367" lon="11.5018183"><ele>127.0</ele><time>2026-04-17T09:01:39.092Z</time></trkpt><trkpt lat="44.4106517" lon="11.5019167"><ele>126.99999999999999</ele><time>2026-04-17T09:01:40.091Z</time></trkpt><trkpt lat="44.4106517" lon="11.502015"><ele>126.99999999999999</ele><time>2026-04-17T09:01:41.091Z</time></trkpt><trkpt lat="44.410655" lon="11.502135"><ele>127.0</ele><time>2026-04-17T09:01:42.091Z</time></trkpt><trkpt lat="44.4106367" lon="11.5022867"><ele>127.0</ele><time>2026-04-17T09:01:43.091Z</time></trkpt><trkpt lat="44.4106133" lon="11.5024417"><ele>125.5</ele><time>2026-04-17T09:01:44.091Z</time></trkpt><trkpt lat="44.41059" lon="11.5026133"><ele>124.0</ele><time>2026-04-17T09:01:45.091Z</time></trkpt><trkpt lat="44.4105617" lon="11.5027733"><ele>122.5</ele><time>2026-04-17T09:01:46.091Z</time></trkpt><trkpt lat="44.4105267" lon="11.50293"><ele>121.0</ele><time>2026-04-17T09:01:47.091Z</time></trkpt><trkpt lat="44.4104867" lon="11.5030967"><ele>118.0</ele><time>2026-04-17T09:01:48.092Z</time></trkpt><trkpt lat="44.4104433" lon="11.5032533"><ele>115.0</ele><time>2026-04-17T09:01:49.092Z</time></trkpt><trkpt lat="44.41038" lon="11.5034133"><ele>112.0</ele><time>2026-04-17T09:01:50.091Z</time></trkpt><trkpt lat="44.4103233" lon="11.5035567"><ele>109.0</ele><time>2026-04-17T09:01:51.091Z</time></trkpt><trkpt lat="44.4102633" lon="11.503705"><ele>107.25</ele><time>2026-04-17T09:01:52.091Z</time></trkpt><trkpt lat="44.4101967" lon="11.5038567"><ele>105.5</ele><time>2026-04-17T09:01:53.092Z</time></trkpt><trkpt lat="44.4101333" lon="11.5039967"><ele>103.75</ele><time>2026-04-17T09:01:54.091Z</time></trkpt><trkpt lat="44.410075" lon="11.50413"><ele>102.0</ele><time>2026-04-17T09:01:55.091Z</time></trkpt><trkpt lat="44.41002" lon="11.5042583"><ele>102.0</ele><time>2026-04-17T09:01:56.092Z</time></trkpt><trkpt lat="44.409965" lon="11.50439"><ele>102.0</ele><time>2026-04-17T09:01:57.092Z</time></trkpt><trkpt lat="44.40991" lon="11.5044917"><ele>102.0</ele><time>2026-04-17T09:01:58.092Z</time></trkpt><trkpt lat="44.4098567" lon="11.50458"><ele>102.0</ele><time>2026-04-17T09:01:59.092Z</time></trkpt><trkpt lat="44.409805" lon="11.5046517"><ele>102.0</ele><time>2026-04-17T09:02:00.091Z</time></trkpt><trkpt lat="44.4097233" lon="11.5047367"><ele>101.6</ele><time>2026-04-17T09:02:02.092Z</time></trkpt><trkpt lat="44.4096467" lon="11.504755"><ele>101.19999999999999</ele><time>2026-04-17T09:02:05.092Z</time></trkpt><trkpt lat="44.4095367" lon="11.5047217"><ele>100.8</ele><time>2026-04-17T09:02:07.091Z</time></trkpt><trkpt lat="44.409465" lon="11.5046517"><ele>100.4</ele><time>2026-04-17T09:02:08.092Z</time></trkpt><trkpt lat="44.4093833" lon="11.5045617"><ele>100.0</ele><time>2026-04-17T09:02:09.091Z</time></trkpt><trkpt lat="44.409305" lon="11.5044533"><ele>100.0</ele><time>2026-04-17T09:02:10.092Z</time></trkpt><trkpt lat="44.409225" lon="11.5043367"><ele>100.0</ele><time>2026-04-17T09:02:11.091Z</time></trkpt><trkpt lat="44.40914" lon="11.5042133"><ele>100.0</ele><time>2026-04-17T09:02:12.092Z</time></trkpt><trkpt lat="44.40905" lon="11.5040817"><ele>100.0</ele><time>2026-04-17T09:02:13.092Z</time></trkpt><trkpt lat="44.4089633" lon="11.5039483"><ele>100.0</ele><time>2026-04-17T09:02:14.092Z</time></trkpt><trkpt lat="44.40887" lon="11.5038133"><ele>100.0</ele><time>2026-04-17T09:02:15.091Z</time></trkpt><trkpt lat="44.4087783" lon="11.503685"><ele>100.0</ele><time>2026-04-17T09:02:16.091Z</time></trkpt><trkpt lat="44.4086917" lon="11.503555"><ele>100.0</ele><time>2026-04-17T09:02:17.092Z</time></trkpt><trkpt lat="44.4086067" lon="11.503435"><ele>100.0</ele><time>2026-04-17T09:02:18.091Z</time></trkpt><trkpt lat="44.408525" lon="11.50332"><ele>100.0</ele><time>2026-04-17T09:02:19.092Z</time></trkpt><trkpt lat="44.4084517" lon="11.50321"><ele>100.0</ele><time>2026-04-17T09:02:20.091Z</time></trkpt><trkpt lat="44.4083817" lon="11.5031133"><ele>100.0</ele><time>2026-04-17T09:02:21.092Z</time></trkpt><trkpt lat="44.4083117" lon="11.5030167"><ele>100.0</ele><time>2026-04-17T09:02:22.092Z</time></trkpt><trkpt lat="44.4082467" lon="11.5029383"><ele>99.83333333333334</ele><time>2026-04-17T09:02:23.091Z</time></trkpt><trkpt lat="44.4081767" lon="11.50288"><ele>99.66666666666667</ele><time>2026-04-17T09:02:24.092Z</time></trkpt><trkpt lat="44.4081017" lon="11.5028583"><ele>99.5</ele><time>2026-04-17T09:02:25.091Z</time></trkpt><trkpt lat="44.4080267" lon="11.5028783"><ele>99.33333333333334</ele><time>2026-04-17T09:02:26.091Z</time></trkpt><trkpt lat="44.40795" lon="11.5029333"><ele>99.16666666666667</ele><time>2026-04-17T09:02:27.091Z</time></trkpt><trkpt lat="44.407885" lon="11.5030217"><ele>99.0</ele><time>2026-04-17T09:02:28.091Z</time></trkpt><trkpt lat="44.4078217" lon="11.5031167"><ele>99.0</ele><time>2026-04-17T09:02:29.092Z</time></trkpt><trkpt lat="44.4077633" lon="11.5031817"><ele>99.0</ele><time>2026-04-17T09:02:30.091Z</time></trkpt><trkpt lat="44.4077" lon="11.5032183"><ele>99.0</ele><time>2026-04-17T09:02:31.091Z</time></trkpt><trkpt lat="44.4076217" lon="11.5032167"><ele>99.0</ele><time>2026-04-17T09:02:32.091Z</time></trkpt><trkpt lat="44.4075283" lon="11.5031867"><ele>99.0</ele><time>2026-04-17T09:02:33.092Z</time></trkpt><trkpt lat="44.40742" lon="11.50312"><ele>99.0</ele><time>2026-04-17T09:02:34.091Z</time></trkpt><trkpt lat="44.407305" lon="11.5030433"><ele>99.0</ele><time>2026-04-17T09:02:35.091Z</time></trkpt><trkpt lat="44.4071867" lon="11.5029717"><ele>99.0</ele><time>2026-04-17T09:02:36.091Z</time></trkpt><trkpt lat="44.4070617" lon="11.502895"><ele>99.0</ele><time>2026-04-17T09:02:37.092Z</time></trkpt><trkpt lat="44.40693" lon="11.502805"><ele>99.0</ele><time>2026-04-17T09:02:38.092Z</time></trkpt><trkpt lat="44.4068117" lon="11.5027117"><ele>99.5</ele><time>2026-04-17T09:02:39.091Z</time></trkpt><trkpt lat="44.4066983" lon="11.502625"><ele>100.0</ele><time>2026-04-17T09:02:40.092Z</time></trkpt><trkpt lat="44.4065917" lon="11.5025367"><ele>100.5</ele><time>2026-04-17T09:02:41.091Z</time></trkpt><trkpt lat="44.4064833" lon="11.502455"><ele>101.0</ele><time>2026-04-17T09:02:42.091Z</time></trkpt><trkpt lat="44.4063717" lon="11.502395"><ele>101.5</ele><time>2026-04-17T09:02:43.091Z</time></trkpt><trkpt lat="44.40625" lon="11.5023567"><ele>102.0</ele><time>2026-04-17T09:02:44.092Z</time></trkpt><trkpt lat="44.406115" lon="11.5023433"><ele>102.5</ele><time>2026-04-17T09:02:45.091Z</time></trkpt><trkpt lat="44.4059717" lon="11.5023517"><ele>103.0</ele><time>2026-04-17T09:02:46.092Z</time></trkpt><trkpt lat="44.4058333" lon="11.5023667"><ele>103.0</ele><time>2026-04-17T09:02:47.092Z</time></trkpt><trkpt lat="44.4057017" lon="11.5023933"><ele>103.0</ele><time>2026-04-17T09:02:48.092Z</time></trkpt><trkpt lat="44.4055667" lon="11.5024367"><ele>103.0</ele><time>2026-04-17T09:02:49.092Z</time></trkpt><trkpt lat="44.4054383" lon="11.502505"><ele>103.0</ele><time>2026-04-17T09:02:50.092Z</time></trkpt><trkpt lat="44.4053133" lon="11.5025683"><ele>103.5</ele><time>2026-04-17T09:02:51.091Z</time></trkpt><trkpt lat="44.4051967" lon="11.5026517"><ele>104.0</ele><time>2026-04-17T09:02:52.091Z</time></trkpt><trkpt lat="44.4050783" lon="11.5027283"><ele>104.5</ele><time>2026-04-17T09:02:53.091Z</time></trkpt><trkpt lat="44.4049667" lon="11.50278"><ele>105.0</ele><time>2026-04-17T09:02:54.092Z</time></trkpt><trkpt lat="44.404855" lon="11.5027933"><ele>105.0</ele><time>2026-04-17T09:02:55.091Z</time></trkpt><trkpt lat="44.40475" lon="11.5027817"><ele>105.0</ele><time>2026-04-17T09:02:56.092Z</time></trkpt><trkpt lat="44.4046333" lon="11.50274"><ele>105.0</ele><time>2026-04-17T09:02:57.092Z</time></trkpt><trkpt lat="44.4045333" lon="11.50267"><ele>105.0</ele><time>2026-04-17T09:02:58.092Z</time></trkpt><trkpt lat="44.40445" lon="11.5025867"><ele>105.0</ele><time>2026-04-17T09:02:59.091Z</time></trkpt><trkpt lat="44.4043633" lon="11.5025017"><ele>105.2</ele><time>2026-04-17T09:03:00.092Z</time></trkpt><trkpt lat="44.404275" lon="11.50244"><ele>105.4</ele><time>2026-04-17T09:03:01.092Z</time></trkpt><trkpt lat="44.404175" lon="11.50242"><ele>105.6</ele><time>2026-04-17T09:03:02.092Z</time></trkpt><trkpt lat="44.4040633" lon="11.5024367"><ele>105.8</ele><time>2026-04-17T09:03:03.092Z</time></trkpt><trkpt lat="44.4039517" lon="11.5025017"><ele>106.0</ele><time>2026-04-17T09:03:04.091Z</time></trkpt><trkpt lat="44.40383" lon="11.502585"><ele>106.5</ele><time>2026-04-17T09:03:05.092Z</time></trkpt><trkpt lat="44.40371" lon="11.5026683"><ele>107.0</ele><time>2026-04-17T09:03:06.091Z</time></trkpt><trkpt lat="44.403585" lon="11.5027383"><ele>107.5</ele><time>2026-04-17T09:03:07.091Z</time></trkpt><trkpt lat="44.4034633" lon="11.5028033"><ele>108.0</ele><time>2026-04-17T09:03:08.091Z</time></trkpt><trkpt lat="44.40334" lon="11.5028167"><ele>108.0</ele><time>2026-04-17T09:03:09.09Z</time></trkpt><trkpt lat="44.4032083" lon="11.50281"><ele>108.0</ele><time>2026-04-17T09:03:10.091Z</time></trkpt><trkpt lat="44.403085" lon="11.5027983"><ele>108.0</ele><time>2026-04-17T09:03:11.091Z</time></trkpt><trkpt lat="44.4029767" lon="11.5027867"><ele>108.0</ele><time>2026-04-17T09:03:12.09Z</time></trkpt><trkpt lat="44.4028933" lon="11.50275"><ele>109.0</ele><time>2026-04-17T09:03:13.091Z</time></trkpt><trkpt lat="44.4028233" lon="11.5026767"><ele>110.0</ele><time>2026-04-17T09:03:14.091Z</time></trkpt><trkpt lat="44.4027567" lon="11.5025717"><ele>111.0</ele><time>2026-04-17T09:03:15.09Z</time></trkpt><trkpt lat="44.40269" lon="11.50243"><ele>112.0</ele><time>2026-04-17T09:03:16.09Z</time></trkpt><trkpt lat="44.4026267" lon="11.50225"><ele>112.0</ele><time>2026-04-17T09:03:17.09Z</time></trkpt><trkpt lat="44.4025567" lon="11.5020833"><ele>112.0</ele><time>2026-04-17T09:03:18.09Z</time></trkpt><trkpt lat="44.4024683" lon="11.5019383"><ele>112.0</ele><time>2026-04-17T09:03:19.09Z</time></trkpt><trkpt lat="44.4023567" lon="11.501815"><ele>112.0</ele><time>2026-04-17T09:03:20.09Z</time></trkpt><trkpt lat="44.402235" lon="11.5017233"><ele>113.75</ele><time>2026-04-17T09:03:21.091Z</time></trkpt><trkpt lat="44.4021033" lon="11.501635"><ele>115.5</ele><time>2026-04-17T09:03:22.09Z</time></trkpt><trkpt lat="44.4019717" lon="11.5015433"><ele>117.25</ele><time>2026-04-17T09:03:23.09Z</time></trkpt><trkpt lat="44.40184" lon="11.5014533"><ele>119.0</ele><time>2026-04-17T09:03:24.09Z</time></trkpt><trkpt lat="44.40171" lon="11.5013583"><ele>119.0</ele><time>2026-04-17T09:03:25.091Z</time></trkpt><trkpt lat="44.4015683" lon="11.5012633"><ele>119.0</ele><time>2026-04-17T09:03:26.09Z</time></trkpt><trkpt lat="44.4014267" lon="11.5011667"><ele>119.0</ele><time>2026-04-17T09:03:27.09Z</time></trkpt><trkpt lat="44.401285" lon="11.5010683"><ele>123.66666666666666</ele><time>2026-04-17T09:03:28.091Z</time></trkpt><trkpt lat="44.4011417" lon="11.500965"><ele>128.33333333333334</ele><time>2026-04-17T09:03:29.091Z</time></trkpt><trkpt lat="44.401005" lon="11.5008617"><ele>133.0</ele><time>2026-04-17T09:03:30.09Z</time></trkpt><trkpt lat="44.400875" lon="11.5007667"><ele>133.0</ele><time>2026-04-17T09:03:31.09Z</time></trkpt><trkpt lat="44.40075" lon="11.5006783"><ele>133.0</ele><time>2026-04-17T09:03:32.091Z</time></trkpt><trkpt lat="44.4006417" lon="11.500605"><ele>133.0</ele><time>2026-04-17T09:03:33.09Z</time></trkpt><trkpt lat="44.40055" lon="11.5005417"><ele>133.0</ele><time>2026-04-17T09:03:34.09Z</time></trkpt><trkpt lat="44.400475" lon="11.5004883"><ele>133.0</ele><time>2026-04-17T09:03:35.09Z</time></trkpt><trkpt lat="44.4004" lon="11.5004783"><ele>136.0</ele><time>2026-04-17T09:03:36.09Z</time></trkpt><trkpt lat="44.40033" lon="11.5005233"><ele>139.0</ele><time>2026-04-17T09:03:37.09Z</time></trkpt><trkpt lat="44.4002783" lon="11.500625"><ele>142.0</ele><time>2026-04-17T09:03:38.091Z</time></trkpt><trkpt lat="44.40023" lon="11.5007683"><ele>145.0</ele><time>2026-04-17T09:03:39.09Z</time></trkpt><trkpt lat="44.400165" lon="11.5009167"><ele>148.0</ele><time>2026-04-17T09:03:40.091Z</time></trkpt><trkpt lat="44.4000833" lon="11.501055"><ele>148.0</ele><time>2026-04-17T09:03:41.09Z</time></trkpt><trkpt lat="44.3999933" lon="11.5011817"><ele>148.0</ele><time>2026-04-17T09:03:42.09Z</time></trkpt><trkpt lat="44.3999017" lon="11.501305"><ele>148.0</ele><time>2026-04-17T09:03:43.091Z</time></trkpt><trkpt lat="44.3998133" lon="11.501415"><ele>148.0</ele><time>2026-04-17T09:03:44.091Z</time></trkpt><trkpt lat="44.3997317" lon="11.5014917"><ele>149.20000000000002</ele><time>2026-04-17T09:03:45.091Z</time></trkpt><trkpt lat="44.3996417" lon="11.5015233"><ele>150.4</ele><time>2026-04-17T09:03:46.09Z</time></trkpt><trkpt lat="44.399545" lon="11.5015133"><ele>151.60000000000002</ele><time>2026-04-17T09:03:47.09Z</time></trkpt><trkpt lat="44.399445" lon="11.501445"><ele>152.8</ele><time>2026-04-17T09:03:48.091Z</time></trkpt><trkpt lat="44.3993367" lon="11.5013517"><ele>154.0</ele><time>2026-04-17T09:03:49.09Z</time></trkpt><trkpt lat="44.3992183" lon="11.5012667"><ele>154.5</ele><time>2026-04-17T09:03:50.09Z</time></trkpt><trkpt lat="44.3990917" lon="11.5012067"><ele>155.0</ele><time>2026-04-17T09:03:51.09Z</time></trkpt><trkpt lat="44.398955" lon="11.5011633"><ele>155.5</ele><time>2026-04-17T09:03:52.09Z</time></trkpt><trkpt lat="44.3988167" lon="11.5011333"><ele>156.0</ele><time>2026-04-17T09:03:53.09Z</time></trkpt><trkpt lat="44.3986783" lon="11.5010967"><ele>157.0</ele><time>2026-04-17T09:03:54.09Z</time></trkpt><trkpt lat="44.3985417" lon="11.50107"><ele>158.0</ele><time>2026-04-17T09:03:55.09Z</time></trkpt><trkpt lat="44.3984217" lon="11.501035"><ele>159.0</ele><time>2026-04-17T09:03:56.091Z</time></trkpt><trkpt lat="44.3982983" lon="11.5009783"><ele>160.0</ele><time>2026-04-17T09:03:57.09Z</time></trkpt><trkpt lat="44.3981783" lon="11.5008917"><ele>160.0</ele><time>2026-04-17T09:03:58.09Z</time></trkpt><trkpt lat="44.3980583" lon="11.5007817"><ele>160.0</ele><time>2026-04-17T09:03:59.09Z</time></trkpt><trkpt lat="44.3979467" lon="11.5006483"><ele>160.0</ele><time>2026-04-17T09:04:00.091Z</time></trkpt><trkpt lat="44.39785" lon="11.500495"><ele>160.0</ele><time>2026-04-17T09:04:01.09Z</time></trkpt><trkpt lat="44.397775" lon="11.5003233"><ele>161.0</ele><time>2026-04-17T09:04:02.09Z</time></trkpt><trkpt lat="44.39771" lon="11.5001467"><ele>162.0</ele><time>2026-04-17T09:04:03.09Z</time></trkpt><trkpt lat="44.3976283" lon="11.499975"><ele>163.0</ele><time>2026-04-17T09:04:04.09Z</time></trkpt><trkpt lat="44.3975317" lon="11.499825"><ele>164.0</ele><time>2026-04-17T09:04:05.091Z</time></trkpt><trkpt lat="44.3974117" lon="11.4996967"><ele>165.0</ele><time>2026-04-17T09:04:06.091Z</time></trkpt><trkpt lat="44.39728" lon="11.499575"><ele>166.0</ele><time>2026-04-17T09:04:07.09Z</time></trkpt><trkpt lat="44.397145" lon="11.499455"><ele>167.0</ele><time>2026-04-17T09:04:08.09Z</time></trkpt><trkpt lat="44.3970117" lon="11.4993317"><ele>167.0</ele><time>2026-04-17T09:04:09.09Z</time></trkpt><trkpt lat="44.3968817" lon="11.499215"><ele>167.0</ele><time>2026-04-17T09:04:10.091Z</time></trkpt><trkpt lat="44.39675" lon="11.4990933"><ele>167.0</ele><time>2026-04-17T09:04:11.09Z</time></trkpt><trkpt lat="44.3966167" lon="11.4989733"><ele>167.0</ele><time>2026-04-17T09:04:12.091Z</time></trkpt><trkpt lat="44.3964783" lon="11.4988567"><ele>167.0</ele><time>2026-04-17T09:04:13.09Z</time></trkpt><trkpt lat="44.3963467" lon="11.498735"><ele>167.0</ele><time>2026-04-17T09:04:14.09Z</time></trkpt><trkpt lat="44.396215" lon="11.4986183"><ele>170.66666666666666</ele><time>2026-04-17T09:04:15.091Z</time></trkpt><trkpt lat="44.39608" lon="11.4985"><ele>174.33333333333334</ele><time>2026-04-17T09:04:16.09Z</time></trkpt><trkpt lat="44.3959367" lon="11.4984083"><ele>178.0</ele><time>2026-04-17T09:04:17.09Z</time></trkpt><trkpt lat="44.39579" lon="11.4983383"><ele>178.0</ele><time>2026-04-17T09:04:18.09Z</time></trkpt><trkpt lat="44.395645" lon="11.4982633"><ele>178.0</ele><time>2026-04-17T09:04:19.09Z</time></trkpt><trkpt lat="44.3955083" lon="11.498175"><ele>178.0</ele><time>2026-04-17T09:04:20.09Z</time></trkpt><trkpt lat="44.3953867" lon="11.4980733"><ele>178.0</ele><time>2026-04-17T09:04:21.09Z</time></trkpt><trkpt lat="44.3952717" lon="11.4979517"><ele>181.25</ele><time>2026-04-17T09:04:22.091Z</time></trkpt><trkpt lat="44.3951633" lon="11.49783"><ele>184.5</ele><time>2026-04-17T09:04:23.09Z</time></trkpt><trkpt lat="44.395065" lon="11.4977233"><ele>187.75</ele><time>2026-04-17T09:04:24.091Z</time></trkpt><trkpt lat="44.3949733" lon="11.49764"><ele>191.0</ele><time>2026-04-17T09:04:25.09Z</time></trkpt><trkpt lat="44.3948867" lon="11.4975817"><ele>191.0</ele><time>2026-04-17T09:04:26.09Z</time></trkpt><trkpt lat="44.3948033" lon="11.4975667"><ele>191.0</ele><time>2026-04-17T09:04:27.091Z</time></trkpt><trkpt lat="44.3947183" lon="11.4975983"><ele>191.0</ele><time>2026-04-17T09:04:28.091Z</time></trkpt><trkpt lat="44.3946333" lon="11.4976733"><ele>191.0</ele><time>2026-04-17T09:04:29.09Z</time></trkpt><trkpt lat="44.3945583" lon="11.4978083"><ele>191.0</ele><time>2026-04-17T09:04:30.09Z</time></trkpt><trkpt lat="44.3944883" lon="11.497965"><ele>194.8</ele><time>2026-04-17T09:04:31.091Z</time></trkpt><trkpt lat="44.39443" lon="11.4981267"><ele>198.60000000000002</ele><time>2026-04-17T09:04:32.09Z</time></trkpt><trkpt lat="44.3943833" lon="11.4982767"><ele>202.4</ele><time>2026-04-17T09:04:33.09Z</time></trkpt><trkpt lat="44.3943283" lon="11.4983983"><ele>206.2</ele><time>2026-04-17T09:04:34.09Z</time></trkpt><trkpt lat="44.3942517" lon="11.4984583"><ele>210.0</ele><time>2026-04-17T09:04:35.09Z</time></trkpt><trkpt lat="44.3941717" lon="11.4984717"><ele>210.0</ele><time>2026-04-17T09:04:36.091Z</time></trkpt><trkpt lat="44.39409" lon="11.4984217"><ele>210.0</ele><time>2026-04-17T09:04:37.091Z</time></trkpt><trkpt lat="44.3940133" lon="11.498285"><ele>210.0</ele><time>2026-04-17T09:04:38.09Z</time></trkpt><trkpt lat="44.393935" lon="11.4981133"><ele>210.0</ele><time>2026-04-17T09:04:39.09Z</time></trkpt><trkpt lat="44.3938483" lon="11.4979483"><ele>214.5</ele><time>2026-04-17T09:04:40.091Z</time></trkpt><trkpt lat="44.3937783" lon="11.497785"><ele>219.0</ele><time>2026-04-17T09:04:41.09Z</time></trkpt><trkpt lat="44.3936917" lon="11.4976417"><ele>223.5</ele><time>2026-04-17T09:04:42.091Z</time></trkpt><trkpt lat="44.3936183" lon="11.4975033"><ele>228.0</ele><time>2026-04-17T09:04:43.09Z</time></trkpt><trkpt lat="44.393555" lon="11.4973833"><ele>228.0</ele><time>2026-04-17T09:04:44.091Z</time></trkpt><trkpt lat="44.3935033" lon="11.4973"><ele>228.0</ele><time>2026-04-17T09:04:45.09Z</time></trkpt><trkpt lat="44.393405" lon="11.4973067"><ele>228.0</ele><time>2026-04-17T09:04:47.091Z</time></trkpt><trkpt lat="44.393375" lon="11.497385"><ele>228.0</ele><time>2026-04-17T09:04:48.09Z</time></trkpt><trkpt lat="44.3933733" lon="11.4974933"><ele>228.0</ele><time>2026-04-17T09:04:49.09Z</time></trkpt><trkpt lat="44.393395" lon="11.49763"><ele>228.0</ele><time>2026-04-17T09:04:50.09Z</time></trkpt><trkpt lat="44.3934417" lon="11.497795"><ele>228.25</ele><time>2026-04-17T09:04:51.091Z</time></trkpt><trkpt lat="44.39351" lon="11.4979717"><ele>228.5</ele><time>2026-04-17T09:04:52.09Z</time></trkpt><trkpt lat="44.3935567" lon="11.49815"><ele>228.75</ele><time>2026-04-17T09:04:53.09Z</time></trkpt><trkpt lat="44.39358" lon="11.4982917"><ele>229.0</ele><time>2026-04-17T09:04:54.09Z</time></trkpt><trkpt lat="44.3935733" lon="11.4984233"><ele>229.0</ele><time>2026-04-17T09:04:55.09Z</time></trkpt><trkpt lat="44.3935217" lon="11.4985217"><ele>228.99999999999997</ele><time>2026-04-17T09:04:56.09Z</time></trkpt><trkpt lat="44.393445" lon="11.4985867"><ele>228.99999999999997</ele><time>2026-04-17T09:04:57.09Z</time></trkpt><trkpt lat="44.3933467" lon="11.4986283"><ele>229.0</ele><time>2026-04-17T09:04:58.09Z</time></trkpt><trkpt lat="44.39324" lon="11.4986333"><ele>229.0</ele><time>2026-04-17T09:04:59.09Z</time></trkpt><trkpt lat="44.39314" lon="11.4985867"><ele>228.99999999999997</ele><time>2026-04-17T09:05:00.09Z</time></trkpt><trkpt lat="44.3930483" lon="11.4985067"><ele>229.0</ele><time>2026-04-17T09:05:01.09Z</time></trkpt><trkpt lat="44.3929833" lon="11.49842"><ele>229.0</ele><time>2026-04-17T09:05:02.091Z</time></trkpt><trkpt lat="44.3929467" lon="11.49833"><ele>229.0</ele><time>2026-04-17T09:05:03.09Z</time></trkpt><trkpt lat="44.3929367" lon="11.4982233"><ele>228.99999999999997</ele><time>2026-04-17T09:05:04.09Z</time></trkpt><trkpt lat="44.39296" lon="11.4981167"><ele>229.0</ele><time>2026-04-17T09:05:05.09Z</time></trkpt><trkpt lat="44.3930017" lon="11.4980017"><ele>228.79999999999998</ele><time>2026-04-17T09:05:06.09Z</time></trkpt><trkpt lat="44.3930417" lon="11.4978783"><ele>228.59999999999997</ele><time>2026-04-17T09:05:07.09Z</time></trkpt><trkpt lat="44.3930517" lon="11.4977533"><ele>228.4</ele><time>2026-04-17T09:05:08.09Z</time></trkpt><trkpt lat="44.393035" lon="11.49762"><ele>228.2</ele><time>2026-04-17T09:05:09.09Z</time></trkpt><trkpt lat="44.392975" lon="11.49748"><ele>228.0</ele><time>2026-04-17T09:05:10.091Z</time></trkpt><trkpt lat="44.3928933" lon="11.4973333"><ele>231.0</ele><time>2026-04-17T09:05:11.09Z</time></trkpt><trkpt lat="44.3928" lon="11.4971967"><ele>234.0</ele><time>2026-04-17T09:05:12.09Z</time></trkpt><trkpt lat="44.3927133" lon="11.49707"><ele>237.0</ele><time>2026-04-17T09:05:13.09Z</time></trkpt><trkpt lat="44.39261" lon="11.4969583"><ele>240.0</ele><time>2026-04-17T09:05:14.091Z</time></trkpt><trkpt lat="44.392495" lon="11.4968633"><ele>240.0</ele><time>2026-04-17T09:05:15.091Z</time></trkpt><trkpt lat="44.39237" lon="11.496785"><ele>240.0</ele><time>2026-04-17T09:05:16.091Z</time></trkpt><trkpt lat="44.3922317" lon="11.4967033"><ele>240.0</ele><time>2026-04-17T09:05:17.09Z</time></trkpt><trkpt lat="44.3920833" lon="11.4966283"><ele>240.0</ele><time>2026-04-17T09:05:18.09Z</time></trkpt><trkpt lat="44.3919317" lon="11.4965417"><ele>244.33333333333331</ele><time>2026-04-17T09:05:19.09Z</time></trkpt><trkpt lat="44.3917817" lon="11.49646"><ele>248.66666666666666</ele><time>2026-04-17T09:05:20.09Z</time></trkpt><trkpt lat="44.3916267" lon="11.4963767"><ele>253.0</ele><time>2026-04-17T09:05:21.091Z</time></trkpt><trkpt lat="44.3914733" lon="11.4962967"><ele>256.0</ele><time>2026-04-17T09:05:22.09Z</time></trkpt><trkpt lat="44.39133" lon="11.4962067"><ele>259.0</ele><time>2026-04-17T09:05:23.09Z</time></trkpt><trkpt lat="44.3911817" lon="11.4961117"><ele>262.0</ele><time>2026-04-17T09:05:24.091Z</time></trkpt><trkpt lat="44.3910417" lon="11.496015"><ele>262.0</ele><time>2026-04-17T09:05:25.09Z</time></trkpt><trkpt lat="44.3909083" lon="11.495925"><ele>262.0</ele><time>2026-04-17T09:05:26.09Z</time></trkpt><trkpt lat="44.390795" lon="11.4958217"><ele>262.0</ele><time>2026-04-17T09:05:27.09Z</time></trkpt><trkpt lat="44.390685" lon="11.4956967"><ele>262.0</ele><time>2026-04-17T09:05:28.09Z</time></trkpt><trkpt lat="44.390585" lon="11.49556"><ele>264.25</ele><time>2026-04-17T09:05:29.091Z</time></trkpt><trkpt lat="44.3905" lon="11.4954083"><ele>266.5</ele><time>2026-04-17T09:05:30.09Z</time></trkpt><trkpt lat="44.3904233" lon="11.4952567"><ele>268.75</ele><time>2026-04-17T09:05:31.091Z</time></trkpt><trkpt lat="44.39035" lon="11.495125"><ele>271.0</ele><time>2026-04-17T09:05:32.091Z</time></trkpt><trkpt lat="44.39028" lon="11.4950067"><ele>271.0</ele><time>2026-04-17T09:05:33.09Z</time></trkpt><trkpt lat="44.3901933" lon="11.4948983"><ele>271.0</ele><time>2026-04-17T09:05:34.09Z</time></trkpt><trkpt lat="44.3900717" lon="11.4948"><ele>271.0</ele><time>2026-04-17T09:05:35.091Z</time></trkpt><trkpt lat="44.3899433" lon="11.4946967"><ele>271.0</ele><time>2026-04-17T09:05:36.091Z</time></trkpt><trkpt lat="44.3898067" lon="11.49458"><ele>272.66666666666663</ele><time>2026-04-17T09:05:37.091Z</time></trkpt><trkpt lat="44.3896733" lon="11.494445"><ele>274.3333333333333</ele><time>2026-04-17T09:05:38.09Z</time></trkpt><trkpt lat="44.3895317" lon="11.4943"><ele>276.0</ele><time>2026-04-17T09:05:39.09Z</time></trkpt><trkpt lat="44.3893883" lon="11.4941483"><ele>276.0</ele><time>2026-04-17T09:05:40.09Z</time></trkpt><trkpt lat="44.3892433" lon="11.4939967"><ele>276.0</ele><time>2026-04-17T09:05:41.09Z</time></trkpt><trkpt lat="44.3890983" lon="11.4938467"><ele>276.0</ele><time>2026-04-17T09:05:42.09Z</time></trkpt><trkpt lat="44.38895" lon="11.4936917"><ele>281.0</ele><time>2026-04-17T09:05:43.09Z</time></trkpt><trkpt lat="44.388805" lon="11.4935367"><ele>286.0</ele><time>2026-04-17T09:05:44.091Z</time></trkpt><trkpt lat="44.38866" lon="11.49338"><ele>291.0</ele><time>2026-04-17T09:05:45.091Z</time></trkpt><trkpt lat="44.3885217" lon="11.493245"><ele>291.0</ele><time>2026-04-17T09:05:46.09Z</time></trkpt><trkpt lat="44.3884" lon="11.4931117"><ele>291.0</ele><time>2026-04-17T09:05:47.09Z</time></trkpt><trkpt lat="44.3882983" lon="11.49298"><ele>291.0</ele><time>2026-04-17T09:05:48.09Z</time></trkpt><trkpt lat="44.3882117" lon="11.4928433"><ele>291.0</ele><time>2026-04-17T09:05:49.09Z</time></trkpt><trkpt lat="44.3881333" lon="11.4926867"><ele>290.5</ele><time>2026-04-17T09:05:50.09Z</time></trkpt><trkpt lat="44.3880817" lon="11.4925017"><ele>290.0</ele><time>2026-04-17T09:05:51.09Z</time></trkpt><trkpt lat="44.3880383" lon="11.4922933"><ele>289.5</ele><time>2026-04-17T09:05:52.09Z</time></trkpt><trkpt lat="44.3880067" lon="11.4920917"><ele>289.0</ele><time>2026-04-17T09:05:53.091Z</time></trkpt><trkpt lat="44.38798" lon="11.4919033"><ele>291.0</ele><time>2026-04-17T09:05:54.09Z</time></trkpt><trkpt lat="44.38795" lon="11.4917567"><ele>293.0</ele><time>2026-04-17T09:05:55.091Z</time></trkpt><trkpt lat="44.3879233" lon="11.491625"><ele>295.0</ele><time>2026-04-17T09:05:56.091Z</time></trkpt><trkpt lat="44.3878817" lon="11.49153"><ele>297.0</ele><time>2026-04-17T09:05:57.091Z</time></trkpt><trkpt lat="44.3878117" lon="11.4915033"><ele>299.0</ele><time>2026-04-17T09:05:58.09Z</time></trkpt><trkpt lat="44.38772" lon="11.4915233"><ele>299.0</ele><time>2026-04-17T09:05:59.09Z</time></trkpt><trkpt lat="44.3876133" lon="11.49158"><ele>299.0</ele><time>2026-04-17T09:06:00.09Z</time></trkpt><trkpt lat="44.3874883" lon="11.49166"><ele>299.0</ele><time>2026-04-17T09:06:01.09Z</time></trkpt><trkpt lat="44.3873567" lon="11.491735"><ele>299.0</ele><time>2026-04-17T09:06:02.09Z</time></trkpt><trkpt lat="44.3872217" lon="11.4918117"><ele>297.0</ele><time>2026-04-17T09:06:03.09Z</time></trkpt><trkpt lat="44.3871017" lon="11.491895"><ele>295.0</ele><time>2026-04-17T09:06:04.09Z</time></trkpt><trkpt lat="44.38699" lon="11.49201"><ele>293.0</ele><time>2026-04-17T09:06:05.09Z</time></trkpt><trkpt lat="44.3868883" lon="11.4921517"><ele>291.0</ele><time>2026-04-17T09:06:06.09Z</time></trkpt><trkpt lat="44.3867933" lon="11.4923167"><ele>296.25</ele><time>2026-04-17T09:06:07.091Z</time></trkpt><trkpt lat="44.386705" lon="11.4924667"><ele>301.5</ele><time>2026-04-17T09:06:08.09Z</time></trkpt><trkpt lat="44.3866183" lon="11.492585"><ele>306.75</ele><time>2026-04-17T09:06:09.091Z</time></trkpt><trkpt lat="44.3865167" lon="11.4926567"><ele>312.0</ele><time>2026-04-17T09:06:10.09Z</time></trkpt><trkpt lat="44.3863983" lon="11.4927033"><ele>310.8</ele><time>2026-04-17T09:06:11.09Z</time></trkpt><trkpt lat="44.3862817" lon="11.492755"><ele>309.6</ele><time>2026-04-17T09:06:12.09Z</time></trkpt><trkpt lat="44.386175" lon="11.492835"><ele>308.40000000000003</ele><time>2026-04-17T09:06:13.09Z</time></trkpt><trkpt lat="44.3860817" lon="11.492895"><ele>307.2</ele><time>2026-04-17T09:06:14.091Z</time></trkpt><trkpt lat="44.386" lon="11.4929133"><ele>306.0</ele><time>2026-04-17T09:06:15.091Z</time></trkpt><trkpt lat="44.3859233" lon="11.4928833"><ele>306.0</ele><time>2026-04-17T09:06:16.091Z</time></trkpt><trkpt lat="44.3858583" lon="11.49278"><ele>306.0</ele><time>2026-04-17T09:06:17.09Z</time></trkpt><trkpt lat="44.3857883" lon="11.4926433"><ele>306.0</ele><time>2026-04-17T09:06:18.091Z</time></trkpt><trkpt lat="44.3857133" lon="11.4925167"><ele>306.0</ele><time>2026-04-17T09:06:19.091Z</time></trkpt><trkpt lat="44.385635" lon="11.4924017"><ele>306.0</ele><time>2026-04-17T09:06:20.09Z</time></trkpt><trkpt lat="44.3855483" lon="11.4923367"><ele>306.0</ele><time>2026-04-17T09:06:21.091Z</time></trkpt><trkpt lat="44.3854433" lon="11.4923217"><ele>306.0</ele><time>2026-04-17T09:06:22.09Z</time></trkpt><trkpt lat="44.3853283" lon="11.49236"><ele>306.0</ele><time>2026-04-17T09:06:23.091Z</time></trkpt><trkpt lat="44.3852133" lon="11.492425"><ele>306.0</ele><time>2026-04-17T09:06:24.091Z</time></trkpt><trkpt lat="44.3851067" lon="11.49247"><ele>306.8</ele><time>2026-04-17T09:06:25.091Z</time></trkpt><trkpt lat="44.3849967" lon="11.4924767"><ele>307.6</ele><time>2026-04-17T09:06:26.091Z</time></trkpt><trkpt lat="44.38489" lon="11.4924417"><ele>308.4</ele><time>2026-04-17T09:06:27.09Z</time></trkpt><trkpt lat="44.3848067" lon="11.4923633"><ele>309.2</ele><time>2026-04-17T09:06:28.09Z</time></trkpt><trkpt lat="44.3847433" lon="11.4922417"><ele>310.0</ele><time>2026-04-17T09:06:29.091Z</time></trkpt><trkpt lat="44.3846933" lon="11.4921"><ele>308.0</ele><time>2026-04-17T09:06:30.09Z</time></trkpt><trkpt lat="44.384645" lon="11.491955"><ele>306.0</ele><time>2026-04-17T09:06:31.09Z</time></trkpt><trkpt lat="44.38458" lon="11.4918533"><ele>304.0</ele><time>2026-04-17T09:06:32.09Z</time></trkpt><trkpt lat="44.3844883" lon="11.4918017"><ele>302.0</ele><time>2026-04-17T09:06:33.09Z</time></trkpt><trkpt lat="44.3843817" lon="11.4918183"><ele>300.0</ele><time>2026-04-17T09:06:34.09Z</time></trkpt><trkpt lat="44.3842667" lon="11.49189"><ele>300.0</ele><time>2026-04-17T09:06:35.09Z</time></trkpt><trkpt lat="44.384155" lon="11.491995"><ele>300.0</ele><time>2026-04-17T09:06:36.09Z</time></trkpt><trkpt lat="44.3840467" lon="11.492125"><ele>300.0</ele><time>2026-04-17T09:06:37.09Z</time></trkpt><trkpt lat="44.3839333" lon="11.4922383"><ele>300.0</ele><time>2026-04-17T09:06:38.091Z</time></trkpt><trkpt lat="44.3838067" lon="11.4923117"><ele>302.5</ele><time>2026-04-17T09:06:39.09Z</time></trkpt><trkpt lat="44.3836683" lon="11.4923533"><ele>305.0</ele><time>2026-04-17T09:06:40.091Z</time></trkpt><trkpt lat="44.38352" lon="11.4923967"><ele>307.5</ele><time>2026-04-17T09:06:41.09Z</time></trkpt><trkpt lat="44.38338" lon="11.4924583"><ele>310.0</ele><time>2026-04-17T09:06:42.09Z</time></trkpt><trkpt lat="44.383245" lon="11.4925"><ele>310.0</ele><time>2026-04-17T09:06:43.091Z</time></trkpt><trkpt lat="44.383105" lon="11.49251"><ele>310.0</ele><time>2026-04-17T09:06:44.091Z</time></trkpt><trkpt lat="44.38296" lon="11.4924833"><ele>310.0</ele><time>2026-04-17T09:06:45.09Z</time></trkpt><trkpt lat="44.3828167" lon="11.492415"><ele>310.0</ele><time>2026-04-17T09:06:46.091Z</time></trkpt><trkpt lat="44.3826683" lon="11.49233"><ele>308.66666666666663</ele><time>2026-04-17T09:06:47.09Z</time></trkpt><trkpt lat="44.382525" lon="11.4922483"><ele>307.3333333333333</ele><time>2026-04-17T09:06:48.09Z</time></trkpt><trkpt lat="44.3823817" lon="11.492175"><ele>306.0</ele><time>2026-04-17T09:06:49.09Z</time></trkpt><trkpt lat="44.3822433" lon="11.4921033"><ele>307.5</ele><time>2026-04-17T09:06:50.091Z</time></trkpt><trkpt lat="44.3821" lon="11.492055"><ele>309.0</ele><time>2026-04-17T09:06:51.091Z</time></trkpt><trkpt lat="44.3819617" lon="11.4920183"><ele>310.5</ele><time>2026-04-17T09:06:52.09Z</time></trkpt><trkpt lat="44.3818117" lon="11.49201"><ele>312.0</ele><time>2026-04-17T09:06:53.09Z</time></trkpt><trkpt lat="44.3816617" lon="11.49203"><ele>312.0</ele><time>2026-04-17T09:06:54.091Z</time></trkpt><trkpt lat="44.3815117" lon="11.492045"><ele>312.0</ele><time>2026-04-17T09:06:55.09Z</time></trkpt><trkpt lat="44.3813717" lon="11.4920183"><ele>312.0</ele><time>2026-04-17T09:06:56.09Z</time></trkpt><trkpt lat="44.3812317" lon="11.49195"><ele>312.0</ele><time>2026-04-17T09:06:57.09Z</time></trkpt><trkpt lat="44.3810967" lon="11.4918567"><ele>315.0</ele><time>2026-04-17T09:06:58.091Z</time></trkpt><trkpt lat="44.380955" lon="11.491765"><ele>318.0</ele><time>2026-04-17T09:06:59.09Z</time></trkpt><trkpt lat="44.3808167" lon="11.4916983"><ele>321.0</ele><time>2026-04-17T09:07:00.091Z</time></trkpt><trkpt lat="44.3806783" lon="11.4916617"><ele>324.0</ele><time>2026-04-17T09:07:01.09Z</time></trkpt><trkpt lat="44.38054" lon="11.4916683"><ele>325.5</ele><time>2026-04-17T09:07:02.091Z</time></trkpt><trkpt lat="44.3804167" lon="11.4917233"><ele>327.0</ele><time>2026-04-17T09:07:03.09Z</time></trkpt><trkpt lat="44.3802883" lon="11.491785"><ele>328.5</ele><time>2026-04-17T09:07:04.091Z</time></trkpt><trkpt lat="44.38017" lon="11.49183"><ele>330.0</ele><time>2026-04-17T09:07:05.091Z</time></trkpt><trkpt lat="44.38006" lon="11.49183"><ele>330.0</ele><time>2026-04-17T09:07:06.091Z</time></trkpt><trkpt lat="44.3799383" lon="11.4918017"><ele>330.0</ele><time>2026-04-17T09:07:07.09Z</time></trkpt><trkpt lat="44.3798083" lon="11.4917367"><ele>330.0</ele><time>2026-04-17T09:07:08.09Z</time></trkpt><trkpt lat="44.37969" lon="11.4916433"><ele>330.0</ele><time>2026-04-17T09:07:09.091Z</time></trkpt><trkpt lat="44.3795717" lon="11.4915267"><ele>329.3333333333333</ele><time>2026-04-17T09:07:10.09Z</time></trkpt><trkpt lat="44.37945" lon="11.4914017"><ele>328.66666666666663</ele><time>2026-04-17T09:07:11.09Z</time></trkpt><trkpt lat="44.3793317" lon="11.4912767"><ele>328.0</ele><time>2026-04-17T09:07:12.09Z</time></trkpt><trkpt lat="44.37922" lon="11.49113"><ele>328.0</ele><time>2026-04-17T09:07:13.09Z</time></trkpt><trkpt lat="44.37911" lon="11.4909733"><ele>328.0</ele><time>2026-04-17T09:07:14.09Z</time></trkpt><trkpt lat="44.379" lon="11.4908117"><ele>328.0</ele><time>2026-04-17T09:07:15.091Z</time></trkpt><trkpt lat="44.378885" lon="11.4906617"><ele>327.66666666666663</ele><time>2026-04-17T09:07:16.09Z</time></trkpt><trkpt lat="44.37876" lon="11.4905267"><ele>327.3333333333333</ele><time>2026-04-17T09:07:17.09Z</time></trkpt><trkpt lat="44.37863" lon="11.4904033"><ele>327.0</ele><time>2026-04-17T09:07:18.091Z</time></trkpt><trkpt lat="44.378505" lon="11.4902783"><ele>327.0</ele><time>2026-04-17T09:07:19.09Z</time></trkpt><trkpt lat="44.3784017" lon="11.49013"><ele>327.0</ele><time>2026-04-17T09:07:20.09Z</time></trkpt><trkpt lat="44.37831" lon="11.4899817"><ele>327.0</ele><time>2026-04-17T09:07:21.09Z</time></trkpt><trkpt lat="44.3781983" lon="11.4898583"><ele>327.0</ele><time>2026-04-17T09:07:22.089Z</time></trkpt><trkpt lat="44.3780633" lon="11.4897617"><ele>328.3333333333333</ele><time>2026-04-17T09:07:23.089Z</time></trkpt><trkpt lat="44.3779217" lon="11.489675"><ele>329.66666666666663</ele><time>2026-04-17T09:07:24.089Z</time></trkpt><trkpt lat="44.3777683" lon="11.4896167"><ele>331.0</ele><time>2026-04-17T09:07:25.089Z</time></trkpt><trkpt lat="44.3776067" lon="11.489605"><ele>331.0</ele><time>2026-04-17T09:07:26.089Z</time></trkpt><trkpt lat="44.3774533" lon="11.4896117"><ele>331.0</ele><time>2026-04-17T09:07:27.089Z</time></trkpt><trkpt lat="44.3773133" lon="11.489595"><ele>331.0</ele><time>2026-04-17T09:07:28.089Z</time></trkpt><trkpt lat="44.3771917" lon="11.4895183"><ele>331.0</ele><time>2026-04-17T09:07:29.09Z</time></trkpt><trkpt lat="44.3770817" lon="11.489395"><ele>336.3333333333333</ele><time>2026-04-17T09:07:30.089Z</time></trkpt><trkpt lat="44.3769967" lon="11.4892267"><ele>341.6666666666667</ele><time>2026-04-17T09:07:31.09Z</time></trkpt><trkpt lat="44.376935" lon="11.4890283"><ele>347.0</ele><time>2026-04-17T09:07:32.089Z</time></trkpt><trkpt lat="44.37688" lon="11.4888233"><ele>348.75</ele><time>2026-04-17T09:07:33.089Z</time></trkpt><trkpt lat="44.3768083" lon="11.488645"><ele>350.5</ele><time>2026-04-17T09:07:34.09Z</time></trkpt><trkpt lat="44.37672" lon="11.48851"><ele>352.25</ele><time>2026-04-17T09:07:35.09Z</time></trkpt><trkpt lat="44.376595" lon="11.48842"><ele>354.0</ele><time>2026-04-17T09:07:36.089Z</time></trkpt><trkpt lat="44.3764517" lon="11.48838"><ele>356.5</ele><time>2026-04-17T09:07:37.089Z</time></trkpt><trkpt lat="44.3763117" lon="11.48839"><ele>359.0</ele><time>2026-04-17T09:07:38.089Z</time></trkpt><trkpt lat="44.3761717" lon="11.4884017"><ele>361.5</ele><time>2026-04-17T09:07:39.089Z</time></trkpt><trkpt lat="44.3760267" lon="11.48838"><ele>364.0</ele><time>2026-04-17T09:07:40.089Z</time></trkpt><trkpt lat="44.37588" lon="11.488325"><ele>364.0</ele><time>2026-04-17T09:07:41.089Z</time></trkpt><trkpt lat="44.3757367" lon="11.4882533"><ele>364.0</ele><time>2026-04-17T09:07:42.089Z</time></trkpt><trkpt lat="44.3755983" lon="11.4881583"><ele>364.0</ele><time>2026-04-17T09:07:43.089Z</time></trkpt><trkpt lat="44.3754683" lon="11.4880367"><ele>369.25</ele><time>2026-04-17T09:07:44.09Z</time></trkpt><trkpt lat="44.375345" lon="11.4879167"><ele>374.5</ele><time>2026-04-17T09:07:45.09Z</time></trkpt><trkpt lat="44.3752117" lon="11.48783"><ele>379.75</ele><time>2026-04-17T09:07:46.089Z</time></trkpt><trkpt lat="44.3750683" lon="11.4877717"><ele>385.0</ele><time>2026-04-17T09:07:47.089Z</time></trkpt><trkpt lat="44.3749283" lon="11.48771"><ele>385.0</ele><time>2026-04-17T09:07:48.09Z</time></trkpt><trkpt lat="44.37479" lon="11.487655"><ele>385.0</ele><time>2026-04-17T09:07:49.09Z</time></trkpt><trkpt lat="44.374655" lon="11.4876217"><ele>385.0</ele><time>2026-04-17T09:07:50.09Z</time></trkpt><trkpt lat="44.374515" lon="11.4876333"><ele>385.0</ele><time>2026-04-17T09:07:51.089Z</time></trkpt><trkpt lat="44.374385" lon="11.4876717"><ele>389.5</ele><time>2026-04-17T09:07:52.09Z</time></trkpt><trkpt lat="44.37425" lon="11.4877067"><ele>394.0</ele><time>2026-04-17T09:07:53.089Z</time></trkpt><trkpt lat="44.37411" lon="11.4877267"><ele>398.5</ele><time>2026-04-17T09:07:54.09Z</time></trkpt><trkpt lat="44.373965" lon="11.4877533"><ele>403.0</ele><time>2026-04-17T09:07:55.09Z</time></trkpt><trkpt lat="44.3738233" lon="11.4877783"><ele>407.5</ele><time>2026-04-17T09:07:56.089Z</time></trkpt><trkpt lat="44.37369" lon="11.4877967"><ele>412.0</ele><time>2026-04-17T09:07:57.09Z</time></trkpt><trkpt lat="44.3735733" lon="11.4878233"><ele>416.5</ele><time>2026-04-17T09:07:58.089Z</time></trkpt><trkpt lat="44.3734633" lon="11.4878467"><ele>421.0</ele><time>2026-04-17T09:07:59.09Z</time></trkpt><trkpt lat="44.3733467" lon="11.48787"><ele>421.0</ele><time>2026-04-17T09:08:00.089Z</time></trkpt><trkpt lat="44.3732267" lon="11.4878867"><ele>421.0</ele><time>2026-04-17T09:08:01.089Z</time></trkpt><trkpt lat="44.3731067" lon="11.4879133"><ele>421.0</ele><time>2026-04-17T09:08:02.089Z</time></trkpt><trkpt lat="44.3729833" lon="11.4879383"><ele>421.0</ele><time>2026-04-17T09:08:03.09Z</time></trkpt><trkpt lat="44.37286" lon="11.48798"><ele>419.5</ele><time>2026-04-17T09:08:04.09Z</time></trkpt><trkpt lat="44.3727317" lon="11.4880433"><ele>418.0</ele><time>2026-04-17T09:08:05.09Z</time></trkpt><trkpt lat="44.37261" lon="11.4881283"><ele>416.5</ele><time>2026-04-17T09:08:06.09Z</time></trkpt><trkpt lat="44.3724933" lon="11.4882217"><ele>415.0</ele><time>2026-04-17T09:08:07.089Z</time></trkpt><trkpt lat="44.3723683" lon="11.48833"><ele>415.0</ele><time>2026-04-17T09:08:08.089Z</time></trkpt><trkpt lat="44.372255" lon="11.4884383"><ele>415.0</ele><time>2026-04-17T09:08:09.089Z</time></trkpt><trkpt lat="44.372145" lon="11.4885433"><ele>415.0</ele><time>2026-04-17T09:08:10.089Z</time></trkpt><trkpt lat="44.3720383" lon="11.4886433"><ele>415.0</ele><time>2026-04-17T09:08:11.09Z</time></trkpt><trkpt lat="44.3719433" lon="11.4887517"><ele>414.8</ele><time>2026-04-17T09:08:12.089Z</time></trkpt><trkpt lat="44.3718567" lon="11.488865"><ele>414.6</ele><time>2026-04-17T09:08:13.089Z</time></trkpt><trkpt lat="44.371785" lon="11.4889733"><ele>414.4</ele><time>2026-04-17T09:08:14.09Z</time></trkpt><trkpt lat="44.3717067" lon="11.4890667"><ele>414.2</ele><time>2026-04-17T09:08:15.09Z</time></trkpt><trkpt lat="44.371615" lon="11.48915"><ele>414.0</ele><time>2026-04-17T09:08:16.09Z</time></trkpt><trkpt lat="44.3715217" lon="11.4892133"><ele>414.0</ele><time>2026-04-17T09:08:17.089Z</time></trkpt><trkpt lat="44.3714117" lon="11.4892267"><ele>414.0</ele><time>2026-04-17T09:08:18.09Z</time></trkpt><trkpt lat="44.3712967" lon="11.4892083"><ele>414.0</ele><time>2026-04-17T09:08:19.089Z</time></trkpt><trkpt lat="44.3711567" lon="11.48919"><ele>414.0</ele><time>2026-04-17T09:08:20.09Z</time></trkpt><trkpt lat="44.3710133" lon="11.4891683"><ele>418.66666666666663</ele><time>2026-04-17T09:08:21.089Z</time></trkpt><trkpt lat="44.3708617" lon="11.48917"><ele>423.3333333333333</ele><time>2026-04-17T09:08:22.09Z</time></trkpt><trkpt lat="44.3707067" lon="11.4891833"><ele>428.0</ele><time>2026-04-17T09:08:23.09Z</time></trkpt><trkpt lat="44.37056" lon="11.4892033"><ele>429.5</ele><time>2026-04-17T09:08:24.089Z</time></trkpt><trkpt lat="44.3704167" lon="11.489205"><ele>431.0</ele><time>2026-04-17T09:08:25.089Z</time></trkpt><trkpt lat="44.3702733" lon="11.4892133"><ele>432.5</ele><time>2026-04-17T09:08:26.089Z</time></trkpt><trkpt lat="44.3701333" lon="11.4892133"><ele>434.0</ele><time>2026-04-17T09:08:27.09Z</time></trkpt><trkpt lat="44.3699917" lon="11.489215"><ele>434.0</ele><time>2026-04-17T09:08:28.09Z</time></trkpt><trkpt lat="44.3698533" lon="11.48921"><ele>434.0</ele><time>2026-04-17T09:08:29.089Z</time></trkpt><trkpt lat="44.369725" lon="11.4892217"><ele>434.0</ele><time>2026-04-17T09:08:30.09Z</time></trkpt><trkpt lat="44.3696" lon="11.4892433"><ele>434.0</ele><time>2026-04-17T09:08:31.089Z</time></trkpt><trkpt lat="44.3694733" lon="11.4893017"><ele>433.0</ele><time>2026-04-17T09:08:32.089Z</time></trkpt><trkpt lat="44.3693583" lon="11.4893717"><ele>432.0</ele><time>2026-04-17T09:08:33.089Z</time></trkpt><trkpt lat="44.3692583" lon="11.4894833"><ele>431.0</ele><time>2026-04-17T09:08:34.089Z</time></trkpt><trkpt lat="44.3691667" lon="11.48959"><ele>430.0</ele><time>2026-04-17T09:08:35.09Z</time></trkpt><trkpt lat="44.36908" lon="11.4896967"><ele>430.0</ele><time>2026-04-17T09:08:36.09Z</time></trkpt><trkpt lat="44.36899" lon="11.48976"><ele>430.0</ele><time>2026-04-17T09:08:37.09Z</time></trkpt><trkpt lat="44.3688917" lon="11.4897817"><ele>430.0</ele><time>2026-04-17T09:08:38.089Z</time></trkpt><trkpt lat="44.3687967" lon="11.48976"><ele>430.0</ele><time>2026-04-17T09:08:39.089Z</time></trkpt><trkpt lat="44.368715" lon="11.4896783"><ele>430.0</ele><time>2026-04-17T09:08:40.09Z</time></trkpt><trkpt lat="44.3686583" lon="11.4895633"><ele>433.8</ele><time>2026-04-17T09:08:41.089Z</time></trkpt><trkpt lat="44.3686333" lon="11.4894217"><ele>437.6</ele><time>2026-04-17T09:08:42.089Z</time></trkpt><trkpt lat="44.3686233" lon="11.4892733"><ele>441.4</ele><time>2026-04-17T09:08:43.09Z</time></trkpt><trkpt lat="44.3685833" lon="11.489125"><ele>445.2</ele><time>2026-04-17T09:08:44.089Z</time></trkpt><trkpt lat="44.368525" lon="11.4889733"><ele>449.0</ele><time>2026-04-17T09:08:45.089Z</time></trkpt><trkpt lat="44.368455" lon="11.4888283"><ele>448.5</ele><time>2026-04-17T09:08:46.09Z</time></trkpt><trkpt lat="44.36838" lon="11.488675"><ele>448.0</ele><time>2026-04-17T09:08:47.089Z</time></trkpt><trkpt lat="44.3683033" lon="11.4885167"><ele>447.5</ele><time>2026-04-17T09:08:48.089Z</time></trkpt><trkpt lat="44.3682383" lon="11.488365"><ele>447.0</ele><time>2026-04-17T09:08:49.089Z</time></trkpt><trkpt lat="44.3681667" lon="11.48822"><ele>447.0</ele><time>2026-04-17T09:08:50.089Z</time></trkpt><trkpt lat="44.36811" lon="11.48807"><ele>447.0</ele><time>2026-04-17T09:08:51.089Z</time></trkpt><trkpt lat="44.3680517" lon="11.48793"><ele>447.0</ele><time>2026-04-17T09:08:52.09Z</time></trkpt><trkpt lat="44.367985" lon="11.4878117"><ele>447.0</ele><time>2026-04-17T09:08:53.089Z</time></trkpt><trkpt lat="44.36791" lon="11.4877083"><ele>448.20000000000005</ele><time>2026-04-17T09:08:54.089Z</time></trkpt><trkpt lat="44.3678233" lon="11.487625"><ele>449.40000000000003</ele><time>2026-04-17T09:08:55.089Z</time></trkpt><trkpt lat="44.3677283" lon="11.4875633"><ele>450.59999999999997</ele><time>2026-04-17T09:08:56.089Z</time></trkpt><trkpt lat="44.36762" lon="11.487505"><ele>451.79999999999995</ele><time>2026-04-17T09:08:57.09Z</time></trkpt><trkpt lat="44.3675017" lon="11.4874633"><ele>453.0</ele><time>2026-04-17T09:08:58.089Z</time></trkpt><trkpt lat="44.3673833" lon="11.487445"><ele>453.0</ele><time>2026-04-17T09:08:59.09Z</time></trkpt><trkpt lat="44.3672667" lon="11.4874617"><ele>453.0</ele><time>2026-04-17T09:09:00.089Z</time></trkpt><trkpt lat="44.3671533" lon="11.4875067"><ele>453.0</ele><time>2026-04-17T09:09:01.089Z</time></trkpt><trkpt lat="44.36705" lon="11.4875833"><ele>453.0</ele><time>2026-04-17T09:09:02.089Z</time></trkpt><trkpt lat="44.3669533" lon="11.487685"><ele>452.75</ele><time>2026-04-17T09:09:03.089Z</time></trkpt><trkpt lat="44.36686" lon="11.48779"><ele>452.5</ele><time>2026-04-17T09:09:04.089Z</time></trkpt><trkpt lat="44.366775" lon="11.4879017"><ele>452.25</ele><time>2026-04-17T09:09:05.089Z</time></trkpt><trkpt lat="44.3667" lon="11.4880483"><ele>452.0</ele><time>2026-04-17T09:09:06.09Z</time></trkpt><trkpt lat="44.36663" lon="11.4881933"><ele>453.0</ele><time>2026-04-17T09:09:07.089Z</time></trkpt><trkpt lat="44.3665567" lon="11.4883267"><ele>454.0</ele><time>2026-04-17T09:09:08.09Z</time></trkpt><trkpt lat="44.36647" lon="11.4884683"><ele>455.0</ele><time>2026-04-17T09:09:09.09Z</time></trkpt><trkpt lat="44.36638" lon="11.488585"><ele>456.0</ele><time>2026-04-17T09:09:10.089Z</time></trkpt><trkpt lat="44.366295" lon="11.4886683"><ele>456.0</ele><time>2026-04-17T09:09:11.09Z</time></trkpt><trkpt lat="44.3661967" lon="11.488715"><ele>456.0</ele><time>2026-04-17T09:09:12.089Z</time></trkpt><trkpt lat="44.3660833" lon="11.4887333"><ele>456.0</ele><time>2026-04-17T09:09:13.089Z</time></trkpt><trkpt lat="44.365965" lon="11.48874"><ele>456.0</ele><time>2026-04-17T09:09:14.09Z</time></trkpt><trkpt lat="44.3658417" lon="11.4887433"><ele>456.0</ele><time>2026-04-17T09:09:15.089Z</time></trkpt><trkpt lat="44.3657217" lon="11.4887533"><ele>456.0</ele><time>2026-04-17T09:09:16.089Z</time></trkpt><trkpt lat="44.3656017" lon="11.48882"><ele>456.0</ele><time>2026-04-17T09:09:17.089Z</time></trkpt><trkpt lat="44.3654817" lon="11.4889167"><ele>456.0</ele><time>2026-04-17T09:09:18.09Z</time></trkpt><trkpt lat="44.3653633" lon="11.4890267"><ele>460.25</ele><time>2026-04-17T09:09:19.09Z</time></trkpt><trkpt lat="44.36524" lon="11.4891117"><ele>464.5</ele><time>2026-04-17T09:09:20.089Z</time></trkpt><trkpt lat="44.3651083" lon="11.4891867"><ele>468.75</ele><time>2026-04-17T09:09:21.089Z</time></trkpt><trkpt lat="44.3649683" lon="11.4892383"><ele>473.0</ele><time>2026-04-17T09:09:22.089Z</time></trkpt><trkpt lat="44.3648267" lon="11.4892933"><ele>471.3333333333333</ele><time>2026-04-17T09:09:23.09Z</time></trkpt><trkpt lat="44.364675" lon="11.4893467"><ele>469.66666666666663</ele><time>2026-04-17T09:09:24.09Z</time></trkpt><trkpt lat="44.36452" lon="11.4893967"><ele>468.0</ele><time>2026-04-17T09:09:25.089Z</time></trkpt><trkpt lat="44.3643767" lon="11.4894533"><ele>468.0</ele><time>2026-04-17T09:09:26.09Z</time></trkpt><trkpt lat="44.3642417" lon="11.4895067"><ele>468.0</ele><time>2026-04-17T09:09:27.089Z</time></trkpt><trkpt lat="44.3641017" lon="11.4895483"><ele>468.0</ele><time>2026-04-17T09:09:28.089Z</time></trkpt><trkpt lat="44.3639733" lon="11.48958"><ele>468.0</ele><time>2026-04-17T09:09:29.09Z</time></trkpt><trkpt lat="44.3638383" lon="11.4895817"><ele>470.0</ele><time>2026-04-17T09:09:30.089Z</time></trkpt><trkpt lat="44.363695" lon="11.489575"><ele>472.0</ele><time>2026-04-17T09:09:31.089Z</time></trkpt><trkpt lat="44.3635517" lon="11.489555"><ele>474.0</ele><time>2026-04-17T09:09:32.089Z</time></trkpt><trkpt lat="44.3634083" lon="11.4895267"><ele>476.0</ele><time>2026-04-17T09:09:33.09Z</time></trkpt><trkpt lat="44.3632583" lon="11.4895167"><ele>476.0</ele><time>2026-04-17T09:09:34.089Z</time></trkpt><trkpt lat="44.3631117" lon="11.4895017"><ele>476.0</ele><time>2026-04-17T09:09:35.089Z</time></trkpt><trkpt lat="44.3629767" lon="11.4894817"><ele>476.0</ele><time>2026-04-17T09:09:36.09Z</time></trkpt><trkpt lat="44.3628517" lon="11.489455"><ele>476.0</ele><time>2026-04-17T09:09:37.089Z</time></trkpt><trkpt lat="44.362725" lon="11.4894217"><ele>479.25</ele><time>2026-04-17T09:09:38.09Z</time></trkpt><trkpt lat="44.3626067" lon="11.489375"><ele>482.5</ele><time>2026-04-17T09:09:39.089Z</time></trkpt><trkpt lat="44.36249" lon="11.4893267"><ele>485.75</ele><time>2026-04-17T09:09:40.09Z</time></trkpt><trkpt lat="44.3623867" lon="11.4892817"><ele>489.0</ele><time>2026-04-17T09:09:41.09Z</time></trkpt><trkpt lat="44.362295" lon="11.489235"><ele>489.0</ele><time>2026-04-17T09:09:42.09Z</time></trkpt><trkpt lat="44.3622217" lon="11.48919"><ele>489.0</ele><time>2026-04-17T09:09:43.089Z</time></trkpt><trkpt lat="44.36216" lon="11.4891583"><ele>489.0</ele><time>2026-04-17T09:09:44.089Z</time></trkpt><trkpt lat="44.3620567" lon="11.4890917"><ele>489.0</ele><time>2026-04-17T09:09:46.089Z</time></trkpt><trkpt lat="44.36195" lon="11.4890017"><ele>489.0</ele><time>2026-04-17T09:09:48.089Z</time></trkpt><trkpt lat="44.3618833" lon="11.4889367"><ele>489.2</ele><time>2026-04-17T09:09:49.089Z</time></trkpt><trkpt lat="44.361805" lon="11.4888683"><ele>489.4</ele><time>2026-04-17T09:09:50.089Z</time></trkpt><trkpt lat="44.36172" lon="11.4887967"><ele>489.6</ele><time>2026-04-17T09:09:51.089Z</time></trkpt><trkpt lat="44.361615" lon="11.4887317"><ele>489.8</ele><time>2026-04-17T09:09:52.089Z</time></trkpt><trkpt lat="44.3615017" lon="11.488675"><ele>490.0</ele><time>2026-04-17T09:09:53.089Z</time></trkpt><trkpt lat="44.361385" lon="11.48861"><ele>493.25</ele><time>2026-04-17T09:09:54.09Z</time></trkpt><trkpt lat="44.3612733" lon="11.4885267"><ele>496.5</ele><time>2026-04-17T09:09:55.09Z</time></trkpt><trkpt lat="44.361165" lon="11.488425"><ele>499.75</ele><time>2026-04-17T09:09:56.089Z</time></trkpt><trkpt lat="44.3610567" lon="11.48832"><ele>503.0</ele><time>2026-04-17T09:09:57.089Z</time></trkpt><trkpt lat="44.36095" lon="11.4882233"><ele>503.0</ele><time>2026-04-17T09:09:58.089Z</time></trkpt><trkpt lat="44.3608367" lon="11.4881667"><ele>503.0</ele><time>2026-04-17T09:09:59.09Z</time></trkpt><trkpt lat="44.3607117" lon="11.4881133"><ele>503.0</ele><time>2026-04-17T09:10:00.089Z</time></trkpt><trkpt lat="44.3605833" lon="11.488075"><ele>503.0</ele><time>2026-04-17T09:10:01.089Z</time></trkpt><trkpt lat="44.36045" lon="11.4880517"><ele>502.25</ele><time>2026-04-17T09:10:02.09Z</time></trkpt><trkpt lat="44.3603167" lon="11.4880217"><ele>501.5</ele><time>2026-04-17T09:10:03.089Z</time></trkpt><trkpt lat="44.36019" lon="11.4879783"><ele>500.75</ele><time>2026-04-17T09:10:04.09Z</time></trkpt><trkpt lat="44.3600717" lon="11.4879417"><ele>500.0</ele><time>2026-04-17T09:10:05.089Z</time></trkpt><trkpt lat="44.3599617" lon="11.4878983"><ele>501.25</ele><time>2026-04-17T09:10:06.089Z</time></trkpt><trkpt lat="44.3598617" lon="11.48784"><ele>502.5</ele><time>2026-04-17T09:10:07.089Z</time></trkpt><trkpt lat="44.359765" lon="11.487755"><ele>503.75</ele><time>2026-04-17T09:10:08.089Z</time></trkpt><trkpt lat="44.3596567" lon="11.4876433"><ele>505.0</ele><time>2026-04-17T09:10:09.089Z</time></trkpt><trkpt lat="44.3595567" lon="11.487525"><ele>505.0</ele><time>2026-04-17T09:10:10.089Z</time></trkpt><trkpt lat="44.3594483" lon="11.4874167"><ele>505.0</ele><time>2026-04-17T09:10:11.09Z</time></trkpt><trkpt lat="44.3593433" lon="11.4873033"><ele>505.0</ele><time>2026-04-17T09:10:12.09Z</time></trkpt><trkpt lat="44.3592417" lon="11.4871833"><ele>505.0</ele><time>2026-04-17T09:10:13.09Z</time></trkpt><trkpt lat="44.359145" lon="11.4870533"><ele>507.0</ele><time>2026-04-17T09:10:14.089Z</time></trkpt><trkpt lat="44.359055" lon="11.48693"><ele>509.0</ele><time>2026-04-17T09:10:15.089Z</time></trkpt><trkpt lat="44.3589617" lon="11.486825"><ele>511.0</ele><time>2026-04-17T09:10:16.089Z</time></trkpt><trkpt lat="44.3588633" lon="11.4867417"><ele>513.0</ele><time>2026-04-17T09:10:17.089Z</time></trkpt><trkpt lat="44.3587567" lon="11.4867083"><ele>513.0</ele><time>2026-04-17T09:10:18.089Z</time></trkpt><trkpt lat="44.35865" lon="11.486705"><ele>513.0</ele><time>2026-04-17T09:10:19.09Z</time></trkpt><trkpt lat="44.358545" lon="11.48673"><ele>513.0</ele><time>2026-04-17T09:10:20.089Z</time></trkpt><trkpt lat="44.358445" lon="11.4867517"><ele>513.0</ele><time>2026-04-17T09:10:21.09Z</time></trkpt><trkpt lat="44.3583467" lon="11.486765"><ele>513.0</ele><time>2026-04-17T09:10:22.09Z</time></trkpt><trkpt lat="44.3582467" lon="11.48674"><ele>513.0</ele><time>2026-04-17T09:10:23.089Z</time></trkpt><trkpt lat="44.358135" lon="11.4866867"><ele>513.0</ele><time>2026-04-17T09:10:24.089Z</time></trkpt><trkpt lat="44.358015" lon="11.48663"><ele>513.0</ele><time>2026-04-17T09:10:25.089Z</time></trkpt><trkpt lat="44.357885" lon="11.48656"><ele>513.0</ele><time>2026-04-17T09:10:26.09Z</time></trkpt><trkpt lat="44.35775" lon="11.4864833"><ele>512.5</ele><time>2026-04-17T09:10:27.089Z</time></trkpt><trkpt lat="44.35762" lon="11.486405"><ele>512.0</ele><time>2026-04-17T09:10:28.089Z</time></trkpt><trkpt lat="44.35749" lon="11.486315"><ele>511.5</ele><time>2026-04-17T09:10:29.089Z</time></trkpt><trkpt lat="44.3573633" lon="11.486235"><ele>511.0</ele><time>2026-04-17T09:10:30.09Z</time></trkpt><trkpt lat="44.357235" lon="11.4861567"><ele>511.75</ele><time>2026-04-17T09:10:31.089Z</time></trkpt><trkpt lat="44.35712" lon="11.48608"><ele>512.5</ele><time>2026-04-17T09:10:32.09Z</time></trkpt><trkpt lat="44.3570033" lon="11.4860083"><ele>513.25</ele><time>2026-04-17T09:10:33.089Z</time></trkpt><trkpt lat="44.356875" lon="11.4859583"><ele>514.0</ele><time>2026-04-17T09:10:34.09Z</time></trkpt><trkpt lat="44.3567417" lon="11.4859117"><ele>514.0</ele><time>2026-04-17T09:10:35.089Z</time></trkpt><trkpt lat="44.3566217" lon="11.4858883"><ele>514.0</ele><time>2026-04-17T09:10:36.089Z</time></trkpt><trkpt lat="44.35651" lon="11.4858767"><ele>514.0</ele><time>2026-04-17T09:10:37.09Z</time></trkpt><trkpt lat="44.356395" lon="11.48588"><ele>514.0</ele><time>2026-04-17T09:10:38.089Z</time></trkpt><trkpt lat="44.356275" lon="11.4859017"><ele>513.5</ele><time>2026-04-17T09:10:39.09Z</time></trkpt><trkpt lat="44.3561533" lon="11.48595"><ele>513.0</ele><time>2026-04-17T09:10:40.089Z</time></trkpt><trkpt lat="44.35603" lon="11.4860133"><ele>512.5</ele><time>2026-04-17T09:10:41.089Z</time></trkpt><trkpt lat="44.35591" lon="11.486075"><ele>512.0</ele><time>2026-04-17T09:10:42.089Z</time></trkpt><trkpt lat="44.3558033" lon="11.4861417"><ele>512.0</ele><time>2026-04-17T09:10:43.089Z</time></trkpt><trkpt lat="44.3556933" lon="11.4861883"><ele>512.0</ele><time>2026-04-17T09:10:44.089Z</time></trkpt><trkpt lat="44.3555933" lon="11.4862117"><ele>512.0</ele><time>2026-04-17T09:10:45.089Z</time></trkpt><trkpt lat="44.3555017" lon="11.486215"><ele>512.0</ele><time>2026-04-17T09:10:46.089Z</time></trkpt><trkpt lat="44.3554133" lon="11.4861767"><ele>512.0</ele><time>2026-04-17T09:10:47.09Z</time></trkpt><trkpt lat="44.3553367" lon="11.4860967"><ele>516.25</ele><time>2026-04-17T09:10:48.089Z</time></trkpt><trkpt lat="44.3552567" lon="11.485995"><ele>520.5</ele><time>2026-04-17T09:10:49.09Z</time></trkpt><trkpt lat="44.35517" lon="11.4858667"><ele>524.75</ele><time>2026-04-17T09:10:50.09Z</time></trkpt><trkpt lat="44.3550783" lon="11.4857333"><ele>529.0</ele><time>2026-04-17T09:10:51.09Z</time></trkpt><trkpt lat="44.3549767" lon="11.4856033"><ele>529.0</ele><time>2026-04-17T09:10:52.089Z</time></trkpt><trkpt lat="44.35488" lon="11.4854783"><ele>529.0</ele><time>2026-04-17T09:10:53.089Z</time></trkpt><trkpt lat="44.3547767" lon="11.485365"><ele>529.0</ele><time>2026-04-17T09:10:54.09Z</time></trkpt><trkpt lat="44.3546633" lon="11.4852433"><ele>529.0</ele><time>2026-04-17T09:10:55.09Z</time></trkpt><trkpt lat="44.3545583" lon="11.4851067"><ele>531.0</ele><time>2026-04-17T09:10:56.089Z</time></trkpt><trkpt lat="44.35446" lon="11.4849633"><ele>533.0</ele><time>2026-04-17T09:10:57.089Z</time></trkpt><trkpt lat="44.3543733" lon="11.484805"><ele>535.0</ele><time>2026-04-17T09:10:58.09Z</time></trkpt><trkpt lat="44.3542867" lon="11.4846567"><ele>537.0</ele><time>2026-04-17T09:10:59.089Z</time></trkpt><trkpt lat="44.3542033" lon="11.4845417"><ele>537.0</ele><time>2026-04-17T09:11:00.089Z</time></trkpt><trkpt lat="44.35411" lon="11.484455"><ele>537.0</ele><time>2026-04-17T09:11:01.089Z</time></trkpt><trkpt lat="44.3540117" lon="11.4843883"><ele>537.0</ele><time>2026-04-17T09:11:02.089Z</time></trkpt><trkpt lat="44.353915" lon="11.4843167"><ele>537.0</ele><time>2026-04-17T09:11:03.089Z</time></trkpt><trkpt lat="44.353805" lon="11.484255"><ele>537.0</ele><time>2026-04-17T09:11:04.089Z</time></trkpt><trkpt lat="44.353685" lon="11.48419"><ele>537.0</ele><time>2026-04-17T09:11:05.089Z</time></trkpt><trkpt lat="44.35356" lon="11.4841167"><ele>537.0</ele><time>2026-04-17T09:11:06.09Z</time></trkpt><trkpt lat="44.35344" lon="11.4840583"><ele>537.0</ele><time>2026-04-17T09:11:07.089Z</time></trkpt><trkpt lat="44.35333" lon="11.48402"><ele>537.0</ele><time>2026-04-17T09:11:08.09Z</time></trkpt><trkpt lat="44.3532233" lon="11.4840183"><ele>537.0</ele><time>2026-04-17T09:11:09.089Z</time></trkpt><trkpt lat="44.3531117" lon="11.4840617"><ele>537.0</ele><time>2026-04-17T09:11:10.09Z</time></trkpt><trkpt lat="44.3529933" lon="11.4841383"><ele>537.0</ele><time>2026-04-17T09:11:11.09Z</time></trkpt><trkpt lat="44.35288" lon="11.484245"><ele>537.0</ele><time>2026-04-17T09:11:12.089Z</time></trkpt><trkpt lat="44.352765" lon="11.4843483"><ele>534.75</ele><time>2026-04-17T09:11:13.089Z</time></trkpt><trkpt lat="44.352655" lon="11.484435"><ele>532.5</ele><time>2026-04-17T09:11:14.089Z</time></trkpt><trkpt lat="44.35253" lon="11.4845083"><ele>530.25</ele><time>2026-04-17T09:11:15.089Z</time></trkpt><trkpt lat="44.35241" lon="11.4845683"><ele>528.0</ele><time>2026-04-17T09:11:16.089Z</time></trkpt><trkpt lat="44.3522867" lon="11.4846067"><ele>532.0</ele><time>2026-04-17T09:11:17.089Z</time></trkpt><trkpt lat="44.35217" lon="11.484635"><ele>536.0</ele><time>2026-04-17T09:11:18.09Z</time></trkpt><trkpt lat="44.3520633" lon="11.484655"><ele>540.0</ele><time>2026-04-17T09:11:19.089Z</time></trkpt><trkpt lat="44.35197" lon="11.4846617"><ele>544.0</ele><time>2026-04-17T09:11:20.089Z</time></trkpt><trkpt lat="44.3518883" lon="11.4846433"><ele>548.0</ele><time>2026-04-17T09:11:21.089Z</time></trkpt><trkpt lat="44.3518333" lon="11.4845683"><ele>548.0</ele><time>2026-04-17T09:11:22.089Z</time></trkpt><trkpt lat="44.3517933" lon="11.4844517"><ele>548.0</ele><time>2026-04-17T09:11:23.089Z</time></trkpt><trkpt lat="44.3517667" lon="11.4843067"><ele>548.0</ele><time>2026-04-17T09:11:24.09Z</time></trkpt><trkpt lat="44.3517783" lon="11.4841433"><ele>548.0</ele><time>2026-04-17T09:11:25.089Z</time></trkpt><trkpt lat="44.3518067" lon="11.4839367"><ele>548.6666666666666</ele><time>2026-04-17T09:11:26.09Z</time></trkpt><trkpt lat="44.351845" lon="11.4837117"><ele>549.3333333333334</ele><time>2026-04-17T09:11:27.089Z</time></trkpt><trkpt lat="44.3518867" lon="11.483515"><ele>550.0</ele><time>2026-04-17T09:11:28.089Z</time></trkpt><trkpt lat="44.351915" lon="11.4833267"><ele>550.0</ele><time>2026-04-17T09:11:29.09Z</time></trkpt><trkpt lat="44.3519417" lon="11.4831317"><ele>550.0</ele><time>2026-04-17T09:11:30.089Z</time></trkpt><trkpt lat="44.351965" lon="11.4829467"><ele>550.0</ele><time>2026-04-17T09:11:31.089Z</time></trkpt><trkpt lat="44.3519933" lon="11.4827583"><ele>550.0</ele><time>2026-04-17T09:11:32.089Z</time></trkpt><trkpt lat="44.3520183" lon="11.4825783"><ele>548.5</ele><time>2026-04-17T09:11:33.09Z</time></trkpt><trkpt lat="44.352045" lon="11.4823983"><ele>547.0</ele><time>2026-04-17T09:11:34.089Z</time></trkpt><trkpt lat="44.352055" lon="11.48223"><ele>545.5</ele><time>2026-04-17T09:11:35.089Z</time></trkpt><trkpt lat="44.3520567" lon="11.4820683"><ele>544.0</ele><time>2026-04-17T09:11:36.089Z</time></trkpt><trkpt lat="44.35205" lon="11.4819133"><ele>539.4</ele><time>2026-04-17T09:11:37.09Z</time></trkpt><trkpt lat="44.352005" lon="11.4817667"><ele>534.8</ele><time>2026-04-17T09:11:38.089Z</time></trkpt><trkpt lat="44.351955" lon="11.481645"><ele>530.2</ele><time>2026-04-17T09:11:39.089Z</time></trkpt><trkpt lat="44.35189" lon="11.4815483"><ele>525.6</ele><time>2026-04-17T09:11:40.089Z</time></trkpt><trkpt lat="44.3518033" lon="11.4814867"><ele>521.0</ele><time>2026-04-17T09:11:41.089Z</time></trkpt><trkpt lat="44.3516933" lon="11.4814683"><ele>521.0</ele><time>2026-04-17T09:11:42.09Z</time></trkpt><trkpt lat="44.3515667" lon="11.4814767"><ele>521.0</ele><time>2026-04-17T09:11:43.089Z</time></trkpt><trkpt lat="44.3514283" lon="11.481485"><ele>521.0</ele><time>2026-04-17T09:11:44.089Z</time></trkpt><trkpt lat="44.351285" lon="11.4814683"><ele>521.0</ele><time>2026-04-17T09:11:45.089Z</time></trkpt><trkpt lat="44.351145" lon="11.48144"><ele>520.0</ele><time>2026-04-17T09:11:46.09Z</time></trkpt><trkpt lat="44.3509983" lon="11.4814017"><ele>519.0</ele><time>2026-04-17T09:11:47.09Z</time></trkpt><trkpt lat="44.35086" lon="11.48136"><ele>518.0</ele><time>2026-04-17T09:11:48.09Z</time></trkpt><trkpt lat="44.350715" lon="11.4813467"><ele>517.0</ele><time>2026-04-17T09:11:49.09Z</time></trkpt><trkpt lat="44.3505617" lon="11.4813733"><ele>512.5</ele><time>2026-04-17T09:11:50.09Z</time></trkpt><trkpt lat="44.35043" lon="11.4813667"><ele>508.0</ele><time>2026-04-17T09:11:51.089Z</time></trkpt><trkpt lat="44.35031" lon="11.48136"><ele>503.5</ele><time>2026-04-17T09:11:52.09Z</time></trkpt><trkpt lat="44.3502" lon="11.481375"><ele>499.0</ele><time>2026-04-17T09:11:53.09Z</time></trkpt><trkpt lat="44.35008" lon="11.4814133"><ele>499.0</ele><time>2026-04-17T09:11:54.089Z</time></trkpt><trkpt lat="44.3499683" lon="11.4814883"><ele>499.0</ele><time>2026-04-17T09:11:55.089Z</time></trkpt><trkpt lat="44.3498683" lon="11.4815883"><ele>499.0</ele><time>2026-04-17T09:11:56.09Z</time></trkpt><trkpt lat="44.349785" lon="11.481705"><ele>499.0</ele><time>2026-04-17T09:11:57.09Z</time></trkpt><trkpt lat="44.349725" lon="11.4818317"><ele>502.0</ele><time>2026-04-17T09:11:58.089Z</time></trkpt><trkpt lat="44.3496983" lon="11.4819767"><ele>505.0</ele><time>2026-04-17T09:11:59.089Z</time></trkpt><trkpt lat="44.3496983" lon="11.482145"><ele>508.0</ele><time>2026-04-17T09:12:00.089Z</time></trkpt><trkpt lat="44.3497117" lon="11.4823133"><ele>511.0</ele><time>2026-04-17T09:12:01.089Z</time></trkpt><trkpt lat="44.3497083" lon="11.4824817"><ele>506.75</ele><time>2026-04-17T09:12:02.09Z</time></trkpt><trkpt lat="44.3496817" lon="11.48264"><ele>502.5</ele><time>2026-04-17T09:12:03.09Z</time></trkpt><trkpt lat="44.3496233" lon="11.4828033"><ele>498.25</ele><time>2026-04-17T09:12:04.09Z</time></trkpt><trkpt lat="44.3495517" lon="11.48297"><ele>494.0</ele><time>2026-04-17T09:12:05.09Z</time></trkpt><trkpt lat="44.3494833" lon="11.48314"><ele>494.0</ele><time>2026-04-17T09:12:06.09Z</time></trkpt><trkpt lat="44.3494083" lon="11.4832917"><ele>494.0</ele><time>2026-04-17T09:12:07.09Z</time></trkpt><trkpt lat="44.3493233" lon="11.483435"><ele>494.0</ele><time>2026-04-17T09:12:08.089Z</time></trkpt><trkpt lat="44.349235" lon="11.4835433"><ele>494.0</ele><time>2026-04-17T09:12:09.089Z</time></trkpt><trkpt lat="44.349125" lon="11.4836067"><ele>494.0</ele><time>2026-04-17T09:12:10.089Z</time></trkpt><trkpt lat="44.3490067" lon="11.4836433"><ele>494.0</ele><time>2026-04-17T09:12:11.089Z</time></trkpt><trkpt lat="44.3488883" lon="11.4836317"><ele>494.0</ele><time>2026-04-17T09:12:12.089Z</time></trkpt><trkpt lat="44.348785" lon="11.4836017"><ele>494.0</ele><time>2026-04-17T09:12:13.089Z</time></trkpt><trkpt lat="44.3486933" lon="11.4835833"><ele>494.0</ele><time>2026-04-17T09:12:14.09Z</time></trkpt><trkpt lat="44.3485967" lon="11.4835467"><ele>490.49999999999994</ele><time>2026-04-17T09:12:15.09Z</time></trkpt><trkpt lat="44.3485183" lon="11.4835217"><ele>487.0</ele><time>2026-04-17T09:12:16.089Z</time></trkpt><trkpt lat="44.3484383" lon="11.483395"><ele>483.5</ele><time>2026-04-17T09:12:18.089Z</time></trkpt><trkpt lat="44.3484683" lon="11.4833133"><ele>480.0</ele><time>2026-04-17T09:12:19.089Z</time></trkpt><trkpt lat="44.3485267" lon="11.48325"><ele>476.49999999999994</ele><time>2026-04-17T09:12:20.089Z</time></trkpt><trkpt lat="44.34861" lon="11.4832033"><ele>473.0</ele><time>2026-04-17T09:12:21.089Z</time></trkpt><trkpt lat="44.348705" lon="11.48316"><ele>473.0</ele><time>2026-04-17T09:12:22.088Z</time></trkpt><trkpt lat="44.3488" lon="11.4831033"><ele>472.99999999999994</ele><time>2026-04-17T09:12:23.088Z</time></trkpt><trkpt lat="44.3488917" lon="11.4830467"><ele>472.99999999999994</ele><time>2026-04-17T09:12:24.088Z</time></trkpt><trkpt lat="44.3489817" lon="11.4829917"><ele>473.0</ele><time>2026-04-17T09:12:25.088Z</time></trkpt><trkpt lat="44.3490583" lon="11.4829367"><ele>473.0</ele><time>2026-04-17T09:12:26.088Z</time></trkpt><trkpt lat="44.3491183" lon="11.482865"><ele>474.59999999999997</ele><time>2026-04-17T09:12:27.089Z</time></trkpt><trkpt lat="44.3491483" lon="11.4827783"><ele>476.19999999999993</ele><time>2026-04-17T09:12:28.089Z</time></trkpt><trkpt lat="44.3491433" lon="11.48268"><ele>477.8</ele><time>2026-04-17T09:12:29.089Z</time></trkpt><trkpt lat="44.349105" lon="11.4825767"><ele>479.4</ele><time>2026-04-17T09:12:30.088Z</time></trkpt><trkpt lat="44.34904" lon="11.4824667"><ele>481.0</ele><time>2026-04-17T09:12:31.088Z</time></trkpt><trkpt lat="44.34895" lon="11.482345"><ele>477.25</ele><time>2026-04-17T09:12:32.088Z</time></trkpt><trkpt lat="44.3488667" lon="11.4822233"><ele>473.5</ele><time>2026-04-17T09:12:33.088Z</time></trkpt><trkpt lat="44.3487883" lon="11.4820833"><ele>469.75</ele><time>2026-04-17T09:12:34.089Z</time></trkpt><trkpt lat="44.3487233" lon="11.4819567"><ele>466.0</ele><time>2026-04-17T09:12:35.088Z</time></trkpt><trkpt lat="44.3486567" lon="11.4818467"><ele>464.0</ele><time>2026-04-17T09:12:36.088Z</time></trkpt><trkpt lat="44.3485867" lon="11.4817467"><ele>462.0</ele><time>2026-04-17T09:12:37.088Z</time></trkpt><trkpt lat="44.3485183" lon="11.48164"><ele>460.0</ele><time>2026-04-17T09:12:38.089Z</time></trkpt><trkpt lat="44.3484567" lon="11.4815417"><ele>458.0</ele><time>2026-04-17T09:12:39.088Z</time></trkpt><trkpt lat="44.3483983" lon="11.4814533"><ele>456.0</ele><time>2026-04-17T09:12:40.089Z</time></trkpt><trkpt lat="44.34835" lon="11.4813583"><ele>452.8</ele><time>2026-04-17T09:12:41.088Z</time></trkpt><trkpt lat="44.34832" lon="11.481245"><ele>449.6</ele><time>2026-04-17T09:12:42.088Z</time></trkpt><trkpt lat="44.3483133" lon="11.4811233"><ele>446.4</ele><time>2026-04-17T09:12:43.088Z</time></trkpt><trkpt lat="44.3483233" lon="11.48098"><ele>443.2</ele><time>2026-04-17T09:12:44.088Z</time></trkpt><trkpt lat="44.3483467" lon="11.480825"><ele>440.0</ele><time>2026-04-17T09:12:45.088Z</time></trkpt><trkpt lat="44.348365" lon="11.4806583"><ele>440.0</ele><time>2026-04-17T09:12:46.088Z</time></trkpt><trkpt lat="44.3483833" lon="11.4804817"><ele>440.0</ele><time>2026-04-17T09:12:47.088Z</time></trkpt><trkpt lat="44.34839" lon="11.4803017"><ele>440.0</ele><time>2026-04-17T09:12:48.089Z</time></trkpt><trkpt lat="44.34839" lon="11.4801283"><ele>440.0</ele><time>2026-04-17T09:12:49.088Z</time></trkpt><trkpt lat="44.3483867" lon="11.4799683"><ele>438.25</ele><time>2026-04-17T09:12:50.089Z</time></trkpt><trkpt lat="44.3483883" lon="11.4798067"><ele>436.5</ele><time>2026-04-17T09:12:51.088Z</time></trkpt><trkpt lat="44.3484033" lon="11.4796467"><ele>434.75</ele><time>2026-04-17T09:12:52.089Z</time></trkpt><trkpt lat="44.348425" lon="11.4794817"><ele>433.0</ele><time>2026-04-17T09:12:53.088Z</time></trkpt><trkpt lat="44.3484417" lon="11.479315"><ele>431.0</ele><time>2026-04-17T09:12:54.089Z</time></trkpt><trkpt lat="44.3484617" lon="11.4791417"><ele>429.0</ele><time>2026-04-17T09:12:55.088Z</time></trkpt><trkpt lat="44.34848" lon="11.4789767"><ele>427.0</ele><time>2026-04-17T09:12:56.088Z</time></trkpt><trkpt lat="44.3484967" lon="11.47882"><ele>425.0</ele><time>2026-04-17T09:12:57.088Z</time></trkpt><trkpt lat="44.3485117" lon="11.4786733"><ele>424.66666666666663</ele><time>2026-04-17T09:12:58.088Z</time></trkpt><trkpt lat="44.3485317" lon="11.4785433"><ele>424.3333333333333</ele><time>2026-04-17T09:12:59.088Z</time></trkpt><trkpt lat="44.34856" lon="11.47842"><ele>424.0</ele><time>2026-04-17T09:13:00.089Z</time></trkpt><trkpt lat="44.3486" lon="11.4783183"><ele>423.66666666666663</ele><time>2026-04-17T09:13:01.089Z</time></trkpt><trkpt lat="44.348635" lon="11.478245"><ele>423.3333333333333</ele><time>2026-04-17T09:13:02.089Z</time></trkpt><trkpt lat="44.3486467" lon="11.47813"><ele>423.0</ele><time>2026-04-17T09:13:04.088Z</time></trkpt><trkpt lat="44.348595" lon="11.478035"><ele>423.0</ele><time>2026-04-17T09:13:06.088Z</time></trkpt><trkpt lat="44.3484817" lon="11.47799"><ele>423.0</ele><time>2026-04-17T09:13:08.088Z</time></trkpt><trkpt lat="44.3484083" lon="11.4779817"><ele>423.0</ele><time>2026-04-17T09:13:09.088Z</time></trkpt><trkpt lat="44.3483367" lon="11.4779783"><ele>423.0</ele><time>2026-04-17T09:13:10.088Z</time></trkpt><trkpt lat="44.3482617" lon="11.4779733"><ele>423.0</ele><time>2026-04-17T09:13:11.088Z</time></trkpt><trkpt lat="44.3481883" lon="11.4779733"><ele>423.0</ele><time>2026-04-17T09:13:12.088Z</time></trkpt><trkpt lat="44.348125" lon="11.47796"><ele>420.2</ele><time>2026-04-17T09:13:13.089Z</time></trkpt><trkpt lat="44.3480183" lon="11.4779067"><ele>417.4</ele><time>2026-04-17T09:13:15.088Z</time></trkpt><trkpt lat="44.3479417" lon="11.4778017"><ele>414.59999999999997</ele><time>2026-04-17T09:13:17.088Z</time></trkpt><trkpt lat="44.3479017" lon="11.4776767"><ele>411.79999999999995</ele><time>2026-04-17T09:13:19.089Z</time></trkpt><trkpt lat="44.3478717" lon="11.4775633"><ele>409.0</ele><time>2026-04-17T09:13:21.088Z</time></trkpt><trkpt lat="44.347825" lon="11.4774917"><ele>409.00000000000006</ele><time>2026-04-17T09:13:23.089Z</time></trkpt><trkpt lat="44.3477583" lon="11.4775017"><ele>409.0</ele><time>2026-04-17T09:13:25.089Z</time></trkpt><trkpt lat="44.3477067" lon="11.4775933"><ele>409.0</ele><time>2026-04-17T09:13:27.089Z</time></trkpt><trkpt lat="44.3477283" lon="11.4777367"><ele>409.0</ele><time>2026-04-17T09:13:29.088Z</time></trkpt><trkpt lat="44.3477583" lon="11.47782"><ele>409.00000000000006</ele><time>2026-04-17T09:13:30.089Z</time></trkpt><trkpt lat="44.3477933" lon="11.4779133"><ele>409.0</ele><time>2026-04-17T09:13:31.089Z</time></trkpt><trkpt lat="44.3478233" lon="11.4780067"><ele>408.00000000000006</ele><time>2026-04-17T09:13:32.088Z</time></trkpt><trkpt lat="44.3478517" lon="11.4780983"><ele>407.0</ele><time>2026-04-17T09:13:33.088Z</time></trkpt><trkpt lat="44.3478733" lon="11.4781817"><ele>406.0</ele><time>2026-04-17T09:13:34.089Z</time></trkpt><trkpt lat="44.34788" lon="11.4783483"><ele>405.0</ele><time>2026-04-17T09:13:36.088Z</time></trkpt><trkpt lat="44.3478667" lon="11.47844"><ele>404.00000000000006</ele><time>2026-04-17T09:13:37.089Z</time></trkpt><trkpt lat="44.347845" lon="11.4785283"><ele>403.0</ele><time>2026-04-17T09:13:38.088Z</time></trkpt><trkpt lat="44.3478167" lon="11.4786117"><ele>403.00000000000006</ele><time>2026-04-17T09:13:39.089Z</time></trkpt><trkpt lat="44.3477783" lon="11.4787"><ele>403.0</ele><time>2026-04-17T09:13:40.089Z</time></trkpt><trkpt lat="44.34773" lon="11.4787817"><ele>403.0</ele><time>2026-04-17T09:13:41.088Z</time></trkpt><trkpt lat="44.3476733" lon="11.4788533"><ele>403.0</ele><time>2026-04-17T09:13:42.088Z</time></trkpt><trkpt lat="44.3476117" lon="11.4789167"><ele>403.00000000000006</ele><time>2026-04-17T09:13:43.089Z</time></trkpt><trkpt lat="44.3475467" lon="11.4789767"><ele>403.0</ele><time>2026-04-17T09:13:44.088Z</time></trkpt><trkpt lat="44.3474817" lon="11.47904"><ele>402.83333333333337</ele><time>2026-04-17T09:13:45.088Z</time></trkpt><trkpt lat="44.3474267" lon="11.4791033"><ele>402.6666666666667</ele><time>2026-04-17T09:13:46.089Z</time></trkpt><trkpt lat="44.3473733" lon="11.4791717"><ele>402.5</ele><time>2026-04-17T09:13:47.088Z</time></trkpt><trkpt lat="44.3473317" lon="11.4792383"><ele>402.33333333333337</ele><time>2026-04-17T09:13:48.088Z</time></trkpt><trkpt lat="44.3472733" lon="11.4793567"><ele>402.1666666666667</ele><time>2026-04-17T09:13:50.088Z</time></trkpt><trkpt lat="44.3472267" lon="11.4794733"><ele>402.0</ele><time>2026-04-17T09:13:52.088Z</time></trkpt><trkpt lat="44.347205" lon="11.4795567"><ele>399.8333333333333</ele><time>2026-04-17T09:13:53.089Z</time></trkpt><trkpt lat="44.3471667" lon="11.4797083"><ele>397.66666666666663</ele><time>2026-04-17T09:13:55.088Z</time></trkpt><trkpt lat="44.3471083" lon="11.4798583"><ele>395.5</ele><time>2026-04-17T09:13:57.089Z</time></trkpt><trkpt lat="44.3470683" lon="11.4799317"><ele>393.3333333333333</ele><time>2026-04-17T09:13:58.089Z</time></trkpt><trkpt lat="44.34702" lon="11.48"><ele>391.16666666666663</ele><time>2026-04-17T09:13:59.089Z</time></trkpt><trkpt lat="44.34697" lon="11.48007"><ele>389.0</ele><time>2026-04-17T09:14:00.089Z</time></trkpt><trkpt lat="44.34692" lon="11.480135"><ele>389.0</ele><time>2026-04-17T09:14:01.089Z</time></trkpt><trkpt lat="44.34687" lon="11.4801917"><ele>389.0</ele><time>2026-04-17T09:14:02.088Z</time></trkpt><trkpt lat="44.3467567" lon="11.4802633"><ele>389.0</ele><time>2026-04-17T09:14:04.088Z</time></trkpt><trkpt lat="44.34663" lon="11.48024"><ele>389.0</ele><time>2026-04-17T09:14:06.088Z</time></trkpt><trkpt lat="44.3465717" lon="11.4802067"><ele>389.0</ele><time>2026-04-17T09:14:07.088Z</time></trkpt><trkpt lat="44.3464633" lon="11.4801117"><ele>388.99999999999994</ele><time>2026-04-17T09:14:09.089Z</time></trkpt><trkpt lat="44.3464" lon="11.4800517"><ele>389.0</ele><time>2026-04-17T09:14:10.089Z</time></trkpt><trkpt lat="44.3463383" lon="11.4799983"><ele>389.0</ele><time>2026-04-17T09:14:11.089Z</time></trkpt><trkpt lat="44.346275" lon="11.4799583"><ele>389.0</ele><time>2026-04-17T09:14:12.088Z</time></trkpt><trkpt lat="44.3461683" lon="11.4799083"><ele>388.99999999999994</ele><time>2026-04-17T09:14:14.088Z</time></trkpt><trkpt lat="44.34611" lon="11.479865"><ele>389.0</ele><time>2026-04-17T09:14:15.088Z</time></trkpt><trkpt lat="44.34604" lon="11.4798333"><ele>389.16666666666663</ele><time>2026-04-17T09:14:16.089Z</time></trkpt><trkpt lat="44.3459583" lon="11.4798133"><ele>389.3333333333333</ele><time>2026-04-17T09:14:17.089Z</time></trkpt><trkpt lat="44.3458767" lon="11.4798183"><ele>389.5</ele><time>2026-04-17T09:14:18.088Z</time></trkpt><trkpt lat="44.3458" lon="11.479825"><ele>389.66666666666663</ele><time>2026-04-17T09:14:19.088Z</time></trkpt><trkpt lat="44.3457233" lon="11.479845"><ele>389.8333333333333</ele><time>2026-04-17T09:14:20.088Z</time></trkpt><trkpt lat="44.3456583" lon="11.4798533"><ele>390.0</ele><time>2026-04-17T09:14:21.088Z</time></trkpt><trkpt lat="44.3455983" lon="11.4798933"><ele>386.1666666666667</ele><time>2026-04-17T09:14:22.088Z</time></trkpt><trkpt lat="44.345545" lon="11.4799483"><ele>382.3333333333333</ele><time>2026-04-17T09:14:23.089Z</time></trkpt><trkpt lat="44.3454817" lon="11.4801"><ele>378.5</ele><time>2026-04-17T09:14:25.088Z</time></trkpt><trkpt lat="44.3454483" lon="11.48018"><ele>374.66666666666663</ele><time>2026-04-17T09:14:26.088Z</time></trkpt><trkpt lat="44.3454067" lon="11.48026"><ele>370.8333333333333</ele><time>2026-04-17T09:14:27.088Z</time></trkpt><trkpt lat="44.3453667" lon="11.4803483"><ele>367.0</ele><time>2026-04-17T09:14:28.089Z</time></trkpt><trkpt lat="44.34533" lon="11.48043"><ele>367.3333333333333</ele><time>2026-04-17T09:14:29.088Z</time></trkpt><trkpt lat="44.3452867" lon="11.48051"><ele>367.66666666666663</ele><time>2026-04-17T09:14:30.089Z</time></trkpt><trkpt lat="44.3452383" lon="11.4805967"><ele>368.0</ele><time>2026-04-17T09:14:31.089Z</time></trkpt><trkpt lat="44.3451967" lon="11.4806883"><ele>368.3333333333333</ele><time>2026-04-17T09:14:32.088Z</time></trkpt><trkpt lat="44.34516" lon="11.4807883"><ele>368.6666666666667</ele><time>2026-04-17T09:14:33.088Z</time></trkpt><trkpt lat="44.3451283" lon="11.4808883"><ele>369.0</ele><time>2026-04-17T09:14:34.089Z</time></trkpt><trkpt lat="44.3451" lon="11.4809767"><ele>369.0</ele><time>2026-04-17T09:14:35.088Z</time></trkpt><trkpt lat="44.3450633" lon="11.4810483"><ele>369.0</ele><time>2026-04-17T09:14:36.089Z</time></trkpt><trkpt lat="44.34499" lon="11.4811683"><ele>369.0</ele><time>2026-04-17T09:14:38.088Z</time></trkpt><trkpt lat="44.3449233" lon="11.4813133"><ele>369.0</ele><time>2026-04-17T09:14:40.088Z</time></trkpt><trkpt lat="44.3449133" lon="11.4814017"><ele>369.0</ele><time>2026-04-17T09:14:41.088Z</time></trkpt><trkpt lat="44.3449183" lon="11.4814983"><ele>369.0</ele><time>2026-04-17T09:14:42.088Z</time></trkpt><trkpt lat="44.344935" lon="11.4815883"><ele>367.2</ele><time>2026-04-17T09:14:43.089Z</time></trkpt><trkpt lat="44.3449967" lon="11.4817183"><ele>365.4</ele><time>2026-04-17T09:14:45.088Z</time></trkpt><trkpt lat="44.3450767" lon="11.4817883"><ele>363.6</ele><time>2026-04-17T09:14:47.088Z</time></trkpt><trkpt lat="44.3451833" lon="11.4818417"><ele>361.8</ele><time>2026-04-17T09:14:49.089Z</time></trkpt><trkpt lat="44.345265" lon="11.4819033"><ele>360.0</ele><time>2026-04-17T09:14:51.088Z</time></trkpt><trkpt lat="44.3453217" lon="11.4819667"><ele>360.0</ele><time>2026-04-17T09:14:53.088Z</time></trkpt><trkpt lat="44.345375" lon="11.482055"><ele>360.0</ele><time>2026-04-17T09:14:55.088Z</time></trkpt><trkpt lat="44.3453867" lon="11.4821967"><ele>360.0</ele><time>2026-04-17T09:14:57.088Z</time></trkpt><trkpt lat="44.3453433" lon="11.4823267"><ele>360.0</ele><time>2026-04-17T09:14:59.089Z</time></trkpt><trkpt lat="44.3452467" lon="11.4823933"><ele>360.0</ele><time>2026-04-17T09:15:01.089Z</time></trkpt><trkpt lat="44.34514" lon="11.4823917"><ele>358.0</ele><time>2026-04-17T09:15:03.088Z</time></trkpt><trkpt lat="44.34502" lon="11.48235"><ele>356.0</ele><time>2026-04-17T09:15:05.088Z</time></trkpt><trkpt lat="44.3449017" lon="11.48231"><ele>354.0</ele><time>2026-04-17T09:15:07.088Z</time></trkpt><trkpt lat="44.344815" lon="11.4822633"><ele>352.0</ele><time>2026-04-17T09:15:09.089Z</time></trkpt><trkpt lat="44.3447467" lon="11.4822117"><ele>350.0</ele><time>2026-04-17T09:15:11.088Z</time></trkpt><trkpt lat="44.3446683" lon="11.482165"><ele>347.8</ele><time>2026-04-17T09:15:13.089Z</time></trkpt><trkpt lat="44.344575" lon="11.4821033"><ele>345.6</ele><time>2026-04-17T09:15:15.088Z</time></trkpt><trkpt lat="44.3444983" lon="11.4820333"><ele>343.4</ele><time>2026-04-17T09:15:17.089Z</time></trkpt><trkpt lat="44.34444" lon="11.4819467"><ele>341.2</ele><time>2026-04-17T09:15:19.088Z</time></trkpt><trkpt lat="44.3443717" lon="11.48184"><ele>339.0</ele><time>2026-04-17T09:15:21.089Z</time></trkpt><trkpt lat="44.34429" lon="11.4817467"><ele>339.0</ele><time>2026-04-17T09:15:23.088Z</time></trkpt><trkpt lat="44.3441833" lon="11.4816867"><ele>339.0</ele><time>2026-04-17T09:15:25.089Z</time></trkpt><trkpt lat="44.3440633" lon="11.4816483"><ele>339.0</ele><time>2026-04-17T09:15:27.088Z</time></trkpt><trkpt lat="44.343955" lon="11.4816033"><ele>339.0</ele><time>2026-04-17T09:15:29.089Z</time></trkpt><trkpt lat="44.3438717" lon="11.48156"><ele>339.0</ele><time>2026-04-17T09:15:31.088Z</time></trkpt><trkpt lat="44.3437817" lon="11.4815233"><ele>336.6</ele><time>2026-04-17T09:15:33.088Z</time></trkpt><trkpt lat="44.3436733" lon="11.481475"><ele>334.2</ele><time>2026-04-17T09:15:35.088Z</time></trkpt><trkpt lat="44.3435767" lon="11.4814017"><ele>331.8</ele><time>2026-04-17T09:15:37.088Z</time></trkpt><trkpt lat="44.3435267" lon="11.4813467"><ele>329.40000000000003</ele><time>2026-04-17T09:15:38.089Z</time></trkpt><trkpt lat="44.3434317" lon="11.481225"><ele>327.0</ele><time>2026-04-17T09:15:40.089Z</time></trkpt><trkpt lat="44.3433883" lon="11.481155"><ele>326.8333333333333</ele><time>2026-04-17T09:15:41.089Z</time></trkpt><trkpt lat="44.3433433" lon="11.481075"><ele>326.6666666666667</ele><time>2026-04-17T09:15:42.089Z</time></trkpt><trkpt lat="44.3432967" lon="11.480995"><ele>326.5</ele><time>2026-04-17T09:15:43.089Z</time></trkpt><trkpt lat="44.3432417" lon="11.4809167"><ele>326.33333333333337</ele><time>2026-04-17T09:15:44.088Z</time></trkpt><trkpt lat="44.34319" lon="11.4808483"><ele>326.1666666666667</ele><time>2026-04-17T09:15:45.088Z</time></trkpt><trkpt lat="44.3431333" lon="11.480775"><ele>326.0</ele><time>2026-04-17T09:15:46.088Z</time></trkpt><trkpt lat="44.3430717" lon="11.4807083"><ele>324.14285714285717</ele><time>2026-04-17T09:15:47.088Z</time></trkpt><trkpt lat="44.3430133" lon="11.480645"><ele>322.2857142857143</ele><time>2026-04-17T09:15:48.089Z</time></trkpt><trkpt lat="44.3429583" lon="11.4805817"><ele>320.42857142857144</ele><time>2026-04-17T09:15:49.089Z</time></trkpt><trkpt lat="44.3429083" lon="11.4805183"><ele>318.57142857142856</ele><time>2026-04-17T09:15:50.089Z</time></trkpt><trkpt lat="44.34286" lon="11.4804533"><ele>316.7142857142857</ele><time>2026-04-17T09:15:51.088Z</time></trkpt><trkpt lat="44.3428167" lon="11.4803867"><ele>314.85714285714283</ele><time>2026-04-17T09:15:52.088Z</time></trkpt><trkpt lat="44.3427717" lon="11.480315"><ele>313.0</ele><time>2026-04-17T09:15:53.089Z</time></trkpt><trkpt lat="44.3426883" lon="11.4801867"><ele>312.5</ele><time>2026-04-17T09:15:55.088Z</time></trkpt><trkpt lat="44.3426283" lon="11.48012"><ele>312.0</ele><time>2026-04-17T09:15:56.088Z</time></trkpt><trkpt lat="44.3425617" lon="11.4800567"><ele>311.5</ele><time>2026-04-17T09:15:57.088Z</time></trkpt><trkpt lat="44.3424917" lon="11.4800083"><ele>311.0</ele><time>2026-04-17T09:15:58.089Z</time></trkpt><trkpt lat="44.3424233" lon="11.4799633"><ele>310.5</ele><time>2026-04-17T09:15:59.088Z</time></trkpt><trkpt lat="44.3423567" lon="11.4799183"><ele>310.0</ele><time>2026-04-17T09:16:00.089Z</time></trkpt><trkpt lat="44.3422817" lon="11.479875"><ele>308.3333333333333</ele><time>2026-04-17T09:16:01.089Z</time></trkpt><trkpt lat="44.3422117" lon="11.4798333"><ele>306.66666666666663</ele><time>2026-04-17T09:16:02.089Z</time></trkpt><trkpt lat="44.3421483" lon="11.4797817"><ele>305.0</ele><time>2026-04-17T09:16:03.089Z</time></trkpt><trkpt lat="44.3420717" lon="11.4797267"><ele>303.3333333333333</ele><time>2026-04-17T09:16:04.088Z</time></trkpt><trkpt lat="44.3419983" lon="11.4796783"><ele>301.6666666666667</ele><time>2026-04-17T09:16:05.089Z</time></trkpt><trkpt lat="44.341935" lon="11.4796283"><ele>300.0</ele><time>2026-04-17T09:16:06.089Z</time></trkpt><trkpt lat="44.3418667" lon="11.4795817"><ele>299.6666666666667</ele><time>2026-04-17T09:16:07.088Z</time></trkpt><trkpt lat="44.3418" lon="11.4795583"><ele>299.3333333333333</ele><time>2026-04-17T09:16:08.088Z</time></trkpt><trkpt lat="44.3417333" lon="11.4795617"><ele>299.0</ele><time>2026-04-17T09:16:09.088Z</time></trkpt><trkpt lat="44.34165" lon="11.47956"><ele>298.66666666666663</ele><time>2026-04-17T09:16:10.089Z</time></trkpt><trkpt lat="44.3415583" lon="11.47957"><ele>298.3333333333333</ele><time>2026-04-17T09:16:11.088Z</time></trkpt><trkpt lat="44.341465" lon="11.4795667"><ele>298.0</ele><time>2026-04-17T09:16:12.088Z</time></trkpt><trkpt lat="44.3413767" lon="11.4795633"><ele>297.16666666666663</ele><time>2026-04-17T09:16:13.088Z</time></trkpt><trkpt lat="44.3412933" lon="11.4795217"><ele>296.3333333333333</ele><time>2026-04-17T09:16:14.089Z</time></trkpt><trkpt lat="44.3412167" lon="11.479475"><ele>295.5</ele><time>2026-04-17T09:16:15.088Z</time></trkpt><trkpt lat="44.3411633" lon="11.4794"><ele>294.6666666666667</ele><time>2026-04-17T09:16:16.088Z</time></trkpt><trkpt lat="44.3411167" lon="11.47931"><ele>293.83333333333337</ele><time>2026-04-17T09:16:17.088Z</time></trkpt><trkpt lat="44.3410767" lon="11.4792117"><ele>293.0</ele><time>2026-04-17T09:16:18.089Z</time></trkpt><trkpt lat="44.3410333" lon="11.4790967"><ele>293.0</ele><time>2026-04-17T09:16:19.089Z</time></trkpt><trkpt lat="44.340985" lon="11.4789883"><ele>293.0</ele><time>2026-04-17T09:16:20.088Z</time></trkpt><trkpt lat="44.340945" lon="11.4788867"><ele>293.0</ele><time>2026-04-17T09:16:21.088Z</time></trkpt><trkpt lat="44.3409117" lon="11.4787883"><ele>293.0</ele><time>2026-04-17T09:16:22.088Z</time></trkpt><trkpt lat="44.3408567" lon="11.478705"><ele>293.0</ele><time>2026-04-17T09:16:23.088Z</time></trkpt><trkpt lat="44.3407933" lon="11.4786317"><ele>293.0</ele><time>2026-04-17T09:16:24.089Z</time></trkpt><trkpt lat="44.340725" lon="11.47858"><ele>293.0</ele><time>2026-04-17T09:16:25.089Z</time></trkpt><trkpt lat="44.3406583" lon="11.4785533"><ele>293.0</ele><time>2026-04-17T09:16:26.088Z</time></trkpt><trkpt lat="44.340585" lon="11.4785567"><ele>293.0</ele><time>2026-04-17T09:16:27.088Z</time></trkpt><trkpt lat="44.3405067" lon="11.478575"><ele>293.0</ele><time>2026-04-17T09:16:28.089Z</time></trkpt><trkpt lat="44.3404317" lon="11.4786067"><ele>293.0</ele><time>2026-04-17T09:16:29.089Z</time></trkpt><trkpt lat="44.34036" lon="11.4786567"><ele>293.0</ele><time>2026-04-17T09:16:30.088Z</time></trkpt><trkpt lat="44.340305" lon="11.4787217"><ele>290.5</ele><time>2026-04-17T09:16:31.088Z</time></trkpt><trkpt lat="44.3402567" lon="11.4787983"><ele>288.0</ele><time>2026-04-17T09:16:32.088Z</time></trkpt><trkpt lat="44.3401867" lon="11.478955"><ele>285.5</ele><time>2026-04-17T09:16:34.088Z</time></trkpt><trkpt lat="44.34017" lon="11.4790467"><ele>283.0</ele><time>2026-04-17T09:16:35.088Z</time></trkpt><trkpt lat="44.3401567" lon="11.47915"><ele>280.5</ele><time>2026-04-17T09:16:36.088Z</time></trkpt><trkpt lat="44.34015" lon="11.4792517"><ele>278.0</ele><time>2026-04-17T09:16:37.089Z</time></trkpt><trkpt lat="44.3401167" lon="11.4793417"><ele>278.0</ele><time>2026-04-17T09:16:38.088Z</time></trkpt><trkpt lat="44.3400667" lon="11.4794167"><ele>278.0</ele><time>2026-04-17T09:16:39.089Z</time></trkpt><trkpt lat="44.3400067" lon="11.47946"><ele>278.0</ele><time>2026-04-17T09:16:40.088Z</time></trkpt><trkpt lat="44.3399317" lon="11.4794833"><ele>278.0</ele><time>2026-04-17T09:16:41.089Z</time></trkpt><trkpt lat="44.339835" lon="11.4795183"><ele>278.0</ele><time>2026-04-17T09:16:42.089Z</time></trkpt><trkpt lat="44.33975" lon="11.4795733"><ele>278.0</ele><time>2026-04-17T09:16:43.088Z</time></trkpt><trkpt lat="44.33968" lon="11.4796283"><ele>276.6666666666667</ele><time>2026-04-17T09:16:44.088Z</time></trkpt><trkpt lat="44.3396217" lon="11.4796833"><ele>275.33333333333337</ele><time>2026-04-17T09:16:45.089Z</time></trkpt><trkpt lat="44.3395667" lon="11.4797333"><ele>274.0</ele><time>2026-04-17T09:16:46.088Z</time></trkpt><trkpt lat="44.33948" lon="11.4798333"><ele>272.6666666666667</ele><time>2026-04-17T09:16:48.089Z</time></trkpt><trkpt lat="44.3393733" lon="11.479925"><ele>271.3333333333333</ele><time>2026-04-17T09:16:50.089Z</time></trkpt><trkpt lat="44.3393067" lon="11.4799467"><ele>270.0</ele><time>2026-04-17T09:16:51.088Z</time></trkpt><trkpt lat="44.3392333" lon="11.47996"><ele>270.0</ele><time>2026-04-17T09:16:52.088Z</time></trkpt><trkpt lat="44.33916" lon="11.4799717"><ele>270.0</ele><time>2026-04-17T09:16:53.088Z</time></trkpt><trkpt lat="44.3390817" lon="11.4799883"><ele>270.0</ele><time>2026-04-17T09:16:54.089Z</time></trkpt><trkpt lat="44.3390017" lon="11.4799917"><ele>270.0</ele><time>2026-04-17T09:16:55.088Z</time></trkpt><trkpt lat="44.3389217" lon="11.4799817"><ele>270.0</ele><time>2026-04-17T09:16:56.088Z</time></trkpt><trkpt lat="44.338845" lon="11.4799567"><ele>270.0</ele><time>2026-04-17T09:16:57.088Z</time></trkpt><trkpt lat="44.33877" lon="11.4799217"><ele>268.42857142857144</ele><time>2026-04-17T09:16:58.088Z</time></trkpt><trkpt lat="44.3386917" lon="11.4798883"><ele>266.85714285714283</ele><time>2026-04-17T09:16:59.088Z</time></trkpt><trkpt lat="44.3386217" lon="11.4798533"><ele>265.2857142857143</ele><time>2026-04-17T09:17:00.088Z</time></trkpt><trkpt lat="44.33855" lon="11.4798217"><ele>263.7142857142857</ele><time>2026-04-17T09:17:01.089Z</time></trkpt><trkpt lat="44.338485" lon="11.4797867"><ele>262.1428571428571</ele><time>2026-04-17T09:17:02.088Z</time></trkpt><trkpt lat="44.338425" lon="11.4797483"><ele>260.57142857142856</ele><time>2026-04-17T09:17:03.088Z</time></trkpt><trkpt lat="44.338365" lon="11.4797183"><ele>259.0</ele><time>2026-04-17T09:17:04.089Z</time></trkpt><trkpt lat="44.3383033" lon="11.4796867"><ele>259.0</ele><time>2026-04-17T09:17:05.089Z</time></trkpt><trkpt lat="44.338235" lon="11.479645"><ele>259.0</ele><time>2026-04-17T09:17:06.089Z</time></trkpt><trkpt lat="44.338175" lon="11.4796133"><ele>259.0</ele><time>2026-04-17T09:17:07.088Z</time></trkpt><trkpt lat="44.338115" lon="11.4795733"><ele>259.0</ele><time>2026-04-17T09:17:08.089Z</time></trkpt><trkpt lat="44.3380517" lon="11.4795283"><ele>259.0</ele><time>2026-04-17T09:17:09.088Z</time></trkpt><trkpt lat="44.3379867" lon="11.4794767"><ele>259.0</ele><time>2026-04-17T09:17:10.088Z</time></trkpt><trkpt lat="44.337925" lon="11.47943"><ele>259.0</ele><time>2026-04-17T09:17:11.088Z</time></trkpt><trkpt lat="44.3378617" lon="11.479385"><ele>257.7142857142857</ele><time>2026-04-17T09:17:12.088Z</time></trkpt><trkpt lat="44.3377983" lon="11.4793433"><ele>256.42857142857144</ele><time>2026-04-17T09:17:13.089Z</time></trkpt><trkpt lat="44.3377283" lon="11.4793183"><ele>255.14285714285714</ele><time>2026-04-17T09:17:14.088Z</time></trkpt><trkpt lat="44.3376617" lon="11.479315"><ele>253.85714285714286</ele><time>2026-04-17T09:17:15.088Z</time></trkpt><trkpt lat="44.337595" lon="11.4793217"><ele>252.57142857142858</ele><time>2026-04-17T09:17:16.088Z</time></trkpt><trkpt lat="44.3375283" lon="11.47934"><ele>251.28571428571428</ele><time>2026-04-17T09:17:17.088Z</time></trkpt><trkpt lat="44.33746" lon="11.4793667"><ele>250.0</ele><time>2026-04-17T09:17:18.088Z</time></trkpt><trkpt lat="44.33739" lon="11.47941"><ele>250.0</ele><time>2026-04-17T09:17:19.088Z</time></trkpt><trkpt lat="44.3373183" lon="11.4794517"><ele>250.0</ele><time>2026-04-17T09:17:20.088Z</time></trkpt><trkpt lat="44.3372517" lon="11.47949"><ele>250.0</ele><time>2026-04-17T09:17:21.088Z</time></trkpt><trkpt lat="44.3371933" lon="11.479525"><ele>250.0</ele><time>2026-04-17T09:17:22.089Z</time></trkpt><trkpt lat="44.3371233" lon="11.4795583"><ele>250.0</ele><time>2026-04-17T09:17:23.089Z</time></trkpt><trkpt lat="44.337055" lon="11.479585"><ele>250.0</ele><time>2026-04-17T09:17:24.089Z</time></trkpt><trkpt lat="44.3369817" lon="11.4796083"><ele>250.0</ele><time>2026-04-17T09:17:25.089Z</time></trkpt><trkpt lat="44.336905" lon="11.4796267"><ele>248.33333333333331</ele><time>2026-04-17T09:17:26.088Z</time></trkpt><trkpt lat="44.3368317" lon="11.4796383"><ele>246.66666666666666</ele><time>2026-04-17T09:17:27.089Z</time></trkpt><trkpt lat="44.3367533" lon="11.4796517"><ele>245.0</ele><time>2026-04-17T09:17:28.089Z</time></trkpt><trkpt lat="44.3366783" lon="11.479665"><ele>243.33333333333331</ele><time>2026-04-17T09:17:29.088Z</time></trkpt><trkpt lat="44.3366" lon="11.4796767"><ele>241.66666666666666</ele><time>2026-04-17T09:17:30.089Z</time></trkpt><trkpt lat="44.3365267" lon="11.4796883"><ele>240.0</ele><time>2026-04-17T09:17:31.088Z</time></trkpt><trkpt lat="44.3364567" lon="11.4797033"><ele>239.66666666666666</ele><time>2026-04-17T09:17:32.088Z</time></trkpt><trkpt lat="44.3363833" lon="11.4797317"><ele>239.33333333333331</ele><time>2026-04-17T09:17:33.088Z</time></trkpt><trkpt lat="44.3363083" lon="11.4797767"><ele>239.0</ele><time>2026-04-17T09:17:34.088Z</time></trkpt><trkpt lat="44.3362417" lon="11.4798183"><ele>238.66666666666666</ele><time>2026-04-17T09:17:35.089Z</time></trkpt><trkpt lat="44.3361817" lon="11.4798583"><ele>238.33333333333331</ele><time>2026-04-17T09:17:36.089Z</time></trkpt><trkpt lat="44.3361167" lon="11.4799017"><ele>238.0</ele><time>2026-04-17T09:17:37.088Z</time></trkpt><trkpt lat="44.33604" lon="11.479945"><ele>237.99999999999997</ele><time>2026-04-17T09:17:38.089Z</time></trkpt><trkpt lat="44.3359717" lon="11.4799917"><ele>238.0</ele><time>2026-04-17T09:17:39.089Z</time></trkpt><trkpt lat="44.3359017" lon="11.4800533"><ele>238.0</ele><time>2026-04-17T09:17:40.088Z</time></trkpt><trkpt lat="44.33583" lon="11.4801283"><ele>238.0</ele><time>2026-04-17T09:17:41.088Z</time></trkpt><trkpt lat="44.3357583" lon="11.4802"><ele>237.99999999999997</ele><time>2026-04-17T09:17:42.088Z</time></trkpt><trkpt lat="44.335685" lon="11.480275"><ele>238.0</ele><time>2026-04-17T09:17:43.088Z</time></trkpt><trkpt lat="44.3356083" lon="11.4803417"><ele>239.8</ele><time>2026-04-17T09:17:44.088Z</time></trkpt><trkpt lat="44.3355233" lon="11.4803967"><ele>241.60000000000002</ele><time>2026-04-17T09:17:45.089Z</time></trkpt><trkpt lat="44.3354367" lon="11.4804517"><ele>243.39999999999998</ele><time>2026-04-17T09:17:46.089Z</time></trkpt><trkpt lat="44.3353533" lon="11.480515"><ele>245.2</ele><time>2026-04-17T09:17:47.089Z</time></trkpt><trkpt lat="44.3352717" lon="11.48059"><ele>247.0</ele><time>2026-04-17T09:17:48.089Z</time></trkpt><trkpt lat="44.335195" lon="11.4806583"><ele>243.99999999999997</ele><time>2026-04-17T09:17:49.088Z</time></trkpt><trkpt lat="44.3351067" lon="11.4807317"><ele>241.0</ele><time>2026-04-17T09:17:50.088Z</time></trkpt><trkpt lat="44.33503" lon="11.480805"><ele>238.0</ele><time>2026-04-17T09:17:51.088Z</time></trkpt><trkpt lat="44.3349567" lon="11.480865"><ele>235.0</ele><time>2026-04-17T09:17:52.087Z</time></trkpt><trkpt lat="44.3348867" lon="11.480925"><ele>231.99999999999997</ele><time>2026-04-17T09:17:53.087Z</time></trkpt><trkpt lat="44.3348167" lon="11.4809783"><ele>229.0</ele><time>2026-04-17T09:17:54.087Z</time></trkpt><trkpt lat="44.3347517" lon="11.48103"><ele>228.99999999999997</ele><time>2026-04-17T09:17:55.088Z</time></trkpt><trkpt lat="44.3346933" lon="11.4810817"><ele>229.0</ele><time>2026-04-17T09:17:56.087Z</time></trkpt><trkpt lat="44.3346333" lon="11.48114"><ele>229.0</ele><time>2026-04-17T09:17:57.087Z</time></trkpt><trkpt lat="44.3345667" lon="11.4812017"><ele>229.0</ele><time>2026-04-17T09:17:58.088Z</time></trkpt><trkpt lat="44.3344917" lon="11.4812667"><ele>228.99999999999997</ele><time>2026-04-17T09:17:59.088Z</time></trkpt><trkpt lat="44.3344117" lon="11.481335"><ele>229.0</ele><time>2026-04-17T09:18:00.087Z</time></trkpt><trkpt lat="44.334335" lon="11.481405"><ele>228.99999999999997</ele><time>2026-04-17T09:18:01.088Z</time></trkpt><trkpt lat="44.334255" lon="11.481465"><ele>229.0</ele><time>2026-04-17T09:18:02.087Z</time></trkpt><trkpt lat="44.3341867" lon="11.481525"><ele>229.0</ele><time>2026-04-17T09:18:03.087Z</time></trkpt><trkpt lat="44.3341117" lon="11.4815783"><ele>229.0</ele><time>2026-04-17T09:18:04.087Z</time></trkpt><trkpt lat="44.3340383" lon="11.4816267"><ele>228.99999999999997</ele><time>2026-04-17T09:18:05.087Z</time></trkpt><trkpt lat="44.3339633" lon="11.4816783"><ele>229.0</ele><time>2026-04-17T09:18:06.088Z</time></trkpt><trkpt lat="44.33389" lon="11.48174"><ele>228.66666666666666</ele><time>2026-04-17T09:18:07.087Z</time></trkpt><trkpt lat="44.33382" lon="11.4817983"><ele>228.33333333333331</ele><time>2026-04-17T09:18:08.087Z</time></trkpt><trkpt lat="44.3337483" lon="11.4818683"><ele>228.0</ele><time>2026-04-17T09:18:09.087Z</time></trkpt><trkpt lat="44.3336883" lon="11.4819433"><ele>227.66666666666669</ele><time>2026-04-17T09:18:10.087Z</time></trkpt><trkpt lat="44.333625" lon="11.4820433"><ele>227.33333333333334</ele><time>2026-04-17T09:18:11.087Z</time></trkpt><trkpt lat="44.3335767" lon="11.4821617"><ele>227.0</ele><time>2026-04-17T09:18:12.087Z</time></trkpt><trkpt lat="44.3335433" lon="11.4822767"><ele>227.0</ele><time>2026-04-17T09:18:13.087Z</time></trkpt><trkpt lat="44.33351" lon="11.4824033"><ele>227.0</ele><time>2026-04-17T09:18:14.087Z</time></trkpt><trkpt lat="44.3334717" lon="11.482535"><ele>227.0</ele><time>2026-04-17T09:18:15.087Z</time></trkpt><trkpt lat="44.3334233" lon="11.4826483"><ele>227.0</ele><time>2026-04-17T09:18:16.088Z</time></trkpt><trkpt lat="44.333365" lon="11.4827583"><ele>227.0</ele><time>2026-04-17T09:18:17.087Z</time></trkpt><trkpt lat="44.3333017" lon="11.4828633"><ele>226.0</ele><time>2026-04-17T09:18:18.088Z</time></trkpt><trkpt lat="44.3332483" lon="11.4829533"><ele>225.0</ele><time>2026-04-17T09:18:19.087Z</time></trkpt><trkpt lat="44.333195" lon="11.4830317"><ele>224.0</ele><time>2026-04-17T09:18:20.088Z</time></trkpt><trkpt lat="44.333145" lon="11.4831017"><ele>223.0</ele><time>2026-04-17T09:18:21.088Z</time></trkpt><trkpt lat="44.3330367" lon="11.48319"><ele>222.0</ele><time>2026-04-17T09:18:23.088Z</time></trkpt><trkpt lat="44.3329067" lon="11.483185"><ele>220.39999999999998</ele><time>2026-04-17T09:18:25.087Z</time></trkpt><trkpt lat="44.3328167" lon="11.48316"><ele>218.79999999999998</ele><time>2026-04-17T09:18:26.087Z</time></trkpt><trkpt lat="44.3327133" lon="11.4831267"><ele>217.2</ele><time>2026-04-17T09:18:27.087Z</time></trkpt><trkpt lat="44.3326017" lon="11.4830917"><ele>215.6</ele><time>2026-04-17T09:18:28.087Z</time></trkpt><trkpt lat="44.3324833" lon="11.4830567"><ele>214.0</ele><time>2026-04-17T09:18:29.087Z</time></trkpt><trkpt lat="44.3323667" lon="11.4830267"><ele>214.0</ele><time>2026-04-17T09:18:30.087Z</time></trkpt><trkpt lat="44.3322433" lon="11.4830083"><ele>214.0</ele><time>2026-04-17T09:18:31.088Z</time></trkpt><trkpt lat="44.3321233" lon="11.482995"><ele>214.0</ele><time>2026-04-17T09:18:32.088Z</time></trkpt><trkpt lat="44.3320033" lon="11.48299"><ele>214.0</ele><time>2026-04-17T09:18:33.088Z</time></trkpt><trkpt lat="44.331885" lon="11.482975"><ele>214.0</ele><time>2026-04-17T09:18:34.088Z</time></trkpt><trkpt lat="44.33177" lon="11.4829533"><ele>213.99999999999997</ele><time>2026-04-17T09:18:35.087Z</time></trkpt><trkpt lat="44.3316567" lon="11.4829367"><ele>213.99999999999997</ele><time>2026-04-17T09:18:36.087Z</time></trkpt><trkpt lat="44.331545" lon="11.482925"><ele>214.0</ele><time>2026-04-17T09:18:37.087Z</time></trkpt><trkpt lat="44.331445" lon="11.4829133"><ele>214.0</ele><time>2026-04-17T09:18:38.088Z</time></trkpt><trkpt lat="44.3313433" lon="11.4828817"><ele>213.2</ele><time>2026-04-17T09:18:39.087Z</time></trkpt><trkpt lat="44.3312417" lon="11.482845"><ele>212.39999999999998</ele><time>2026-04-17T09:18:40.088Z</time></trkpt><trkpt lat="44.33114" lon="11.4828033"><ele>211.6</ele><time>2026-04-17T09:18:41.088Z</time></trkpt><trkpt lat="44.3310517" lon="11.48275"><ele>210.8</ele><time>2026-04-17T09:18:42.087Z</time></trkpt><trkpt lat="44.3309567" lon="11.4827"><ele>210.0</ele><time>2026-04-17T09:18:43.088Z</time></trkpt><trkpt lat="44.330855" lon="11.4826633"><ele>210.0</ele><time>2026-04-17T09:18:44.088Z</time></trkpt><trkpt lat="44.3307433" lon="11.482635"><ele>210.0</ele><time>2026-04-17T09:18:45.088Z</time></trkpt><trkpt lat="44.3306267" lon="11.4826233"><ele>210.0</ele><time>2026-04-17T09:18:46.088Z</time></trkpt><trkpt lat="44.33051" lon="11.4826183"><ele>210.0</ele><time>2026-04-17T09:18:47.087Z</time></trkpt><trkpt lat="44.3303883" lon="11.48262"><ele>209.0</ele><time>2026-04-17T09:18:48.088Z</time></trkpt><trkpt lat="44.33027" lon="11.4826217"><ele>208.0</ele><time>2026-04-17T09:18:49.087Z</time></trkpt><trkpt lat="44.3301533" lon="11.4826133"><ele>207.0</ele><time>2026-04-17T09:18:50.087Z</time></trkpt><trkpt lat="44.33004" lon="11.4825917"><ele>206.0</ele><time>2026-04-17T09:18:51.088Z</time></trkpt><trkpt lat="44.3299317" lon="11.4825483"><ele>206.0</ele><time>2026-04-17T09:18:52.088Z</time></trkpt><trkpt lat="44.3298167" lon="11.4825"><ele>206.0</ele><time>2026-04-17T09:18:53.088Z</time></trkpt><trkpt lat="44.3297" lon="11.482455"><ele>206.0</ele><time>2026-04-17T09:18:54.087Z</time></trkpt><trkpt lat="44.3295833" lon="11.4824283"><ele>206.0</ele><time>2026-04-17T09:18:55.087Z</time></trkpt><trkpt lat="44.329465" lon="11.4824267"><ele>206.20000000000002</ele><time>2026-04-17T09:18:56.088Z</time></trkpt><trkpt lat="44.3293483" lon="11.4824417"><ele>206.4</ele><time>2026-04-17T09:18:57.088Z</time></trkpt><trkpt lat="44.329245" lon="11.48246"><ele>206.6</ele><time>2026-04-17T09:18:58.087Z</time></trkpt><trkpt lat="44.3291433" lon="11.4824833"><ele>206.8</ele><time>2026-04-17T09:18:59.087Z</time></trkpt><trkpt lat="44.3290533" lon="11.482535"><ele>207.0</ele><time>2026-04-17T09:19:00.088Z</time></trkpt><trkpt lat="44.3289717" lon="11.4826233"><ele>206.5</ele><time>2026-04-17T09:19:01.088Z</time></trkpt><trkpt lat="44.3288867" lon="11.482735"><ele>206.0</ele><time>2026-04-17T09:19:02.088Z</time></trkpt><trkpt lat="44.3288067" lon="11.48286"><ele>205.5</ele><time>2026-04-17T09:19:03.087Z</time></trkpt><trkpt lat="44.3287233" lon="11.4829817"><ele>205.0</ele><time>2026-04-17T09:19:04.088Z</time></trkpt><trkpt lat="44.3286333" lon="11.4830783"><ele>203.8</ele><time>2026-04-17T09:19:05.087Z</time></trkpt><trkpt lat="44.3285467" lon="11.483165"><ele>202.6</ele><time>2026-04-17T09:19:06.087Z</time></trkpt><trkpt lat="44.32845" lon="11.4832367"><ele>201.39999999999998</ele><time>2026-04-17T09:19:07.087Z</time></trkpt><trkpt lat="44.3283517" lon="11.48329"><ele>200.2</ele><time>2026-04-17T09:19:08.087Z</time></trkpt><trkpt lat="44.3282417" lon="11.4833317"><ele>199.0</ele><time>2026-04-17T09:19:09.087Z</time></trkpt><trkpt lat="44.3281267" lon="11.48336"><ele>198.25</ele><time>2026-04-17T09:19:10.087Z</time></trkpt><trkpt lat="44.32801" lon="11.483365"><ele>197.5</ele><time>2026-04-17T09:19:11.087Z</time></trkpt><trkpt lat="44.3278933" lon="11.4833667"><ele>196.75</ele><time>2026-04-17T09:19:12.087Z</time></trkpt><trkpt lat="44.327775" lon="11.4833883"><ele>196.0</ele><time>2026-04-17T09:19:13.088Z</time></trkpt><trkpt lat="44.3276483" lon="11.4834283"><ele>196.0</ele><time>2026-04-17T09:19:14.087Z</time></trkpt><trkpt lat="44.3275283" lon="11.4834933"><ele>196.0</ele><time>2026-04-17T09:19:15.087Z</time></trkpt><trkpt lat="44.3274267" lon="11.4835533"><ele>196.0</ele><time>2026-04-17T09:19:16.088Z</time></trkpt><trkpt lat="44.3273217" lon="11.4835867"><ele>196.0</ele><time>2026-04-17T09:19:17.088Z</time></trkpt><trkpt lat="44.32721" lon="11.48361"><ele>195.60000000000002</ele><time>2026-04-17T09:19:18.088Z</time></trkpt><trkpt lat="44.3271033" lon="11.4836333"><ele>195.2</ele><time>2026-04-17T09:19:19.088Z</time></trkpt><trkpt lat="44.3269983" lon="11.4836517"><ele>194.8</ele><time>2026-04-17T09:19:20.087Z</time></trkpt><trkpt lat="44.3268983" lon="11.4836383"><ele>194.39999999999998</ele><time>2026-04-17T09:19:21.087Z</time></trkpt><trkpt lat="44.3267933" lon="11.4836"><ele>194.0</ele><time>2026-04-17T09:19:22.087Z</time></trkpt><trkpt lat="44.326675" lon="11.4835283"><ele>194.0</ele><time>2026-04-17T09:19:23.087Z</time></trkpt><trkpt lat="44.326555" lon="11.4834367"><ele>194.0</ele><time>2026-04-17T09:19:24.087Z</time></trkpt><trkpt lat="44.32644" lon="11.4833533"><ele>194.0</ele><time>2026-04-17T09:19:25.088Z</time></trkpt><trkpt lat="44.3263333" lon="11.4832717"><ele>194.0</ele><time>2026-04-17T09:19:26.088Z</time></trkpt><trkpt lat="44.3262317" lon="11.4832083"><ele>193.75</ele><time>2026-04-17T09:19:27.087Z</time></trkpt><trkpt lat="44.3261183" lon="11.48317"><ele>193.5</ele><time>2026-04-17T09:19:28.087Z</time></trkpt><trkpt lat="44.3259983" lon="11.48314"><ele>193.25</ele><time>2026-04-17T09:19:29.087Z</time></trkpt><trkpt lat="44.3258783" lon="11.48315"><ele>193.0</ele><time>2026-04-17T09:19:30.088Z</time></trkpt><trkpt lat="44.3257583" lon="11.4831933"><ele>193.0</ele><time>2026-04-17T09:19:31.088Z</time></trkpt><trkpt lat="44.3256433" lon="11.4832467"><ele>193.0</ele><time>2026-04-17T09:19:32.087Z</time></trkpt><trkpt lat="44.3255333" lon="11.4833083"><ele>193.0</ele><time>2026-04-17T09:19:33.087Z</time></trkpt><trkpt lat="44.325415" lon="11.4833433"><ele>193.0</ele><time>2026-04-17T09:19:34.087Z</time></trkpt><trkpt lat="44.3253" lon="11.4833533"><ele>192.0</ele><time>2026-04-17T09:19:35.087Z</time></trkpt><trkpt lat="44.3251667" lon="11.4833533"><ele>191.0</ele><time>2026-04-17T09:19:36.088Z</time></trkpt><trkpt lat="44.3250433" lon="11.4833733"><ele>190.0</ele><time>2026-04-17T09:19:37.087Z</time></trkpt><trkpt lat="44.3249317" lon="11.4834067"><ele>189.0</ele><time>2026-04-17T09:19:38.087Z</time></trkpt><trkpt lat="44.3248367" lon="11.4834483"><ele>189.0</ele><time>2026-04-17T09:19:39.087Z</time></trkpt><trkpt lat="44.3247467" lon="11.48351"><ele>189.0</ele><time>2026-04-17T09:19:40.087Z</time></trkpt><trkpt lat="44.3246567" lon="11.4835767"><ele>189.0</ele><time>2026-04-17T09:19:41.087Z</time></trkpt><trkpt lat="44.3245733" lon="11.483625"><ele>189.0</ele><time>2026-04-17T09:19:42.087Z</time></trkpt><trkpt lat="44.3244883" lon="11.483655"><ele>189.0</ele><time>2026-04-17T09:19:43.088Z</time></trkpt><trkpt lat="44.3243867" lon="11.4836583"><ele>188.75</ele><time>2026-04-17T09:19:44.087Z</time></trkpt><trkpt lat="44.3242583" lon="11.4836417"><ele>188.5</ele><time>2026-04-17T09:19:45.088Z</time></trkpt><trkpt lat="44.3241067" lon="11.4836133"><ele>188.25</ele><time>2026-04-17T09:19:46.087Z</time></trkpt><trkpt lat="44.32396" lon="11.4836117"><ele>188.0</ele><time>2026-04-17T09:19:47.087Z</time></trkpt><trkpt lat="44.323825" lon="11.4836133"><ele>187.5</ele><time>2026-04-17T09:19:48.088Z</time></trkpt><trkpt lat="44.3236933" lon="11.4836067"><ele>187.0</ele><time>2026-04-17T09:19:49.088Z</time></trkpt><trkpt lat="44.32356" lon="11.483585"><ele>186.5</ele><time>2026-04-17T09:19:50.088Z</time></trkpt><trkpt lat="44.323425" lon="11.483555"><ele>186.0</ele><time>2026-04-17T09:19:51.088Z</time></trkpt><trkpt lat="44.3232983" lon="11.4835183"><ele>186.0</ele><time>2026-04-17T09:19:52.088Z</time></trkpt><trkpt lat="44.3231817" lon="11.4835017"><ele>186.0</ele><time>2026-04-17T09:19:53.088Z</time></trkpt><trkpt lat="44.32307" lon="11.48351"><ele>186.0</ele><time>2026-04-17T09:19:54.088Z</time></trkpt><trkpt lat="44.3229617" lon="11.4835433"><ele>186.0</ele><time>2026-04-17T09:19:55.087Z</time></trkpt><trkpt lat="44.3228567" lon="11.4835733"><ele>186.0</ele><time>2026-04-17T09:19:56.087Z</time></trkpt><trkpt lat="44.3227533" lon="11.4836083"><ele>186.0</ele><time>2026-04-17T09:19:57.087Z</time></trkpt><trkpt lat="44.322665" lon="11.483635"><ele>186.0</ele><time>2026-04-17T09:19:58.087Z</time></trkpt><trkpt lat="44.32258" lon="11.4836717"><ele>186.0</ele><time>2026-04-17T09:19:59.087Z</time></trkpt><trkpt lat="44.3225" lon="11.4837117"><ele>186.0</ele><time>2026-04-17T09:20:00.088Z</time></trkpt><trkpt lat="44.3224317" lon="11.4837567"><ele>186.0</ele><time>2026-04-17T09:20:01.087Z</time></trkpt><trkpt lat="44.3223704" lon="11.4838252"><ele>186.0</ele><time>2026-04-17T09:20:02.087Z</time></trkpt><trkpt lat="44.3223169" lon="11.4839236"><ele>185.20000000000002</ele><time>2026-04-17T09:20:03.088Z</time></trkpt><trkpt lat="44.3222734" lon="11.4840484"><ele>184.4</ele><time>2026-04-17T09:20:04.088Z</time></trkpt><trkpt lat="44.3222347" lon="11.4841802"><ele>183.6</ele><time>2026-04-17T09:20:05.087Z</time></trkpt><trkpt lat="44.322195" lon="11.4843075"><ele>182.8</ele><time>2026-04-17T09:20:06.087Z</time></trkpt><trkpt lat="44.3221458" lon="11.4844287"><ele>182.0</ele><time>2026-04-17T09:20:07.088Z</time></trkpt><trkpt lat="44.3220822" lon="11.4845397"><ele>181.5</ele><time>2026-04-17T09:20:08.088Z</time></trkpt><trkpt lat="44.3220015" lon="11.4846441"><ele>181.0</ele><time>2026-04-17T09:20:09.087Z</time></trkpt><trkpt lat="44.3219068" lon="11.4847476"><ele>180.5</ele><time>2026-04-17T09:20:10.087Z</time></trkpt><trkpt lat="44.321803" lon="11.4848404"><ele>180.0</ele><time>2026-04-17T09:20:11.088Z</time></trkpt><trkpt lat="44.3217015" lon="11.4849333"><ele>180.0</ele><time>2026-04-17T09:20:12.087Z</time></trkpt><trkpt lat="44.3216098" lon="11.4850167"><ele>180.0</ele><time>2026-04-17T09:20:13.087Z</time></trkpt><trkpt lat="44.3215263" lon="11.4851021"><ele>180.0</ele><time>2026-04-17T09:20:14.087Z</time></trkpt><trkpt lat="44.3214499" lon="11.4851825"><ele>180.0</ele><time>2026-04-17T09:20:15.087Z</time></trkpt><trkpt lat="44.3213758" lon="11.4852567"><ele>180.0</ele><time>2026-04-17T09:20:16.087Z</time></trkpt><trkpt lat="44.3213025" lon="11.4853179"><ele>179.16666666666666</ele><time>2026-04-17T09:20:17.088Z</time></trkpt><trkpt lat="44.3212265" lon="11.4853609"><ele>178.33333333333334</ele><time>2026-04-17T09:20:18.087Z</time></trkpt><trkpt lat="44.3211484" lon="11.4853905"><ele>177.5</ele><time>2026-04-17T09:20:19.087Z</time></trkpt><trkpt lat="44.3210648" lon="11.4854008"><ele>176.66666666666669</ele><time>2026-04-17T09:20:20.087Z</time></trkpt><trkpt lat="44.3209833" lon="11.4853933"><ele>175.83333333333334</ele><time>2026-04-17T09:20:21.088Z</time></trkpt><trkpt lat="44.3209067" lon="11.4853883"><ele>175.0</ele><time>2026-04-17T09:20:22.087Z</time></trkpt><trkpt lat="44.320835" lon="11.4853617"><ele>175.0</ele><time>2026-04-17T09:20:23.088Z</time></trkpt><trkpt lat="44.3207717" lon="11.485325"><ele>175.0</ele><time>2026-04-17T09:20:24.087Z</time></trkpt><trkpt lat="44.320715" lon="11.4852717"><ele>175.0</ele><time>2026-04-17T09:20:25.087Z</time></trkpt><trkpt lat="44.32064" lon="11.4851517"><ele>175.0</ele><time>2026-04-17T09:20:27.087Z</time></trkpt><trkpt lat="44.320625" lon="11.48502"><ele>175.0</ele><time>2026-04-17T09:20:29.087Z</time></trkpt><trkpt lat="44.3206417" lon="11.4849083"><ele>175.0</ele><time>2026-04-17T09:20:32.087Z</time></trkpt><trkpt lat="44.320685" lon="11.484825"><ele>175.0</ele><time>2026-04-17T09:20:39.087Z</time></trkpt><trkpt lat="44.3206183" lon="11.484865"><ele>175.0</ele><time>2026-04-17T09:20:45.088Z</time></trkpt><trkpt lat="44.320625" lon="11.4849817"><ele>175.0</ele><time>2026-04-17T09:20:47.087Z</time></trkpt><trkpt lat="44.3206083" lon="11.48507"><ele>175.0</ele><time>2026-04-17T09:20:49.087Z</time></trkpt><trkpt lat="44.320545" lon="11.485085"><ele>175.0</ele><time>2026-04-17T09:20:51.088Z</time></trkpt><trkpt lat="44.3204433" lon="11.485035"><ele>175.0</ele><time>2026-04-17T09:20:53.087Z</time></trkpt><trkpt lat="44.3203367" lon="11.4850233"><ele>174.66666666666669</ele><time>2026-04-17T09:20:55.088Z</time></trkpt><trkpt lat="44.3202867" lon="11.4849633"><ele>174.33333333333334</ele><time>2026-04-17T09:20:57.087Z</time></trkpt><trkpt lat="44.3202483" lon="11.48485"><ele>174.0</ele><time>2026-04-17T09:21:01.087Z</time></trkpt><trkpt lat="44.3202533" lon="11.4847367"><ele>173.66666666666666</ele><time>2026-04-17T09:21:02.088Z</time></trkpt><trkpt lat="44.320255" lon="11.484615"><ele>173.33333333333331</ele><time>2026-04-17T09:21:03.088Z</time></trkpt><trkpt lat="44.3202567" lon="11.48449"><ele>173.0</ele><time>2026-04-17T09:21:04.088Z</time></trkpt><trkpt lat="44.3202583" lon="11.48437"><ele>172.8</ele><time>2026-04-17T09:21:05.087Z</time></trkpt><trkpt lat="44.3202583" lon="11.48424"><ele>172.60000000000002</ele><time>2026-04-17T09:21:06.087Z</time></trkpt><trkpt lat="44.3202533" lon="11.4840933"><ele>172.39999999999998</ele><time>2026-04-17T09:21:07.087Z</time></trkpt><trkpt lat="44.3202433" lon="11.48393"><ele>172.2</ele><time>2026-04-17T09:21:08.087Z</time></trkpt><trkpt lat="44.3202267" lon="11.483755"><ele>172.0</ele><time>2026-04-17T09:21:09.088Z</time></trkpt><trkpt lat="44.3201933" lon="11.4835783"><ele>173.0</ele><time>2026-04-17T09:21:10.087Z</time></trkpt><trkpt lat="44.32015" lon="11.4834"><ele>174.0</ele><time>2026-04-17T09:21:11.087Z</time></trkpt><trkpt lat="44.32009" lon="11.483225"><ele>175.0</ele><time>2026-04-17T09:21:12.087Z</time></trkpt><trkpt lat="44.3200283" lon="11.4830567"><ele>176.0</ele><time>2026-04-17T09:21:13.087Z</time></trkpt><trkpt lat="44.31997" lon="11.4828883"><ele>176.75</ele><time>2026-04-17T09:21:14.087Z</time></trkpt><trkpt lat="44.319895" lon="11.4827117"><ele>177.5</ele><time>2026-04-17T09:21:15.087Z</time></trkpt><trkpt lat="44.3198117" lon="11.4825417"><ele>178.25</ele><time>2026-04-17T09:21:16.087Z</time></trkpt><trkpt lat="44.3197333" lon="11.4823667"><ele>179.0</ele><time>2026-04-17T09:21:17.087Z</time></trkpt><trkpt lat="44.3196517" lon="11.482185"><ele>177.66666666666666</ele><time>2026-04-17T09:21:18.088Z</time></trkpt><trkpt lat="44.3195733" lon="11.4820067"><ele>176.33333333333334</ele><time>2026-04-17T09:21:19.087Z</time></trkpt><trkpt lat="44.3194933" lon="11.481825"><ele>175.0</ele><time>2026-04-17T09:21:20.087Z</time></trkpt><trkpt lat="44.3194067" lon="11.4816533"><ele>175.0</ele><time>2026-04-17T09:21:21.087Z</time></trkpt><trkpt lat="44.3193233" lon="11.48148"><ele>175.0</ele><time>2026-04-17T09:21:22.087Z</time></trkpt><trkpt lat="44.31924" lon="11.4813033"><ele>175.0</ele><time>2026-04-17T09:21:23.088Z</time></trkpt><trkpt lat="44.3191483" lon="11.48114"><ele>175.0</ele><time>2026-04-17T09:21:24.087Z</time></trkpt><trkpt lat="44.3190583" lon="11.4809783"><ele>175.25</ele><time>2026-04-17T09:21:25.087Z</time></trkpt><trkpt lat="44.318975" lon="11.48082"><ele>175.5</ele><time>2026-04-17T09:21:26.087Z</time></trkpt><trkpt lat="44.3188867" lon="11.4806617"><ele>175.75</ele><time>2026-04-17T09:21:27.087Z</time></trkpt><trkpt lat="44.318785" lon="11.48052"><ele>176.0</ele><time>2026-04-17T09:21:28.088Z</time></trkpt><trkpt lat="44.3186833" lon="11.4803917"><ele>177.0</ele><time>2026-04-17T09:21:29.087Z</time></trkpt><trkpt lat="44.3185733" lon="11.48027"><ele>178.0</ele><time>2026-04-17T09:21:30.087Z</time></trkpt><trkpt lat="44.3184567" lon="11.48016"><ele>179.0</ele><time>2026-04-17T09:21:31.087Z</time></trkpt><trkpt lat="44.3183317" lon="11.4800617"><ele>180.0</ele><time>2026-04-17T09:21:32.088Z</time></trkpt><trkpt lat="44.3182083" lon="11.4799567"><ele>180.0</ele><time>2026-04-17T09:21:33.087Z</time></trkpt><trkpt lat="44.3180967" lon="11.4798417"><ele>180.0</ele><time>2026-04-17T09:21:34.087Z</time></trkpt><trkpt lat="44.3180017" lon="11.4797167"><ele>180.0</ele><time>2026-04-17T09:21:35.087Z</time></trkpt><trkpt lat="44.3179167" lon="11.479565"><ele>180.0</ele><time>2026-04-17T09:21:36.087Z</time></trkpt><trkpt lat="44.3178383" lon="11.479395"><ele>178.75</ele><time>2026-04-17T09:21:37.087Z</time></trkpt><trkpt lat="44.31776" lon="11.479245"><ele>177.5</ele><time>2026-04-17T09:21:38.087Z</time></trkpt><trkpt lat="44.3176617" lon="11.4791"><ele>176.25</ele><time>2026-04-17T09:21:39.088Z</time></trkpt><trkpt lat="44.3175483" lon="11.4789733"><ele>175.0</ele><time>2026-04-17T09:21:40.087Z</time></trkpt><trkpt lat="44.3174333" lon="11.4788567"><ele>175.25</ele><time>2026-04-17T09:21:41.088Z</time></trkpt><trkpt lat="44.3173183" lon="11.4787417"><ele>175.5</ele><time>2026-04-17T09:21:42.087Z</time></trkpt><trkpt lat="44.3172083" lon="11.47862"><ele>175.75</ele><time>2026-04-17T09:21:43.087Z</time></trkpt><trkpt lat="44.3170933" lon="11.4784967"><ele>176.0</ele><time>2026-04-17T09:21:44.087Z</time></trkpt><trkpt lat="44.3169983" lon="11.4783483"><ele>176.0</ele><time>2026-04-17T09:21:45.087Z</time></trkpt><trkpt lat="44.3169217" lon="11.47819"><ele>176.0</ele><time>2026-04-17T09:21:46.087Z</time></trkpt><trkpt lat="44.3168483" lon="11.4780183"><ele>176.0</ele><time>2026-04-17T09:21:47.088Z</time></trkpt><trkpt lat="44.3167817" lon="11.4778483"><ele>176.0</ele><time>2026-04-17T09:21:48.088Z</time></trkpt><trkpt lat="44.3167117" lon="11.4776733"><ele>175.75</ele><time>2026-04-17T09:21:49.087Z</time></trkpt><trkpt lat="44.316615" lon="11.4775217"><ele>175.5</ele><time>2026-04-17T09:21:50.087Z</time></trkpt><trkpt lat="44.3165017" lon="11.477385"><ele>175.25</ele><time>2026-04-17T09:21:51.087Z</time></trkpt><trkpt lat="44.31638" lon="11.4772733"><ele>175.0</ele><time>2026-04-17T09:21:52.088Z</time></trkpt><trkpt lat="44.3162567" lon="11.4771733"><ele>176.25</ele><time>2026-04-17T09:21:53.087Z</time></trkpt><trkpt lat="44.3161417" lon="11.477065"><ele>177.5</ele><time>2026-04-17T09:21:54.087Z</time></trkpt><trkpt lat="44.31604" lon="11.476945"><ele>178.75</ele><time>2026-04-17T09:21:55.087Z</time></trkpt><trkpt lat="44.3159417" lon="11.4768"><ele>180.0</ele><time>2026-04-17T09:21:56.087Z</time></trkpt><trkpt lat="44.3158617" lon="11.4766217"><ele>180.0</ele><time>2026-04-17T09:21:57.087Z</time></trkpt><trkpt lat="44.31578" lon="11.4764117"><ele>180.0</ele><time>2026-04-17T09:21:58.088Z</time></trkpt><trkpt lat="44.3157" lon="11.476205"><ele>180.0</ele><time>2026-04-17T09:21:59.087Z</time></trkpt><trkpt lat="44.3156217" lon="11.476015"><ele>179.25</ele><time>2026-04-17T09:22:00.088Z</time></trkpt><trkpt lat="44.315555" lon="11.4758317"><ele>178.5</ele><time>2026-04-17T09:22:01.087Z</time></trkpt><trkpt lat="44.3154833" lon="11.47565"><ele>177.75</ele><time>2026-04-17T09:22:02.087Z</time></trkpt><trkpt lat="44.3154167" lon="11.4754633"><ele>177.0</ele><time>2026-04-17T09:22:03.088Z</time></trkpt><trkpt lat="44.315355" lon="11.4752817"><ele>177.0</ele><time>2026-04-17T09:22:04.087Z</time></trkpt><trkpt lat="44.3152983" lon="11.4750833"><ele>177.0</ele><time>2026-04-17T09:22:05.087Z</time></trkpt><trkpt lat="44.3152467" lon="11.47488"><ele>177.0</ele><time>2026-04-17T09:22:06.087Z</time></trkpt><trkpt lat="44.315195" lon="11.474665"><ele>179.0</ele><time>2026-04-17T09:22:07.087Z</time></trkpt><trkpt lat="44.315145" lon="11.4744583"><ele>181.0</ele><time>2026-04-17T09:22:08.088Z</time></trkpt><trkpt lat="44.3150983" lon="11.4742433"><ele>183.0</ele><time>2026-04-17T09:22:09.088Z</time></trkpt><trkpt lat="44.31506" lon="11.4740217"><ele>183.0</ele><time>2026-04-17T09:22:10.087Z</time></trkpt><trkpt lat="44.3150283" lon="11.4737967"><ele>183.0</ele><time>2026-04-17T09:22:11.088Z</time></trkpt><trkpt lat="44.3150067" lon="11.47358"><ele>183.0</ele><time>2026-04-17T09:22:12.087Z</time></trkpt><trkpt lat="44.3149867" lon="11.4733617"><ele>184.0</ele><time>2026-04-17T09:22:13.088Z</time></trkpt><trkpt lat="44.3149617" lon="11.47315"><ele>185.0</ele><time>2026-04-17T09:22:14.087Z</time></trkpt><trkpt lat="44.31493" lon="11.472955"><ele>186.0</ele><time>2026-04-17T09:22:15.088Z</time></trkpt><trkpt lat="44.3148783" lon="11.472775"><ele>187.0</ele><time>2026-04-17T09:22:16.087Z</time></trkpt><trkpt lat="44.3148183" lon="11.4726"><ele>187.25</ele><time>2026-04-17T09:22:17.088Z</time></trkpt><trkpt lat="44.31475" lon="11.4724433"><ele>187.5</ele><time>2026-04-17T09:22:18.087Z</time></trkpt><trkpt lat="44.3147067" lon="11.472265"><ele>187.75</ele><time>2026-04-17T09:22:19.088Z</time></trkpt><trkpt lat="44.3146883" lon="11.4720733"><ele>188.0</ele><time>2026-04-17T09:22:20.087Z</time></trkpt><trkpt lat="44.3147" lon="11.4718617"><ele>188.33333333333331</ele><time>2026-04-17T09:22:21.087Z</time></trkpt><trkpt lat="44.3147333" lon="11.4716483"><ele>188.66666666666666</ele><time>2026-04-17T09:22:22.087Z</time></trkpt><trkpt lat="44.3147767" lon="11.471435"><ele>189.0</ele><time>2026-04-17T09:22:23.088Z</time></trkpt><trkpt lat="44.314825" lon="11.471225"><ele>189.0</ele><time>2026-04-17T09:22:24.087Z</time></trkpt><trkpt lat="44.3148783" lon="11.4710067"><ele>189.0</ele><time>2026-04-17T09:22:25.087Z</time></trkpt><trkpt lat="44.3149283" lon="11.4707933"><ele>189.0</ele><time>2026-04-17T09:22:26.088Z</time></trkpt><trkpt lat="44.3149833" lon="11.47058"><ele>188.0</ele><time>2026-04-17T09:22:27.087Z</time></trkpt><trkpt lat="44.3150367" lon="11.4703683"><ele>187.0</ele><time>2026-04-17T09:22:28.087Z</time></trkpt><trkpt lat="44.3150883" lon="11.470155"><ele>186.0</ele><time>2026-04-17T09:22:29.087Z</time></trkpt><trkpt lat="44.315135" lon="11.4699567"><ele>186.0</ele><time>2026-04-17T09:22:30.087Z</time></trkpt><trkpt lat="44.3151883" lon="11.4697583"><ele>186.0</ele><time>2026-04-17T09:22:31.087Z</time></trkpt><trkpt lat="44.3152417" lon="11.4695633"><ele>186.0</ele><time>2026-04-17T09:22:32.087Z</time></trkpt><trkpt lat="44.3152917" lon="11.4693717"><ele>186.0</ele><time>2026-04-17T09:22:33.088Z</time></trkpt><trkpt lat="44.31535" lon="11.469185"><ele>185.25</ele><time>2026-04-17T09:22:34.087Z</time></trkpt><trkpt lat="44.3154083" lon="11.4690017"><ele>184.5</ele><time>2026-04-17T09:22:35.088Z</time></trkpt><trkpt lat="44.3154667" lon="11.4688217"><ele>183.75</ele><time>2026-04-17T09:22:36.087Z</time></trkpt><trkpt lat="44.315515" lon="11.4686517"><ele>183.0</ele><time>2026-04-17T09:22:37.088Z</time></trkpt><trkpt lat="44.3155633" lon="11.46849"><ele>183.60000000000002</ele><time>2026-04-17T09:22:38.087Z</time></trkpt><trkpt lat="44.3156033" lon="11.4683433"><ele>184.20000000000002</ele><time>2026-04-17T09:22:39.087Z</time></trkpt><trkpt lat="44.3156533" lon="11.4682167"><ele>184.8</ele><time>2026-04-17T09:22:40.086Z</time></trkpt><trkpt lat="44.3157117" lon="11.4681083"><ele>185.4</ele><time>2026-04-17T09:22:41.086Z</time></trkpt><trkpt lat="44.31579" lon="11.4679967"><ele>186.0</ele><time>2026-04-17T09:22:42.087Z</time></trkpt><trkpt lat="44.3158883" lon="11.46788"><ele>186.0</ele><time>2026-04-17T09:22:43.086Z</time></trkpt><trkpt lat="44.31599" lon="11.4677467"><ele>186.0</ele><time>2026-04-17T09:22:44.086Z</time></trkpt><trkpt lat="44.3160933" lon="11.467615"><ele>186.0</ele><time>2026-04-17T09:22:45.086Z</time></trkpt><trkpt lat="44.3161967" lon="11.4674783"><ele>186.0</ele><time>2026-04-17T09:22:46.087Z</time></trkpt><trkpt lat="44.3162917" lon="11.46735"><ele>186.0</ele><time>2026-04-17T09:22:47.087Z</time></trkpt><trkpt lat="44.3163783" lon="11.4672017"><ele>186.0</ele><time>2026-04-17T09:22:48.087Z</time></trkpt><trkpt lat="44.3164517" lon="11.467035"><ele>186.0</ele><time>2026-04-17T09:22:49.086Z</time></trkpt><trkpt lat="44.3165217" lon="11.466855"><ele>186.0</ele><time>2026-04-17T09:22:50.086Z</time></trkpt><trkpt lat="44.31658" lon="11.4666767"><ele>186.25</ele><time>2026-04-17T09:22:51.086Z</time></trkpt><trkpt lat="44.3166267" lon="11.4664983"><ele>186.5</ele><time>2026-04-17T09:22:52.086Z</time></trkpt><trkpt lat="44.3166767" lon="11.4663217"><ele>186.75</ele><time>2026-04-17T09:22:53.086Z</time></trkpt><trkpt lat="44.3167233" lon="11.4661533"><ele>187.0</ele><time>2026-04-17T09:22:54.087Z</time></trkpt><trkpt lat="44.3167667" lon="11.4659917"><ele>187.0</ele><time>2026-04-17T09:22:55.087Z</time></trkpt><trkpt lat="44.3168067" lon="11.4658383"><ele>187.0</ele><time>2026-04-17T09:22:56.087Z</time></trkpt><trkpt lat="44.3168533" lon="11.4656967"><ele>187.0</ele><time>2026-04-17T09:22:57.086Z</time></trkpt><trkpt lat="44.3169067" lon="11.4655733"><ele>187.0</ele><time>2026-04-17T09:22:58.086Z</time></trkpt><trkpt lat="44.3169733" lon="11.465465"><ele>187.0</ele><time>2026-04-17T09:22:59.087Z</time></trkpt><trkpt lat="44.3170583" lon="11.4653883"><ele>187.25</ele><time>2026-04-17T09:23:00.087Z</time></trkpt><trkpt lat="44.3171633" lon="11.46536"><ele>187.5</ele><time>2026-04-17T09:23:01.087Z</time></trkpt><trkpt lat="44.3172867" lon="11.465385"><ele>187.75</ele><time>2026-04-17T09:23:02.086Z</time></trkpt><trkpt lat="44.3174233" lon="11.4654467"><ele>188.0</ele><time>2026-04-17T09:23:03.087Z</time></trkpt><trkpt lat="44.3175567" lon="11.4655183"><ele>188.75</ele><time>2026-04-17T09:23:04.086Z</time></trkpt><trkpt lat="44.3176883" lon="11.4655767"><ele>189.5</ele><time>2026-04-17T09:23:05.086Z</time></trkpt><trkpt lat="44.3178233" lon="11.4655983"><ele>190.25</ele><time>2026-04-17T09:23:06.086Z</time></trkpt><trkpt lat="44.3179617" lon="11.4655983"><ele>191.0</ele><time>2026-04-17T09:23:07.086Z</time></trkpt><trkpt lat="44.3181167" lon="11.4655683"><ele>193.33333333333331</ele><time>2026-04-17T09:23:08.087Z</time></trkpt><trkpt lat="44.3182683" lon="11.4655267"><ele>195.66666666666666</ele><time>2026-04-17T09:23:09.086Z</time></trkpt><trkpt lat="44.3184267" lon="11.4654933"><ele>198.0</ele><time>2026-04-17T09:23:10.087Z</time></trkpt><trkpt lat="44.3185817" lon="11.465465"><ele>197.0</ele><time>2026-04-17T09:23:11.087Z</time></trkpt><trkpt lat="44.3187467" lon="11.4654233"><ele>196.0</ele><time>2026-04-17T09:23:12.087Z</time></trkpt><trkpt lat="44.3189067" lon="11.4653867"><ele>195.0</ele><time>2026-04-17T09:23:13.086Z</time></trkpt><trkpt lat="44.3190683" lon="11.4653533"><ele>195.0</ele><time>2026-04-17T09:23:14.086Z</time></trkpt><trkpt lat="44.319225" lon="11.465325"><ele>195.0</ele><time>2026-04-17T09:23:15.086Z</time></trkpt><trkpt lat="44.3193867" lon="11.4652867"><ele>195.0</ele><time>2026-04-17T09:23:16.087Z</time></trkpt><trkpt lat="44.3195417" lon="11.465255"><ele>195.0</ele><time>2026-04-17T09:23:17.086Z</time></trkpt><trkpt lat="44.3196967" lon="11.4652217"><ele>195.0</ele><time>2026-04-17T09:23:18.087Z</time></trkpt><trkpt lat="44.319855" lon="11.4651867"><ele>195.0</ele><time>2026-04-17T09:23:19.086Z</time></trkpt><trkpt lat="44.320005" lon="11.46516"><ele>195.33333333333331</ele><time>2026-04-17T09:23:20.087Z</time></trkpt><trkpt lat="44.32016" lon="11.46513"><ele>195.66666666666666</ele><time>2026-04-17T09:23:21.086Z</time></trkpt><trkpt lat="44.3203067" lon="11.4650917"><ele>196.0</ele><time>2026-04-17T09:23:22.086Z</time></trkpt><trkpt lat="44.3204583" lon="11.4650467"><ele>196.66666666666666</ele><time>2026-04-17T09:23:23.086Z</time></trkpt><trkpt lat="44.3206067" lon="11.46499"><ele>197.33333333333331</ele><time>2026-04-17T09:23:24.086Z</time></trkpt><trkpt lat="44.32075" lon="11.4649283"><ele>198.0</ele><time>2026-04-17T09:23:25.087Z</time></trkpt><trkpt lat="44.3209067" lon="11.4648617"><ele>198.0</ele><time>2026-04-17T09:23:26.086Z</time></trkpt><trkpt lat="44.3210583" lon="11.4648033"><ele>198.0</ele><time>2026-04-17T09:23:27.087Z</time></trkpt><trkpt lat="44.3212167" lon="11.4647383"><ele>198.0</ele><time>2026-04-17T09:23:28.087Z</time></trkpt><trkpt lat="44.32138" lon="11.464665"><ele>200.0</ele><time>2026-04-17T09:23:29.086Z</time></trkpt><trkpt lat="44.3215367" lon="11.464595"><ele>202.0</ele><time>2026-04-17T09:23:30.086Z</time></trkpt><trkpt lat="44.32168" lon="11.4645383"><ele>204.0</ele><time>2026-04-17T09:23:31.086Z</time></trkpt><trkpt lat="44.3218217" lon="11.4644733"><ele>204.0</ele><time>2026-04-17T09:23:32.087Z</time></trkpt><trkpt lat="44.321965" lon="11.4644133"><ele>204.0</ele><time>2026-04-17T09:23:33.086Z</time></trkpt><trkpt lat="44.3221067" lon="11.4643517"><ele>204.0</ele><time>2026-04-17T09:23:34.086Z</time></trkpt><trkpt lat="44.322255" lon="11.46429"><ele>203.0</ele><time>2026-04-17T09:23:35.086Z</time></trkpt><trkpt lat="44.3224083" lon="11.4642217"><ele>202.0</ele><time>2026-04-17T09:23:36.086Z</time></trkpt><trkpt lat="44.3225583" lon="11.4641567"><ele>201.0</ele><time>2026-04-17T09:23:37.086Z</time></trkpt><trkpt lat="44.3227083" lon="11.46409"><ele>201.0</ele><time>2026-04-17T09:23:38.087Z</time></trkpt><trkpt lat="44.3228617" lon="11.4640217"><ele>201.0</ele><time>2026-04-17T09:23:39.086Z</time></trkpt><trkpt lat="44.3230133" lon="11.4639517"><ele>201.0</ele><time>2026-04-17T09:23:40.087Z</time></trkpt><trkpt lat="44.3231683" lon="11.4638867"><ele>203.0</ele><time>2026-04-17T09:23:41.087Z</time></trkpt><trkpt lat="44.3233217" lon="11.4638183"><ele>205.0</ele><time>2026-04-17T09:23:42.087Z</time></trkpt><trkpt lat="44.3234767" lon="11.4637533"><ele>207.0</ele><time>2026-04-17T09:23:43.087Z</time></trkpt><trkpt lat="44.3236267" lon="11.46369"><ele>207.0</ele><time>2026-04-17T09:23:44.087Z</time></trkpt><trkpt lat="44.3237783" lon="11.4636283"><ele>207.0</ele><time>2026-04-17T09:23:45.086Z</time></trkpt><trkpt lat="44.3239267" lon="11.4635583"><ele>207.0</ele><time>2026-04-17T09:23:46.086Z</time></trkpt><trkpt lat="44.3240733" lon="11.4634933"><ele>207.0</ele><time>2026-04-17T09:23:47.087Z</time></trkpt><trkpt lat="44.324215" lon="11.463435"><ele>207.0</ele><time>2026-04-17T09:23:48.086Z</time></trkpt><trkpt lat="44.3243667" lon="11.463395"><ele>207.0</ele><time>2026-04-17T09:23:49.086Z</time></trkpt><trkpt lat="44.3245233" lon="11.4633767"><ele>207.0</ele><time>2026-04-17T09:23:50.087Z</time></trkpt><trkpt lat="44.32467" lon="11.463375"><ele>207.0</ele><time>2026-04-17T09:23:51.087Z</time></trkpt><trkpt lat="44.32481" lon="11.46339"><ele>207.0</ele><time>2026-04-17T09:23:52.086Z</time></trkpt><trkpt lat="44.324935" lon="11.4633967"><ele>207.0</ele><time>2026-04-17T09:23:53.087Z</time></trkpt><trkpt lat="44.3250517" lon="11.4633733"><ele>207.75</ele><time>2026-04-17T09:23:54.086Z</time></trkpt><trkpt lat="44.3251617" lon="11.463315"><ele>208.5</ele><time>2026-04-17T09:23:55.086Z</time></trkpt><trkpt lat="44.325265" lon="11.46321"><ele>209.25</ele><time>2026-04-17T09:23:56.086Z</time></trkpt><trkpt lat="44.32536" lon="11.4630733"><ele>210.0</ele><time>2026-04-17T09:23:57.086Z</time></trkpt><trkpt lat="44.3254483" lon="11.4629067"><ele>210.66666666666669</ele><time>2026-04-17T09:23:58.086Z</time></trkpt><trkpt lat="44.3255483" lon="11.4627333"><ele>211.33333333333334</ele><time>2026-04-17T09:23:59.087Z</time></trkpt><trkpt lat="44.3256567" lon="11.4625717"><ele>212.0</ele><time>2026-04-17T09:24:00.087Z</time></trkpt><trkpt lat="44.325785" lon="11.4624233"><ele>213.0</ele><time>2026-04-17T09:24:01.086Z</time></trkpt><trkpt lat="44.3259083" lon="11.4622983"><ele>214.0</ele><time>2026-04-17T09:24:02.086Z</time></trkpt><trkpt lat="44.3260267" lon="11.4621817"><ele>215.0</ele><time>2026-04-17T09:24:03.086Z</time></trkpt><trkpt lat="44.3261433" lon="11.4620783"><ele>216.0</ele><time>2026-04-17T09:24:04.087Z</time></trkpt><trkpt lat="44.326255" lon="11.462"><ele>217.75</ele><time>2026-04-17T09:24:05.087Z</time></trkpt><trkpt lat="44.3263767" lon="11.4619283"><ele>219.5</ele><time>2026-04-17T09:24:06.087Z</time></trkpt><trkpt lat="44.3265167" lon="11.461885"><ele>221.25</ele><time>2026-04-17T09:24:07.086Z</time></trkpt><trkpt lat="44.3266667" lon="11.4618483"><ele>223.0</ele><time>2026-04-17T09:24:08.086Z</time></trkpt><trkpt lat="44.3268217" lon="11.4618183"><ele>223.0</ele><time>2026-04-17T09:24:09.086Z</time></trkpt><trkpt lat="44.3269767" lon="11.461785"><ele>223.0</ele><time>2026-04-17T09:24:10.087Z</time></trkpt><trkpt lat="44.3271267" lon="11.461755"><ele>223.0</ele><time>2026-04-17T09:24:11.087Z</time></trkpt><trkpt lat="44.3272783" lon="11.4617317"><ele>221.0</ele><time>2026-04-17T09:24:12.087Z</time></trkpt><trkpt lat="44.3274333" lon="11.4617283"><ele>219.0</ele><time>2026-04-17T09:24:13.087Z</time></trkpt><trkpt lat="44.32759" lon="11.4617517"><ele>217.0</ele><time>2026-04-17T09:24:14.086Z</time></trkpt><trkpt lat="44.3277483" lon="11.4617917"><ele>217.0</ele><time>2026-04-17T09:24:15.087Z</time></trkpt><trkpt lat="44.3279017" lon="11.46186"><ele>217.0</ele><time>2026-04-17T09:24:16.086Z</time></trkpt><trkpt lat="44.328045" lon="11.46192"><ele>217.0</ele><time>2026-04-17T09:24:17.086Z</time></trkpt><trkpt lat="44.3281717" lon="11.46197"><ele>217.0</ele><time>2026-04-17T09:24:18.087Z</time></trkpt><trkpt lat="44.32828" lon="11.4620267"><ele>217.8</ele><time>2026-04-17T09:24:19.086Z</time></trkpt><trkpt lat="44.3283833" lon="11.462045"><ele>218.6</ele><time>2026-04-17T09:24:20.087Z</time></trkpt><trkpt lat="44.3284817" lon="11.46205"><ele>219.40000000000003</ele><time>2026-04-17T09:24:21.086Z</time></trkpt><trkpt lat="44.328595" lon="11.4620233"><ele>220.20000000000002</ele><time>2026-04-17T09:24:22.087Z</time></trkpt><trkpt lat="44.3287167" lon="11.461985"><ele>221.0</ele><time>2026-04-17T09:24:23.086Z</time></trkpt><trkpt lat="44.3288383" lon="11.4619467"><ele>221.25</ele><time>2026-04-17T09:24:24.087Z</time></trkpt><trkpt lat="44.328955" lon="11.4619083"><ele>221.5</ele><time>2026-04-17T09:24:25.087Z</time></trkpt><trkpt lat="44.32907" lon="11.4618783"><ele>221.75</ele><time>2026-04-17T09:24:26.086Z</time></trkpt><trkpt lat="44.3291817" lon="11.4618483"><ele>222.0</ele><time>2026-04-17T09:24:27.086Z</time></trkpt><trkpt lat="44.3292933" lon="11.461805"><ele>222.0</ele><time>2026-04-17T09:24:28.086Z</time></trkpt><trkpt lat="44.3294067" lon="11.4617517"><ele>222.0</ele><time>2026-04-17T09:24:29.087Z</time></trkpt><trkpt lat="44.329515" lon="11.46168"><ele>222.0</ele><time>2026-04-17T09:24:30.086Z</time></trkpt><trkpt lat="44.3296267" lon="11.46159"><ele>222.0</ele><time>2026-04-17T09:24:31.087Z</time></trkpt><trkpt lat="44.3297317" lon="11.46147"><ele>222.0</ele><time>2026-04-17T09:24:32.087Z</time></trkpt><trkpt lat="44.3298367" lon="11.4613417"><ele>222.0</ele><time>2026-04-17T09:24:33.087Z</time></trkpt><trkpt lat="44.3299383" lon="11.46121"><ele>222.0</ele><time>2026-04-17T09:24:34.086Z</time></trkpt><trkpt lat="44.3300433" lon="11.4610817"><ele>222.0</ele><time>2026-04-17T09:24:35.086Z</time></trkpt><trkpt lat="44.330145" lon="11.4609683"><ele>222.0</ele><time>2026-04-17T09:24:36.086Z</time></trkpt><trkpt lat="44.3302583" lon="11.4608733"><ele>222.0</ele><time>2026-04-17T09:24:37.086Z</time></trkpt><trkpt lat="44.33038" lon="11.460795"><ele>222.0</ele><time>2026-04-17T09:24:38.087Z</time></trkpt><trkpt lat="44.3305067" lon="11.4607183"><ele>222.0</ele><time>2026-04-17T09:24:39.086Z</time></trkpt><trkpt lat="44.3306333" lon="11.46064"><ele>222.0</ele><time>2026-04-17T09:24:40.086Z</time></trkpt><trkpt lat="44.33075" lon="11.4605667"><ele>222.0</ele><time>2026-04-17T09:24:41.087Z</time></trkpt><trkpt lat="44.33085" lon="11.4604867"><ele>222.0</ele><time>2026-04-17T09:24:42.086Z</time></trkpt><trkpt lat="44.3309667" lon="11.46043"><ele>222.0</ele><time>2026-04-17T09:24:43.087Z</time></trkpt><trkpt lat="44.33109" lon="11.460415"><ele>224.25</ele><time>2026-04-17T09:24:44.087Z</time></trkpt><trkpt lat="44.331215" lon="11.4604283"><ele>226.5</ele><time>2026-04-17T09:24:45.087Z</time></trkpt><trkpt lat="44.331345" lon="11.4604367"><ele>228.75</ele><time>2026-04-17T09:24:46.086Z</time></trkpt><trkpt lat="44.331475" lon="11.46043"><ele>231.0</ele><time>2026-04-17T09:24:47.086Z</time></trkpt><trkpt lat="44.3316133" lon="11.4604117"><ele>231.0</ele><time>2026-04-17T09:24:48.086Z</time></trkpt><trkpt lat="44.3317567" lon="11.460385"><ele>231.0</ele><time>2026-04-17T09:24:49.086Z</time></trkpt><trkpt lat="44.3319" lon="11.4603533"><ele>231.0</ele><time>2026-04-17T09:24:50.087Z</time></trkpt><trkpt lat="44.3320417" lon="11.4603283"><ele>231.0</ele><time>2026-04-17T09:24:51.086Z</time></trkpt><trkpt lat="44.3321833" lon="11.4603017"><ele>231.5</ele><time>2026-04-17T09:24:52.087Z</time></trkpt><trkpt lat="44.3323233" lon="11.4602867"><ele>232.0</ele><time>2026-04-17T09:24:53.087Z</time></trkpt><trkpt lat="44.3324633" lon="11.4602683"><ele>232.5</ele><time>2026-04-17T09:24:54.086Z</time></trkpt><trkpt lat="44.3325967" lon="11.460245"><ele>233.0</ele><time>2026-04-17T09:24:55.087Z</time></trkpt><trkpt lat="44.3327283" lon="11.4602167"><ele>233.0</ele><time>2026-04-17T09:24:56.087Z</time></trkpt><trkpt lat="44.33285" lon="11.4601883"><ele>233.0</ele><time>2026-04-17T09:24:57.087Z</time></trkpt><trkpt lat="44.3329667" lon="11.4601467"><ele>233.0</ele><time>2026-04-17T09:24:58.086Z</time></trkpt><trkpt lat="44.3330783" lon="11.4600833"><ele>233.0</ele><time>2026-04-17T09:24:59.086Z</time></trkpt><trkpt lat="44.3331783" lon="11.4599883"><ele>233.5</ele><time>2026-04-17T09:25:00.087Z</time></trkpt><trkpt lat="44.333275" lon="11.4598667"><ele>234.0</ele><time>2026-04-17T09:25:01.086Z</time></trkpt><trkpt lat="44.33337" lon="11.4597183"><ele>234.5</ele><time>2026-04-17T09:25:02.086Z</time></trkpt><trkpt lat="44.33346" lon="11.4595717"><ele>235.0</ele><time>2026-04-17T09:25:03.086Z</time></trkpt><trkpt lat="44.3335417" lon="11.459425"><ele>235.75</ele><time>2026-04-17T09:25:04.086Z</time></trkpt><trkpt lat="44.333615" lon="11.4592583"><ele>236.5</ele><time>2026-04-17T09:25:05.087Z</time></trkpt><trkpt lat="44.33368" lon="11.459085"><ele>237.25</ele><time>2026-04-17T09:25:06.086Z</time></trkpt><trkpt lat="44.3337217" lon="11.4589033"><ele>238.0</ele><time>2026-04-17T09:25:07.086Z</time></trkpt><trkpt lat="44.3337417" lon="11.458715"><ele>239.25</ele><time>2026-04-17T09:25:08.087Z</time></trkpt><trkpt lat="44.3337617" lon="11.4585267"><ele>240.5</ele><time>2026-04-17T09:25:09.086Z</time></trkpt><trkpt lat="44.3337783" lon="11.4583517"><ele>241.75</ele><time>2026-04-17T09:25:10.086Z</time></trkpt><trkpt lat="44.3338033" lon="11.4581983"><ele>243.0</ele><time>2026-04-17T09:25:11.087Z</time></trkpt><trkpt lat="44.33385" lon="11.4580567"><ele>243.5</ele><time>2026-04-17T09:25:12.086Z</time></trkpt><trkpt lat="44.333915" lon="11.4579117"><ele>244.0</ele><time>2026-04-17T09:25:13.087Z</time></trkpt><trkpt lat="44.3340033" lon="11.4577617"><ele>244.5</ele><time>2026-04-17T09:25:14.086Z</time></trkpt><trkpt lat="44.3340817" lon="11.4576"><ele>245.0</ele><time>2026-04-17T09:25:15.087Z</time></trkpt><trkpt lat="44.3341567" lon="11.4574383"><ele>245.0</ele><time>2026-04-17T09:25:16.086Z</time></trkpt><trkpt lat="44.3342283" lon="11.4572667"><ele>245.0</ele><time>2026-04-17T09:25:17.086Z</time></trkpt><trkpt lat="44.3342917" lon="11.45709"><ele>245.0</ele><time>2026-04-17T09:25:18.087Z</time></trkpt><trkpt lat="44.3343483" lon="11.456925"><ele>245.0</ele><time>2026-04-17T09:25:19.087Z</time></trkpt><trkpt lat="44.3344067" lon="11.4567683"><ele>244.75</ele><time>2026-04-17T09:25:20.087Z</time></trkpt><trkpt lat="44.3344617" lon="11.4566283"><ele>244.5</ele><time>2026-04-17T09:25:21.086Z</time></trkpt><trkpt lat="44.3344967" lon="11.4564633"><ele>244.25</ele><time>2026-04-17T09:25:22.086Z</time></trkpt><trkpt lat="44.334505" lon="11.456275"><ele>244.0</ele><time>2026-04-17T09:25:23.086Z</time></trkpt><trkpt lat="44.3344867" lon="11.4560733"><ele>244.0</ele><time>2026-04-17T09:25:24.086Z</time></trkpt><trkpt lat="44.334455" lon="11.4558733"><ele>244.0</ele><time>2026-04-17T09:25:25.087Z</time></trkpt><trkpt lat="44.33442" lon="11.45567"><ele>244.0</ele><time>2026-04-17T09:25:26.087Z</time></trkpt><trkpt lat="44.3343783" lon="11.4554733"><ele>244.0</ele><time>2026-04-17T09:25:27.087Z</time></trkpt><trkpt lat="44.3343433" lon="11.4552817"><ele>246.25</ele><time>2026-04-17T09:25:28.087Z</time></trkpt><trkpt lat="44.3343067" lon="11.4551017"><ele>248.5</ele><time>2026-04-17T09:25:29.087Z</time></trkpt><trkpt lat="44.3342733" lon="11.4549383"><ele>250.75</ele><time>2026-04-17T09:25:30.087Z</time></trkpt><trkpt lat="44.3342417" lon="11.4547917"><ele>253.0</ele><time>2026-04-17T09:25:31.086Z</time></trkpt><trkpt lat="44.3342183" lon="11.4546667"><ele>253.83333333333331</ele><time>2026-04-17T09:25:32.086Z</time></trkpt><trkpt lat="44.3341833" lon="11.4545633"><ele>254.66666666666666</ele><time>2026-04-17T09:25:33.086Z</time></trkpt><trkpt lat="44.3341467" lon="11.4544717"><ele>255.5</ele><time>2026-04-17T09:25:34.086Z</time></trkpt><trkpt lat="44.3340933" lon="11.4544233"><ele>256.3333333333333</ele><time>2026-04-17T09:25:35.087Z</time></trkpt><trkpt lat="44.33402" lon="11.4543917"><ele>257.1666666666667</ele><time>2026-04-17T09:25:36.086Z</time></trkpt><trkpt lat="44.333915" lon="11.454405"><ele>258.0</ele><time>2026-04-17T09:25:37.086Z</time></trkpt><trkpt lat="44.333795" lon="11.4544567"><ele>260.0</ele><time>2026-04-17T09:25:38.086Z</time></trkpt><trkpt lat="44.3336733" lon="11.4545317"><ele>262.0</ele><time>2026-04-17T09:25:39.086Z</time></trkpt><trkpt lat="44.33356" lon="11.4546183"><ele>264.0</ele><time>2026-04-17T09:25:40.086Z</time></trkpt><trkpt lat="44.333455" lon="11.4547117"><ele>266.0</ele><time>2026-04-17T09:25:41.086Z</time></trkpt><trkpt lat="44.333365" lon="11.4547933"><ele>266.1666666666667</ele><time>2026-04-17T09:25:42.086Z</time></trkpt><trkpt lat="44.3332917" lon="11.4548417"><ele>266.33333333333337</ele><time>2026-04-17T09:25:43.086Z</time></trkpt><trkpt lat="44.3332117" lon="11.4548517"><ele>266.5</ele><time>2026-04-17T09:25:44.087Z</time></trkpt><trkpt lat="44.3331367" lon="11.45481"><ele>266.6666666666667</ele><time>2026-04-17T09:25:45.087Z</time></trkpt><trkpt lat="44.3330717" lon="11.4547133"><ele>266.8333333333333</ele><time>2026-04-17T09:25:46.087Z</time></trkpt><trkpt lat="44.3330317" lon="11.454575"><ele>267.0</ele><time>2026-04-17T09:25:47.086Z</time></trkpt><trkpt lat="44.333" lon="11.4544167"><ele>271.0</ele><time>2026-04-17T09:25:48.087Z</time></trkpt><trkpt lat="44.332955" lon="11.45427"><ele>275.0</ele><time>2026-04-17T09:25:49.087Z</time></trkpt><trkpt lat="44.33292" lon="11.45414"><ele>279.0</ele><time>2026-04-17T09:25:50.087Z</time></trkpt><trkpt lat="44.33287" lon="11.4540367"><ele>283.0</ele><time>2026-04-17T09:25:51.086Z</time></trkpt><trkpt lat="44.3328117" lon="11.453975"><ele>287.0</ele><time>2026-04-17T09:25:52.086Z</time></trkpt><trkpt lat="44.33274" lon="11.453975"><ele>291.0</ele><time>2026-04-17T09:25:53.086Z</time></trkpt><trkpt lat="44.3326817" lon="11.4540333"><ele>291.0</ele><time>2026-04-17T09:25:54.086Z</time></trkpt><trkpt lat="44.33264" lon="11.454135"><ele>291.0</ele><time>2026-04-17T09:25:55.087Z</time></trkpt><trkpt lat="44.33261" lon="11.454275"><ele>291.0</ele><time>2026-04-17T09:25:56.086Z</time></trkpt><trkpt lat="44.3325883" lon="11.45444"><ele>291.0</ele><time>2026-04-17T09:25:57.087Z</time></trkpt><trkpt lat="44.332585" lon="11.4545967"><ele>291.0</ele><time>2026-04-17T09:25:58.086Z</time></trkpt><trkpt lat="44.3325817" lon="11.454735"><ele>291.2</ele><time>2026-04-17T09:25:59.087Z</time></trkpt><trkpt lat="44.3325583" lon="11.4548417"><ele>291.40000000000003</ele><time>2026-04-17T09:26:00.087Z</time></trkpt><trkpt lat="44.332515" lon="11.454925"><ele>291.6</ele><time>2026-04-17T09:26:01.086Z</time></trkpt><trkpt lat="44.3323617" lon="11.4549217"><ele>291.8</ele><time>2026-04-17T09:26:03.086Z</time></trkpt><trkpt lat="44.33225" lon="11.4548517"><ele>292.0</ele><time>2026-04-17T09:26:04.086Z</time></trkpt><trkpt lat="44.3321333" lon="11.454775"><ele>295.75</ele><time>2026-04-17T09:26:05.087Z</time></trkpt><trkpt lat="44.3320167" lon="11.4546967"><ele>299.5</ele><time>2026-04-17T09:26:06.086Z</time></trkpt><trkpt lat="44.3319" lon="11.45463"><ele>303.25</ele><time>2026-04-17T09:26:07.086Z</time></trkpt><trkpt lat="44.3317867" lon="11.4545817"><ele>307.0</ele><time>2026-04-17T09:26:08.086Z</time></trkpt><trkpt lat="44.3316733" lon="11.4545633"><ele>307.0</ele><time>2026-04-17T09:26:09.086Z</time></trkpt><trkpt lat="44.331545" lon="11.45458"><ele>307.0</ele><time>2026-04-17T09:26:10.087Z</time></trkpt><trkpt lat="44.3314133" lon="11.4546267"><ele>307.0</ele><time>2026-04-17T09:26:11.087Z</time></trkpt><trkpt lat="44.3312983" lon="11.4547033"><ele>307.0</ele><time>2026-04-17T09:26:12.086Z</time></trkpt><trkpt lat="44.3311883" lon="11.4548217"><ele>311.25</ele><time>2026-04-17T09:26:13.086Z</time></trkpt><trkpt lat="44.33109" lon="11.454955"><ele>315.5</ele><time>2026-04-17T09:26:14.086Z</time></trkpt><trkpt lat="44.33099" lon="11.4550967"><ele>319.75</ele><time>2026-04-17T09:26:15.086Z</time></trkpt><trkpt lat="44.3308867" lon="11.4552317"><ele>324.0</ele><time>2026-04-17T09:26:16.086Z</time></trkpt><trkpt lat="44.3307817" lon="11.4553633"><ele>323.75</ele><time>2026-04-17T09:26:17.086Z</time></trkpt><trkpt lat="44.3306817" lon="11.45549"><ele>323.5</ele><time>2026-04-17T09:26:18.086Z</time></trkpt><trkpt lat="44.330585" lon="11.4555967"><ele>323.25</ele><time>2026-04-17T09:26:19.087Z</time></trkpt><trkpt lat="44.3304983" lon="11.4556867"><ele>323.0</ele><time>2026-04-17T09:26:20.086Z</time></trkpt><trkpt lat="44.3304217" lon="11.4557583"><ele>324.0</ele><time>2026-04-17T09:26:21.086Z</time></trkpt><trkpt lat="44.3303517" lon="11.4557983"><ele>325.0</ele><time>2026-04-17T09:26:22.086Z</time></trkpt><trkpt lat="44.3302783" lon="11.4558"><ele>326.0</ele><time>2026-04-17T09:26:23.086Z</time></trkpt><trkpt lat="44.3302167" lon="11.4557517"><ele>327.0</ele><time>2026-04-17T09:26:24.086Z</time></trkpt><trkpt lat="44.3301683" lon="11.4556733"><ele>328.0</ele><time>2026-04-17T09:26:25.086Z</time></trkpt><trkpt lat="44.3301317" lon="11.4555533"><ele>329.0</ele><time>2026-04-17T09:26:26.087Z</time></trkpt><trkpt lat="44.3300983" lon="11.4553983"><ele>331.0</ele><time>2026-04-17T09:26:27.087Z</time></trkpt><trkpt lat="44.330055" lon="11.45524"><ele>333.0</ele><time>2026-04-17T09:26:28.086Z</time></trkpt><trkpt lat="44.330005" lon="11.455075"><ele>335.0</ele><time>2026-04-17T09:26:29.086Z</time></trkpt><trkpt lat="44.329955" lon="11.4548983"><ele>337.0</ele><time>2026-04-17T09:26:30.087Z</time></trkpt><trkpt lat="44.3299" lon="11.4547167"><ele>339.0</ele><time>2026-04-17T09:26:31.086Z</time></trkpt><trkpt lat="44.32983" lon="11.454535"><ele>341.0</ele><time>2026-04-17T09:26:32.087Z</time></trkpt><trkpt lat="44.3297533" lon="11.4543633"><ele>343.0</ele><time>2026-04-17T09:26:33.086Z</time></trkpt><trkpt lat="44.3296783" lon="11.4542"><ele>345.0</ele><time>2026-04-17T09:26:34.086Z</time></trkpt><trkpt lat="44.329605" lon="11.4540333"><ele>345.75</ele><time>2026-04-17T09:26:35.086Z</time></trkpt><trkpt lat="44.32953" lon="11.4538717"><ele>346.5</ele><time>2026-04-17T09:26:36.087Z</time></trkpt><trkpt lat="44.3294583" lon="11.453705"><ele>347.25</ele><time>2026-04-17T09:26:37.086Z</time></trkpt><trkpt lat="44.3293917" lon="11.4535483"><ele>348.0</ele><time>2026-04-17T09:26:38.087Z</time></trkpt><trkpt lat="44.3293117" lon="11.4533933"><ele>352.0</ele><time>2026-04-17T09:26:39.086Z</time></trkpt><trkpt lat="44.3292317" lon="11.4532317"><ele>356.0</ele><time>2026-04-17T09:26:40.086Z</time></trkpt><trkpt lat="44.3291617" lon="11.4530683"><ele>360.0</ele><time>2026-04-17T09:26:41.086Z</time></trkpt><trkpt lat="44.3290917" lon="11.4528967"><ele>364.0</ele><time>2026-04-17T09:26:42.086Z</time></trkpt><trkpt lat="44.3290283" lon="11.45273"><ele>365.25</ele><time>2026-04-17T09:26:43.086Z</time></trkpt><trkpt lat="44.3289817" lon="11.4525767"><ele>366.5</ele><time>2026-04-17T09:26:44.086Z</time></trkpt><trkpt lat="44.3289683" lon="11.452425"><ele>367.75</ele><time>2026-04-17T09:26:45.085Z</time></trkpt><trkpt lat="44.3289967" lon="11.4522583"><ele>369.0</ele><time>2026-04-17T09:26:46.085Z</time></trkpt><trkpt lat="44.329045" lon="11.452085"><ele>370.0</ele><time>2026-04-17T09:26:47.085Z</time></trkpt><trkpt lat="44.3290983" lon="11.4519183"><ele>371.0</ele><time>2026-04-17T09:26:48.085Z</time></trkpt><trkpt lat="44.329135" lon="11.4517583"><ele>372.0</ele><time>2026-04-17T09:26:49.084Z</time></trkpt><trkpt lat="44.3291467" lon="11.451605"><ele>373.0</ele><time>2026-04-17T09:26:50.085Z</time></trkpt><trkpt lat="44.3291333" lon="11.4514417"><ele>374.25</ele><time>2026-04-17T09:26:51.086Z</time></trkpt><trkpt lat="44.3290983" lon="11.4512633"><ele>375.5</ele><time>2026-04-17T09:26:52.085Z</time></trkpt><trkpt lat="44.329045" lon="11.4510783"><ele>376.75</ele><time>2026-04-17T09:26:53.085Z</time></trkpt><trkpt lat="44.3289833" lon="11.4508817"><ele>378.0</ele><time>2026-04-17T09:26:54.085Z</time></trkpt><trkpt lat="44.3289283" lon="11.45068"><ele>379.6666666666667</ele><time>2026-04-17T09:26:55.085Z</time></trkpt><trkpt lat="44.3288767" lon="11.45047"><ele>381.33333333333337</ele><time>2026-04-17T09:26:56.085Z</time></trkpt><trkpt lat="44.328825" lon="11.4502683"><ele>383.0</ele><time>2026-04-17T09:26:57.085Z</time></trkpt><trkpt lat="44.32877" lon="11.4500717"><ele>383.0</ele><time>2026-04-17T09:26:58.085Z</time></trkpt><trkpt lat="44.3287133" lon="11.44988"><ele>383.0</ele><time>2026-04-17T09:26:59.086Z</time></trkpt><trkpt lat="44.3286583" lon="11.4497033"><ele>383.0</ele><time>2026-04-17T09:27:00.085Z</time></trkpt><trkpt lat="44.3286067" lon="11.4495433"><ele>383.0</ele><time>2026-04-17T09:27:01.086Z</time></trkpt><trkpt lat="44.3285483" lon="11.4494083"><ele>385.79999999999995</ele><time>2026-04-17T09:27:02.085Z</time></trkpt><trkpt lat="44.3284717" lon="11.4493"><ele>388.6</ele><time>2026-04-17T09:27:03.086Z</time></trkpt><trkpt lat="44.328375" lon="11.449215"><ele>391.4</ele><time>2026-04-17T09:27:04.085Z</time></trkpt><trkpt lat="44.3282717" lon="11.449155"><ele>394.20000000000005</ele><time>2026-04-17T09:27:05.085Z</time></trkpt><trkpt lat="44.3281817" lon="11.4490783"><ele>397.0</ele><time>2026-04-17T09:27:06.085Z</time></trkpt><trkpt lat="44.3281267" lon="11.4489667"><ele>397.0</ele><time>2026-04-17T09:27:07.085Z</time></trkpt><trkpt lat="44.3280933" lon="11.448815"><ele>397.0</ele><time>2026-04-17T09:27:08.086Z</time></trkpt><trkpt lat="44.328085" lon="11.4486317"><ele>397.0</ele><time>2026-04-17T09:27:09.086Z</time></trkpt><trkpt lat="44.3280783" lon="11.448435"><ele>397.0</ele><time>2026-04-17T09:27:10.085Z</time></trkpt><trkpt lat="44.328065" lon="11.4482417"><ele>397.75</ele><time>2026-04-17T09:27:11.086Z</time></trkpt><trkpt lat="44.32805" lon="11.4480517"><ele>398.5</ele><time>2026-04-17T09:27:12.085Z</time></trkpt><trkpt lat="44.3280283" lon="11.447865"><ele>399.25</ele><time>2026-04-17T09:27:13.086Z</time></trkpt><trkpt lat="44.3280017" lon="11.447675"><ele>400.0</ele><time>2026-04-17T09:27:14.086Z</time></trkpt><trkpt lat="44.3279783" lon="11.4474933"><ele>402.75</ele><time>2026-04-17T09:27:15.085Z</time></trkpt><trkpt lat="44.3279533" lon="11.447315"><ele>405.5</ele><time>2026-04-17T09:27:16.086Z</time></trkpt><trkpt lat="44.327915" lon="11.44715"><ele>408.25</ele><time>2026-04-17T09:27:17.086Z</time></trkpt><trkpt lat="44.3278533" lon="11.446985"><ele>411.0</ele><time>2026-04-17T09:27:18.086Z</time></trkpt><trkpt lat="44.327775" lon="11.44682"><ele>415.25</ele><time>2026-04-17T09:27:19.086Z</time></trkpt><trkpt lat="44.3276983" lon="11.4466533"><ele>419.5</ele><time>2026-04-17T09:27:20.086Z</time></trkpt><trkpt lat="44.32763" lon="11.44647"><ele>423.75</ele><time>2026-04-17T09:27:21.085Z</time></trkpt><trkpt lat="44.3275683" lon="11.4462867"><ele>428.0</ele><time>2026-04-17T09:27:22.086Z</time></trkpt><trkpt lat="44.32751" lon="11.4461133"><ele>431.0</ele><time>2026-04-17T09:27:23.085Z</time></trkpt><trkpt lat="44.3274467" lon="11.4459633"><ele>434.0</ele><time>2026-04-17T09:27:24.085Z</time></trkpt><trkpt lat="44.327365" lon="11.44584"><ele>437.0</ele><time>2026-04-17T09:27:25.086Z</time></trkpt><trkpt lat="44.3272533" lon="11.4457333"><ele>440.0</ele><time>2026-04-17T09:27:26.085Z</time></trkpt><trkpt lat="44.3271267" lon="11.4456317"><ele>440.0</ele><time>2026-04-17T09:27:27.086Z</time></trkpt><trkpt lat="44.3270117" lon="11.4455333"><ele>440.0</ele><time>2026-04-17T09:27:28.085Z</time></trkpt><trkpt lat="44.3269333" lon="11.445405"><ele>440.0</ele><time>2026-04-17T09:27:29.086Z</time></trkpt><trkpt lat="44.3268733" lon="11.44525"><ele>440.0</ele><time>2026-04-17T09:27:30.085Z</time></trkpt><trkpt lat="44.326805" lon="11.4450817"><ele>444.25</ele><time>2026-04-17T09:27:31.086Z</time></trkpt><trkpt lat="44.3267383" lon="11.444915"><ele>448.5</ele><time>2026-04-17T09:27:32.085Z</time></trkpt><trkpt lat="44.3266483" lon="11.4447717"><ele>452.75</ele><time>2026-04-17T09:27:33.085Z</time></trkpt><trkpt lat="44.3265583" lon="11.4446533"><ele>457.0</ele><time>2026-04-17T09:27:34.085Z</time></trkpt><trkpt lat="44.326485" lon="11.4445367"><ele>457.25</ele><time>2026-04-17T09:27:35.085Z</time></trkpt><trkpt lat="44.326425" lon="11.4444133"><ele>457.5</ele><time>2026-04-17T09:27:36.086Z</time></trkpt><trkpt lat="44.3263783" lon="11.4442533"><ele>457.75</ele><time>2026-04-17T09:27:37.085Z</time></trkpt><trkpt lat="44.3263433" lon="11.4440733"><ele>458.0</ele><time>2026-04-17T09:27:38.085Z</time></trkpt><trkpt lat="44.3263117" lon="11.44388"><ele>460.75</ele><time>2026-04-17T09:27:39.085Z</time></trkpt><trkpt lat="44.3262767" lon="11.44369"><ele>463.5</ele><time>2026-04-17T09:27:40.086Z</time></trkpt><trkpt lat="44.3262367" lon="11.4435033"><ele>466.25</ele><time>2026-04-17T09:27:41.086Z</time></trkpt><trkpt lat="44.3261917" lon="11.4433267"><ele>469.0</ele><time>2026-04-17T09:27:42.085Z</time></trkpt><trkpt lat="44.32614" lon="11.4431383"><ele>469.0</ele><time>2026-04-17T09:27:43.085Z</time></trkpt><trkpt lat="44.3260817" lon="11.4429667"><ele>469.0</ele><time>2026-04-17T09:27:44.086Z</time></trkpt><trkpt lat="44.3260183" lon="11.442795"><ele>469.0</ele><time>2026-04-17T09:27:45.085Z</time></trkpt><trkpt lat="44.3259333" lon="11.4426517"><ele>469.0</ele><time>2026-04-17T09:27:46.086Z</time></trkpt><trkpt lat="44.3258283" lon="11.442525"><ele>472.0</ele><time>2026-04-17T09:27:47.085Z</time></trkpt><trkpt lat="44.32571" lon="11.4424083"><ele>475.0</ele><time>2026-04-17T09:27:48.085Z</time></trkpt><trkpt lat="44.3255767" lon="11.442295"><ele>478.0</ele><time>2026-04-17T09:27:49.085Z</time></trkpt><trkpt lat="44.3254383" lon="11.442185"><ele>482.33333333333337</ele><time>2026-04-17T09:27:50.085Z</time></trkpt><trkpt lat="44.3253017" lon="11.4420767"><ele>486.66666666666663</ele><time>2026-04-17T09:27:51.086Z</time></trkpt><trkpt lat="44.3251683" lon="11.441975"><ele>491.0</ele><time>2026-04-17T09:27:52.085Z</time></trkpt><trkpt lat="44.32504" lon="11.4418767"><ele>491.0</ele><time>2026-04-17T09:27:53.085Z</time></trkpt><trkpt lat="44.324915" lon="11.4417817"><ele>491.0</ele><time>2026-04-17T09:27:54.086Z</time></trkpt><trkpt lat="44.3248033" lon="11.4416717"><ele>491.0</ele><time>2026-04-17T09:27:55.085Z</time></trkpt><trkpt lat="44.3246917" lon="11.4415617"><ele>491.0</ele><time>2026-04-17T09:27:56.085Z</time></trkpt><trkpt lat="44.3245817" lon="11.4414267"><ele>492.25</ele><time>2026-04-17T09:27:57.086Z</time></trkpt><trkpt lat="44.3244817" lon="11.4412817"><ele>493.5</ele><time>2026-04-17T09:27:58.085Z</time></trkpt><trkpt lat="44.3243817" lon="11.441125"><ele>494.75</ele><time>2026-04-17T09:27:59.085Z</time></trkpt><trkpt lat="44.3242917" lon="11.44096"><ele>496.0</ele><time>2026-04-17T09:28:00.085Z</time></trkpt><trkpt lat="44.3242117" lon="11.440795"><ele>496.0</ele><time>2026-04-17T09:28:01.086Z</time></trkpt><trkpt lat="44.32413" lon="11.44063"><ele>496.0</ele><time>2026-04-17T09:28:02.085Z</time></trkpt><trkpt lat="44.3240533" lon="11.4404633"><ele>496.0</ele><time>2026-04-17T09:28:03.086Z</time></trkpt><trkpt lat="44.323965" lon="11.44032"><ele>496.0</ele><time>2026-04-17T09:28:04.085Z</time></trkpt><trkpt lat="44.3238583" lon="11.4402033"><ele>497.6666666666667</ele><time>2026-04-17T09:28:05.085Z</time></trkpt><trkpt lat="44.3237267" lon="11.4401117"><ele>499.33333333333337</ele><time>2026-04-17T09:28:06.086Z</time></trkpt><trkpt lat="44.32358" lon="11.44006"><ele>501.0</ele><time>2026-04-17T09:28:07.086Z</time></trkpt><trkpt lat="44.3234217" lon="11.44003"><ele>501.0</ele><time>2026-04-17T09:28:08.086Z</time></trkpt><trkpt lat="44.3232683" lon="11.4400067"><ele>501.0</ele><time>2026-04-17T09:28:09.086Z</time></trkpt><trkpt lat="44.323115" lon="11.439985"><ele>501.0</ele><time>2026-04-17T09:28:10.085Z</time></trkpt><trkpt lat="44.322975" lon="11.43996"><ele>502.5</ele><time>2026-04-17T09:28:11.086Z</time></trkpt><trkpt lat="44.3228367" lon="11.4399417"><ele>504.0</ele><time>2026-04-17T09:28:12.085Z</time></trkpt><trkpt lat="44.3227" lon="11.43994"><ele>505.5</ele><time>2026-04-17T09:28:13.086Z</time></trkpt><trkpt lat="44.3225767" lon="11.439935"><ele>507.0</ele><time>2026-04-17T09:28:14.086Z</time></trkpt><trkpt lat="44.32247" lon="11.4399267"><ele>507.0</ele><time>2026-04-17T09:28:15.085Z</time></trkpt><trkpt lat="44.3223867" lon="11.4398917"><ele>507.00000000000006</ele><time>2026-04-17T09:28:16.085Z</time></trkpt><trkpt lat="44.3223167" lon="11.4398067"><ele>507.00000000000006</ele><time>2026-04-17T09:28:17.085Z</time></trkpt><trkpt lat="44.3222517" lon="11.439675"><ele>507.0</ele><time>2026-04-17T09:28:18.085Z</time></trkpt><trkpt lat="44.32219" lon="11.43951"><ele>507.0</ele><time>2026-04-17T09:28:19.085Z</time></trkpt><trkpt lat="44.3221133" lon="11.4393417"><ele>510.5</ele><time>2026-04-17T09:28:20.086Z</time></trkpt><trkpt lat="44.3220267" lon="11.439185"><ele>514.0</ele><time>2026-04-17T09:28:21.085Z</time></trkpt><trkpt lat="44.321925" lon="11.439055"><ele>517.5</ele><time>2026-04-17T09:28:22.085Z</time></trkpt><trkpt lat="44.3218067" lon="11.438945"><ele>521.0</ele><time>2026-04-17T09:28:23.085Z</time></trkpt><trkpt lat="44.321665" lon="11.438865"><ele>521.25</ele><time>2026-04-17T09:28:24.086Z</time></trkpt><trkpt lat="44.32153" lon="11.4388"><ele>521.5</ele><time>2026-04-17T09:28:25.086Z</time></trkpt><trkpt lat="44.3214117" lon="11.4387383"><ele>521.75</ele><time>2026-04-17T09:28:26.085Z</time></trkpt><trkpt lat="44.3213233" lon="11.4386583"><ele>522.0</ele><time>2026-04-17T09:28:27.086Z</time></trkpt><trkpt lat="44.32126" lon="11.4385367"><ele>522.0</ele><time>2026-04-17T09:28:28.085Z</time></trkpt><trkpt lat="44.32122" lon="11.4383867"><ele>522.0</ele><time>2026-04-17T09:28:29.085Z</time></trkpt><trkpt lat="44.3211833" lon="11.4382167"><ele>522.0</ele><time>2026-04-17T09:28:30.085Z</time></trkpt><trkpt lat="44.3211483" lon="11.4380367"><ele>522.0</ele><time>2026-04-17T09:28:31.085Z</time></trkpt><trkpt lat="44.3211067" lon="11.4378483"><ele>523.0</ele><time>2026-04-17T09:28:32.085Z</time></trkpt><trkpt lat="44.3210717" lon="11.4376483"><ele>524.0</ele><time>2026-04-17T09:28:33.085Z</time></trkpt><trkpt lat="44.321045" lon="11.43745"><ele>525.0</ele><time>2026-04-17T09:28:34.085Z</time></trkpt><trkpt lat="44.321015" lon="11.4372417"><ele>526.0</ele><time>2026-04-17T09:28:35.085Z</time></trkpt><trkpt lat="44.3209583" lon="11.4370383"><ele>527.0</ele><time>2026-04-17T09:28:36.085Z</time></trkpt><trkpt lat="44.320875" lon="11.43684"><ele>528.0</ele><time>2026-04-17T09:28:37.085Z</time></trkpt><trkpt lat="44.3207817" lon="11.4366467"><ele>529.0</ele><time>2026-04-17T09:28:38.085Z</time></trkpt><trkpt lat="44.3206817" lon="11.4364667"><ele>528.3333333333334</ele><time>2026-04-17T09:28:39.086Z</time></trkpt><trkpt lat="44.3205817" lon="11.4362933"><ele>527.6666666666666</ele><time>2026-04-17T09:28:40.085Z</time></trkpt><trkpt lat="44.3204883" lon="11.4361233"><ele>527.0</ele><time>2026-04-17T09:28:41.085Z</time></trkpt><trkpt lat="44.320415" lon="11.4359617"><ele>527.0</ele><time>2026-04-17T09:28:42.085Z</time></trkpt><trkpt lat="44.3203583" lon="11.4357983"><ele>527.0</ele><time>2026-04-17T09:28:43.085Z</time></trkpt><trkpt lat="44.320315" lon="11.4356233"><ele>527.0</ele><time>2026-04-17T09:28:44.086Z</time></trkpt><trkpt lat="44.3202783" lon="11.435425"><ele>527.0</ele><time>2026-04-17T09:28:45.085Z</time></trkpt><trkpt lat="44.3202517" lon="11.435215"><ele>527.6666666666666</ele><time>2026-04-17T09:28:46.086Z</time></trkpt><trkpt lat="44.3202283" lon="11.4349967"><ele>528.3333333333334</ele><time>2026-04-17T09:28:47.085Z</time></trkpt><trkpt lat="44.3202133" lon="11.4347733"><ele>529.0</ele><time>2026-04-17T09:28:48.086Z</time></trkpt><trkpt lat="44.32021" lon="11.4345417"><ele>529.3333333333334</ele><time>2026-04-17T09:28:49.085Z</time></trkpt><trkpt lat="44.32022" lon="11.434305"><ele>529.6666666666666</ele><time>2026-04-17T09:28:50.085Z</time></trkpt><trkpt lat="44.3202367" lon="11.434065"><ele>530.0</ele><time>2026-04-17T09:28:51.086Z</time></trkpt><trkpt lat="44.320245" lon="11.433825"><ele>531.0</ele><time>2026-04-17T09:28:52.085Z</time></trkpt><trkpt lat="44.3202167" lon="11.4335967"><ele>532.0</ele><time>2026-04-17T09:28:53.086Z</time></trkpt><trkpt lat="44.3201633" lon="11.4333717"><ele>533.0</ele><time>2026-04-17T09:28:54.086Z</time></trkpt><trkpt lat="44.32011" lon="11.4331633"><ele>533.0</ele><time>2026-04-17T09:28:55.085Z</time></trkpt><trkpt lat="44.32006" lon="11.432975"><ele>533.0</ele><time>2026-04-17T09:28:56.085Z</time></trkpt><trkpt lat="44.3200267" lon="11.43279"><ele>533.0</ele><time>2026-04-17T09:28:57.085Z</time></trkpt><trkpt lat="44.320005" lon="11.4326033"><ele>533.0</ele><time>2026-04-17T09:28:58.085Z</time></trkpt><trkpt lat="44.3199967" lon="11.4324283"><ele>534.1999999999999</ele><time>2026-04-17T09:28:59.085Z</time></trkpt><trkpt lat="44.3199983" lon="11.43227"><ele>535.4</ele><time>2026-04-17T09:29:00.085Z</time></trkpt><trkpt lat="44.32001" lon="11.4321283"><ele>536.5999999999999</ele><time>2026-04-17T09:29:01.085Z</time></trkpt><trkpt lat="44.320015" lon="11.4320083"><ele>537.8</ele><time>2026-04-17T09:29:02.086Z</time></trkpt><trkpt lat="44.32001" lon="11.4319033"><ele>539.0</ele><time>2026-04-17T09:29:03.085Z</time></trkpt><trkpt lat="44.3199833" lon="11.4317667"><ele>540.8</ele><time>2026-04-17T09:29:05.086Z</time></trkpt><trkpt lat="44.319935" lon="11.4316967"><ele>542.5999999999999</ele><time>2026-04-17T09:29:07.086Z</time></trkpt><trkpt lat="44.3198383" lon="11.4316683"><ele>544.4</ele><time>2026-04-17T09:29:09.085Z</time></trkpt><trkpt lat="44.3197583" lon="11.4316633"><ele>546.1999999999999</ele><time>2026-04-17T09:29:10.086Z</time></trkpt><trkpt lat="44.319655" lon="11.4316317"><ele>548.0</ele><time>2026-04-17T09:29:11.085Z</time></trkpt><trkpt lat="44.3195467" lon="11.4315767"><ele>548.0</ele><time>2026-04-17T09:29:12.085Z</time></trkpt><trkpt lat="44.3194183" lon="11.4315117"><ele>548.0</ele><time>2026-04-17T09:29:13.085Z</time></trkpt><trkpt lat="44.319295" lon="11.43144"><ele>548.0</ele><time>2026-04-17T09:29:14.085Z</time></trkpt><trkpt lat="44.3191783" lon="11.4313667"><ele>548.0</ele><time>2026-04-17T09:29:15.086Z</time></trkpt><trkpt lat="44.3190683" lon="11.4313033"><ele>548.0</ele><time>2026-04-17T09:29:16.086Z</time></trkpt><trkpt lat="44.3189633" lon="11.4312433"><ele>548.0</ele><time>2026-04-17T09:29:17.086Z</time></trkpt><trkpt lat="44.3188633" lon="11.4311933"><ele>548.0</ele><time>2026-04-17T09:29:18.085Z</time></trkpt><trkpt lat="44.3187867" lon="11.4311333"><ele>548.0</ele><time>2026-04-17T09:29:19.085Z</time></trkpt><trkpt lat="44.3187233" lon="11.4310533"><ele>548.0</ele><time>2026-04-17T09:29:20.086Z</time></trkpt><trkpt lat="44.31867" lon="11.4309517"><ele>548.0</ele><time>2026-04-17T09:29:21.085Z</time></trkpt><trkpt lat="44.3186317" lon="11.43083"><ele>548.0</ele><time>2026-04-17T09:29:22.086Z</time></trkpt><trkpt lat="44.318605" lon="11.4306833"><ele>548.0</ele><time>2026-04-17T09:29:23.086Z</time></trkpt><trkpt lat="44.3185783" lon="11.430525"><ele>548.0</ele><time>2026-04-17T09:29:24.085Z</time></trkpt><trkpt lat="44.3185767" lon="11.430345"><ele>548.0</ele><time>2026-04-17T09:29:25.085Z</time></trkpt><trkpt lat="44.3185833" lon="11.4301517"><ele>545.25</ele><time>2026-04-17T09:29:26.086Z</time></trkpt><trkpt lat="44.3185917" lon="11.4299583"><ele>542.5</ele><time>2026-04-17T09:29:27.085Z</time></trkpt><trkpt lat="44.3185917" lon="11.4297833"><ele>539.75</ele><time>2026-04-17T09:29:28.085Z</time></trkpt><trkpt lat="44.3186" lon="11.4296167"><ele>537.0</ele><time>2026-04-17T09:29:29.085Z</time></trkpt><trkpt lat="44.3186" lon="11.4294667"><ele>537.0</ele><time>2026-04-17T09:29:30.085Z</time></trkpt><trkpt lat="44.3185817" lon="11.4293283"><ele>537.0</ele><time>2026-04-17T09:29:31.085Z</time></trkpt><trkpt lat="44.3185333" lon="11.4292083"><ele>537.0</ele><time>2026-04-17T09:29:32.086Z</time></trkpt><trkpt lat="44.3184717" lon="11.4291133"><ele>537.0</ele><time>2026-04-17T09:29:33.085Z</time></trkpt><trkpt lat="44.3183983" lon="11.4290183"><ele>537.0</ele><time>2026-04-17T09:29:34.085Z</time></trkpt><trkpt lat="44.3183183" lon="11.428925"><ele>537.0</ele><time>2026-04-17T09:29:35.085Z</time></trkpt><trkpt lat="44.3182383" lon="11.4288333"><ele>537.0</ele><time>2026-04-17T09:29:36.086Z</time></trkpt><trkpt lat="44.3181633" lon="11.42874"><ele>537.0</ele><time>2026-04-17T09:29:37.086Z</time></trkpt><trkpt lat="44.3180967" lon="11.4286533"><ele>537.0</ele><time>2026-04-17T09:29:38.085Z</time></trkpt><trkpt lat="44.3180217" lon="11.4285717"><ele>537.0</ele><time>2026-04-17T09:29:39.085Z</time></trkpt><trkpt lat="44.3179533" lon="11.428505"><ele>534.8000000000001</ele><time>2026-04-17T09:29:40.086Z</time></trkpt><trkpt lat="44.3178817" lon="11.4284467"><ele>532.6</ele><time>2026-04-17T09:29:41.086Z</time></trkpt><trkpt lat="44.3178033" lon="11.4283867"><ele>530.4000000000001</ele><time>2026-04-17T09:29:42.086Z</time></trkpt><trkpt lat="44.31772" lon="11.4283333"><ele>528.2</ele><time>2026-04-17T09:29:43.085Z</time></trkpt><trkpt lat="44.3176317" lon="11.4282833"><ele>526.0</ele><time>2026-04-17T09:29:44.086Z</time></trkpt><trkpt lat="44.317545" lon="11.4282267"><ele>526.0</ele><time>2026-04-17T09:29:45.085Z</time></trkpt><trkpt lat="44.3174467" lon="11.4281667"><ele>526.0</ele><time>2026-04-17T09:29:46.086Z</time></trkpt><trkpt lat="44.3173467" lon="11.4281083"><ele>526.0</ele><time>2026-04-17T09:29:47.085Z</time></trkpt><trkpt lat="44.31726" lon="11.428045"><ele>526.0</ele><time>2026-04-17T09:29:48.085Z</time></trkpt><trkpt lat="44.3171817" lon="11.4279817"><ele>526.0</ele><time>2026-04-17T09:29:49.085Z</time></trkpt><trkpt lat="44.3171067" lon="11.4279"><ele>526.0</ele><time>2026-04-17T09:29:50.086Z</time></trkpt><trkpt lat="44.31703" lon="11.4278067"><ele>526.0</ele><time>2026-04-17T09:29:51.086Z</time></trkpt><trkpt lat="44.3169533" lon="11.427695"><ele>526.0</ele><time>2026-04-17T09:29:52.085Z</time></trkpt><trkpt lat="44.316875" lon="11.4275867"><ele>526.0</ele><time>2026-04-17T09:29:53.085Z</time></trkpt><trkpt lat="44.3167967" lon="11.4275"><ele>526.0</ele><time>2026-04-17T09:29:54.086Z</time></trkpt><trkpt lat="44.3167083" lon="11.4274167"><ele>526.0</ele><time>2026-04-17T09:29:55.085Z</time></trkpt><trkpt lat="44.3166183" lon="11.4273283"><ele>526.0</ele><time>2026-04-17T09:29:56.086Z</time></trkpt><trkpt lat="44.3165267" lon="11.42723"><ele>526.0</ele><time>2026-04-17T09:29:57.086Z</time></trkpt><trkpt lat="44.316435" lon="11.42712"><ele>526.0</ele><time>2026-04-17T09:29:58.085Z</time></trkpt><trkpt lat="44.3163367" lon="11.427025"><ele>526.4</ele><time>2026-04-17T09:29:59.086Z</time></trkpt><trkpt lat="44.3162483" lon="11.4269317"><ele>526.8</ele><time>2026-04-17T09:30:00.085Z</time></trkpt><trkpt lat="44.31616" lon="11.4268367"><ele>527.1999999999999</ele><time>2026-04-17T09:30:01.085Z</time></trkpt><trkpt lat="44.3160767" lon="11.426745"><ele>527.6</ele><time>2026-04-17T09:30:02.085Z</time></trkpt><trkpt lat="44.31599" lon="11.4266683"><ele>528.0</ele><time>2026-04-17T09:30:03.085Z</time></trkpt><trkpt lat="44.3158967" lon="11.4266133"><ele>528.0</ele><time>2026-04-17T09:30:04.085Z</time></trkpt><trkpt lat="44.3157967" lon="11.4265617"><ele>528.0</ele><time>2026-04-17T09:30:05.085Z</time></trkpt><trkpt lat="44.3157133" lon="11.4265117"><ele>528.0</ele><time>2026-04-17T09:30:06.086Z</time></trkpt><trkpt lat="44.3156433" lon="11.4264517"><ele>528.0</ele><time>2026-04-17T09:30:07.086Z</time></trkpt><trkpt lat="44.3155867" lon="11.4263967"><ele>528.0</ele><time>2026-04-17T09:30:08.085Z</time></trkpt><trkpt lat="44.3155267" lon="11.4263533"><ele>528.0</ele><time>2026-04-17T09:30:09.086Z</time></trkpt><trkpt lat="44.3154633" lon="11.4263133"><ele>530.1666666666666</ele><time>2026-04-17T09:30:10.085Z</time></trkpt><trkpt lat="44.3153967" lon="11.4262733"><ele>532.3333333333334</ele><time>2026-04-17T09:30:11.085Z</time></trkpt><trkpt lat="44.31532" lon="11.4262517"><ele>534.5</ele><time>2026-04-17T09:30:12.085Z</time></trkpt><trkpt lat="44.315235" lon="11.42625"><ele>536.6666666666667</ele><time>2026-04-17T09:30:13.086Z</time></trkpt><trkpt lat="44.315155" lon="11.42626"><ele>538.8333333333334</ele><time>2026-04-17T09:30:14.086Z</time></trkpt><trkpt lat="44.315075" lon="11.42627"><ele>541.0</ele><time>2026-04-17T09:30:15.085Z</time></trkpt><trkpt lat="44.3150017" lon="11.4262733"><ele>541.0000000000001</ele><time>2026-04-17T09:30:16.086Z</time></trkpt><trkpt lat="44.3149333" lon="11.42627"><ele>541.0</ele><time>2026-04-17T09:30:17.086Z</time></trkpt><trkpt lat="44.3148633" lon="11.4262567"><ele>541.0</ele><time>2026-04-17T09:30:18.085Z</time></trkpt><trkpt lat="44.31479" lon="11.4262483"><ele>541.0</ele><time>2026-04-17T09:30:19.086Z</time></trkpt><trkpt lat="44.314725" lon="11.4262467"><ele>541.0</ele><time>2026-04-17T09:30:20.085Z</time></trkpt><trkpt lat="44.3146617" lon="11.4262683"><ele>541.0000000000001</ele><time>2026-04-17T09:30:21.086Z</time></trkpt><trkpt lat="44.3145933" lon="11.4263067"><ele>541.0</ele><time>2026-04-17T09:30:22.085Z</time></trkpt><trkpt lat="44.314525" lon="11.4263667"><ele>538.3333333333334</ele><time>2026-04-17T09:30:23.085Z</time></trkpt><trkpt lat="44.31446" lon="11.4264317"><ele>535.6666666666667</ele><time>2026-04-17T09:30:24.085Z</time></trkpt><trkpt lat="44.3143983" lon="11.4264833"><ele>533.0</ele><time>2026-04-17T09:30:25.086Z</time></trkpt><trkpt lat="44.3143333" lon="11.4265317"><ele>530.3333333333334</ele><time>2026-04-17T09:30:26.085Z</time></trkpt><trkpt lat="44.31427" lon="11.42657"><ele>527.6666666666666</ele><time>2026-04-17T09:30:27.086Z</time></trkpt><trkpt lat="44.314195" lon="11.4265917"><ele>525.0</ele><time>2026-04-17T09:30:28.086Z</time></trkpt><trkpt lat="44.31411" lon="11.426595"><ele>525.0</ele><time>2026-04-17T09:30:29.086Z</time></trkpt><trkpt lat="44.31403" lon="11.4266"><ele>525.0</ele><time>2026-04-17T09:30:30.086Z</time></trkpt><trkpt lat="44.3139583" lon="11.4266267"><ele>525.0</ele><time>2026-04-17T09:30:31.086Z</time></trkpt><trkpt lat="44.3138967" lon="11.4266767"><ele>525.0</ele><time>2026-04-17T09:30:32.086Z</time></trkpt><trkpt lat="44.3138367" lon="11.42671"><ele>525.0</ele><time>2026-04-17T09:30:33.085Z</time></trkpt><trkpt lat="44.3137367" lon="11.42676"><ele>525.0</ele><time>2026-04-17T09:30:35.085Z</time></trkpt><trkpt lat="44.3136217" lon="11.4267933"><ele>526.1666666666666</ele><time>2026-04-17T09:30:37.086Z</time></trkpt><trkpt lat="44.3135483" lon="11.4268133"><ele>527.3333333333334</ele><time>2026-04-17T09:30:38.085Z</time></trkpt><trkpt lat="44.31348" lon="11.4268467"><ele>528.5</ele><time>2026-04-17T09:30:39.085Z</time></trkpt><trkpt lat="44.313415" lon="11.42689"><ele>529.6666666666667</ele><time>2026-04-17T09:30:40.086Z</time></trkpt><trkpt lat="44.3133433" lon="11.4269367"><ele>530.8333333333334</ele><time>2026-04-17T09:30:41.086Z</time></trkpt><trkpt lat="44.31327" lon="11.4269767"><ele>532.0</ele><time>2026-04-17T09:30:42.086Z</time></trkpt><trkpt lat="44.31319" lon="11.426985"><ele>532.0</ele><time>2026-04-17T09:30:43.086Z</time></trkpt><trkpt lat="44.313105" lon="11.4269967"><ele>532.0</ele><time>2026-04-17T09:30:44.086Z</time></trkpt><trkpt lat="44.3130267" lon="11.4269883"><ele>532.0</ele><time>2026-04-17T09:30:45.086Z</time></trkpt><trkpt lat="44.312945" lon="11.4269833"><ele>532.0</ele><time>2026-04-17T09:30:46.086Z</time></trkpt><trkpt lat="44.3128667" lon="11.4270017"><ele>532.0</ele><time>2026-04-17T09:30:47.085Z</time></trkpt><trkpt lat="44.312785" lon="11.42703"><ele>532.0</ele><time>2026-04-17T09:30:48.085Z</time></trkpt><trkpt lat="44.312705" lon="11.42706"><ele>532.5714285714286</ele><time>2026-04-17T09:30:49.085Z</time></trkpt><trkpt lat="44.312635" lon="11.4271117"><ele>533.1428571428571</ele><time>2026-04-17T09:30:50.085Z</time></trkpt><trkpt lat="44.31257" lon="11.4271733"><ele>533.7142857142858</ele><time>2026-04-17T09:30:51.086Z</time></trkpt><trkpt lat="44.3125183" lon="11.427245"><ele>534.2857142857142</ele><time>2026-04-17T09:30:52.085Z</time></trkpt><trkpt lat="44.3124683" lon="11.42733"><ele>534.8571428571429</ele><time>2026-04-17T09:30:53.086Z</time></trkpt><trkpt lat="44.3124333" lon="11.4274167"><ele>535.4285714285714</ele><time>2026-04-17T09:30:54.085Z</time></trkpt><trkpt lat="44.3124017" lon="11.4275"><ele>536.0</ele><time>2026-04-17T09:30:55.086Z</time></trkpt><trkpt lat="44.312335" lon="11.4276433"><ele>531.0</ele><time>2026-04-17T09:30:57.084Z</time></trkpt><trkpt lat="44.3122133" lon="11.4276867"><ele>526.0</ele><time>2026-04-17T09:30:59.084Z</time></trkpt><trkpt lat="44.312145" lon="11.4276767"><ele>521.0</ele><time>2026-04-17T09:31:00.084Z</time></trkpt><trkpt lat="44.31207" lon="11.4276583"><ele>516.0</ele><time>2026-04-17T09:31:01.084Z</time></trkpt><trkpt lat="44.3119967" lon="11.4276383"><ele>510.99999999999994</ele><time>2026-04-17T09:31:02.084Z</time></trkpt><trkpt lat="44.31192" lon="11.427625"><ele>506.0</ele><time>2026-04-17T09:31:03.085Z</time></trkpt><trkpt lat="44.3118383" lon="11.427595"><ele>505.99999999999994</ele><time>2026-04-17T09:31:04.084Z</time></trkpt><trkpt lat="44.311765" lon="11.4275633"><ele>506.0</ele><time>2026-04-17T09:31:05.084Z</time></trkpt><trkpt lat="44.3116883" lon="11.4275267"><ele>506.0</ele><time>2026-04-17T09:31:06.084Z</time></trkpt><trkpt lat="44.3116117" lon="11.4274883"><ele>506.0</ele><time>2026-04-17T09:31:07.084Z</time></trkpt><trkpt lat="44.3115367" lon="11.4274517"><ele>505.99999999999994</ele><time>2026-04-17T09:31:08.084Z</time></trkpt><trkpt lat="44.3114633" lon="11.42741"><ele>506.0</ele><time>2026-04-17T09:31:09.084Z</time></trkpt><trkpt lat="44.311385" lon="11.4273667"><ele>504.8571428571429</ele><time>2026-04-17T09:31:10.085Z</time></trkpt><trkpt lat="44.3113117" lon="11.4273083"><ele>503.7142857142857</ele><time>2026-04-17T09:31:11.084Z</time></trkpt><trkpt lat="44.3112433" lon="11.4272433"><ele>502.57142857142856</ele><time>2026-04-17T09:31:12.085Z</time></trkpt><trkpt lat="44.3111817" lon="11.4271917"><ele>501.42857142857144</ele><time>2026-04-17T09:31:13.085Z</time></trkpt><trkpt lat="44.3111283" lon="11.4271333"><ele>500.2857142857142</ele><time>2026-04-17T09:31:14.085Z</time></trkpt><trkpt lat="44.3110867" lon="11.427065"><ele>499.1428571428571</ele><time>2026-04-17T09:31:15.085Z</time></trkpt><trkpt lat="44.3110583" lon="11.4269633"><ele>498.0</ele><time>2026-04-17T09:31:16.084Z</time></trkpt><trkpt lat="44.31103" lon="11.4268433"><ele>498.0</ele><time>2026-04-17T09:31:17.084Z</time></trkpt><trkpt lat="44.3110167" lon="11.4267033"><ele>497.99999999999994</ele><time>2026-04-17T09:31:18.084Z</time></trkpt><trkpt lat="44.3110133" lon="11.4265667"><ele>497.99999999999994</ele><time>2026-04-17T09:31:19.084Z</time></trkpt><trkpt lat="44.3110133" lon="11.4264383"><ele>498.0</ele><time>2026-04-17T09:31:20.084Z</time></trkpt><trkpt lat="44.311015" lon="11.426315"><ele>498.0</ele><time>2026-04-17T09:31:21.084Z</time></trkpt><trkpt lat="44.31101" lon="11.4261933"><ele>501.0</ele><time>2026-04-17T09:31:22.085Z</time></trkpt><trkpt lat="44.3109967" lon="11.4260767"><ele>503.99999999999994</ele><time>2026-04-17T09:31:23.084Z</time></trkpt><trkpt lat="44.3109683" lon="11.4259633"><ele>506.99999999999994</ele><time>2026-04-17T09:31:24.085Z</time></trkpt><trkpt lat="44.3109183" lon="11.4258617"><ele>510.0</ele><time>2026-04-17T09:31:25.084Z</time></trkpt><trkpt lat="44.3108533" lon="11.425765"><ele>513.0</ele><time>2026-04-17T09:31:26.084Z</time></trkpt><trkpt lat="44.3107833" lon="11.4256717"><ele>513.0</ele><time>2026-04-17T09:31:27.084Z</time></trkpt><trkpt lat="44.310715" lon="11.42557"><ele>513.0</ele><time>2026-04-17T09:31:28.084Z</time></trkpt><trkpt lat="44.3106517" lon="11.425455"><ele>513.0</ele><time>2026-04-17T09:31:29.084Z</time></trkpt><trkpt lat="44.310595" lon="11.425345"><ele>513.0</ele><time>2026-04-17T09:31:30.084Z</time></trkpt><trkpt lat="44.310525" lon="11.4252383"><ele>513.0</ele><time>2026-04-17T09:31:31.084Z</time></trkpt><trkpt lat="44.3104517" lon="11.4251367"><ele>513.4</ele><time>2026-04-17T09:31:32.084Z</time></trkpt><trkpt lat="44.310375" lon="11.425035"><ele>513.8</ele><time>2026-04-17T09:31:33.085Z</time></trkpt><trkpt lat="44.3102917" lon="11.424935"><ele>514.2</ele><time>2026-04-17T09:31:34.084Z</time></trkpt><trkpt lat="44.310205" lon="11.4248333"><ele>514.6</ele><time>2026-04-17T09:31:35.085Z</time></trkpt><trkpt lat="44.3101183" lon="11.4247417"><ele>515.0</ele><time>2026-04-17T09:31:36.085Z</time></trkpt><trkpt lat="44.310035" lon="11.4246533"><ele>515.4</ele><time>2026-04-17T09:31:37.084Z</time></trkpt><trkpt lat="44.30995" lon="11.4245767"><ele>515.8</ele><time>2026-04-17T09:31:38.084Z</time></trkpt><trkpt lat="44.30987" lon="11.4245167"><ele>516.2</ele><time>2026-04-17T09:31:39.084Z</time></trkpt><trkpt lat="44.3097933" lon="11.42447"><ele>516.6</ele><time>2026-04-17T09:31:40.084Z</time></trkpt><trkpt lat="44.30973" lon="11.4244467"><ele>517.0</ele><time>2026-04-17T09:31:41.084Z</time></trkpt><trkpt lat="44.3096067" lon="11.4244833"><ele>517.0</ele><time>2026-04-17T09:31:43.085Z</time></trkpt><trkpt lat="44.3095533" lon="11.4245433"><ele>517.0</ele><time>2026-04-17T09:31:44.085Z</time></trkpt><trkpt lat="44.3095083" lon="11.4246233"><ele>517.0</ele><time>2026-04-17T09:31:45.084Z</time></trkpt><trkpt lat="44.30947" lon="11.4247117"><ele>517.0</ele><time>2026-04-17T09:31:46.084Z</time></trkpt><trkpt lat="44.30942" lon="11.4248167"><ele>517.0</ele><time>2026-04-17T09:31:47.084Z</time></trkpt><trkpt lat="44.3093617" lon="11.4249267"><ele>517.0</ele><time>2026-04-17T09:31:48.084Z</time></trkpt><trkpt lat="44.3092933" lon="11.42504"><ele>514.8000000000001</ele><time>2026-04-17T09:31:49.085Z</time></trkpt><trkpt lat="44.3092233" lon="11.4251433"><ele>512.6</ele><time>2026-04-17T09:31:50.084Z</time></trkpt><trkpt lat="44.30916" lon="11.4252417"><ele>510.40000000000003</ele><time>2026-04-17T09:31:51.084Z</time></trkpt><trkpt lat="44.3090967" lon="11.4253383"><ele>508.20000000000005</ele><time>2026-04-17T09:31:52.085Z</time></trkpt><trkpt lat="44.3090433" lon="11.42544"><ele>506.0</ele><time>2026-04-17T09:31:53.084Z</time></trkpt><trkpt lat="44.30899" lon="11.4255567"><ele>504.6</ele><time>2026-04-17T09:31:54.085Z</time></trkpt><trkpt lat="44.3089283" lon="11.4256733"><ele>503.20000000000005</ele><time>2026-04-17T09:31:55.084Z</time></trkpt><trkpt lat="44.3088683" lon="11.4257867"><ele>501.79999999999995</ele><time>2026-04-17T09:31:56.084Z</time></trkpt><trkpt lat="44.3088117" lon="11.425895"><ele>500.4</ele><time>2026-04-17T09:31:57.085Z</time></trkpt><trkpt lat="44.3087417" lon="11.42601"><ele>499.0</ele><time>2026-04-17T09:31:58.085Z</time></trkpt><trkpt lat="44.308665" lon="11.426125"><ele>498.33333333333337</ele><time>2026-04-17T09:31:59.084Z</time></trkpt><trkpt lat="44.3085883" lon="11.4262267"><ele>497.6666666666667</ele><time>2026-04-17T09:32:00.085Z</time></trkpt><trkpt lat="44.3085217" lon="11.4263133"><ele>497.0</ele><time>2026-04-17T09:32:01.084Z</time></trkpt><trkpt lat="44.3084517" lon="11.4263833"><ele>496.33333333333337</ele><time>2026-04-17T09:32:02.084Z</time></trkpt><trkpt lat="44.308385" lon="11.4264383"><ele>495.6666666666667</ele><time>2026-04-17T09:32:03.084Z</time></trkpt><trkpt lat="44.3083167" lon="11.42649"><ele>495.0</ele><time>2026-04-17T09:32:04.085Z</time></trkpt><trkpt lat="44.3082533" lon="11.4265433"><ele>495.0</ele><time>2026-04-17T09:32:05.085Z</time></trkpt><trkpt lat="44.3082017" lon="11.4266033"><ele>495.0</ele><time>2026-04-17T09:32:06.084Z</time></trkpt><trkpt lat="44.3081033" lon="11.426695"><ele>495.0</ele><time>2026-04-17T09:32:08.084Z</time></trkpt><trkpt lat="44.3080367" lon="11.426745"><ele>495.0</ele><time>2026-04-17T09:32:09.085Z</time></trkpt><trkpt lat="44.30797" lon="11.42679"><ele>495.0</ele><time>2026-04-17T09:32:10.085Z</time></trkpt><trkpt lat="44.3078767" lon="11.4268583"><ele>495.0</ele><time>2026-04-17T09:32:11.084Z</time></trkpt><trkpt lat="44.30778" lon="11.4269367"><ele>494.25</ele><time>2026-04-17T09:32:12.085Z</time></trkpt><trkpt lat="44.30767" lon="11.4270067"><ele>493.5</ele><time>2026-04-17T09:32:13.084Z</time></trkpt><trkpt lat="44.3075583" lon="11.4270783"><ele>492.75</ele><time>2026-04-17T09:32:14.084Z</time></trkpt><trkpt lat="44.3074517" lon="11.42713"><ele>492.0</ele><time>2026-04-17T09:32:15.084Z</time></trkpt><trkpt lat="44.3073483" lon="11.4271533"><ele>491.6</ele><time>2026-04-17T09:32:16.084Z</time></trkpt><trkpt lat="44.3072467" lon="11.4271617"><ele>491.20000000000005</ele><time>2026-04-17T09:32:17.084Z</time></trkpt><trkpt lat="44.30714" lon="11.427145"><ele>490.8</ele><time>2026-04-17T09:32:18.084Z</time></trkpt><trkpt lat="44.3070367" lon="11.4271133"><ele>490.4</ele><time>2026-04-17T09:32:19.084Z</time></trkpt><trkpt lat="44.306935" lon="11.4270967"><ele>490.0</ele><time>2026-04-17T09:32:20.084Z</time></trkpt><trkpt lat="44.3068383" lon="11.427095"><ele>491.2</ele><time>2026-04-17T09:32:21.085Z</time></trkpt><trkpt lat="44.3067367" lon="11.42711"><ele>492.4</ele><time>2026-04-17T09:32:22.084Z</time></trkpt><trkpt lat="44.3066367" lon="11.4271383"><ele>493.6</ele><time>2026-04-17T09:32:23.084Z</time></trkpt><trkpt lat="44.30654" lon="11.42716"><ele>494.8</ele><time>2026-04-17T09:32:24.085Z</time></trkpt><trkpt lat="44.30645" lon="11.4271783"><ele>496.0</ele><time>2026-04-17T09:32:25.085Z</time></trkpt><trkpt lat="44.3063533" lon="11.4271933"><ele>497.33333333333337</ele><time>2026-04-17T09:32:26.084Z</time></trkpt><trkpt lat="44.30626" lon="11.4271783"><ele>498.6666666666667</ele><time>2026-04-17T09:32:27.085Z</time></trkpt><trkpt lat="44.3061633" lon="11.4271433"><ele>500.0</ele><time>2026-04-17T09:32:28.085Z</time></trkpt><trkpt lat="44.30609" lon="11.42708"><ele>501.33333333333337</ele><time>2026-04-17T09:32:29.085Z</time></trkpt><trkpt lat="44.30602" lon="11.4270017"><ele>502.6666666666667</ele><time>2026-04-17T09:32:30.085Z</time></trkpt><trkpt lat="44.3059617" lon="11.4269283"><ele>504.0</ele><time>2026-04-17T09:32:31.085Z</time></trkpt><trkpt lat="44.3059067" lon="11.4268633"><ele>504.1666666666667</ele><time>2026-04-17T09:32:32.084Z</time></trkpt><trkpt lat="44.30585" lon="11.4268133"><ele>504.33333333333337</ele><time>2026-04-17T09:32:33.084Z</time></trkpt><trkpt lat="44.3057767" lon="11.4267667"><ele>504.5</ele><time>2026-04-17T09:32:34.084Z</time></trkpt><trkpt lat="44.3057017" lon="11.42672"><ele>504.6666666666667</ele><time>2026-04-17T09:32:35.085Z</time></trkpt><trkpt lat="44.305625" lon="11.4266883"><ele>504.83333333333337</ele><time>2026-04-17T09:32:36.085Z</time></trkpt><trkpt lat="44.3055367" lon="11.426675"><ele>505.0</ele><time>2026-04-17T09:32:37.084Z</time></trkpt><trkpt lat="44.3054433" lon="11.4266667"><ele>506.8</ele><time>2026-04-17T09:32:38.085Z</time></trkpt><trkpt lat="44.30534" lon="11.426655"><ele>508.6</ele><time>2026-04-17T09:32:39.084Z</time></trkpt><trkpt lat="44.3052367" lon="11.42664"><ele>510.4</ele><time>2026-04-17T09:32:40.085Z</time></trkpt><trkpt lat="44.3051333" lon="11.4266283"><ele>512.2</ele><time>2026-04-17T09:32:41.084Z</time></trkpt><trkpt lat="44.3050333" lon="11.4266083"><ele>514.0</ele><time>2026-04-17T09:32:42.084Z</time></trkpt><trkpt lat="44.304935" lon="11.4265767"><ele>514.0</ele><time>2026-04-17T09:32:43.084Z</time></trkpt><trkpt lat="44.304845" lon="11.4265317"><ele>514.0</ele><time>2026-04-17T09:32:44.084Z</time></trkpt><trkpt lat="44.3047633" lon="11.4264667"><ele>514.0</ele><time>2026-04-17T09:32:45.085Z</time></trkpt><trkpt lat="44.30469" lon="11.426395"><ele>514.0</ele><time>2026-04-17T09:32:46.085Z</time></trkpt><trkpt lat="44.3046217" lon="11.4263133"><ele>514.0</ele><time>2026-04-17T09:32:47.084Z</time></trkpt><trkpt lat="44.3045667" lon="11.4262417"><ele>514.0</ele><time>2026-04-17T09:32:48.085Z</time></trkpt><trkpt lat="44.3045083" lon="11.4261967"><ele>514.0</ele><time>2026-04-17T09:32:49.084Z</time></trkpt><trkpt lat="44.3044467" lon="11.4261733"><ele>514.0</ele><time>2026-04-17T09:32:50.084Z</time></trkpt><trkpt lat="44.3043817" lon="11.4261683"><ele>514.0</ele><time>2026-04-17T09:32:51.084Z</time></trkpt><trkpt lat="44.3043083" lon="11.4261617"><ele>514.0</ele><time>2026-04-17T09:32:52.084Z</time></trkpt><trkpt lat="44.3042317" lon="11.4261417"><ele>514.0</ele><time>2026-04-17T09:32:53.085Z</time></trkpt><trkpt lat="44.3041517" lon="11.4261167"><ele>514.0</ele><time>2026-04-17T09:32:54.084Z</time></trkpt><trkpt lat="44.3040733" lon="11.4260917"><ele>514.0</ele><time>2026-04-17T09:32:55.084Z</time></trkpt><trkpt lat="44.3040033" lon="11.426065"><ele>514.0</ele><time>2026-04-17T09:32:56.084Z</time></trkpt><trkpt lat="44.30394" lon="11.4260383"><ele>514.0</ele><time>2026-04-17T09:32:57.084Z</time></trkpt><trkpt lat="44.303825" lon="11.4260083"><ele>514.0</ele><time>2026-04-17T09:32:59.085Z</time></trkpt><trkpt lat="44.3037" lon="11.4260317"><ele>514.0</ele><time>2026-04-17T09:33:01.084Z</time></trkpt><trkpt lat="44.3036317" lon="11.4260467"><ele>514.0</ele><time>2026-04-17T09:33:02.084Z</time></trkpt><trkpt lat="44.3035633" lon="11.4260583"><ele>514.0</ele><time>2026-04-17T09:33:03.085Z</time></trkpt><trkpt lat="44.3035" lon="11.4260683"><ele>512.0</ele><time>2026-04-17T09:33:04.084Z</time></trkpt><trkpt lat="44.303375" lon="11.42609"><ele>510.0</ele><time>2026-04-17T09:33:06.084Z</time></trkpt><trkpt lat="44.3033117" lon="11.4260917"><ele>508.0</ele><time>2026-04-17T09:33:07.085Z</time></trkpt><trkpt lat="44.3032117" lon="11.42606"><ele>506.0</ele><time>2026-04-17T09:33:09.084Z</time></trkpt><trkpt lat="44.3031183" lon="11.4259483"><ele>504.0</ele><time>2026-04-17T09:33:11.084Z</time></trkpt><trkpt lat="44.303075" lon="11.425875"><ele>501.1666666666667</ele><time>2026-04-17T09:33:12.084Z</time></trkpt><trkpt lat="44.303025" lon="11.4258083"><ele>498.33333333333337</ele><time>2026-04-17T09:33:13.085Z</time></trkpt><trkpt lat="44.3029667" lon="11.4257483"><ele>495.5</ele><time>2026-04-17T09:33:14.085Z</time></trkpt><trkpt lat="44.3029033" lon="11.4256967"><ele>492.6666666666667</ele><time>2026-04-17T09:33:15.084Z</time></trkpt><trkpt lat="44.3028017" lon="11.4256033"><ele>489.83333333333337</ele><time>2026-04-17T09:33:17.085Z</time></trkpt><trkpt lat="44.3027167" lon="11.4255183"><ele>487.0</ele><time>2026-04-17T09:33:19.084Z</time></trkpt><trkpt lat="44.3026283" lon="11.4254833"><ele>486.6</ele><time>2026-04-17T09:33:21.085Z</time></trkpt><trkpt lat="44.302535" lon="11.4254283"><ele>486.20000000000005</ele><time>2026-04-17T09:33:23.084Z</time></trkpt><trkpt lat="44.302435" lon="11.425355"><ele>485.8</ele><time>2026-04-17T09:33:25.084Z</time></trkpt><trkpt lat="44.3023117" lon="11.4253267"><ele>485.4</ele><time>2026-04-17T09:33:27.085Z</time></trkpt><trkpt lat="44.30224" lon="11.4253067"><ele>485.0</ele><time>2026-04-17T09:33:28.084Z</time></trkpt><trkpt lat="44.3021633" lon="11.42528"><ele>485.00000000000006</ele><time>2026-04-17T09:33:29.085Z</time></trkpt><trkpt lat="44.3020833" lon="11.42525"><ele>485.0</ele><time>2026-04-17T09:33:30.085Z</time></trkpt><trkpt lat="44.3020033" lon="11.4252283"><ele>485.00000000000006</ele><time>2026-04-17T09:33:31.084Z</time></trkpt><trkpt lat="44.3019267" lon="11.425205"><ele>485.00000000000006</ele><time>2026-04-17T09:33:32.084Z</time></trkpt><trkpt lat="44.3018517" lon="11.425195"><ele>485.0</ele><time>2026-04-17T09:33:33.084Z</time></trkpt><trkpt lat="44.30179" lon="11.4251767"><ele>485.00000000000006</ele><time>2026-04-17T09:33:34.085Z</time></trkpt><trkpt lat="44.301725" lon="11.4251533"><ele>485.00000000000006</ele><time>2026-04-17T09:33:35.085Z</time></trkpt><trkpt lat="44.3016583" lon="11.42513"><ele>484.99999999999994</ele><time>2026-04-17T09:33:36.085Z</time></trkpt><trkpt lat="44.3015817" lon="11.4251117"><ele>485.0</ele><time>2026-04-17T09:33:37.085Z</time></trkpt><trkpt lat="44.30151" lon="11.425105"><ele>485.0</ele><time>2026-04-17T09:33:38.084Z</time></trkpt><trkpt lat="44.3014417" lon="11.425115"><ele>485.0</ele><time>2026-04-17T09:33:39.084Z</time></trkpt><trkpt lat="44.3013283" lon="11.42516"><ele>484.99999999999994</ele><time>2026-04-17T09:33:41.084Z</time></trkpt><trkpt lat="44.3012283" lon="11.425215"><ele>485.0</ele><time>2026-04-17T09:33:43.084Z</time></trkpt><trkpt lat="44.3011367" lon="11.42526"><ele>482.3333333333333</ele><time>2026-04-17T09:33:45.084Z</time></trkpt><trkpt lat="44.3010433" lon="11.4252517"><ele>479.66666666666663</ele><time>2026-04-17T09:33:47.084Z</time></trkpt><trkpt lat="44.30094" lon="11.4252167"><ele>477.0</ele><time>2026-04-17T09:33:49.084Z</time></trkpt><trkpt lat="44.3008717" lon="11.4252083"><ele>474.33333333333337</ele><time>2026-04-17T09:33:50.084Z</time></trkpt><trkpt lat="44.3007933" lon="11.4252"><ele>471.6666666666667</ele><time>2026-04-17T09:33:51.084Z</time></trkpt><trkpt lat="44.3007083" lon="11.42519"><ele>469.0</ele><time>2026-04-17T09:33:52.085Z</time></trkpt><trkpt lat="44.300615" lon="11.4251717"><ele>466.83333333333337</ele><time>2026-04-17T09:33:53.084Z</time></trkpt><trkpt lat="44.3005283" lon="11.425155"><ele>464.6666666666667</ele><time>2026-04-17T09:33:54.084Z</time></trkpt><trkpt lat="44.3004467" lon="11.42513"><ele>462.5</ele><time>2026-04-17T09:33:55.085Z</time></trkpt><trkpt lat="44.3003583" lon="11.425105"><ele>460.33333333333337</ele><time>2026-04-17T09:33:56.084Z</time></trkpt><trkpt lat="44.3002833" lon="11.425075"><ele>458.1666666666667</ele><time>2026-04-17T09:33:57.085Z</time></trkpt><trkpt lat="44.3002033" lon="11.4250467"><ele>456.0</ele><time>2026-04-17T09:33:58.084Z</time></trkpt><trkpt lat="44.3001317" lon="11.4250117"><ele>456.0</ele><time>2026-04-17T09:33:59.084Z</time></trkpt><trkpt lat="44.3000569" lon="11.4249849"><ele>456.0</ele><time>2026-04-17T09:34:00.084Z</time></trkpt><trkpt lat="44.2999874" lon="11.4249606"><ele>456.0</ele><time>2026-04-17T09:34:01.084Z</time></trkpt><trkpt lat="44.2999237" lon="11.4249426"><ele>456.0</ele><time>2026-04-17T09:34:02.085Z</time></trkpt><trkpt lat="44.299818" lon="11.4249121"><ele>456.0</ele><time>2026-04-17T09:34:04.084Z</time></trkpt><trkpt lat="44.2997043" lon="11.424863"><ele>456.0</ele><time>2026-04-17T09:34:06.085Z</time></trkpt><trkpt lat="44.2996199" lon="11.4248353"><ele>457.3333333333333</ele><time>2026-04-17T09:34:07.084Z</time></trkpt><trkpt lat="44.2995237" lon="11.4248165"><ele>458.66666666666663</ele><time>2026-04-17T09:34:08.084Z</time></trkpt><trkpt lat="44.299438" lon="11.424808"><ele>460.0</ele><time>2026-04-17T09:34:09.084Z</time></trkpt><trkpt lat="44.2993584" lon="11.4247978"><ele>461.3333333333333</ele><time>2026-04-17T09:34:10.084Z</time></trkpt><trkpt lat="44.2992861" lon="11.4247945"><ele>462.66666666666663</ele><time>2026-04-17T09:34:11.084Z</time></trkpt><trkpt lat="44.2992121" lon="11.4247961"><ele>464.0</ele><time>2026-04-17T09:34:12.084Z</time></trkpt><trkpt lat="44.2991317" lon="11.4248005"><ele>463.99999999999994</ele><time>2026-04-17T09:34:13.084Z</time></trkpt><trkpt lat="44.299048" lon="11.4248105"><ele>464.0</ele><time>2026-04-17T09:34:14.084Z</time></trkpt><trkpt lat="44.2989666" lon="11.4248135"><ele>464.0</ele><time>2026-04-17T09:34:15.084Z</time></trkpt><trkpt lat="44.2988892" lon="11.4248123"><ele>464.0</ele><time>2026-04-17T09:34:16.084Z</time></trkpt><trkpt lat="44.2988054" lon="11.4248003"><ele>463.99999999999994</ele><time>2026-04-17T09:34:17.084Z</time></trkpt><trkpt lat="44.2987264" lon="11.4247852"><ele>464.0</ele><time>2026-04-17T09:34:18.084Z</time></trkpt><trkpt lat="44.2986468" lon="11.4247699"><ele>463.99999999999994</ele><time>2026-04-17T09:34:19.085Z</time></trkpt><trkpt lat="44.2985673" lon="11.4247541"><ele>464.0</ele><time>2026-04-17T09:34:20.085Z</time></trkpt><trkpt lat="44.2984915" lon="11.4247356"><ele>464.0</ele><time>2026-04-17T09:34:21.084Z</time></trkpt><trkpt lat="44.2984228" lon="11.4247224"><ele>464.0</ele><time>2026-04-17T09:34:22.085Z</time></trkpt><trkpt lat="44.2983552" lon="11.4247127"><ele>463.99999999999994</ele><time>2026-04-17T09:34:23.085Z</time></trkpt><trkpt lat="44.2982917" lon="11.4247094"><ele>464.0</ele><time>2026-04-17T09:34:24.084Z</time></trkpt><trkpt lat="44.2981708" lon="11.4246975"><ele>466.5</ele><time>2026-04-17T09:34:26.085Z</time></trkpt><trkpt lat="44.2980579" lon="11.4246785"><ele>469.0</ele><time>2026-04-17T09:34:28.085Z</time></trkpt><trkpt lat="44.2979405" lon="11.4247005"><ele>471.5</ele><time>2026-04-17T09:34:30.085Z</time></trkpt><trkpt lat="44.2978336" lon="11.4247641"><ele>474.0</ele><time>2026-04-17T09:34:32.085Z</time></trkpt><trkpt lat="44.2977428" lon="11.4248401"><ele>474.0</ele><time>2026-04-17T09:34:34.084Z</time></trkpt><trkpt lat="44.2976339" lon="11.4249378"><ele>474.0</ele><time>2026-04-17T09:34:36.084Z</time></trkpt><trkpt lat="44.2975723" lon="11.4249802"><ele>474.0</ele><time>2026-04-17T09:34:37.085Z</time></trkpt><trkpt lat="44.2975078" lon="11.4250033"><ele>474.0</ele><time>2026-04-17T09:34:38.084Z</time></trkpt><trkpt lat="44.2973829" lon="11.4249831"><ele>474.0</ele><time>2026-04-17T09:34:40.085Z</time></trkpt><trkpt lat="44.2972783" lon="11.4249487"><ele>473.1666666666667</ele><time>2026-04-17T09:34:42.084Z</time></trkpt><trkpt lat="44.2972086" lon="11.4249563"><ele>472.33333333333337</ele><time>2026-04-17T09:34:44.084Z</time></trkpt><trkpt lat="44.2971448" lon="11.4250072"><ele>471.5</ele><time>2026-04-17T09:34:46.085Z</time></trkpt><trkpt lat="44.297106" lon="11.4251319"><ele>470.6666666666667</ele><time>2026-04-17T09:34:48.084Z</time></trkpt><trkpt lat="44.2971019" lon="11.4252319"><ele>469.83333333333337</ele><time>2026-04-17T09:34:49.084Z</time></trkpt><trkpt lat="44.2970924" lon="11.4253479"><ele>469.0</ele><time>2026-04-17T09:34:50.085Z</time></trkpt><trkpt lat="44.2970707" lon="11.4254518"><ele>470.83333333333337</ele><time>2026-04-17T09:34:51.084Z</time></trkpt><trkpt lat="44.297039" lon="11.4255347"><ele>472.6666666666667</ele><time>2026-04-17T09:34:52.084Z</time></trkpt><trkpt lat="44.2969605" lon="11.425666"><ele>474.5</ele><time>2026-04-17T09:34:54.085Z</time></trkpt><trkpt lat="44.2969101" lon="11.4257198"><ele>476.33333333333337</ele><time>2026-04-17T09:34:55.084Z</time></trkpt><trkpt lat="44.2967925" lon="11.4257853"><ele>478.1666666666667</ele><time>2026-04-17T09:34:57.084Z</time></trkpt><trkpt lat="44.2967265" lon="11.425807"><ele>480.0</ele><time>2026-04-17T09:34:58.084Z</time></trkpt><trkpt lat="44.2966539" lon="11.4258301"><ele>480.0</ele><time>2026-04-17T09:34:59.085Z</time></trkpt><trkpt lat="44.2965769" lon="11.4258552"><ele>480.0</ele><time>2026-04-17T09:35:00.084Z</time></trkpt><trkpt lat="44.2964992" lon="11.425883"><ele>480.0</ele><time>2026-04-17T09:35:01.084Z</time></trkpt><trkpt lat="44.2964175" lon="11.4259055"><ele>480.0</ele><time>2026-04-17T09:35:02.084Z</time></trkpt><trkpt lat="44.2963326" lon="11.4259278"><ele>480.0</ele><time>2026-04-17T09:35:03.084Z</time></trkpt><trkpt lat="44.2962523" lon="11.4259418"><ele>480.0</ele><time>2026-04-17T09:35:04.084Z</time></trkpt><trkpt lat="44.2961783" lon="11.4259507"><ele>481.0</ele><time>2026-04-17T09:35:05.084Z</time></trkpt><trkpt lat="44.2961131" lon="11.4259562"><ele>482.0</ele><time>2026-04-17T09:35:06.085Z</time></trkpt><trkpt lat="44.2960236" lon="11.4259573"><ele>483.0</ele><time>2026-04-17T09:35:08.085Z</time></trkpt><trkpt lat="44.295935" lon="11.425955"><ele>484.0</ele><time>2026-04-17T09:48:25.08Z</time></trkpt><trkpt lat="44.2958083" lon="11.426"><ele>485.0</ele><time>2026-04-17T09:48:27.08Z</time></trkpt><trkpt lat="44.2957283" lon="11.4260267"><ele>485.00000000000006</ele><time>2026-04-17T09:48:28.08Z</time></trkpt><trkpt lat="44.2956533" lon="11.4260467"><ele>485.0</ele><time>2026-04-17T09:48:29.081Z</time></trkpt><trkpt lat="44.29558" lon="11.4260717"><ele>485.00000000000006</ele><time>2026-04-17T09:48:30.08Z</time></trkpt><trkpt lat="44.2955067" lon="11.4260983"><ele>485.00000000000006</ele><time>2026-04-17T09:48:31.08Z</time></trkpt><trkpt lat="44.2954333" lon="11.4261233"><ele>485.0</ele><time>2026-04-17T09:48:32.081Z</time></trkpt><trkpt lat="44.29537" lon="11.4261417"><ele>485.00000000000006</ele><time>2026-04-17T09:48:33.08Z</time></trkpt><trkpt lat="44.2953" lon="11.42615"><ele>485.00000000000006</ele><time>2026-04-17T09:48:34.08Z</time></trkpt><trkpt lat="44.2952233" lon="11.4261467"><ele>486.3333333333333</ele><time>2026-04-17T09:48:35.08Z</time></trkpt><trkpt lat="44.295145" lon="11.4261333"><ele>487.66666666666663</ele><time>2026-04-17T09:48:36.08Z</time></trkpt><trkpt lat="44.29507" lon="11.4261317"><ele>489.0</ele><time>2026-04-17T09:48:37.08Z</time></trkpt><trkpt lat="44.2950067" lon="11.4261267"><ele>490.33333333333337</ele><time>2026-04-17T09:48:38.081Z</time></trkpt><trkpt lat="44.294885" lon="11.426165"><ele>491.6666666666667</ele><time>2026-04-17T09:48:40.08Z</time></trkpt><trkpt lat="44.2948167" lon="11.4262117"><ele>493.0</ele><time>2026-04-17T09:48:41.08Z</time></trkpt><trkpt lat="44.294745" lon="11.4262433"><ele>494.4</ele><time>2026-04-17T09:48:42.08Z</time></trkpt><trkpt lat="44.2946233" lon="11.4262683"><ele>495.79999999999995</ele><time>2026-04-17T09:48:44.08Z</time></trkpt><trkpt lat="44.2945217" lon="11.4262983"><ele>497.2</ele><time>2026-04-17T09:48:46.081Z</time></trkpt><trkpt lat="44.2944483" lon="11.42641"><ele>498.6</ele><time>2026-04-17T09:48:48.08Z</time></trkpt><trkpt lat="44.29442" lon="11.426505"><ele>500.0</ele><time>2026-04-17T09:48:49.08Z</time></trkpt><trkpt lat="44.2943883" lon="11.4266183"><ele>499.99999999999994</ele><time>2026-04-17T09:48:50.08Z</time></trkpt><trkpt lat="44.2943583" lon="11.4267317"><ele>500.0</ele><time>2026-04-17T09:48:51.08Z</time></trkpt><trkpt lat="44.29432" lon="11.4268333"><ele>500.0</ele><time>2026-04-17T09:48:52.08Z</time></trkpt><trkpt lat="44.2942867" lon="11.4269467"><ele>500.0</ele><time>2026-04-17T09:48:53.081Z</time></trkpt><trkpt lat="44.2942567" lon="11.4270683"><ele>499.99999999999994</ele><time>2026-04-17T09:48:54.08Z</time></trkpt><trkpt lat="44.29423" lon="11.4271767"><ele>500.0</ele><time>2026-04-17T09:48:55.08Z</time></trkpt><trkpt lat="44.2942" lon="11.42728"><ele>499.71428571428567</ele><time>2026-04-17T09:48:56.08Z</time></trkpt><trkpt lat="44.29416" lon="11.4273733"><ele>499.42857142857144</ele><time>2026-04-17T09:48:57.08Z</time></trkpt><trkpt lat="44.29411" lon="11.4274433"><ele>499.1428571428571</ele><time>2026-04-17T09:48:58.081Z</time></trkpt><trkpt lat="44.2940517" lon="11.4275"><ele>498.85714285714283</ele><time>2026-04-17T09:48:59.081Z</time></trkpt><trkpt lat="44.2939933" lon="11.4275517"><ele>498.57142857142856</ele><time>2026-04-17T09:49:00.08Z</time></trkpt><trkpt lat="44.2939317" lon="11.4276083"><ele>498.2857142857143</ele><time>2026-04-17T09:49:01.081Z</time></trkpt><trkpt lat="44.2938583" lon="11.4276683"><ele>498.0</ele><time>2026-04-17T09:49:02.08Z</time></trkpt><trkpt lat="44.2937817" lon="11.42773"><ele>497.3333333333333</ele><time>2026-04-17T09:49:03.081Z</time></trkpt><trkpt lat="44.2937067" lon="11.427785"><ele>496.66666666666663</ele><time>2026-04-17T09:49:04.08Z</time></trkpt><trkpt lat="44.29363" lon="11.4278367"><ele>496.0</ele><time>2026-04-17T09:49:05.08Z</time></trkpt><trkpt lat="44.2935483" lon="11.4278867"><ele>495.3333333333333</ele><time>2026-04-17T09:49:06.08Z</time></trkpt><trkpt lat="44.2934717" lon="11.427945"><ele>494.66666666666663</ele><time>2026-04-17T09:49:07.08Z</time></trkpt><trkpt lat="44.2933933" lon="11.4279883"><ele>494.0</ele><time>2026-04-17T09:49:08.08Z</time></trkpt><trkpt lat="44.2933217" lon="11.4280383"><ele>494.0</ele><time>2026-04-17T09:49:09.08Z</time></trkpt><trkpt lat="44.2932533" lon="11.428085"><ele>494.0</ele><time>2026-04-17T09:49:10.081Z</time></trkpt><trkpt lat="44.2931833" lon="11.42812"><ele>494.0</ele><time>2026-04-17T09:49:11.08Z</time></trkpt><trkpt lat="44.29307" lon="11.4281633"><ele>494.0</ele><time>2026-04-17T09:49:13.081Z</time></trkpt><trkpt lat="44.2929588" lon="11.42818"><ele>494.0</ele><time>2026-04-17T09:49:15.08Z</time></trkpt><trkpt lat="44.2928445" lon="11.4281689"><ele>492.2</ele><time>2026-04-17T09:49:17.081Z</time></trkpt><trkpt lat="44.2927232" lon="11.4281358"><ele>490.4</ele><time>2026-04-17T09:49:19.081Z</time></trkpt><trkpt lat="44.2926179" lon="11.4281038"><ele>488.6</ele><time>2026-04-17T09:49:21.081Z</time></trkpt><trkpt lat="44.2925057" lon="11.4280629"><ele>486.8</ele><time>2026-04-17T09:49:23.08Z</time></trkpt><trkpt lat="44.29244" lon="11.4280333"><ele>485.0</ele><time>2026-04-17T09:49:24.081Z</time></trkpt><trkpt lat="44.2923717" lon="11.4280067"><ele>485.57142857142867</ele><time>2026-04-17T09:49:25.08Z</time></trkpt><trkpt lat="44.2923083" lon="11.42796"><ele>486.14285714285717</ele><time>2026-04-17T09:49:26.08Z</time></trkpt><trkpt lat="44.2922467" lon="11.427895"><ele>486.7142857142858</ele><time>2026-04-17T09:49:27.08Z</time></trkpt><trkpt lat="44.292195" lon="11.4278167"><ele>487.28571428571433</ele><time>2026-04-17T09:49:28.08Z</time></trkpt><trkpt lat="44.2921477" lon="11.4277568"><ele>487.8571428571429</ele><time>2026-04-17T09:49:29.08Z</time></trkpt><trkpt lat="44.2920993" lon="11.4276628"><ele>488.42857142857144</ele><time>2026-04-17T09:49:30.08Z</time></trkpt><trkpt lat="44.2920559" lon="11.4275782"><ele>489.0</ele><time>2026-04-17T09:49:31.081Z</time></trkpt><trkpt lat="44.2920061" lon="11.427503"><ele>489.0</ele><time>2026-04-17T09:49:32.08Z</time></trkpt><trkpt lat="44.2919561" lon="11.4274376"><ele>489.00000000000006</ele><time>2026-04-17T09:49:33.081Z</time></trkpt><trkpt lat="44.2919" lon="11.4273781"><ele>489.0</ele><time>2026-04-17T09:49:34.08Z</time></trkpt><trkpt lat="44.2918335" lon="11.4273252"><ele>489.0</ele><time>2026-04-17T09:49:35.081Z</time></trkpt><trkpt lat="44.2917597" lon="11.4272823"><ele>489.00000000000006</ele><time>2026-04-17T09:49:36.081Z</time></trkpt><trkpt lat="44.2916895" lon="11.4272526"><ele>489.0</ele><time>2026-04-17T09:49:37.08Z</time></trkpt><trkpt lat="44.2916237" lon="11.4272374"><ele>489.0</ele><time>2026-04-17T09:49:38.08Z</time></trkpt><trkpt lat="44.2915033" lon="11.4272433"><ele>489.0</ele><time>2026-04-17T09:49:40.08Z</time></trkpt><trkpt lat="44.2914317" lon="11.4272567"><ele>489.00000000000006</ele><time>2026-04-17T09:49:41.081Z</time></trkpt><trkpt lat="44.2913617" lon="11.427285"><ele>489.0</ele><time>2026-04-17T09:49:42.08Z</time></trkpt><trkpt lat="44.2912983" lon="11.427325"><ele>489.0</ele><time>2026-04-17T09:49:43.08Z</time></trkpt><trkpt lat="44.2912383" lon="11.4273633"><ele>489.00000000000006</ele><time>2026-04-17T09:49:44.08Z</time></trkpt><trkpt lat="44.29119" lon="11.42742"><ele>489.0</ele><time>2026-04-17T09:49:45.08Z</time></trkpt><trkpt lat="44.2911467" lon="11.427505"><ele>489.0</ele><time>2026-04-17T09:49:46.08Z</time></trkpt><trkpt lat="44.2910967" lon="11.4276033"><ele>489.6</ele><time>2026-04-17T09:49:47.08Z</time></trkpt><trkpt lat="44.29104" lon="11.4276783"><ele>490.2</ele><time>2026-04-17T09:49:48.08Z</time></trkpt><trkpt lat="44.290985" lon="11.4277367"><ele>490.80000000000007</ele><time>2026-04-17T09:49:49.081Z</time></trkpt><trkpt lat="44.2908667" lon="11.427785"><ele>491.40000000000003</ele><time>2026-04-17T09:49:51.08Z</time></trkpt><trkpt lat="44.2907467" lon="11.4277267"><ele>492.0</ele><time>2026-04-17T09:49:53.08Z</time></trkpt><trkpt lat="44.290695" lon="11.4276717"><ele>492.0</ele><time>2026-04-17T09:49:54.08Z</time></trkpt><trkpt lat="44.290605" lon="11.4275833"><ele>492.00000000000006</ele><time>2026-04-17T09:49:56.08Z</time></trkpt><trkpt lat="44.2904917" lon="11.4275417"><ele>492.00000000000006</ele><time>2026-04-17T09:49:58.081Z</time></trkpt><trkpt lat="44.2904283" lon="11.427545"><ele>492.0</ele><time>2026-04-17T09:49:59.08Z</time></trkpt><trkpt lat="44.2903117" lon="11.4276067"><ele>492.0</ele><time>2026-04-17T09:50:01.081Z</time></trkpt><trkpt lat="44.2902567" lon="11.4276683"><ele>491.1666666666667</ele><time>2026-04-17T09:50:02.081Z</time></trkpt><trkpt lat="44.2902017" lon="11.4277517"><ele>490.33333333333337</ele><time>2026-04-17T09:50:03.08Z</time></trkpt><trkpt lat="44.290145" lon="11.4278433"><ele>489.5</ele><time>2026-04-17T09:50:04.08Z</time></trkpt><trkpt lat="44.2900833" lon="11.4279183"><ele>488.6666666666667</ele><time>2026-04-17T09:50:05.08Z</time></trkpt><trkpt lat="44.2900267" lon="11.4279733"><ele>487.83333333333337</ele><time>2026-04-17T09:50:06.08Z</time></trkpt><trkpt lat="44.2899567" lon="11.4280133"><ele>487.0</ele><time>2026-04-17T09:50:07.08Z</time></trkpt><trkpt lat="44.2898917" lon="11.42803"><ele>487.00000000000006</ele><time>2026-04-17T09:50:08.08Z</time></trkpt><trkpt lat="44.2898267" lon="11.4280383"><ele>487.0</ele><time>2026-04-17T09:50:09.08Z</time></trkpt><trkpt lat="44.289705" lon="11.4280733"><ele>487.0</ele><time>2026-04-17T09:50:11.081Z</time></trkpt><trkpt lat="44.2896383" lon="11.4281033"><ele>487.0</ele><time>2026-04-17T09:50:12.081Z</time></trkpt><trkpt lat="44.2895617" lon="11.4281317"><ele>487.00000000000006</ele><time>2026-04-17T09:50:13.081Z</time></trkpt><trkpt lat="44.2894783" lon="11.4281567"><ele>487.0</ele><time>2026-04-17T09:50:14.081Z</time></trkpt><trkpt lat="44.2894067" lon="11.42816"><ele>488.1666666666667</ele><time>2026-04-17T09:50:15.08Z</time></trkpt><trkpt lat="44.2893333" lon="11.42813"><ele>489.33333333333337</ele><time>2026-04-17T09:50:16.081Z</time></trkpt><trkpt lat="44.2892583" lon="11.428085"><ele>490.5</ele><time>2026-04-17T09:50:17.08Z</time></trkpt><trkpt lat="44.28918" lon="11.4280383"><ele>491.66666666666663</ele><time>2026-04-17T09:50:18.08Z</time></trkpt><trkpt lat="44.2891117" lon="11.42799"><ele>492.8333333333333</ele><time>2026-04-17T09:50:19.081Z</time></trkpt><trkpt lat="44.289045" lon="11.427955"><ele>494.0</ele><time>2026-04-17T09:50:20.08Z</time></trkpt><trkpt lat="44.2889767" lon="11.4279467"><ele>493.75</ele><time>2026-04-17T09:50:21.08Z</time></trkpt><trkpt lat="44.2888683" lon="11.42791"><ele>493.5</ele><time>2026-04-17T09:50:23.08Z</time></trkpt><trkpt lat="44.2887983" lon="11.4278033"><ele>493.25</ele><time>2026-04-17T09:50:25.08Z</time></trkpt><trkpt lat="44.2887733" lon="11.4276333"><ele>493.0</ele><time>2026-04-17T09:50:27.08Z</time></trkpt><trkpt lat="44.2887383" lon="11.4274833"><ele>493.0</ele><time>2026-04-17T09:50:29.08Z</time></trkpt><trkpt lat="44.288705" lon="11.4273517"><ele>492.99999999999994</ele><time>2026-04-17T09:50:31.08Z</time></trkpt><trkpt lat="44.288665" lon="11.4272333"><ele>492.99999999999994</ele><time>2026-04-17T09:50:33.08Z</time></trkpt><trkpt lat="44.2885667" lon="11.4271167"><ele>493.0</ele><time>2026-04-17T09:50:35.081Z</time></trkpt><trkpt lat="44.28851" lon="11.427055"><ele>493.0</ele><time>2026-04-17T09:50:36.08Z</time></trkpt><trkpt lat="44.2884533" lon="11.4269917"><ele>494.83333333333337</ele><time>2026-04-17T09:50:37.081Z</time></trkpt><trkpt lat="44.2883867" lon="11.4269283"><ele>496.6666666666667</ele><time>2026-04-17T09:50:38.08Z</time></trkpt><trkpt lat="44.2883233" lon="11.4268583"><ele>498.5</ele><time>2026-04-17T09:50:39.08Z</time></trkpt><trkpt lat="44.2882683" lon="11.4268033"><ele>500.33333333333337</ele><time>2026-04-17T09:50:40.08Z</time></trkpt><trkpt lat="44.2881567" lon="11.42673"><ele>502.1666666666667</ele><time>2026-04-17T09:50:42.08Z</time></trkpt><trkpt lat="44.28809" lon="11.42671"><ele>504.0</ele><time>2026-04-17T09:50:43.08Z</time></trkpt><trkpt lat="44.288015" lon="11.426695"><ele>504.1666666666667</ele><time>2026-04-17T09:50:44.081Z</time></trkpt><trkpt lat="44.28794" lon="11.4266867"><ele>504.33333333333337</ele><time>2026-04-17T09:50:45.08Z</time></trkpt><trkpt lat="44.28787" lon="11.4266717"><ele>504.5</ele><time>2026-04-17T09:50:46.081Z</time></trkpt><trkpt lat="44.28775" lon="11.4266517"><ele>504.6666666666667</ele><time>2026-04-17T09:50:48.081Z</time></trkpt><trkpt lat="44.28768" lon="11.4266567"><ele>504.83333333333337</ele><time>2026-04-17T09:50:49.08Z</time></trkpt><trkpt lat="44.2876033" lon="11.426675"><ele>505.0</ele><time>2026-04-17T09:50:50.08Z</time></trkpt><trkpt lat="44.287535" lon="11.4267067"><ele>505.00000000000006</ele><time>2026-04-17T09:50:51.08Z</time></trkpt><trkpt lat="44.2874683" lon="11.4267483"><ele>505.0</ele><time>2026-04-17T09:50:52.081Z</time></trkpt><trkpt lat="44.287405" lon="11.42679"><ele>505.0</ele><time>2026-04-17T09:50:53.081Z</time></trkpt><trkpt lat="44.2872817" lon="11.426835"><ele>505.0</ele><time>2026-04-17T09:50:55.081Z</time></trkpt><trkpt lat="44.2872133" lon="11.4268283"><ele>505.00000000000006</ele><time>2026-04-17T09:50:56.08Z</time></trkpt><trkpt lat="44.2871483" lon="11.4268133"><ele>505.0</ele><time>2026-04-17T09:50:57.08Z</time></trkpt><trkpt lat="44.2870717" lon="11.42678"><ele>503.83333333333337</ele><time>2026-04-17T09:50:58.08Z</time></trkpt><trkpt lat="44.2869917" lon="11.42674"><ele>502.6666666666667</ele><time>2026-04-17T09:50:59.081Z</time></trkpt><trkpt lat="44.2869217" lon="11.426675"><ele>501.5</ele><time>2026-04-17T09:51:00.081Z</time></trkpt><trkpt lat="44.28687" lon="11.426605"><ele>500.33333333333337</ele><time>2026-04-17T09:51:01.08Z</time></trkpt><trkpt lat="44.2868133" lon="11.4265083"><ele>499.1666666666667</ele><time>2026-04-17T09:51:02.08Z</time></trkpt><trkpt lat="44.2867567" lon="11.4264217"><ele>498.0</ele><time>2026-04-17T09:51:03.08Z</time></trkpt><trkpt lat="44.28671" lon="11.4263467"><ele>500.3333333333333</ele><time>2026-04-17T09:51:04.08Z</time></trkpt><trkpt lat="44.2866583" lon="11.4262767"><ele>502.66666666666663</ele><time>2026-04-17T09:51:05.081Z</time></trkpt><trkpt lat="44.2865883" lon="11.426225"><ele>505.0</ele><time>2026-04-17T09:51:06.08Z</time></trkpt><trkpt lat="44.286525" lon="11.4261767"><ele>507.3333333333333</ele><time>2026-04-17T09:51:07.08Z</time></trkpt><trkpt lat="44.286465" lon="11.426145"><ele>509.66666666666663</ele><time>2026-04-17T09:51:08.08Z</time></trkpt><trkpt lat="44.286345" lon="11.4261167"><ele>512.0</ele><time>2026-04-17T09:51:10.08Z</time></trkpt><trkpt lat="44.2862733" lon="11.4261133"><ele>511.99999999999994</ele><time>2026-04-17T09:51:11.08Z</time></trkpt><trkpt lat="44.2861967" lon="11.42612"><ele>512.0</ele><time>2026-04-17T09:51:12.08Z</time></trkpt><trkpt lat="44.2861167" lon="11.4261267"><ele>512.0</ele><time>2026-04-17T09:51:13.081Z</time></trkpt><trkpt lat="44.28603" lon="11.426125"><ele>512.0</ele><time>2026-04-17T09:51:14.081Z</time></trkpt><trkpt lat="44.2859433" lon="11.4261"><ele>511.99999999999994</ele><time>2026-04-17T09:51:15.08Z</time></trkpt><trkpt lat="44.2858567" lon="11.42607"><ele>512.0</ele><time>2026-04-17T09:51:16.08Z</time></trkpt><trkpt lat="44.2857717" lon="11.426045"><ele>511.99999999999994</ele><time>2026-04-17T09:51:17.08Z</time></trkpt><trkpt lat="44.2856983" lon="11.4260217"><ele>512.0</ele><time>2026-04-17T09:51:18.081Z</time></trkpt><trkpt lat="44.2856267" lon="11.4259883"><ele>512.0</ele><time>2026-04-17T09:51:19.08Z</time></trkpt><trkpt lat="44.2855533" lon="11.4259467"><ele>512.0</ele><time>2026-04-17T09:51:20.081Z</time></trkpt><trkpt lat="44.2854817" lon="11.4259017"><ele>511.99999999999994</ele><time>2026-04-17T09:51:21.08Z</time></trkpt><trkpt lat="44.2854083" lon="11.4258733"><ele>512.0</ele><time>2026-04-17T09:51:22.08Z</time></trkpt><trkpt lat="44.2853383" lon="11.4258533"><ele>512.1666666666666</ele><time>2026-04-17T09:51:23.081Z</time></trkpt><trkpt lat="44.2852583" lon="11.4258667"><ele>512.3333333333333</ele><time>2026-04-17T09:51:24.08Z</time></trkpt><trkpt lat="44.2851833" lon="11.4259133"><ele>512.5</ele><time>2026-04-17T09:51:25.08Z</time></trkpt><trkpt lat="44.28512" lon="11.425995"><ele>512.6666666666666</ele><time>2026-04-17T09:51:26.08Z</time></trkpt><trkpt lat="44.2850617" lon="11.42609"><ele>512.8333333333334</ele><time>2026-04-17T09:51:27.081Z</time></trkpt><trkpt lat="44.285005" lon="11.4261683"><ele>513.0</ele><time>2026-04-17T09:51:28.08Z</time></trkpt><trkpt lat="44.284945" lon="11.4262183"><ele>513.0</ele><time>2026-04-17T09:51:29.081Z</time></trkpt><trkpt lat="44.2848783" lon="11.4262483"><ele>513.0</ele><time>2026-04-17T09:51:30.081Z</time></trkpt><trkpt lat="44.284815" lon="11.4262583"><ele>513.0</ele><time>2026-04-17T09:51:31.081Z</time></trkpt><trkpt lat="44.28471" lon="11.4262217"><ele>513.0</ele><time>2026-04-17T09:51:33.08Z</time></trkpt><trkpt lat="44.2846183" lon="11.4261533"><ele>513.0</ele><time>2026-04-17T09:51:35.08Z</time></trkpt><trkpt lat="44.2845533" lon="11.4260583"><ele>513.0</ele><time>2026-04-17T09:51:37.081Z</time></trkpt><trkpt lat="44.28454" lon="11.4259633"><ele>515.1999999999999</ele><time>2026-04-17T09:51:39.08Z</time></trkpt><trkpt lat="44.28456" lon="11.4258617"><ele>517.4</ele><time>2026-04-17T09:51:41.08Z</time></trkpt><trkpt lat="44.28464" lon="11.425745"><ele>519.5999999999999</ele><time>2026-04-17T09:51:43.081Z</time></trkpt><trkpt lat="44.2846833" lon="11.42565"><ele>521.8</ele><time>2026-04-17T09:51:44.081Z</time></trkpt><trkpt lat="44.28473" lon="11.4255417"><ele>524.0</ele><time>2026-04-17T09:51:45.08Z</time></trkpt><trkpt lat="44.284775" lon="11.4254217"><ele>524.2</ele><time>2026-04-17T09:51:46.08Z</time></trkpt><trkpt lat="44.28483" lon="11.4253067"><ele>524.4</ele><time>2026-04-17T09:51:47.08Z</time></trkpt><trkpt lat="44.284875" lon="11.425195"><ele>524.6</ele><time>2026-04-17T09:51:48.08Z</time></trkpt><trkpt lat="44.2849417" lon="11.425115"><ele>524.8</ele><time>2026-04-17T09:51:49.081Z</time></trkpt><trkpt lat="44.28502" lon="11.42504"><ele>525.0</ele><time>2026-04-17T09:51:50.08Z</time></trkpt><trkpt lat="44.2851067" lon="11.4249883"><ele>525.0</ele><time>2026-04-17T09:51:51.08Z</time></trkpt><trkpt lat="44.2851983" lon="11.424915"><ele>525.0</ele><time>2026-04-17T09:51:52.08Z</time></trkpt><trkpt lat="44.2852883" lon="11.4248817"><ele>525.0</ele><time>2026-04-17T09:51:53.081Z</time></trkpt><trkpt lat="44.2853733" lon="11.4248483"><ele>525.0</ele><time>2026-04-17T09:51:54.081Z</time></trkpt><trkpt lat="44.2854467" lon="11.4248283"><ele>525.0</ele><time>2026-04-17T09:51:55.08Z</time></trkpt><trkpt lat="44.2855183" lon="11.4248283"><ele>525.0</ele><time>2026-04-17T09:51:56.08Z</time></trkpt><trkpt lat="44.2855933" lon="11.4248333"><ele>525.3333333333334</ele><time>2026-04-17T09:51:57.079Z</time></trkpt><trkpt lat="44.2856767" lon="11.4248417"><ele>525.6666666666666</ele><time>2026-04-17T09:51:58.079Z</time></trkpt><trkpt lat="44.2857633" lon="11.42484"><ele>526.0</ele><time>2026-04-17T09:51:59.08Z</time></trkpt><trkpt lat="44.285845" lon="11.424825"><ele>526.3333333333333</ele><time>2026-04-17T09:52:00.079Z</time></trkpt><trkpt lat="44.285925" lon="11.424795"><ele>526.6666666666666</ele><time>2026-04-17T09:52:01.079Z</time></trkpt><trkpt lat="44.2859983" lon="11.4247467"><ele>527.0</ele><time>2026-04-17T09:52:02.079Z</time></trkpt><trkpt lat="44.2860683" lon="11.4246867"><ele>527.3333333333333</ele><time>2026-04-17T09:52:03.08Z</time></trkpt><trkpt lat="44.286135" lon="11.4246117"><ele>527.6666666666666</ele><time>2026-04-17T09:52:04.079Z</time></trkpt><trkpt lat="44.2861933" lon="11.4245267"><ele>528.0</ele><time>2026-04-17T09:52:05.079Z</time></trkpt><trkpt lat="44.2862367" lon="11.4244433"><ele>528.3333333333334</ele><time>2026-04-17T09:52:06.079Z</time></trkpt><trkpt lat="44.286265" lon="11.42434"><ele>528.6666666666667</ele><time>2026-04-17T09:52:08.08Z</time></trkpt><trkpt lat="44.2861817" lon="11.4243133"><ele>529.0</ele><time>2026-04-17T09:52:13.08Z</time></trkpt><trkpt lat="44.2860767" lon="11.4243833"><ele>529.0</ele><time>2026-04-17T09:52:15.079Z</time></trkpt><trkpt lat="44.2860183" lon="11.4244283"><ele>529.0</ele><time>2026-04-17T09:52:16.079Z</time></trkpt><trkpt lat="44.2859517" lon="11.4244717"><ele>529.0</ele><time>2026-04-17T09:52:17.079Z</time></trkpt><trkpt lat="44.2858767" lon="11.424495"><ele>529.0</ele><time>2026-04-17T09:52:18.079Z</time></trkpt><trkpt lat="44.2857817" lon="11.4245"><ele>529.0</ele><time>2026-04-17T09:52:19.08Z</time></trkpt><trkpt lat="44.28567" lon="11.424485"><ele>529.0</ele><time>2026-04-17T09:52:20.079Z</time></trkpt><trkpt lat="44.2855417" lon="11.42447"><ele>528.5</ele><time>2026-04-17T09:52:21.08Z</time></trkpt><trkpt lat="44.28541" lon="11.4244567"><ele>528.0</ele><time>2026-04-17T09:52:22.079Z</time></trkpt><trkpt lat="44.285275" lon="11.4244483"><ele>527.5</ele><time>2026-04-17T09:52:23.079Z</time></trkpt><trkpt lat="44.28514" lon="11.424445"><ele>527.0</ele><time>2026-04-17T09:52:24.079Z</time></trkpt><trkpt lat="44.2850017" lon="11.4244483"><ele>527.0</ele><time>2026-04-17T09:52:25.079Z</time></trkpt><trkpt lat="44.2848617" lon="11.424455"><ele>527.0</ele><time>2026-04-17T09:52:26.079Z</time></trkpt><trkpt lat="44.2847217" lon="11.4244717"><ele>527.0</ele><time>2026-04-17T09:52:27.079Z</time></trkpt><trkpt lat="44.2845783" lon="11.424495"><ele>527.0</ele><time>2026-04-17T09:52:28.079Z</time></trkpt><trkpt lat="44.2844417" lon="11.4245233"><ele>527.0</ele><time>2026-04-17T09:52:29.079Z</time></trkpt><trkpt lat="44.284305" lon="11.4245583"><ele>527.0</ele><time>2026-04-17T09:52:30.079Z</time></trkpt><trkpt lat="44.2841767" lon="11.4246033"><ele>527.0</ele><time>2026-04-17T09:52:31.08Z</time></trkpt><trkpt lat="44.28405" lon="11.42464"><ele>527.0</ele><time>2026-04-17T09:52:32.079Z</time></trkpt><trkpt lat="44.2839217" lon="11.4246783"><ele>531.5</ele><time>2026-04-17T09:52:33.079Z</time></trkpt><trkpt lat="44.2837917" lon="11.4247067"><ele>536.0</ele><time>2026-04-17T09:52:34.079Z</time></trkpt><trkpt lat="44.2836667" lon="11.4247333"><ele>540.5</ele><time>2026-04-17T09:52:35.079Z</time></trkpt><trkpt lat="44.2835417" lon="11.4247583"><ele>545.0</ele><time>2026-04-17T09:52:36.08Z</time></trkpt><trkpt lat="44.2834167" lon="11.4247667"><ele>545.0</ele><time>2026-04-17T09:52:37.079Z</time></trkpt><trkpt lat="44.28328" lon="11.4247733"><ele>545.0</ele><time>2026-04-17T09:52:38.08Z</time></trkpt><trkpt lat="44.2831517" lon="11.4247717"><ele>545.0</ele><time>2026-04-17T09:52:39.079Z</time></trkpt><trkpt lat="44.28303" lon="11.4247717"><ele>545.0</ele><time>2026-04-17T09:52:40.079Z</time></trkpt><trkpt lat="44.2829117" lon="11.4247783"><ele>544.2</ele><time>2026-04-17T09:52:41.08Z</time></trkpt><trkpt lat="44.2827967" lon="11.424775"><ele>543.4</ele><time>2026-04-17T09:52:42.079Z</time></trkpt><trkpt lat="44.2826933" lon="11.42473"><ele>542.6</ele><time>2026-04-17T09:52:43.079Z</time></trkpt><trkpt lat="44.2825917" lon="11.4246533"><ele>541.8</ele><time>2026-04-17T09:52:44.079Z</time></trkpt><trkpt lat="44.2824967" lon="11.4245783"><ele>541.0</ele><time>2026-04-17T09:52:45.08Z</time></trkpt><trkpt lat="44.2823883" lon="11.42454"><ele>541.0</ele><time>2026-04-17T09:52:46.08Z</time></trkpt><trkpt lat="44.282265" lon="11.4245233"><ele>541.0</ele><time>2026-04-17T09:52:47.079Z</time></trkpt><trkpt lat="44.2821367" lon="11.424515"><ele>541.0</ele><time>2026-04-17T09:52:48.08Z</time></trkpt><trkpt lat="44.2820083" lon="11.4244783"><ele>541.0</ele><time>2026-04-17T09:52:49.079Z</time></trkpt><trkpt lat="44.2818883" lon="11.4244133"><ele>544.25</ele><time>2026-04-17T09:52:50.079Z</time></trkpt><trkpt lat="44.2817767" lon="11.424315"><ele>547.5</ele><time>2026-04-17T09:52:51.08Z</time></trkpt><trkpt lat="44.2816733" lon="11.4241883"><ele>550.75</ele><time>2026-04-17T09:52:52.079Z</time></trkpt><trkpt lat="44.281565" lon="11.424075"><ele>554.0</ele><time>2026-04-17T09:52:53.079Z</time></trkpt><trkpt lat="44.2814583" lon="11.4239783"><ele>555.75</ele><time>2026-04-17T09:52:54.079Z</time></trkpt><trkpt lat="44.2813617" lon="11.423895"><ele>557.5</ele><time>2026-04-17T09:52:55.079Z</time></trkpt><trkpt lat="44.281255" lon="11.4238483"><ele>559.25</ele><time>2026-04-17T09:52:56.08Z</time></trkpt><trkpt lat="44.2811383" lon="11.4238533"><ele>561.0</ele><time>2026-04-17T09:52:57.08Z</time></trkpt><trkpt lat="44.2810183" lon="11.423905"><ele>561.0</ele><time>2026-04-17T09:52:58.079Z</time></trkpt><trkpt lat="44.2808917" lon="11.423985"><ele>561.0</ele><time>2026-04-17T09:52:59.08Z</time></trkpt><trkpt lat="44.2807483" lon="11.4240483"><ele>561.0</ele><time>2026-04-17T09:53:00.08Z</time></trkpt><trkpt lat="44.2805967" lon="11.4240967"><ele>561.0</ele><time>2026-04-17T09:53:01.079Z</time></trkpt><trkpt lat="44.2804417" lon="11.424135"><ele>561.25</ele><time>2026-04-17T09:53:02.08Z</time></trkpt><trkpt lat="44.2802983" lon="11.4242067"><ele>561.5</ele><time>2026-04-17T09:53:03.08Z</time></trkpt><trkpt lat="44.2801667" lon="11.424275"><ele>561.75</ele><time>2026-04-17T09:53:04.079Z</time></trkpt><trkpt lat="44.280045" lon="11.4243233"><ele>562.0</ele><time>2026-04-17T09:53:05.08Z</time></trkpt><trkpt lat="44.2799217" lon="11.4243233"><ele>562.0</ele><time>2026-04-17T09:53:06.08Z</time></trkpt><trkpt lat="44.2798" lon="11.4242883"><ele>562.0</ele><time>2026-04-17T09:53:07.08Z</time></trkpt><trkpt lat="44.2796783" lon="11.4242183"><ele>562.0</ele><time>2026-04-17T09:53:08.08Z</time></trkpt><trkpt lat="44.2795583" lon="11.42413"><ele>562.0</ele><time>2026-04-17T09:53:09.079Z</time></trkpt><trkpt lat="44.2794317" lon="11.424085"><ele>563.25</ele><time>2026-04-17T09:53:10.08Z</time></trkpt><trkpt lat="44.2792883" lon="11.4240717"><ele>564.5</ele><time>2026-04-17T09:53:11.079Z</time></trkpt><trkpt lat="44.2791483" lon="11.4240633"><ele>565.75</ele><time>2026-04-17T09:53:12.08Z</time></trkpt><trkpt lat="44.2790117" lon="11.4240367"><ele>567.0</ele><time>2026-04-17T09:53:13.079Z</time></trkpt><trkpt lat="44.2788817" lon="11.4239833"><ele>567.75</ele><time>2026-04-17T09:53:14.079Z</time></trkpt><trkpt lat="44.2787683" lon="11.4239067"><ele>568.5</ele><time>2026-04-17T09:53:15.08Z</time></trkpt><trkpt lat="44.278675" lon="11.4237983"><ele>569.25</ele><time>2026-04-17T09:53:16.079Z</time></trkpt><trkpt lat="44.2785917" lon="11.4236533"><ele>570.0</ele><time>2026-04-17T09:53:17.079Z</time></trkpt><trkpt lat="44.2785" lon="11.42352"><ele>570.0</ele><time>2026-04-17T09:53:18.079Z</time></trkpt><trkpt lat="44.2783883" lon="11.4234117"><ele>570.0</ele><time>2026-04-17T09:53:19.08Z</time></trkpt><trkpt lat="44.2782583" lon="11.4233317"><ele>570.0</ele><time>2026-04-17T09:53:20.079Z</time></trkpt><trkpt lat="44.2781117" lon="11.4232817"><ele>570.0</ele><time>2026-04-17T09:53:21.08Z</time></trkpt><trkpt lat="44.2779633" lon="11.4232383"><ele>571.25</ele><time>2026-04-17T09:53:22.079Z</time></trkpt><trkpt lat="44.2778217" lon="11.42318"><ele>572.5</ele><time>2026-04-17T09:53:23.079Z</time></trkpt><trkpt lat="44.27769" lon="11.4231217"><ele>573.75</ele><time>2026-04-17T09:53:24.079Z</time></trkpt><trkpt lat="44.27756" lon="11.423065"><ele>575.0</ele><time>2026-04-17T09:53:25.08Z</time></trkpt><trkpt lat="44.2774183" lon="11.4230283"><ele>574.25</ele><time>2026-04-17T09:53:26.079Z</time></trkpt><trkpt lat="44.2772633" lon="11.4230117"><ele>573.5</ele><time>2026-04-17T09:53:27.08Z</time></trkpt><trkpt lat="44.2771083" lon="11.4230067"><ele>572.75</ele><time>2026-04-17T09:53:28.079Z</time></trkpt><trkpt lat="44.27697" lon="11.4229917"><ele>572.0</ele><time>2026-04-17T09:53:29.079Z</time></trkpt><trkpt lat="44.2768483" lon="11.4229717"><ele>571.75</ele><time>2026-04-17T09:53:30.08Z</time></trkpt><trkpt lat="44.2767333" lon="11.4229383"><ele>571.5</ele><time>2026-04-17T09:53:31.079Z</time></trkpt><trkpt lat="44.2766117" lon="11.4228767"><ele>571.25</ele><time>2026-04-17T09:53:32.079Z</time></trkpt><trkpt lat="44.2764867" lon="11.4227933"><ele>571.0</ele><time>2026-04-17T09:53:33.08Z</time></trkpt><trkpt lat="44.276355" lon="11.4226917"><ele>572.0</ele><time>2026-04-17T09:53:34.08Z</time></trkpt><trkpt lat="44.2762217" lon="11.4225833"><ele>573.0</ele><time>2026-04-17T09:53:35.079Z</time></trkpt><trkpt lat="44.2760867" lon="11.4224717"><ele>574.0</ele><time>2026-04-17T09:53:36.079Z</time></trkpt><trkpt lat="44.2759633" lon="11.4223633"><ele>574.0</ele><time>2026-04-17T09:53:37.08Z</time></trkpt><trkpt lat="44.2758567" lon="11.4222567"><ele>574.0</ele><time>2026-04-17T09:53:38.08Z</time></trkpt><trkpt lat="44.2757683" lon="11.4221367"><ele>574.0</ele><time>2026-04-17T09:53:39.08Z</time></trkpt><trkpt lat="44.2756917" lon="11.4220133"><ele>574.0</ele><time>2026-04-17T09:53:40.079Z</time></trkpt><trkpt lat="44.27563" lon="11.4218967"><ele>576.2</ele><time>2026-04-17T09:53:41.079Z</time></trkpt><trkpt lat="44.2755583" lon="11.421795"><ele>578.4</ele><time>2026-04-17T09:53:42.08Z</time></trkpt><trkpt lat="44.2754817" lon="11.421725"><ele>580.6</ele><time>2026-04-17T09:53:43.079Z</time></trkpt><trkpt lat="44.275395" lon="11.4216933"><ele>582.8</ele><time>2026-04-17T09:53:44.079Z</time></trkpt><trkpt lat="44.2752833" lon="11.421685"><ele>585.0</ele><time>2026-04-17T09:53:45.079Z</time></trkpt><trkpt lat="44.2751683" lon="11.4217033"><ele>585.0</ele><time>2026-04-17T09:53:46.079Z</time></trkpt><trkpt lat="44.275045" lon="11.4217383"><ele>585.0</ele><time>2026-04-17T09:53:47.08Z</time></trkpt><trkpt lat="44.274915" lon="11.4217667"><ele>585.0</ele><time>2026-04-17T09:53:48.08Z</time></trkpt><trkpt lat="44.2747817" lon="11.4217883"><ele>585.0</ele><time>2026-04-17T09:53:49.079Z</time></trkpt><trkpt lat="44.2746583" lon="11.4218183"><ele>585.25</ele><time>2026-04-17T09:53:50.079Z</time></trkpt><trkpt lat="44.2745417" lon="11.4218667"><ele>585.5</ele><time>2026-04-17T09:53:51.079Z</time></trkpt><trkpt lat="44.2744217" lon="11.42195"><ele>585.75</ele><time>2026-04-17T09:53:52.08Z</time></trkpt><trkpt lat="44.2743017" lon="11.42203"><ele>586.0</ele><time>2026-04-17T09:53:53.079Z</time></trkpt><trkpt lat="44.2741833" lon="11.4220967"><ele>585.25</ele><time>2026-04-17T09:53:54.079Z</time></trkpt><trkpt lat="44.274065" lon="11.42215"><ele>584.5</ele><time>2026-04-17T09:53:55.08Z</time></trkpt><trkpt lat="44.2739517" lon="11.4221817"><ele>583.75</ele><time>2026-04-17T09:53:56.08Z</time></trkpt><trkpt lat="44.2738467" lon="11.4221717"><ele>583.0</ele><time>2026-04-17T09:53:57.079Z</time></trkpt><trkpt lat="44.2737333" lon="11.4221233"><ele>583.0</ele><time>2026-04-17T09:53:58.08Z</time></trkpt><trkpt lat="44.27361" lon="11.4220583"><ele>583.0</ele><time>2026-04-17T09:53:59.08Z</time></trkpt><trkpt lat="44.27348" lon="11.4220167"><ele>583.0</ele><time>2026-04-17T09:54:00.08Z</time></trkpt><trkpt lat="44.2733367" lon="11.4220117"><ele>583.0</ele><time>2026-04-17T09:54:01.079Z</time></trkpt><trkpt lat="44.2731817" lon="11.4220217"><ele>583.0</ele><time>2026-04-17T09:54:02.08Z</time></trkpt><trkpt lat="44.27302" lon="11.4220283"><ele>583.0</ele><time>2026-04-17T09:54:03.08Z</time></trkpt><trkpt lat="44.272855" lon="11.4220333"><ele>583.0</ele><time>2026-04-17T09:54:04.08Z</time></trkpt><trkpt lat="44.2726917" lon="11.422035"><ele>583.0</ele><time>2026-04-17T09:54:05.079Z</time></trkpt><trkpt lat="44.2725333" lon="11.422035"><ele>583.0</ele><time>2026-04-17T09:54:06.079Z</time></trkpt><trkpt lat="44.272375" lon="11.4220433"><ele>583.0</ele><time>2026-04-17T09:54:07.079Z</time></trkpt><trkpt lat="44.2722183" lon="11.4220567"><ele>583.6666666666667</ele><time>2026-04-17T09:54:08.079Z</time></trkpt><trkpt lat="44.2720667" lon="11.42208"><ele>584.3333333333334</ele><time>2026-04-17T09:54:09.08Z</time></trkpt><trkpt lat="44.2719133" lon="11.4221167"><ele>585.0</ele><time>2026-04-17T09:54:10.079Z</time></trkpt><trkpt lat="44.271765" lon="11.4221583"><ele>586.6666666666666</ele><time>2026-04-17T09:54:11.079Z</time></trkpt><trkpt lat="44.2716117" lon="11.4221917"><ele>588.3333333333333</ele><time>2026-04-17T09:54:12.079Z</time></trkpt><trkpt lat="44.2714533" lon="11.4222133"><ele>590.0</ele><time>2026-04-17T09:54:13.079Z</time></trkpt><trkpt lat="44.2713" lon="11.42222"><ele>590.0</ele><time>2026-04-17T09:54:14.08Z</time></trkpt><trkpt lat="44.271145" lon="11.4222183"><ele>590.0</ele><time>2026-04-17T09:54:15.079Z</time></trkpt><trkpt lat="44.2709883" lon="11.42221"><ele>590.0</ele><time>2026-04-17T09:54:16.079Z</time></trkpt><trkpt lat="44.2708333" lon="11.4222117"><ele>590.0</ele><time>2026-04-17T09:54:17.079Z</time></trkpt><trkpt lat="44.2706817" lon="11.4222233"><ele>590.0</ele><time>2026-04-17T09:54:18.079Z</time></trkpt><trkpt lat="44.2705417" lon="11.4222317"><ele>590.0</ele><time>2026-04-17T09:54:19.08Z</time></trkpt><trkpt lat="44.2704167" lon="11.422255"><ele>590.0</ele><time>2026-04-17T09:54:20.079Z</time></trkpt><trkpt lat="44.2702967" lon="11.4222967"><ele>591.75</ele><time>2026-04-17T09:54:21.079Z</time></trkpt><trkpt lat="44.270185" lon="11.422365"><ele>593.5</ele><time>2026-04-17T09:54:22.079Z</time></trkpt><trkpt lat="44.270075" lon="11.4224367"><ele>595.25</ele><time>2026-04-17T09:54:23.08Z</time></trkpt><trkpt lat="44.2699667" lon="11.4225"><ele>597.0</ele><time>2026-04-17T09:54:24.079Z</time></trkpt><trkpt lat="44.2698683" lon="11.4225517"><ele>597.0</ele><time>2026-04-17T09:54:25.08Z</time></trkpt><trkpt lat="44.269785" lon="11.4226283"><ele>597.0</ele><time>2026-04-17T09:54:26.08Z</time></trkpt><trkpt lat="44.2697233" lon="11.422725"><ele>597.0</ele><time>2026-04-17T09:54:27.079Z</time></trkpt><trkpt lat="44.2696817" lon="11.422825"><ele>597.0</ele><time>2026-04-17T09:54:28.079Z</time></trkpt><trkpt lat="44.2696433" lon="11.4229067"><ele>597.0</ele><time>2026-04-17T09:54:29.08Z</time></trkpt><trkpt lat="44.2696" lon="11.4229733"><ele>597.0</ele><time>2026-04-17T09:54:30.08Z</time></trkpt><trkpt lat="44.2695367" lon="11.4229933"><ele>597.8000000000001</ele><time>2026-04-17T09:54:31.08Z</time></trkpt><trkpt lat="44.2694583" lon="11.4229933"><ele>598.6</ele><time>2026-04-17T09:54:32.08Z</time></trkpt><trkpt lat="44.2693617" lon="11.42298"><ele>599.4000000000001</ele><time>2026-04-17T09:54:33.08Z</time></trkpt><trkpt lat="44.2692483" lon="11.4229517"><ele>600.2</ele><time>2026-04-17T09:54:34.08Z</time></trkpt><trkpt lat="44.269135" lon="11.42293"><ele>601.0</ele><time>2026-04-17T09:54:35.079Z</time></trkpt><trkpt lat="44.2690133" lon="11.4229083"><ele>602.0</ele><time>2026-04-17T09:54:36.079Z</time></trkpt><trkpt lat="44.26889" lon="11.4228883"><ele>603.0</ele><time>2026-04-17T09:54:37.079Z</time></trkpt><trkpt lat="44.2687617" lon="11.4228817"><ele>604.0</ele><time>2026-04-17T09:54:38.079Z</time></trkpt><trkpt lat="44.2686317" lon="11.4228833"><ele>605.0</ele><time>2026-04-17T09:54:39.08Z</time></trkpt><trkpt lat="44.2684933" lon="11.422895"><ele>605.0</ele><time>2026-04-17T09:54:40.08Z</time></trkpt><trkpt lat="44.2683567" lon="11.422905"><ele>605.0</ele><time>2026-04-17T09:54:41.079Z</time></trkpt><trkpt lat="44.2682267" lon="11.4229217"><ele>605.0</ele><time>2026-04-17T09:54:42.08Z</time></trkpt><trkpt lat="44.268095" lon="11.42294"><ele>605.0</ele><time>2026-04-17T09:54:43.08Z</time></trkpt><trkpt lat="44.2679667" lon="11.42296"><ele>603.75</ele><time>2026-04-17T09:54:44.079Z</time></trkpt><trkpt lat="44.2678433" lon="11.422975"><ele>602.5</ele><time>2026-04-17T09:54:45.079Z</time></trkpt><trkpt lat="44.2677267" lon="11.4229933"><ele>601.25</ele><time>2026-04-17T09:54:46.079Z</time></trkpt><trkpt lat="44.267605" lon="11.4230217"><ele>600.0</ele><time>2026-04-17T09:54:47.079Z</time></trkpt><trkpt lat="44.2674783" lon="11.42307"><ele>599.75</ele><time>2026-04-17T09:54:48.079Z</time></trkpt><trkpt lat="44.26736" lon="11.4231383"><ele>599.5</ele><time>2026-04-17T09:54:49.08Z</time></trkpt><trkpt lat="44.267245" lon="11.4232333"><ele>599.25</ele><time>2026-04-17T09:54:50.079Z</time></trkpt><trkpt lat="44.2671367" lon="11.4233417"><ele>599.0</ele><time>2026-04-17T09:54:51.08Z</time></trkpt><trkpt lat="44.2670233" lon="11.4234483"><ele>599.75</ele><time>2026-04-17T09:54:52.08Z</time></trkpt><trkpt lat="44.2669033" lon="11.4235383"><ele>600.5</ele><time>2026-04-17T09:54:53.08Z</time></trkpt><trkpt lat="44.26677" lon="11.423605"><ele>601.25</ele><time>2026-04-17T09:54:54.08Z</time></trkpt><trkpt lat="44.2666367" lon="11.4236633"><ele>602.0</ele><time>2026-04-17T09:54:55.079Z</time></trkpt><trkpt lat="44.2664933" lon="11.423715"><ele>603.25</ele><time>2026-04-17T09:54:56.08Z</time></trkpt><trkpt lat="44.2663567" lon="11.4237483"><ele>604.5</ele><time>2026-04-17T09:54:57.079Z</time></trkpt><trkpt lat="44.266225" lon="11.42377"><ele>605.75</ele><time>2026-04-17T09:54:58.08Z</time></trkpt><trkpt lat="44.26609" lon="11.423785"><ele>607.0</ele><time>2026-04-17T09:54:59.079Z</time></trkpt><trkpt lat="44.2659533" lon="11.423795"><ele>607.0</ele><time>2026-04-17T09:55:00.079Z</time></trkpt><trkpt lat="44.265815" lon="11.4238017"><ele>607.0</ele><time>2026-04-17T09:55:01.079Z</time></trkpt><trkpt lat="44.2656783" lon="11.423805"><ele>607.0</ele><time>2026-04-17T09:55:02.079Z</time></trkpt><trkpt lat="44.2655417" lon="11.42381"><ele>607.0</ele><time>2026-04-17T09:55:03.079Z</time></trkpt><trkpt lat="44.2654067" lon="11.42382"><ele>610.25</ele><time>2026-04-17T09:55:04.08Z</time></trkpt><trkpt lat="44.265275" lon="11.423825"><ele>613.5</ele><time>2026-04-17T09:55:05.079Z</time></trkpt><trkpt lat="44.26514" lon="11.423835"><ele>616.75</ele><time>2026-04-17T09:55:06.079Z</time></trkpt><trkpt lat="44.2650067" lon="11.42384"><ele>620.0</ele><time>2026-04-17T09:55:07.079Z</time></trkpt><trkpt lat="44.2648767" lon="11.423845"><ele>620.6</ele><time>2026-04-17T09:55:08.079Z</time></trkpt><trkpt lat="44.26476" lon="11.4238567"><ele>621.2</ele><time>2026-04-17T09:55:09.079Z</time></trkpt><trkpt lat="44.2646567" lon="11.4238633"><ele>621.8</ele><time>2026-04-17T09:55:10.079Z</time></trkpt><trkpt lat="44.2645633" lon="11.4238567"><ele>622.4</ele><time>2026-04-17T09:55:11.079Z</time></trkpt><trkpt lat="44.2644733" lon="11.4238367"><ele>623.0</ele><time>2026-04-17T09:55:12.079Z</time></trkpt><trkpt lat="44.26438" lon="11.423825"><ele>623.0</ele><time>2026-04-17T09:55:13.079Z</time></trkpt><trkpt lat="44.2642783" lon="11.4238333"><ele>623.0</ele><time>2026-04-17T09:55:14.08Z</time></trkpt><trkpt lat="44.2641667" lon="11.4238667"><ele>623.0</ele><time>2026-04-17T09:55:15.079Z</time></trkpt><trkpt lat="44.2640517" lon="11.4238917"><ele>623.0</ele><time>2026-04-17T09:55:16.079Z</time></trkpt><trkpt lat="44.2639283" lon="11.4239117"><ele>624.5</ele><time>2026-04-17T09:55:17.08Z</time></trkpt><trkpt lat="44.2638" lon="11.423915"><ele>626.0</ele><time>2026-04-17T09:55:18.079Z</time></trkpt><trkpt lat="44.26367" lon="11.4239267"><ele>627.5</ele><time>2026-04-17T09:55:19.079Z</time></trkpt><trkpt lat="44.2635333" lon="11.423955"><ele>629.0</ele><time>2026-04-17T09:55:20.08Z</time></trkpt><trkpt lat="44.2633967" lon="11.4240033"><ele>629.0</ele><time>2026-04-17T09:55:21.079Z</time></trkpt><trkpt lat="44.2632583" lon="11.4240533"><ele>629.0</ele><time>2026-04-17T09:55:22.08Z</time></trkpt><trkpt lat="44.26312" lon="11.42409"><ele>629.0</ele><time>2026-04-17T09:55:23.079Z</time></trkpt><trkpt lat="44.2629933" lon="11.4241267"><ele>629.0</ele><time>2026-04-17T09:55:24.079Z</time></trkpt><trkpt lat="44.2628683" lon="11.42416"><ele>630.2</ele><time>2026-04-17T09:55:25.079Z</time></trkpt><trkpt lat="44.2627567" lon="11.4241933"><ele>631.4</ele><time>2026-04-17T09:55:26.08Z</time></trkpt><trkpt lat="44.2626533" lon="11.4242283"><ele>632.6</ele><time>2026-04-17T09:55:27.079Z</time></trkpt><trkpt lat="44.2625533" lon="11.4242533"><ele>633.8</ele><time>2026-04-17T09:55:28.079Z</time></trkpt><trkpt lat="44.2624667" lon="11.4242467"><ele>635.0</ele><time>2026-04-17T09:55:29.079Z</time></trkpt><trkpt lat="44.2623733" lon="11.424215"><ele>635.0</ele><time>2026-04-17T09:55:30.08Z</time></trkpt><trkpt lat="44.2622867" lon="11.4241567"><ele>635.0</ele><time>2026-04-17T09:55:31.079Z</time></trkpt><trkpt lat="44.2621883" lon="11.4240683"><ele>635.0</ele><time>2026-04-17T09:55:32.079Z</time></trkpt><trkpt lat="44.2620767" lon="11.4239533"><ele>635.0</ele><time>2026-04-17T09:55:33.08Z</time></trkpt><trkpt lat="44.261965" lon="11.42385"><ele>637.0</ele><time>2026-04-17T09:55:34.08Z</time></trkpt><trkpt lat="44.261855" lon="11.4237567"><ele>639.0</ele><time>2026-04-17T09:55:35.079Z</time></trkpt><trkpt lat="44.261745" lon="11.4236517"><ele>641.0</ele><time>2026-04-17T09:55:36.08Z</time></trkpt><trkpt lat="44.2616367" lon="11.4235617"><ele>643.0</ele><time>2026-04-17T09:55:37.078Z</time></trkpt><trkpt lat="44.261535" lon="11.42348"><ele>646.0</ele><time>2026-04-17T09:55:38.078Z</time></trkpt><trkpt lat="44.2614317" lon="11.4233883"><ele>649.0</ele><time>2026-04-17T09:55:39.079Z</time></trkpt><trkpt lat="44.2613167" lon="11.4232933"><ele>652.0</ele><time>2026-04-17T09:55:40.078Z</time></trkpt><trkpt lat="44.261205" lon="11.423195"><ele>655.0</ele><time>2026-04-17T09:55:41.078Z</time></trkpt><trkpt lat="44.2610967" lon="11.42309"><ele>655.0</ele><time>2026-04-17T09:55:42.078Z</time></trkpt><trkpt lat="44.2609917" lon="11.4229967"><ele>655.0</ele><time>2026-04-17T09:55:43.079Z</time></trkpt><trkpt lat="44.2608933" lon="11.422915"><ele>655.0</ele><time>2026-04-17T09:55:44.078Z</time></trkpt><trkpt lat="44.2608067" lon="11.42285"><ele>655.0</ele><time>2026-04-17T09:55:45.079Z</time></trkpt><trkpt lat="44.2607117" lon="11.422805"><ele>655.0</ele><time>2026-04-17T09:55:46.078Z</time></trkpt><trkpt lat="44.260605" lon="11.422795"><ele>656.25</ele><time>2026-04-17T09:55:47.079Z</time></trkpt><trkpt lat="44.2604917" lon="11.4227983"><ele>657.5</ele><time>2026-04-17T09:55:48.078Z</time></trkpt><trkpt lat="44.2603617" lon="11.4228133"><ele>658.75</ele><time>2026-04-17T09:55:49.079Z</time></trkpt><trkpt lat="44.2602383" lon="11.4228217"><ele>660.0</ele><time>2026-04-17T09:55:50.079Z</time></trkpt><trkpt lat="44.2601167" lon="11.4228317"><ele>660.0</ele><time>2026-04-17T09:55:51.078Z</time></trkpt><trkpt lat="44.259995" lon="11.42283"><ele>660.0</ele><time>2026-04-17T09:55:52.078Z</time></trkpt><trkpt lat="44.2598717" lon="11.4228333"><ele>660.0</ele><time>2026-04-17T09:55:53.079Z</time></trkpt><trkpt lat="44.2597433" lon="11.422835"><ele>660.0</ele><time>2026-04-17T09:55:54.078Z</time></trkpt><trkpt lat="44.259605" lon="11.42283"><ele>662.0</ele><time>2026-04-17T09:55:55.078Z</time></trkpt><trkpt lat="44.2594733" lon="11.4228317"><ele>664.0</ele><time>2026-04-17T09:55:56.079Z</time></trkpt><trkpt lat="44.2593417" lon="11.4228367"><ele>666.0</ele><time>2026-04-17T09:55:57.078Z</time></trkpt><trkpt lat="44.259205" lon="11.422835"><ele>668.0</ele><time>2026-04-17T09:55:58.078Z</time></trkpt><trkpt lat="44.2590733" lon="11.422835"><ele>669.75</ele><time>2026-04-17T09:55:59.079Z</time></trkpt><trkpt lat="44.258935" lon="11.4228317"><ele>671.5</ele><time>2026-04-17T09:56:00.078Z</time></trkpt><trkpt lat="44.258795" lon="11.4228417"><ele>673.25</ele><time>2026-04-17T09:56:01.078Z</time></trkpt><trkpt lat="44.25865" lon="11.4228383"><ele>675.0</ele><time>2026-04-17T09:56:02.078Z</time></trkpt><trkpt lat="44.2585017" lon="11.4228433"><ele>675.0</ele><time>2026-04-17T09:56:03.079Z</time></trkpt><trkpt lat="44.2583617" lon="11.4228383"><ele>675.0</ele><time>2026-04-17T09:56:04.079Z</time></trkpt><trkpt lat="44.2582333" lon="11.4228417"><ele>675.0</ele><time>2026-04-17T09:56:05.078Z</time></trkpt><trkpt lat="44.2581133" lon="11.4228433"><ele>675.0</ele><time>2026-04-17T09:56:06.078Z</time></trkpt><trkpt lat="44.2579967" lon="11.4228433"><ele>676.5</ele><time>2026-04-17T09:56:07.079Z</time></trkpt><trkpt lat="44.25788" lon="11.4228483"><ele>678.0</ele><time>2026-04-17T09:56:08.079Z</time></trkpt><trkpt lat="44.2577667" lon="11.422855"><ele>679.5</ele><time>2026-04-17T09:56:09.079Z</time></trkpt><trkpt lat="44.257655" lon="11.4228617"><ele>681.0</ele><time>2026-04-17T09:56:10.078Z</time></trkpt><trkpt lat="44.2575383" lon="11.4228567"><ele>681.0</ele><time>2026-04-17T09:56:11.078Z</time></trkpt><trkpt lat="44.257425" lon="11.4228333"><ele>681.0</ele><time>2026-04-17T09:56:12.078Z</time></trkpt><trkpt lat="44.2573133" lon="11.4228"><ele>681.0</ele><time>2026-04-17T09:56:13.078Z</time></trkpt><trkpt lat="44.2571933" lon="11.4227567"><ele>681.0</ele><time>2026-04-17T09:56:14.079Z</time></trkpt><trkpt lat="44.25708" lon="11.4227167"><ele>681.1999999999999</ele><time>2026-04-17T09:56:15.078Z</time></trkpt><trkpt lat="44.2569683" lon="11.4226783"><ele>681.4</ele><time>2026-04-17T09:56:16.078Z</time></trkpt><trkpt lat="44.2568567" lon="11.4226517"><ele>681.6</ele><time>2026-04-17T09:56:17.078Z</time></trkpt><trkpt lat="44.2567583" lon="11.4226117"><ele>681.8</ele><time>2026-04-17T09:56:18.079Z</time></trkpt><trkpt lat="44.25665" lon="11.4226"><ele>682.0</ele><time>2026-04-17T09:56:19.078Z</time></trkpt><trkpt lat="44.256545" lon="11.422615"><ele>681.6</ele><time>2026-04-17T09:56:20.078Z</time></trkpt><trkpt lat="44.2564433" lon="11.42266"><ele>681.2</ele><time>2026-04-17T09:56:21.078Z</time></trkpt><trkpt lat="44.2563517" lon="11.4227383"><ele>680.8</ele><time>2026-04-17T09:56:22.078Z</time></trkpt><trkpt lat="44.2562683" lon="11.4228467"><ele>680.4</ele><time>2026-04-17T09:56:23.079Z</time></trkpt><trkpt lat="44.2561833" lon="11.422965"><ele>680.0</ele><time>2026-04-17T09:56:24.078Z</time></trkpt><trkpt lat="44.25609" lon="11.4230817"><ele>681.2</ele><time>2026-04-17T09:56:25.078Z</time></trkpt><trkpt lat="44.255995" lon="11.4231933"><ele>682.4</ele><time>2026-04-17T09:56:26.078Z</time></trkpt><trkpt lat="44.2559083" lon="11.4232883"><ele>683.5999999999999</ele><time>2026-04-17T09:56:27.078Z</time></trkpt><trkpt lat="44.2558217" lon="11.4233467"><ele>684.8</ele><time>2026-04-17T09:56:28.078Z</time></trkpt><trkpt lat="44.2557333" lon="11.4233833"><ele>686.0</ele><time>2026-04-17T09:56:29.078Z</time></trkpt><trkpt lat="44.25565" lon="11.423395"><ele>686.5999999999999</ele><time>2026-04-17T09:56:30.079Z</time></trkpt><trkpt lat="44.2555533" lon="11.4233933"><ele>687.2</ele><time>2026-04-17T09:56:31.078Z</time></trkpt><trkpt lat="44.2554433" lon="11.423365"><ele>687.8</ele><time>2026-04-17T09:56:32.078Z</time></trkpt><trkpt lat="44.2553433" lon="11.4233433"><ele>688.4000000000001</ele><time>2026-04-17T09:56:33.078Z</time></trkpt><trkpt lat="44.255245" lon="11.42334"><ele>689.0</ele><time>2026-04-17T09:56:34.078Z</time></trkpt><trkpt lat="44.25515" lon="11.42337"><ele>689.0</ele><time>2026-04-17T09:56:35.078Z</time></trkpt><trkpt lat="44.2550667" lon="11.4234433"><ele>689.0</ele><time>2026-04-17T09:56:36.079Z</time></trkpt><trkpt lat="44.2549917" lon="11.4235417"><ele>689.0</ele><time>2026-04-17T09:56:37.078Z</time></trkpt><trkpt lat="44.2549267" lon="11.4236467"><ele>689.0</ele><time>2026-04-17T09:56:38.078Z</time></trkpt><trkpt lat="44.2548483" lon="11.4237517"><ele>689.0</ele><time>2026-04-17T09:56:39.079Z</time></trkpt><trkpt lat="44.254755" lon="11.4238633"><ele>691.5</ele><time>2026-04-17T09:56:40.078Z</time></trkpt><trkpt lat="44.254655" lon="11.42398"><ele>694.0</ele><time>2026-04-17T09:56:41.078Z</time></trkpt><trkpt lat="44.2545517" lon="11.4240967"><ele>696.5</ele><time>2026-04-17T09:56:42.079Z</time></trkpt><trkpt lat="44.2544483" lon="11.424215"><ele>699.0</ele><time>2026-04-17T09:56:43.078Z</time></trkpt><trkpt lat="44.2543483" lon="11.42433"><ele>699.0</ele><time>2026-04-17T09:56:44.078Z</time></trkpt><trkpt lat="44.254255" lon="11.4244433"><ele>699.0</ele><time>2026-04-17T09:56:45.078Z</time></trkpt><trkpt lat="44.2541617" lon="11.4245567"><ele>699.0</ele><time>2026-04-17T09:56:46.079Z</time></trkpt><trkpt lat="44.2540783" lon="11.4246617"><ele>699.0</ele><time>2026-04-17T09:56:47.078Z</time></trkpt><trkpt lat="44.2539917" lon="11.4247683"><ele>700.8000000000001</ele><time>2026-04-17T09:56:48.079Z</time></trkpt><trkpt lat="44.2539133" lon="11.4248617"><ele>702.6</ele><time>2026-04-17T09:56:49.078Z</time></trkpt><trkpt lat="44.25384" lon="11.42494"><ele>704.4</ele><time>2026-04-17T09:56:50.079Z</time></trkpt><trkpt lat="44.2537617" lon="11.4250233"><ele>706.2</ele><time>2026-04-17T09:56:51.078Z</time></trkpt><trkpt lat="44.2536833" lon="11.4250933"><ele>708.0</ele><time>2026-04-17T09:56:52.079Z</time></trkpt><trkpt lat="44.2536067" lon="11.4251617"><ele>708.0</ele><time>2026-04-17T09:56:53.078Z</time></trkpt><trkpt lat="44.253515" lon="11.4252217"><ele>708.0</ele><time>2026-04-17T09:56:54.079Z</time></trkpt><trkpt lat="44.2534133" lon="11.4252767"><ele>708.0</ele><time>2026-04-17T09:56:55.079Z</time></trkpt><trkpt lat="44.2533" lon="11.4253217"><ele>708.0</ele><time>2026-04-17T09:56:56.079Z</time></trkpt><trkpt lat="44.2531833" lon="11.42537"><ele>708.75</ele><time>2026-04-17T09:56:57.078Z</time></trkpt><trkpt lat="44.2530617" lon="11.4254233"><ele>709.5</ele><time>2026-04-17T09:56:58.078Z</time></trkpt><trkpt lat="44.2529367" lon="11.4254733"><ele>710.25</ele><time>2026-04-17T09:56:59.078Z</time></trkpt><trkpt lat="44.2528167" lon="11.425525"><ele>711.0</ele><time>2026-04-17T09:57:00.078Z</time></trkpt><trkpt lat="44.2526983" lon="11.4255783"><ele>713.75</ele><time>2026-04-17T09:57:01.079Z</time></trkpt><trkpt lat="44.2525767" lon="11.4256233"><ele>716.5</ele><time>2026-04-17T09:57:02.078Z</time></trkpt><trkpt lat="44.25246" lon="11.4256683"><ele>719.25</ele><time>2026-04-17T09:57:03.078Z</time></trkpt><trkpt lat="44.2523433" lon="11.4257"><ele>722.0</ele><time>2026-04-17T09:57:04.078Z</time></trkpt><trkpt lat="44.2522333" lon="11.42573"><ele>722.0</ele><time>2026-04-17T09:57:05.078Z</time></trkpt><trkpt lat="44.2521283" lon="11.4257767"><ele>722.0</ele><time>2026-04-17T09:57:06.078Z</time></trkpt><trkpt lat="44.252035" lon="11.4258367"><ele>722.0</ele><time>2026-04-17T09:57:07.078Z</time></trkpt><trkpt lat="44.2519467" lon="11.42591"><ele>722.0</ele><time>2026-04-17T09:57:08.079Z</time></trkpt><trkpt lat="44.2518567" lon="11.4259817"><ele>722.0</ele><time>2026-04-17T09:57:09.078Z</time></trkpt><trkpt lat="44.2517767" lon="11.4260567"><ele>722.0</ele><time>2026-04-17T09:57:10.079Z</time></trkpt><trkpt lat="44.2516917" lon="11.4261317"><ele>722.0</ele><time>2026-04-17T09:57:11.078Z</time></trkpt><trkpt lat="44.2516133" lon="11.4262167"><ele>722.0</ele><time>2026-04-17T09:57:12.078Z</time></trkpt><trkpt lat="44.251535" lon="11.426305"><ele>722.0</ele><time>2026-04-17T09:57:13.079Z</time></trkpt><trkpt lat="44.25146" lon="11.4264033"><ele>722.0</ele><time>2026-04-17T09:57:14.078Z</time></trkpt><trkpt lat="44.251375" lon="11.4264933"><ele>724.0</ele><time>2026-04-17T09:57:15.078Z</time></trkpt><trkpt lat="44.2512833" lon="11.4265917"><ele>726.0</ele><time>2026-04-17T09:57:16.079Z</time></trkpt><trkpt lat="44.2511917" lon="11.426695"><ele>728.0</ele><time>2026-04-17T09:57:17.078Z</time></trkpt><trkpt lat="44.2510983" lon="11.4268067"><ele>730.0</ele><time>2026-04-17T09:57:18.078Z</time></trkpt><trkpt lat="44.251" lon="11.4269167"><ele>730.0</ele><time>2026-04-17T09:57:19.078Z</time></trkpt><trkpt lat="44.2509167" lon="11.4270233"><ele>730.0</ele><time>2026-04-17T09:57:20.078Z</time></trkpt><trkpt lat="44.25084" lon="11.4271317"><ele>730.0</ele><time>2026-04-17T09:57:21.078Z</time></trkpt><trkpt lat="44.25078" lon="11.4272383"><ele>730.0</ele><time>2026-04-17T09:57:22.078Z</time></trkpt><trkpt lat="44.2507333" lon="11.427345"><ele>730.0</ele><time>2026-04-17T09:57:23.078Z</time></trkpt><trkpt lat="44.2507" lon="11.4274567"><ele>730.1666666666667</ele><time>2026-04-17T09:57:24.078Z</time></trkpt><trkpt lat="44.25067" lon="11.42756"><ele>730.3333333333334</ele><time>2026-04-17T09:57:25.079Z</time></trkpt><trkpt lat="44.250645" lon="11.4276483"><ele>730.5</ele><time>2026-04-17T09:57:26.078Z</time></trkpt><trkpt lat="44.2505867" lon="11.4277567"><ele>730.6666666666666</ele><time>2026-04-17T09:57:28.079Z</time></trkpt><trkpt lat="44.2505133" lon="11.42777"><ele>730.8333333333333</ele><time>2026-04-17T09:57:30.078Z</time></trkpt><trkpt lat="44.2503917" lon="11.4277283"><ele>731.0</ele><time>2026-04-17T09:57:32.078Z</time></trkpt><trkpt lat="44.2503117" lon="11.427715"><ele>732.5</ele><time>2026-04-17T09:57:33.078Z</time></trkpt><trkpt lat="44.250235" lon="11.427715"><ele>734.0</ele><time>2026-04-17T09:57:34.079Z</time></trkpt><trkpt lat="44.2501533" lon="11.4277167"><ele>735.5</ele><time>2026-04-17T09:57:35.078Z</time></trkpt><trkpt lat="44.2500717" lon="11.4277167"><ele>737.0</ele><time>2026-04-17T09:57:36.079Z</time></trkpt><trkpt lat="44.24999" lon="11.4277217"><ele>738.5</ele><time>2026-04-17T09:57:37.078Z</time></trkpt><trkpt lat="44.2499083" lon="11.4277217"><ele>740.0</ele><time>2026-04-17T09:57:38.078Z</time></trkpt><trkpt lat="44.2498217" lon="11.4277267"><ele>740.1666666666666</ele><time>2026-04-17T09:57:39.078Z</time></trkpt><trkpt lat="44.2497367" lon="11.4277317"><ele>740.3333333333333</ele><time>2026-04-17T09:57:40.078Z</time></trkpt><trkpt lat="44.24966" lon="11.427745"><ele>740.5</ele><time>2026-04-17T09:57:41.078Z</time></trkpt><trkpt lat="44.249585" lon="11.42776"><ele>740.6666666666666</ele><time>2026-04-17T09:57:42.078Z</time></trkpt><trkpt lat="44.2495017" lon="11.4277817"><ele>740.8333333333334</ele><time>2026-04-17T09:57:43.079Z</time></trkpt><trkpt lat="44.2494133" lon="11.427795"><ele>741.0</ele><time>2026-04-17T09:57:44.079Z</time></trkpt><trkpt lat="44.24933" lon="11.4278017"><ele>741.0</ele><time>2026-04-17T09:57:45.079Z</time></trkpt><trkpt lat="44.2492467" lon="11.427805"><ele>741.0</ele><time>2026-04-17T09:57:46.078Z</time></trkpt><trkpt lat="44.2491667" lon="11.4278083"><ele>741.0</ele><time>2026-04-17T09:57:47.079Z</time></trkpt><trkpt lat="44.2490883" lon="11.4278167"><ele>741.0</ele><time>2026-04-17T09:57:48.078Z</time></trkpt><trkpt lat="44.24901" lon="11.42783"><ele>741.0</ele><time>2026-04-17T09:57:49.079Z</time></trkpt><trkpt lat="44.24893" lon="11.42786"><ele>741.0</ele><time>2026-04-17T09:57:50.079Z</time></trkpt><trkpt lat="44.2488533" lon="11.4278967"><ele>739.8571428571428</ele><time>2026-04-17T09:57:51.079Z</time></trkpt><trkpt lat="44.24878" lon="11.42792"><ele>738.7142857142858</ele><time>2026-04-17T09:57:52.079Z</time></trkpt><trkpt lat="44.2487083" lon="11.4279417"><ele>737.5714285714286</ele><time>2026-04-17T09:57:53.078Z</time></trkpt><trkpt lat="44.2486283" lon="11.4279467"><ele>736.4285714285713</ele><time>2026-04-17T09:57:54.079Z</time></trkpt><trkpt lat="44.24855" lon="11.4279467"><ele>735.2857142857142</ele><time>2026-04-17T09:57:55.079Z</time></trkpt><trkpt lat="44.2484817" lon="11.4279367"><ele>734.1428571428571</ele><time>2026-04-17T09:57:56.079Z</time></trkpt><trkpt lat="44.2484117" lon="11.4279167"><ele>733.0</ele><time>2026-04-17T09:57:57.079Z</time></trkpt><trkpt lat="44.2483467" lon="11.4278783"><ele>732.9999999999999</ele><time>2026-04-17T09:57:58.079Z</time></trkpt><trkpt lat="44.248285" lon="11.4278283"><ele>733.0</ele><time>2026-04-17T09:57:59.078Z</time></trkpt><trkpt lat="44.24823" lon="11.4277617"><ele>733.0</ele><time>2026-04-17T09:58:00.078Z</time></trkpt><trkpt lat="44.2481767" lon="11.4276867"><ele>733.0</ele><time>2026-04-17T09:58:01.078Z</time></trkpt><trkpt lat="44.2481317" lon="11.427605"><ele>733.0</ele><time>2026-04-17T09:58:02.079Z</time></trkpt><trkpt lat="44.2480983" lon="11.42751"><ele>732.9999999999999</ele><time>2026-04-17T09:58:03.079Z</time></trkpt><trkpt lat="44.2480717" lon="11.42741"><ele>733.0</ele><time>2026-04-17T09:58:04.078Z</time></trkpt><trkpt lat="44.2480483" lon="11.427305"><ele>733.4</ele><time>2026-04-17T09:58:05.078Z</time></trkpt><trkpt lat="44.248025" lon="11.4271933"><ele>733.8</ele><time>2026-04-17T09:58:06.079Z</time></trkpt><trkpt lat="44.248" lon="11.427095"><ele>734.2</ele><time>2026-04-17T09:58:07.078Z</time></trkpt><trkpt lat="44.2479783" lon="11.4270033"><ele>734.6</ele><time>2026-04-17T09:58:08.078Z</time></trkpt><trkpt lat="44.2479267" lon="11.4268667"><ele>735.0</ele><time>2026-04-17T09:58:10.079Z</time></trkpt><trkpt lat="44.247835" lon="11.42675"><ele>735.0</ele><time>2026-04-17T09:58:12.079Z</time></trkpt><trkpt lat="44.2477517" lon="11.4266817"><ele>735.0</ele><time>2026-04-17T09:58:14.079Z</time></trkpt><trkpt lat="44.24767" lon="11.4266417"><ele>735.0</ele><time>2026-04-17T09:58:16.079Z</time></trkpt><trkpt lat="44.247555" lon="11.4266133"><ele>735.0</ele><time>2026-04-17T09:58:18.078Z</time></trkpt><trkpt lat="44.2474817" lon="11.4266033"><ele>735.0</ele><time>2026-04-17T09:58:19.079Z</time></trkpt><trkpt lat="44.2473967" lon="11.426585"><ele>735.0</ele><time>2026-04-17T09:58:20.078Z</time></trkpt><trkpt lat="44.2473167" lon="11.42656"><ele>735.0</ele><time>2026-04-17T09:58:21.079Z</time></trkpt><trkpt lat="44.2472417" lon="11.426525"><ele>735.0</ele><time>2026-04-17T09:58:22.079Z</time></trkpt><trkpt lat="44.2471667" lon="11.4264783"><ele>735.0</ele><time>2026-04-17T09:58:23.078Z</time></trkpt><trkpt lat="44.2470833" lon="11.4264267"><ele>735.0</ele><time>2026-04-17T09:58:24.078Z</time></trkpt><trkpt lat="44.2470017" lon="11.426375"><ele>735.0</ele><time>2026-04-17T09:58:25.078Z</time></trkpt><trkpt lat="44.24692" lon="11.4263283"><ele>735.2</ele><time>2026-04-17T09:58:26.078Z</time></trkpt><trkpt lat="44.2468383" lon="11.4262867"><ele>735.4</ele><time>2026-04-17T09:58:27.079Z</time></trkpt><trkpt lat="44.2467483" lon="11.4262417"><ele>735.5999999999999</ele><time>2026-04-17T09:58:28.079Z</time></trkpt><trkpt lat="44.2466583" lon="11.4262017"><ele>735.8</ele><time>2026-04-17T09:58:29.079Z</time></trkpt><trkpt lat="44.246565" lon="11.4261683"><ele>736.0</ele><time>2026-04-17T09:58:30.079Z</time></trkpt><trkpt lat="44.246475" lon="11.426135"><ele>736.5</ele><time>2026-04-17T09:58:31.079Z</time></trkpt><trkpt lat="44.2463867" lon="11.4261117"><ele>737.0</ele><time>2026-04-17T09:58:32.079Z</time></trkpt><trkpt lat="44.2463033" lon="11.4261"><ele>737.5</ele><time>2026-04-17T09:58:33.078Z</time></trkpt><trkpt lat="44.246215" lon="11.4260917"><ele>738.0</ele><time>2026-04-17T09:58:34.078Z</time></trkpt><trkpt lat="44.2461283" lon="11.4260883"><ele>738.5</ele><time>2026-04-17T09:58:35.079Z</time></trkpt><trkpt lat="44.246035" lon="11.42608"><ele>739.0</ele><time>2026-04-17T09:58:36.079Z</time></trkpt><trkpt lat="44.2459417" lon="11.42607"><ele>739.0</ele><time>2026-04-17T09:58:37.078Z</time></trkpt><trkpt lat="44.2458583" lon="11.4260583"><ele>739.0</ele><time>2026-04-17T09:58:38.078Z</time></trkpt><trkpt lat="44.2457717" lon="11.4260433"><ele>739.0</ele><time>2026-04-17T09:58:39.079Z</time></trkpt><trkpt lat="44.24569" lon="11.4260367"><ele>739.0</ele><time>2026-04-17T09:58:40.078Z</time></trkpt><trkpt lat="44.2456033" lon="11.4260433"><ele>739.0</ele><time>2026-04-17T09:58:41.079Z</time></trkpt><trkpt lat="44.2455183" lon="11.4260517"><ele>739.0</ele><time>2026-04-17T09:58:42.078Z</time></trkpt><trkpt lat="44.245425" lon="11.426055"><ele>739.1666666666667</ele><time>2026-04-17T09:58:43.078Z</time></trkpt><trkpt lat="44.24534" lon="11.4260583"><ele>739.3333333333334</ele><time>2026-04-17T09:58:44.078Z</time></trkpt><trkpt lat="44.245245" lon="11.426055"><ele>739.5</ele><time>2026-04-17T09:58:45.079Z</time></trkpt><trkpt lat="44.2451517" lon="11.4260483"><ele>739.6666666666666</ele><time>2026-04-17T09:58:46.078Z</time></trkpt><trkpt lat="44.24506" lon="11.4260467"><ele>739.8333333333333</ele><time>2026-04-17T09:58:47.079Z</time></trkpt><trkpt lat="44.2449767" lon="11.4260467"><ele>740.0</ele><time>2026-04-17T09:58:48.079Z</time></trkpt><trkpt lat="44.2448967" lon="11.426045"><ele>740.0</ele><time>2026-04-17T09:58:49.078Z</time></trkpt><trkpt lat="44.2448133" lon="11.4260433"><ele>740.0</ele><time>2026-04-17T09:58:50.079Z</time></trkpt><trkpt lat="44.24473" lon="11.4260317"><ele>740.0</ele><time>2026-04-17T09:58:51.078Z</time></trkpt><trkpt lat="44.24465" lon="11.426015"><ele>740.0</ele><time>2026-04-17T09:58:52.078Z</time></trkpt><trkpt lat="44.2445733" lon="11.425995"><ele>740.0</ele><time>2026-04-17T09:58:53.078Z</time></trkpt><trkpt lat="44.2444883" lon="11.425975"><ele>740.0</ele><time>2026-04-17T09:58:54.079Z</time></trkpt><trkpt lat="44.2444" lon="11.4259517"><ele>739.4</ele><time>2026-04-17T09:58:55.079Z</time></trkpt><trkpt lat="44.2443133" lon="11.4259183"><ele>738.8</ele><time>2026-04-17T09:58:56.078Z</time></trkpt><trkpt lat="44.2442133" lon="11.4258767"><ele>738.2</ele><time>2026-04-17T09:58:57.079Z</time></trkpt><trkpt lat="44.2441083" lon="11.4258333"><ele>737.6</ele><time>2026-04-17T09:58:58.078Z</time></trkpt><trkpt lat="44.2440083" lon="11.4257867"><ele>737.0</ele><time>2026-04-17T09:58:59.078Z</time></trkpt><trkpt lat="44.2439133" lon="11.4257467"><ele>736.4000000000001</ele><time>2026-04-17T09:59:00.079Z</time></trkpt><trkpt lat="44.243825" lon="11.42572"><ele>735.8000000000001</ele><time>2026-04-17T09:59:01.078Z</time></trkpt><trkpt lat="44.2437267" lon="11.425695"><ele>735.2</ele><time>2026-04-17T09:59:02.079Z</time></trkpt><trkpt lat="44.24363" lon="11.4256733"><ele>734.6</ele><time>2026-04-17T09:59:03.078Z</time></trkpt><trkpt lat="44.24353" lon="11.4256517"><ele>734.0</ele><time>2026-04-17T09:59:04.078Z</time></trkpt><trkpt lat="44.2434283" lon="11.425625"><ele>734.0</ele><time>2026-04-17T09:59:05.079Z</time></trkpt><trkpt lat="44.2433233" lon="11.425595"><ele>734.0</ele><time>2026-04-17T09:59:06.078Z</time></trkpt><trkpt lat="44.2432133" lon="11.42556"><ele>734.0</ele><time>2026-04-17T09:59:07.078Z</time></trkpt><trkpt lat="44.2431117" lon="11.4255267"><ele>734.0</ele><time>2026-04-17T09:59:08.078Z</time></trkpt><trkpt lat="44.243015" lon="11.4254967"><ele>734.0</ele><time>2026-04-17T09:59:09.078Z</time></trkpt><trkpt lat="44.2429167" lon="11.42547"><ele>733.8000000000001</ele><time>2026-04-17T09:59:10.079Z</time></trkpt><trkpt lat="44.2428267" lon="11.425435"><ele>733.6</ele><time>2026-04-17T09:59:11.078Z</time></trkpt><trkpt lat="44.2427367" lon="11.4253867"><ele>733.4</ele><time>2026-04-17T09:59:12.079Z</time></trkpt><trkpt lat="44.2426533" lon="11.4253283"><ele>733.2</ele><time>2026-04-17T09:59:13.078Z</time></trkpt><trkpt lat="44.2425717" lon="11.4252483"><ele>733.0</ele><time>2026-04-17T09:59:14.078Z</time></trkpt><trkpt lat="44.242495" lon="11.42516"><ele>733.0</ele><time>2026-04-17T09:59:15.078Z</time></trkpt><trkpt lat="44.2424367" lon="11.4250633"><ele>733.0</ele><time>2026-04-17T09:59:16.079Z</time></trkpt><trkpt lat="44.24238" lon="11.4249517"><ele>733.0</ele><time>2026-04-17T09:59:17.078Z</time></trkpt><trkpt lat="44.2423167" lon="11.42484"><ele>733.0</ele><time>2026-04-17T09:59:18.078Z</time></trkpt><trkpt lat="44.2422483" lon="11.4247283"><ele>733.0</ele><time>2026-04-17T09:59:19.078Z</time></trkpt><trkpt lat="44.2421817" lon="11.4246333"><ele>733.0</ele><time>2026-04-17T09:59:20.078Z</time></trkpt><trkpt lat="44.2421067" lon="11.424545"><ele>733.0</ele><time>2026-04-17T09:59:21.079Z</time></trkpt><trkpt lat="44.2420217" lon="11.4244633"><ele>733.0</ele><time>2026-04-17T09:59:22.078Z</time></trkpt><trkpt lat="44.241935" lon="11.42439"><ele>733.0</ele><time>2026-04-17T09:59:23.078Z</time></trkpt><trkpt lat="44.2418367" lon="11.4243217"><ele>733.0</ele><time>2026-04-17T09:59:24.078Z</time></trkpt><trkpt lat="44.2417467" lon="11.4242533"><ele>733.0</ele><time>2026-04-17T09:59:25.078Z</time></trkpt><trkpt lat="44.2416567" lon="11.424185"><ele>733.0</ele><time>2026-04-17T09:59:26.078Z</time></trkpt><trkpt lat="44.241565" lon="11.42412"><ele>733.0</ele><time>2026-04-17T09:59:27.078Z</time></trkpt><trkpt lat="44.2414707" lon="11.4240428"><ele>733.0</ele><time>2026-04-17T09:59:28.079Z</time></trkpt><trkpt lat="44.2413812" lon="11.4239698"><ele>733.0</ele><time>2026-04-17T09:59:29.078Z</time></trkpt><trkpt lat="44.2412961" lon="11.4239034"><ele>732.5999999999999</ele><time>2026-04-17T09:59:30.078Z</time></trkpt><trkpt lat="44.2412191" lon="11.4238377"><ele>732.1999999999999</ele><time>2026-04-17T09:59:31.078Z</time></trkpt><trkpt lat="44.2411483" lon="11.42378"><ele>731.8</ele><time>2026-04-17T09:59:32.078Z</time></trkpt><trkpt lat="44.2410767" lon="11.4237283"><ele>731.4</ele><time>2026-04-17T09:59:33.079Z</time></trkpt><trkpt lat="44.2409917" lon="11.4236633"><ele>731.0</ele><time>2026-04-17T09:59:34.079Z</time></trkpt><trkpt lat="44.2408917" lon="11.4236"><ele>731.0</ele><time>2026-04-17T09:59:35.078Z</time></trkpt><trkpt lat="44.2408017" lon="11.4235333"><ele>731.0</ele><time>2026-04-17T09:59:36.079Z</time></trkpt><trkpt lat="44.240715" lon="11.4234583"><ele>731.0</ele><time>2026-04-17T09:59:37.078Z</time></trkpt><trkpt lat="44.24063" lon="11.423375"><ele>731.0</ele><time>2026-04-17T09:59:38.079Z</time></trkpt><trkpt lat="44.2405467" lon="11.4232833"><ele>731.0</ele><time>2026-04-17T09:59:39.078Z</time></trkpt><trkpt lat="44.2404717" lon="11.4231967"><ele>731.3333333333333</ele><time>2026-04-17T09:59:40.078Z</time></trkpt><trkpt lat="44.2404183" lon="11.4231083"><ele>731.6666666666666</ele><time>2026-04-17T09:59:41.078Z</time></trkpt><trkpt lat="44.2403667" lon="11.4230117"><ele>732.0</ele><time>2026-04-17T09:59:42.078Z</time></trkpt><trkpt lat="44.2403183" lon="11.422915"><ele>732.3333333333334</ele><time>2026-04-17T09:59:43.078Z</time></trkpt><trkpt lat="44.2402667" lon="11.4228117"><ele>732.6666666666667</ele><time>2026-04-17T09:59:44.079Z</time></trkpt><trkpt lat="44.2402267" lon="11.4227"><ele>733.0</ele><time>2026-04-17T09:59:45.078Z</time></trkpt><trkpt lat="44.2401883" lon="11.4225917"><ele>733.0</ele><time>2026-04-17T09:59:46.078Z</time></trkpt><trkpt lat="44.2401467" lon="11.422495"><ele>733.0</ele><time>2026-04-17T09:59:47.078Z</time></trkpt><trkpt lat="44.2400933" lon="11.4224083"><ele>733.0</ele><time>2026-04-17T09:59:48.078Z</time></trkpt><trkpt lat="44.240035" lon="11.4223133"><ele>733.0</ele><time>2026-04-17T09:59:49.079Z</time></trkpt><trkpt lat="44.23998" lon="11.4221967"><ele>733.0</ele><time>2026-04-17T09:59:50.079Z</time></trkpt><trkpt lat="44.2399267" lon="11.422085"><ele>733.0</ele><time>2026-04-17T09:59:51.078Z</time></trkpt><trkpt lat="44.2398817" lon="11.4219833"><ele>732.5</ele><time>2026-04-17T09:59:52.078Z</time></trkpt><trkpt lat="44.239835" lon="11.42189"><ele>732.0</ele><time>2026-04-17T09:59:53.079Z</time></trkpt><trkpt lat="44.2397833" lon="11.4218083"><ele>731.5</ele><time>2026-04-17T09:59:54.079Z</time></trkpt><trkpt lat="44.2397133" lon="11.42174"><ele>731.0</ele><time>2026-04-17T09:59:55.078Z</time></trkpt><trkpt lat="44.2396383" lon="11.4216733"><ele>730.5</ele><time>2026-04-17T09:59:56.078Z</time></trkpt><trkpt lat="44.2395633" lon="11.4216083"><ele>730.0</ele><time>2026-04-17T09:59:57.078Z</time></trkpt><trkpt lat="44.2394833" lon="11.4215483"><ele>730.0000000000001</ele><time>2026-04-17T09:59:58.079Z</time></trkpt><trkpt lat="44.2394083" lon="11.4215"><ele>730.0</ele><time>2026-04-17T09:59:59.079Z</time></trkpt><trkpt lat="44.2393367" lon="11.4214617"><ele>730.0</ele><time>2026-04-17T10:00:00.079Z</time></trkpt><trkpt lat="44.2392717" lon="11.421445"><ele>730.0</ele><time>2026-04-17T10:00:01.078Z</time></trkpt><trkpt lat="44.239205" lon="11.421425"><ele>730.0</ele><time>2026-04-17T10:00:02.079Z</time></trkpt><trkpt lat="44.239135" lon="11.421415"><ele>730.0000000000001</ele><time>2026-04-17T10:00:03.079Z</time></trkpt><trkpt lat="44.2390667" lon="11.4214133"><ele>730.0</ele><time>2026-04-17T10:00:04.077Z</time></trkpt><trkpt lat="44.2390033" lon="11.4214083"><ele>730.1428571428572</ele><time>2026-04-17T10:00:05.077Z</time></trkpt><trkpt lat="44.238935" lon="11.4213983"><ele>730.2857142857143</ele><time>2026-04-17T10:00:06.077Z</time></trkpt><trkpt lat="44.2388633" lon="11.42139"><ele>730.4285714285714</ele><time>2026-04-17T10:00:07.077Z</time></trkpt><trkpt lat="44.2387867" lon="11.421395"><ele>730.5714285714287</ele><time>2026-04-17T10:00:08.077Z</time></trkpt><trkpt lat="44.238715" lon="11.4213967"><ele>730.7142857142857</ele><time>2026-04-17T10:00:09.077Z</time></trkpt><trkpt lat="44.23864" lon="11.4214067"><ele>730.8571428571429</ele><time>2026-04-17T10:00:10.077Z</time></trkpt><trkpt lat="44.2385583" lon="11.4214183"><ele>731.0</ele><time>2026-04-17T10:00:11.077Z</time></trkpt><trkpt lat="44.238485" lon="11.4214233"><ele>731.0</ele><time>2026-04-17T10:00:12.077Z</time></trkpt><trkpt lat="44.238415" lon="11.421425"><ele>731.0</ele><time>2026-04-17T10:00:13.077Z</time></trkpt><trkpt lat="44.238345" lon="11.421415"><ele>731.0</ele><time>2026-04-17T10:00:14.077Z</time></trkpt><trkpt lat="44.2382667" lon="11.4214033"><ele>731.0</ele><time>2026-04-17T10:00:15.077Z</time></trkpt><trkpt lat="44.2381867" lon="11.4213967"><ele>731.0</ele><time>2026-04-17T10:00:16.077Z</time></trkpt><trkpt lat="44.238115" lon="11.4214083"><ele>731.0</ele><time>2026-04-17T10:00:17.077Z</time></trkpt><trkpt lat="44.2380483" lon="11.4214417"><ele>731.0</ele><time>2026-04-17T10:00:18.078Z</time></trkpt><trkpt lat="44.2379783" lon="11.421465"><ele>731.1666666666666</ele><time>2026-04-17T10:00:19.078Z</time></trkpt><trkpt lat="44.2379033" lon="11.421475"><ele>731.3333333333333</ele><time>2026-04-17T10:00:20.078Z</time></trkpt><trkpt lat="44.237825" lon="11.4214683"><ele>731.5</ele><time>2026-04-17T10:00:21.078Z</time></trkpt><trkpt lat="44.2377467" lon="11.42145"><ele>731.6666666666666</ele><time>2026-04-17T10:00:22.078Z</time></trkpt><trkpt lat="44.2376817" lon="11.421425"><ele>731.8333333333334</ele><time>2026-04-17T10:00:23.077Z</time></trkpt><trkpt lat="44.237575" lon="11.4213467"><ele>732.0</ele><time>2026-04-17T10:00:25.078Z</time></trkpt><trkpt lat="44.237495" lon="11.4212317"><ele>732.8</ele><time>2026-04-17T10:00:27.077Z</time></trkpt><trkpt lat="44.2374083" lon="11.4211083"><ele>733.6</ele><time>2026-04-17T10:00:29.077Z</time></trkpt><trkpt lat="44.2373" lon="11.4210067"><ele>734.4</ele><time>2026-04-17T10:00:31.077Z</time></trkpt><trkpt lat="44.23724" lon="11.420965"><ele>735.1999999999999</ele><time>2026-04-17T10:00:32.077Z</time></trkpt><trkpt lat="44.237135" lon="11.4208983"><ele>736.0</ele><time>2026-04-17T10:00:34.078Z</time></trkpt><trkpt lat="44.2370233" lon="11.4208717"><ele>737.8</ele><time>2026-04-17T10:00:36.077Z</time></trkpt><trkpt lat="44.236895" lon="11.4209133"><ele>739.5999999999999</ele><time>2026-04-17T10:00:38.077Z</time></trkpt><trkpt lat="44.2368267" lon="11.420945"><ele>741.4</ele><time>2026-04-17T10:00:39.077Z</time></trkpt><trkpt lat="44.2367617" lon="11.4209783"><ele>743.2</ele><time>2026-04-17T10:00:40.077Z</time></trkpt><trkpt lat="44.2366433" lon="11.421035"><ele>745.0</ele><time>2026-04-17T10:00:42.077Z</time></trkpt><trkpt lat="44.236525" lon="11.421105"><ele>746.3333333333334</ele><time>2026-04-17T10:00:44.077Z</time></trkpt><trkpt lat="44.2364683" lon="11.4211467"><ele>747.6666666666667</ele><time>2026-04-17T10:00:45.077Z</time></trkpt><trkpt lat="44.23641" lon="11.42119"><ele>749.0</ele><time>2026-04-17T10:00:46.078Z</time></trkpt><trkpt lat="44.23635" lon="11.4212217"><ele>750.3333333333334</ele><time>2026-04-17T10:00:47.077Z</time></trkpt><trkpt lat="44.2362333" lon="11.42125"><ele>751.6666666666666</ele><time>2026-04-17T10:00:49.077Z</time></trkpt><trkpt lat="44.2361283" lon="11.4212683"><ele>753.0</ele><time>2026-04-17T10:00:51.077Z</time></trkpt><trkpt lat="44.23604" lon="11.42126"><ele>753.0</ele><time>2026-04-17T10:00:53.078Z</time></trkpt><trkpt lat="44.2359583" lon="11.4212183"><ele>753.0</ele><time>2026-04-17T10:00:55.077Z</time></trkpt><trkpt lat="44.23588" lon="11.4211767"><ele>753.0</ele><time>2026-04-17T10:00:57.078Z</time></trkpt><trkpt lat="44.23578" lon="11.4211633"><ele>753.0</ele><time>2026-04-17T10:00:59.077Z</time></trkpt><trkpt lat="44.2357167" lon="11.4211667"><ele>753.0</ele><time>2026-04-17T10:01:00.078Z</time></trkpt><trkpt lat="44.2356517" lon="11.4211833"><ele>753.0</ele><time>2026-04-17T10:01:01.078Z</time></trkpt><trkpt lat="44.23559" lon="11.4212167"><ele>752.2</ele><time>2026-04-17T10:01:02.077Z</time></trkpt><trkpt lat="44.2355233" lon="11.421255"><ele>751.4</ele><time>2026-04-17T10:01:03.077Z</time></trkpt><trkpt lat="44.2354617" lon="11.4212983"><ele>750.6</ele><time>2026-04-17T10:01:04.078Z</time></trkpt><trkpt lat="44.235355" lon="11.4213867"><ele>749.8000000000001</ele><time>2026-04-17T10:01:06.078Z</time></trkpt><trkpt lat="44.2352617" lon="11.4214883"><ele>749.0</ele><time>2026-04-17T10:01:08.078Z</time></trkpt><trkpt lat="44.2352133" lon="11.4215567"><ele>749.0</ele><time>2026-04-17T10:01:09.078Z</time></trkpt><trkpt lat="44.235165" lon="11.4216183"><ele>749.0</ele><time>2026-04-17T10:01:10.077Z</time></trkpt><trkpt lat="44.2351067" lon="11.4216633"><ele>749.0</ele><time>2026-04-17T10:01:11.077Z</time></trkpt><trkpt lat="44.2350483" lon="11.4216983"><ele>749.0</ele><time>2026-04-17T10:01:12.077Z</time></trkpt><trkpt lat="44.2349867" lon="11.421725"><ele>749.0</ele><time>2026-04-17T10:01:13.077Z</time></trkpt><trkpt lat="44.2349217" lon="11.4217667"><ele>749.0</ele><time>2026-04-17T10:01:14.078Z</time></trkpt><trkpt lat="44.23486" lon="11.421825"><ele>749.0</ele><time>2026-04-17T10:01:15.077Z</time></trkpt><trkpt lat="44.234805" lon="11.421895"><ele>748.4285714285714</ele><time>2026-04-17T10:01:16.077Z</time></trkpt><trkpt lat="44.2347517" lon="11.4219667"><ele>747.8571428571429</ele><time>2026-04-17T10:01:17.078Z</time></trkpt><trkpt lat="44.234685" lon="11.422025"><ele>747.2857142857142</ele><time>2026-04-17T10:01:18.077Z</time></trkpt><trkpt lat="44.234615" lon="11.4220683"><ele>746.7142857142858</ele><time>2026-04-17T10:01:19.077Z</time></trkpt><trkpt lat="44.234545" lon="11.422115"><ele>746.1428571428571</ele><time>2026-04-17T10:01:20.077Z</time></trkpt><trkpt lat="44.2344817" lon="11.4221717"><ele>745.5714285714286</ele><time>2026-04-17T10:01:21.078Z</time></trkpt><trkpt lat="44.2344283" lon="11.4222283"><ele>745.0</ele><time>2026-04-17T10:01:22.078Z</time></trkpt><trkpt lat="44.2343783" lon="11.4222833"><ele>743.6</ele><time>2026-04-17T10:01:23.078Z</time></trkpt><trkpt lat="44.2342917" lon="11.422395"><ele>742.2</ele><time>2026-04-17T10:01:25.077Z</time></trkpt><trkpt lat="44.234215" lon="11.422505"><ele>740.8</ele><time>2026-04-17T10:01:27.077Z</time></trkpt><trkpt lat="44.2341217" lon="11.4225833"><ele>739.4</ele><time>2026-04-17T10:01:29.077Z</time></trkpt><trkpt lat="44.234035" lon="11.4225933"><ele>738.0</ele><time>2026-04-17T10:01:31.077Z</time></trkpt><trkpt lat="44.2339767" lon="11.422525"><ele>739.4</ele><time>2026-04-17T10:01:33.078Z</time></trkpt><trkpt lat="44.2339583" lon="11.4223967"><ele>740.8</ele><time>2026-04-17T10:01:35.077Z</time></trkpt><trkpt lat="44.23397" lon="11.42225"><ele>742.2</ele><time>2026-04-17T10:01:37.078Z</time></trkpt><trkpt lat="44.2339767" lon="11.422115"><ele>743.6</ele><time>2026-04-17T10:01:39.077Z</time></trkpt><trkpt lat="44.2339683" lon="11.421975"><ele>745.0</ele><time>2026-04-17T10:01:41.077Z</time></trkpt><trkpt lat="44.2339317" lon="11.421815"><ele>741.6</ele><time>2026-04-17T10:01:43.077Z</time></trkpt><trkpt lat="44.2338683" lon="11.4216617"><ele>738.2</ele><time>2026-04-17T10:01:45.078Z</time></trkpt><trkpt lat="44.233855" lon="11.421575"><ele>734.8</ele><time>2026-04-17T10:01:46.077Z</time></trkpt><trkpt lat="44.233855" lon="11.4214083"><ele>731.4</ele><time>2026-04-17T10:01:48.077Z</time></trkpt><trkpt lat="44.2338317" lon="11.4212467"><ele>728.0</ele><time>2026-04-17T10:01:50.078Z</time></trkpt><trkpt lat="44.2337833" lon="11.42114"><ele>728.0</ele><time>2026-04-17T10:01:52.078Z</time></trkpt><trkpt lat="44.2337183" lon="11.4210633"><ele>728.0</ele><time>2026-04-17T10:01:54.077Z</time></trkpt><trkpt lat="44.233645" lon="11.420995"><ele>728.0</ele><time>2026-04-17T10:01:56.078Z</time></trkpt><trkpt lat="44.2335733" lon="11.4209383"><ele>728.0</ele><time>2026-04-17T10:01:58.077Z</time></trkpt><trkpt lat="44.2335183" lon="11.4208417"><ele>728.0</ele><time>2026-04-17T10:02:00.078Z</time></trkpt><trkpt lat="44.2334767" lon="11.42071"><ele>728.0</ele><time>2026-04-17T10:02:02.078Z</time></trkpt><trkpt lat="44.2334417" lon="11.42056"><ele>727.4</ele><time>2026-04-17T10:02:04.078Z</time></trkpt><trkpt lat="44.2334383" lon="11.4204117"><ele>726.8</ele><time>2026-04-17T10:02:06.077Z</time></trkpt><trkpt lat="44.2334717" lon="11.420285"><ele>726.2</ele><time>2026-04-17T10:02:08.077Z</time></trkpt><trkpt lat="44.23353" lon="11.420175"><ele>725.6</ele><time>2026-04-17T10:02:10.077Z</time></trkpt><trkpt lat="44.23359" lon="11.4200567"><ele>725.0</ele><time>2026-04-17T10:02:12.077Z</time></trkpt><trkpt lat="44.2336317" lon="11.419935"><ele>725.0</ele><time>2026-04-17T10:02:14.077Z</time></trkpt><trkpt lat="44.2336567" lon="11.4198183"><ele>725.0</ele><time>2026-04-17T10:02:16.077Z</time></trkpt><trkpt lat="44.2336783" lon="11.4197083"><ele>725.0</ele><time>2026-04-17T10:02:18.077Z</time></trkpt><trkpt lat="44.2336867" lon="11.419585"><ele>725.0</ele><time>2026-04-17T10:02:20.077Z</time></trkpt><trkpt lat="44.233675" lon="11.4194783"><ele>725.0</ele><time>2026-04-17T10:02:22.077Z</time></trkpt><trkpt lat="44.23366" lon="11.4193683"><ele>725.0</ele><time>2026-04-17T10:02:24.078Z</time></trkpt><trkpt lat="44.233635" lon="11.419275"><ele>725.0</ele><time>2026-04-17T10:02:26.077Z</time></trkpt><trkpt lat="44.23361" lon="11.4191817"><ele>725.0</ele><time>2026-04-17T10:02:28.078Z</time></trkpt><trkpt lat="44.23357" lon="11.41911"><ele>725.0</ele><time>2026-04-17T10:02:30.077Z</time></trkpt><trkpt lat="44.23352" lon="11.419035"><ele>725.0</ele><time>2026-04-17T10:02:32.078Z</time></trkpt><trkpt lat="44.2334633" lon="11.41897"><ele>725.0</ele><time>2026-04-17T10:02:34.077Z</time></trkpt><trkpt lat="44.2334017" lon="11.4189217"><ele>725.0</ele><time>2026-04-17T10:02:36.077Z</time></trkpt><trkpt lat="44.2333317" lon="11.4188833"><ele>725.0</ele><time>2026-04-17T10:02:40.077Z</time></trkpt><trkpt lat="44.23327" lon="11.41884"><ele>724.6666666666666</ele><time>2026-04-17T10:02:44.077Z</time></trkpt><trkpt lat="44.2332033" lon="11.4187883"><ele>724.3333333333333</ele><time>2026-04-17T10:02:48.077Z</time></trkpt><trkpt lat="44.2331267" lon="11.4187583"><ele>724.0</ele><time>2026-04-17T10:02:51.077Z</time></trkpt><trkpt lat="44.2330517" lon="11.4187267"><ele>723.6666666666666</ele><time>2026-04-17T10:02:53.077Z</time></trkpt><trkpt lat="44.2329567" lon="11.41869"><ele>723.3333333333334</ele><time>2026-04-17T10:02:55.077Z</time></trkpt><trkpt lat="44.2328767" lon="11.4186433"><ele>723.0</ele><time>2026-04-17T10:02:57.077Z</time></trkpt><trkpt lat="44.2328017" lon="11.4185867"><ele>723.0</ele><time>2026-04-17T10:02:59.078Z</time></trkpt><trkpt lat="44.2326933" lon="11.41853"><ele>723.0</ele><time>2026-04-17T10:03:01.078Z</time></trkpt><trkpt lat="44.2325967" lon="11.4184867"><ele>723.0</ele><time>2026-04-17T10:03:03.078Z</time></trkpt><trkpt lat="44.2324867" lon="11.4184517"><ele>723.0</ele><time>2026-04-17T10:03:05.078Z</time></trkpt><trkpt lat="44.2323817" lon="11.4184"><ele>723.0</ele><time>2026-04-17T10:03:07.077Z</time></trkpt><trkpt lat="44.232305" lon="11.4183533"><ele>719.5999999999999</ele><time>2026-04-17T10:03:09.077Z</time></trkpt><trkpt lat="44.23224" lon="11.41829"><ele>716.1999999999999</ele><time>2026-04-17T10:03:11.077Z</time></trkpt><trkpt lat="44.2321717" lon="11.41822"><ele>712.8</ele><time>2026-04-17T10:03:13.078Z</time></trkpt><trkpt lat="44.2320867" lon="11.4181367"><ele>709.4</ele><time>2026-04-17T10:03:15.077Z</time></trkpt><trkpt lat="44.2319817" lon="11.4180733"><ele>706.0</ele><time>2026-04-17T10:03:17.077Z</time></trkpt><trkpt lat="44.231875" lon="11.4180117"><ele>707.5</ele><time>2026-04-17T10:03:19.078Z</time></trkpt><trkpt lat="44.2318083" lon="11.4179267"><ele>709.0</ele><time>2026-04-17T10:03:21.078Z</time></trkpt><trkpt lat="44.2317183" lon="11.41781"><ele>710.5</ele><time>2026-04-17T10:03:23.077Z</time></trkpt><trkpt lat="44.2316717" lon="11.41774"><ele>712.0</ele><time>2026-04-17T10:03:24.077Z</time></trkpt><trkpt lat="44.2316183" lon="11.4176683"><ele>713.5</ele><time>2026-04-17T10:03:25.078Z</time></trkpt><trkpt lat="44.2315767" lon="11.4176"><ele>715.0</ele><time>2026-04-17T10:03:26.078Z</time></trkpt><trkpt lat="44.2315283" lon="11.4174517"><ele>715.0</ele><time>2026-04-17T10:03:28.078Z</time></trkpt><trkpt lat="44.2315067" lon="11.4173033"><ele>715.0</ele><time>2026-04-17T10:03:30.078Z</time></trkpt><trkpt lat="44.2314533" lon="11.4171633"><ele>715.0</ele><time>2026-04-17T10:03:32.078Z</time></trkpt><trkpt lat="44.231345" lon="11.417085"><ele>715.0</ele><time>2026-04-17T10:03:34.077Z</time></trkpt><trkpt lat="44.2312767" lon="11.4170633"><ele>715.0</ele><time>2026-04-17T10:03:35.078Z</time></trkpt><trkpt lat="44.2312117" lon="11.4170667"><ele>714.0</ele><time>2026-04-17T10:03:36.077Z</time></trkpt><trkpt lat="44.231095" lon="11.417085"><ele>713.0</ele><time>2026-04-17T10:03:38.077Z</time></trkpt><trkpt lat="44.2309883" lon="11.4171133"><ele>712.0</ele><time>2026-04-17T10:03:40.077Z</time></trkpt><trkpt lat="44.2308717" lon="11.4171117"><ele>711.0</ele><time>2026-04-17T10:03:42.078Z</time></trkpt><trkpt lat="44.23076" lon="11.4170683"><ele>711.0</ele><time>2026-04-17T10:03:44.077Z</time></trkpt><trkpt lat="44.23066" lon="11.417015"><ele>711.0</ele><time>2026-04-17T10:03:46.077Z</time></trkpt><trkpt lat="44.2305967" lon="11.41699"><ele>711.0</ele><time>2026-04-17T10:03:47.077Z</time></trkpt><trkpt lat="44.2305317" lon="11.4169533"><ele>711.0</ele><time>2026-04-17T10:03:48.078Z</time></trkpt><trkpt lat="44.23043" lon="11.4168567"><ele>711.0</ele><time>2026-04-17T10:03:50.077Z</time></trkpt><trkpt lat="44.230335" lon="11.4167517"><ele>709.1666666666666</ele><time>2026-04-17T10:03:52.078Z</time></trkpt><trkpt lat="44.2302317" lon="11.416695"><ele>707.3333333333334</ele><time>2026-04-17T10:03:54.078Z</time></trkpt><trkpt lat="44.2301683" lon="11.4166783"><ele>705.5</ele><time>2026-04-17T10:03:55.077Z</time></trkpt><trkpt lat="44.230095" lon="11.416675"><ele>703.6666666666667</ele><time>2026-04-17T10:03:56.078Z</time></trkpt><trkpt lat="44.230015" lon="11.416665"><ele>701.8333333333334</ele><time>2026-04-17T10:03:57.078Z</time></trkpt><trkpt lat="44.229935" lon="11.416645"><ele>700.0</ele><time>2026-04-17T10:03:58.078Z</time></trkpt><trkpt lat="44.2298533" lon="11.416615"><ele>698.5714285714286</ele><time>2026-04-17T10:03:59.077Z</time></trkpt><trkpt lat="44.2297833" lon="11.4165933"><ele>697.1428571428571</ele><time>2026-04-17T10:04:00.078Z</time></trkpt><trkpt lat="44.2297083" lon="11.41658"><ele>695.7142857142858</ele><time>2026-04-17T10:04:01.077Z</time></trkpt><trkpt lat="44.2296317" lon="11.4165617"><ele>694.2857142857142</ele><time>2026-04-17T10:04:02.077Z</time></trkpt><trkpt lat="44.2295633" lon="11.4165417"><ele>692.8571428571429</ele><time>2026-04-17T10:04:03.077Z</time></trkpt><trkpt lat="44.2295017" lon="11.4165133"><ele>691.4285714285714</ele><time>2026-04-17T10:04:04.078Z</time></trkpt><trkpt lat="44.2294383" lon="11.4164817"><ele>690.0</ele><time>2026-04-17T10:04:05.077Z</time></trkpt><trkpt lat="44.22934" lon="11.41643"><ele>690.0</ele><time>2026-04-17T10:04:07.077Z</time></trkpt><trkpt lat="44.2292667" lon="11.4164"><ele>690.0</ele><time>2026-04-17T10:04:09.078Z</time></trkpt><trkpt lat="44.229185" lon="11.4163917"><ele>690.0</ele><time>2026-04-17T10:04:11.078Z</time></trkpt><trkpt lat="44.22912" lon="11.41646"><ele>690.0</ele><time>2026-04-17T10:04:14.077Z</time></trkpt><trkpt lat="44.2291533" lon="11.4165667"><ele>690.0</ele><time>2026-04-17T10:04:16.077Z</time></trkpt><trkpt lat="44.229245" lon="11.4166483"><ele>690.0</ele><time>2026-04-17T10:04:18.077Z</time></trkpt><trkpt lat="44.229305" lon="11.416685"><ele>690.0</ele><time>2026-04-17T10:04:19.077Z</time></trkpt><trkpt lat="44.2293633" lon="11.416725"><ele>690.0</ele><time>2026-04-17T10:04:20.078Z</time></trkpt><trkpt lat="44.2294233" lon="11.4167733"><ele>690.0</ele><time>2026-04-17T10:04:21.077Z</time></trkpt><trkpt lat="44.2294783" lon="11.4168417"><ele>690.0</ele><time>2026-04-17T10:04:22.077Z</time></trkpt><trkpt lat="44.2295333" lon="11.4169283"><ele>690.0</ele><time>2026-04-17T10:04:23.077Z</time></trkpt><trkpt lat="44.229585" lon="11.41702"><ele>690.0</ele><time>2026-04-17T10:04:24.078Z</time></trkpt><trkpt lat="44.22963" lon="11.4171067"><ele>689.1428571428571</ele><time>2026-04-17T10:04:25.077Z</time></trkpt><trkpt lat="44.2296783" lon="11.4171867"><ele>688.2857142857142</ele><time>2026-04-17T10:04:26.077Z</time></trkpt><trkpt lat="44.22973" lon="11.4172667"><ele>687.4285714285713</ele><time>2026-04-17T10:04:27.078Z</time></trkpt><trkpt lat="44.2297933" lon="11.4173317"><ele>686.5714285714286</ele><time>2026-04-17T10:04:28.077Z</time></trkpt><trkpt lat="44.2298583" lon="11.4173783"><ele>685.7142857142857</ele><time>2026-04-17T10:04:29.078Z</time></trkpt><trkpt lat="44.2299233" lon="11.4174167"><ele>684.8571428571428</ele><time>2026-04-17T10:04:30.078Z</time></trkpt><trkpt lat="44.2299783" lon="11.417465"><ele>684.0</ele><time>2026-04-17T10:04:31.078Z</time></trkpt><trkpt lat="44.230025" lon="11.4175317"><ele>684.0</ele><time>2026-04-17T10:04:32.077Z</time></trkpt><trkpt lat="44.2300633" lon="11.41762"><ele>684.0</ele><time>2026-04-17T10:04:33.078Z</time></trkpt><trkpt lat="44.2301083" lon="11.4177167"><ele>684.0</ele><time>2026-04-17T10:04:34.078Z</time></trkpt><trkpt lat="44.230155" lon="11.4178183"><ele>684.0</ele><time>2026-04-17T10:04:35.077Z</time></trkpt><trkpt lat="44.2301917" lon="11.4179167"><ele>684.0</ele><time>2026-04-17T10:04:36.077Z</time></trkpt><trkpt lat="44.2302333" lon="11.4180083"><ele>684.0</ele><time>2026-04-17T10:04:37.078Z</time></trkpt><trkpt lat="44.230285" lon="11.418085"><ele>683.6666666666666</ele><time>2026-04-17T10:04:38.078Z</time></trkpt><trkpt lat="44.23034" lon="11.4181567"><ele>683.3333333333334</ele><time>2026-04-17T10:04:39.078Z</time></trkpt><trkpt lat="44.2303983" lon="11.41823"><ele>683.0</ele><time>2026-04-17T10:04:40.077Z</time></trkpt><trkpt lat="44.2304667" lon="11.4183"><ele>682.6666666666667</ele><time>2026-04-17T10:04:41.077Z</time></trkpt><trkpt lat="44.2305383" lon="11.4183733"><ele>682.3333333333334</ele><time>2026-04-17T10:04:42.078Z</time></trkpt><trkpt lat="44.2306083" lon="11.4184567"><ele>682.0</ele><time>2026-04-17T10:04:43.078Z</time></trkpt><trkpt lat="44.23067" lon="11.418535"><ele>682.0</ele><time>2026-04-17T10:04:44.078Z</time></trkpt><trkpt lat="44.230715" lon="11.4186267"><ele>682.0</ele><time>2026-04-17T10:04:45.076Z</time></trkpt><trkpt lat="44.2307467" lon="11.4187233"><ele>682.0</ele><time>2026-04-17T10:04:46.076Z</time></trkpt><trkpt lat="44.2307783" lon="11.4188267"><ele>682.0</ele><time>2026-04-17T10:04:47.076Z</time></trkpt><trkpt lat="44.2308083" lon="11.41893"><ele>682.0</ele><time>2026-04-17T10:04:48.076Z</time></trkpt><trkpt lat="44.2308317" lon="11.4190367"><ele>682.0</ele><time>2026-04-17T10:04:49.076Z</time></trkpt><trkpt lat="44.2308633" lon="11.4191467"><ele>680.3333333333334</ele><time>2026-04-17T10:04:50.076Z</time></trkpt><trkpt lat="44.2309017" lon="11.4192483"><ele>678.6666666666667</ele><time>2026-04-17T10:04:51.076Z</time></trkpt><trkpt lat="44.23096" lon="11.419345"><ele>677.0</ele><time>2026-04-17T10:04:52.077Z</time></trkpt><trkpt lat="44.2310183" lon="11.4194417"><ele>675.3333333333334</ele><time>2026-04-17T10:04:53.076Z</time></trkpt><trkpt lat="44.2310633" lon="11.4195183"><ele>673.6666666666666</ele><time>2026-04-17T10:04:54.076Z</time></trkpt><trkpt lat="44.2311133" lon="11.4195833"><ele>672.0</ele><time>2026-04-17T10:04:55.076Z</time></trkpt><trkpt lat="44.2311967" lon="11.4196783"><ele>673.1666666666666</ele><time>2026-04-17T10:04:57.076Z</time></trkpt><trkpt lat="44.2312933" lon="11.4197917"><ele>674.3333333333334</ele><time>2026-04-17T10:04:59.076Z</time></trkpt><trkpt lat="44.2313433" lon="11.4198467"><ele>675.5</ele><time>2026-04-17T10:05:00.077Z</time></trkpt><trkpt lat="44.2313917" lon="11.41991"><ele>676.6666666666667</ele><time>2026-04-17T10:05:01.076Z</time></trkpt><trkpt lat="44.2314383" lon="11.4199767"><ele>677.8333333333334</ele><time>2026-04-17T10:05:02.076Z</time></trkpt><trkpt lat="44.2314733" lon="11.4200583"><ele>679.0</ele><time>2026-04-17T10:05:03.077Z</time></trkpt><trkpt lat="44.2315017" lon="11.4201533"><ele>679.0</ele><time>2026-04-17T10:05:04.076Z</time></trkpt><trkpt lat="44.2315183" lon="11.4202617"><ele>679.0</ele><time>2026-04-17T10:05:05.077Z</time></trkpt><trkpt lat="44.231515" lon="11.420385"><ele>679.0</ele><time>2026-04-17T10:05:06.076Z</time></trkpt><trkpt lat="44.2315033" lon="11.4205133"><ele>679.0</ele><time>2026-04-17T10:05:07.077Z</time></trkpt><trkpt lat="44.2314867" lon="11.4206317"><ele>679.0</ele><time>2026-04-17T10:05:08.077Z</time></trkpt><trkpt lat="44.23146" lon="11.4207317"><ele>679.0</ele><time>2026-04-17T10:05:09.076Z</time></trkpt><trkpt lat="44.2314167" lon="11.4208283"><ele>675.3333333333334</ele><time>2026-04-17T10:05:10.076Z</time></trkpt><trkpt lat="44.2313717" lon="11.4209183"><ele>671.6666666666667</ele><time>2026-04-17T10:05:11.076Z</time></trkpt><trkpt lat="44.23132" lon="11.4210083"><ele>668.0</ele><time>2026-04-17T10:05:12.076Z</time></trkpt><trkpt lat="44.2312717" lon="11.421115"><ele>664.3333333333334</ele><time>2026-04-17T10:05:13.076Z</time></trkpt><trkpt lat="44.2312267" lon="11.4212267"><ele>660.6666666666666</ele><time>2026-04-17T10:05:14.076Z</time></trkpt><trkpt lat="44.2311817" lon="11.4213417"><ele>657.0</ele><time>2026-04-17T10:05:15.076Z</time></trkpt><trkpt lat="44.231135" lon="11.4214533"><ele>657.0</ele><time>2026-04-17T10:05:16.076Z</time></trkpt><trkpt lat="44.2310733" lon="11.4215433"><ele>657.0</ele><time>2026-04-17T10:05:17.076Z</time></trkpt><trkpt lat="44.2310033" lon="11.42163"><ele>657.0</ele><time>2026-04-17T10:05:18.077Z</time></trkpt><trkpt lat="44.2309333" lon="11.4216983"><ele>657.0</ele><time>2026-04-17T10:05:19.077Z</time></trkpt><trkpt lat="44.2308683" lon="11.4217533"><ele>657.0</ele><time>2026-04-17T10:05:20.076Z</time></trkpt><trkpt lat="44.2307983" lon="11.4218017"><ele>657.0</ele><time>2026-04-17T10:05:21.076Z</time></trkpt><trkpt lat="44.2307217" lon="11.4218533"><ele>657.0</ele><time>2026-04-17T10:05:22.077Z</time></trkpt><trkpt lat="44.230645" lon="11.4219167"><ele>657.0</ele><time>2026-04-17T10:05:23.077Z</time></trkpt><trkpt lat="44.2305733" lon="11.4219867"><ele>657.0</ele><time>2026-04-17T10:05:24.077Z</time></trkpt><trkpt lat="44.2305183" lon="11.42207"><ele>657.0</ele><time>2026-04-17T10:05:25.076Z</time></trkpt><trkpt lat="44.2304733" lon="11.4221533"><ele>657.0</ele><time>2026-04-17T10:05:26.076Z</time></trkpt><trkpt lat="44.2304333" lon="11.4222267"><ele>657.0</ele><time>2026-04-17T10:05:27.077Z</time></trkpt><trkpt lat="44.2304083" lon="11.42232"><ele>654.6666666666666</ele><time>2026-04-17T10:05:28.076Z</time></trkpt><trkpt lat="44.2303983" lon="11.4224233"><ele>652.3333333333334</ele><time>2026-04-17T10:05:29.076Z</time></trkpt><trkpt lat="44.2304033" lon="11.4225433"><ele>650.0</ele><time>2026-04-17T10:05:30.076Z</time></trkpt><trkpt lat="44.2304167" lon="11.4226733"><ele>647.6666666666667</ele><time>2026-04-17T10:05:31.076Z</time></trkpt><trkpt lat="44.2304267" lon="11.4228067"><ele>645.3333333333334</ele><time>2026-04-17T10:05:32.077Z</time></trkpt><trkpt lat="44.230445" lon="11.42294"><ele>643.0</ele><time>2026-04-17T10:05:33.077Z</time></trkpt><trkpt lat="44.2304533" lon="11.4230567"><ele>643.0</ele><time>2026-04-17T10:05:34.076Z</time></trkpt><trkpt lat="44.2304633" lon="11.4231733"><ele>643.0</ele><time>2026-04-17T10:05:35.076Z</time></trkpt><trkpt lat="44.230475" lon="11.4232867"><ele>643.0</ele><time>2026-04-17T10:05:36.077Z</time></trkpt><trkpt lat="44.2304717" lon="11.4233983"><ele>643.0</ele><time>2026-04-17T10:05:37.077Z</time></trkpt><trkpt lat="44.23046" lon="11.423505"><ele>643.0</ele><time>2026-04-17T10:05:38.076Z</time></trkpt><trkpt lat="44.2304333" lon="11.4236067"><ele>643.0</ele><time>2026-04-17T10:05:39.077Z</time></trkpt><trkpt lat="44.2304017" lon="11.4237017"><ele>643.0</ele><time>2026-04-17T10:05:40.077Z</time></trkpt><trkpt lat="44.2303533" lon="11.4237733"><ele>643.0</ele><time>2026-04-17T10:05:41.077Z</time></trkpt><trkpt lat="44.2302917" lon="11.4238533"><ele>643.0</ele><time>2026-04-17T10:05:42.076Z</time></trkpt><trkpt lat="44.2302183" lon="11.4239217"><ele>643.0</ele><time>2026-04-17T10:05:43.077Z</time></trkpt><trkpt lat="44.2301417" lon="11.4239967"><ele>643.0</ele><time>2026-04-17T10:05:44.076Z</time></trkpt><trkpt lat="44.230065" lon="11.4240683"><ele>643.0</ele><time>2026-04-17T10:05:45.076Z</time></trkpt><trkpt lat="44.2299933" lon="11.42414"><ele>644.5</ele><time>2026-04-17T10:05:46.077Z</time></trkpt><trkpt lat="44.22993" lon="11.4242083"><ele>646.0</ele><time>2026-04-17T10:05:47.076Z</time></trkpt><trkpt lat="44.2298717" lon="11.4242767"><ele>647.5</ele><time>2026-04-17T10:05:48.076Z</time></trkpt><trkpt lat="44.22982" lon="11.42436"><ele>649.0</ele><time>2026-04-17T10:05:49.076Z</time></trkpt><trkpt lat="44.229775" lon="11.424465"><ele>650.5</ele><time>2026-04-17T10:05:50.076Z</time></trkpt><trkpt lat="44.2297383" lon="11.4245867"><ele>652.0</ele><time>2026-04-17T10:05:51.077Z</time></trkpt><trkpt lat="44.229705" lon="11.4247217"><ele>648.2</ele><time>2026-04-17T10:05:52.076Z</time></trkpt><trkpt lat="44.2296767" lon="11.4248617"><ele>644.4000000000001</ele><time>2026-04-17T10:05:53.076Z</time></trkpt><trkpt lat="44.2296483" lon="11.4250083"><ele>640.5999999999999</ele><time>2026-04-17T10:05:54.076Z</time></trkpt><trkpt lat="44.2296183" lon="11.4251533"><ele>636.8</ele><time>2026-04-17T10:05:55.076Z</time></trkpt><trkpt lat="44.2295767" lon="11.42531"><ele>633.0</ele><time>2026-04-17T10:05:56.076Z</time></trkpt><trkpt lat="44.22953" lon="11.42547"><ele>633.0</ele><time>2026-04-17T10:05:57.076Z</time></trkpt><trkpt lat="44.2294917" lon="11.4256217"><ele>633.0</ele><time>2026-04-17T10:05:58.076Z</time></trkpt><trkpt lat="44.2294567" lon="11.425765"><ele>633.0</ele><time>2026-04-17T10:05:59.076Z</time></trkpt><trkpt lat="44.2294267" lon="11.4259083"><ele>633.0</ele><time>2026-04-17T10:06:00.076Z</time></trkpt><trkpt lat="44.229395" lon="11.426055"><ele>633.0</ele><time>2026-04-17T10:06:01.077Z</time></trkpt><trkpt lat="44.229365" lon="11.4261967"><ele>633.1999999999999</ele><time>2026-04-17T10:06:02.077Z</time></trkpt><trkpt lat="44.229335" lon="11.4263367"><ele>633.4</ele><time>2026-04-17T10:06:03.076Z</time></trkpt><trkpt lat="44.2293033" lon="11.426465"><ele>633.5999999999999</ele><time>2026-04-17T10:06:04.076Z</time></trkpt><trkpt lat="44.22926" lon="11.4265783"><ele>633.8</ele><time>2026-04-17T10:06:05.076Z</time></trkpt><trkpt lat="44.22921" lon="11.4266833"><ele>634.0</ele><time>2026-04-17T10:06:06.076Z</time></trkpt><trkpt lat="44.2291667" lon="11.4267933"><ele>634.0</ele><time>2026-04-17T10:06:07.076Z</time></trkpt><trkpt lat="44.22913" lon="11.426905"><ele>634.0</ele><time>2026-04-17T10:06:08.076Z</time></trkpt><trkpt lat="44.2290883" lon="11.4270033"><ele>634.0</ele><time>2026-04-17T10:06:09.076Z</time></trkpt><trkpt lat="44.229035" lon="11.4270767"><ele>634.0</ele><time>2026-04-17T10:06:10.076Z</time></trkpt><trkpt lat="44.2289567" lon="11.4271383"><ele>634.0</ele><time>2026-04-17T10:06:11.077Z</time></trkpt><trkpt lat="44.2288717" lon="11.4271867"><ele>634.0</ele><time>2026-04-17T10:06:12.076Z</time></trkpt><trkpt lat="44.2287867" lon="11.42723"><ele>632.8333333333334</ele><time>2026-04-17T10:06:13.077Z</time></trkpt><trkpt lat="44.2287017" lon="11.4272667"><ele>631.6666666666667</ele><time>2026-04-17T10:06:14.077Z</time></trkpt><trkpt lat="44.2286217" lon="11.4272983"><ele>630.5</ele><time>2026-04-17T10:06:15.076Z</time></trkpt><trkpt lat="44.2285467" lon="11.42732"><ele>629.3333333333334</ele><time>2026-04-17T10:06:16.076Z</time></trkpt><trkpt lat="44.2284667" lon="11.4273333"><ele>628.1666666666666</ele><time>2026-04-17T10:06:17.076Z</time></trkpt><trkpt lat="44.2283883" lon="11.42735"><ele>627.0</ele><time>2026-04-17T10:06:18.076Z</time></trkpt><trkpt lat="44.2283133" lon="11.4273867"><ele>627.0</ele><time>2026-04-17T10:06:19.076Z</time></trkpt><trkpt lat="44.22824" lon="11.427445"><ele>627.0</ele><time>2026-04-17T10:06:20.076Z</time></trkpt><trkpt lat="44.2281683" lon="11.4275133"><ele>627.0</ele><time>2026-04-17T10:06:21.076Z</time></trkpt><trkpt lat="44.2280933" lon="11.42759"><ele>627.0</ele><time>2026-04-17T10:06:22.076Z</time></trkpt><trkpt lat="44.2280167" lon="11.427665"><ele>627.0</ele><time>2026-04-17T10:06:23.076Z</time></trkpt><trkpt lat="44.2279433" lon="11.4277383"><ele>627.0</ele><time>2026-04-17T10:06:24.077Z</time></trkpt><trkpt lat="44.2278717" lon="11.427815"><ele>625.3333333333334</ele><time>2026-04-17T10:06:25.077Z</time></trkpt><trkpt lat="44.2278017" lon="11.4278867"><ele>623.6666666666666</ele><time>2026-04-17T10:06:26.076Z</time></trkpt><trkpt lat="44.227735" lon="11.4279583"><ele>622.0</ele><time>2026-04-17T10:06:27.076Z</time></trkpt><trkpt lat="44.2276683" lon="11.4280283"><ele>620.3333333333333</ele><time>2026-04-17T10:06:28.076Z</time></trkpt><trkpt lat="44.2276067" lon="11.4281"><ele>618.6666666666666</ele><time>2026-04-17T10:06:29.076Z</time></trkpt><trkpt lat="44.2275467" lon="11.4281817"><ele>617.0</ele><time>2026-04-17T10:06:30.077Z</time></trkpt><trkpt lat="44.2274917" lon="11.4282683"><ele>617.0</ele><time>2026-04-17T10:06:31.076Z</time></trkpt><trkpt lat="44.22744" lon="11.4283667"><ele>617.0</ele><time>2026-04-17T10:06:32.077Z</time></trkpt><trkpt lat="44.2273867" lon="11.4284633"><ele>617.0</ele><time>2026-04-17T10:06:33.076Z</time></trkpt><trkpt lat="44.2273383" lon="11.42857"><ele>617.0</ele><time>2026-04-17T10:06:34.077Z</time></trkpt><trkpt lat="44.2273067" lon="11.42869"><ele>617.0</ele><time>2026-04-17T10:06:35.076Z</time></trkpt><trkpt lat="44.2272917" lon="11.4288233"><ele>612.8000000000001</ele><time>2026-04-17T10:06:36.077Z</time></trkpt><trkpt lat="44.227285" lon="11.4289617"><ele>608.6</ele><time>2026-04-17T10:06:37.076Z</time></trkpt><trkpt lat="44.2272667" lon="11.4291083"><ele>604.4000000000001</ele><time>2026-04-17T10:06:38.076Z</time></trkpt><trkpt lat="44.22724" lon="11.429255"><ele>600.2</ele><time>2026-04-17T10:06:39.076Z</time></trkpt><trkpt lat="44.227205" lon="11.4293983"><ele>596.0</ele><time>2026-04-17T10:06:40.077Z</time></trkpt><trkpt lat="44.2271667" lon="11.4295483"><ele>596.8</ele><time>2026-04-17T10:06:41.076Z</time></trkpt><trkpt lat="44.22712" lon="11.4296833"><ele>597.6</ele><time>2026-04-17T10:06:42.076Z</time></trkpt><trkpt lat="44.227075" lon="11.4298133"><ele>598.4</ele><time>2026-04-17T10:06:43.076Z</time></trkpt><trkpt lat="44.2270217" lon="11.42994"><ele>599.2</ele><time>2026-04-17T10:06:44.076Z</time></trkpt><trkpt lat="44.2269683" lon="11.4300633"><ele>600.0</ele><time>2026-04-17T10:06:45.077Z</time></trkpt><trkpt lat="44.22691" lon="11.430165"><ele>600.0</ele><time>2026-04-17T10:06:46.076Z</time></trkpt><trkpt lat="44.2268483" lon="11.43027"><ele>600.0</ele><time>2026-04-17T10:06:47.076Z</time></trkpt><trkpt lat="44.2267967" lon="11.4303633"><ele>600.0</ele><time>2026-04-17T10:06:48.077Z</time></trkpt><trkpt lat="44.2267433" lon="11.4304533"><ele>600.0</ele><time>2026-04-17T10:06:49.076Z</time></trkpt><trkpt lat="44.226685" lon="11.4305483"><ele>600.0</ele><time>2026-04-17T10:06:50.076Z</time></trkpt><trkpt lat="44.2266233" lon="11.430635"><ele>600.0</ele><time>2026-04-17T10:06:51.076Z</time></trkpt><trkpt lat="44.2265533" lon="11.4307267"><ele>599.0</ele><time>2026-04-17T10:06:52.076Z</time></trkpt><trkpt lat="44.226485" lon="11.4308167"><ele>598.0</ele><time>2026-04-17T10:06:53.076Z</time></trkpt><trkpt lat="44.2264183" lon="11.4309117"><ele>597.0</ele><time>2026-04-17T10:06:54.076Z</time></trkpt><trkpt lat="44.226355" lon="11.4310067"><ele>596.0</ele><time>2026-04-17T10:06:55.076Z</time></trkpt><trkpt lat="44.2262883" lon="11.4310967"><ele>595.0</ele><time>2026-04-17T10:06:56.076Z</time></trkpt><trkpt lat="44.2262317" lon="11.431195"><ele>593.8</ele><time>2026-04-17T10:06:57.077Z</time></trkpt><trkpt lat="44.2261767" lon="11.4313067"><ele>592.6</ele><time>2026-04-17T10:06:58.077Z</time></trkpt><trkpt lat="44.2261167" lon="11.4314083"><ele>591.4</ele><time>2026-04-17T10:06:59.076Z</time></trkpt><trkpt lat="44.2260467" lon="11.43149"><ele>590.2</ele><time>2026-04-17T10:07:00.076Z</time></trkpt><trkpt lat="44.22597" lon="11.4315717"><ele>589.0</ele><time>2026-04-17T10:07:01.076Z</time></trkpt><trkpt lat="44.2258883" lon="11.431655"><ele>589.0</ele><time>2026-04-17T10:07:02.077Z</time></trkpt><trkpt lat="44.2258083" lon="11.4317383"><ele>589.0</ele><time>2026-04-17T10:07:03.077Z</time></trkpt><trkpt lat="44.2257267" lon="11.4318183"><ele>589.0</ele><time>2026-04-17T10:07:04.076Z</time></trkpt><trkpt lat="44.2256517" lon="11.4318783"><ele>589.0</ele><time>2026-04-17T10:07:05.077Z</time></trkpt><trkpt lat="44.2255683" lon="11.4319183"><ele>589.0</ele><time>2026-04-17T10:07:06.077Z</time></trkpt><trkpt lat="44.2254833" lon="11.4319567"><ele>588.5</ele><time>2026-04-17T10:07:07.076Z</time></trkpt><trkpt lat="44.225405" lon="11.43199"><ele>588.0</ele><time>2026-04-17T10:07:08.076Z</time></trkpt><trkpt lat="44.2253317" lon="11.4320267"><ele>587.5</ele><time>2026-04-17T10:07:09.076Z</time></trkpt><trkpt lat="44.2252567" lon="11.4320783"><ele>587.0</ele><time>2026-04-17T10:07:10.076Z</time></trkpt><trkpt lat="44.2251783" lon="11.4321467"><ele>586.5</ele><time>2026-04-17T10:07:11.076Z</time></trkpt><trkpt lat="44.225105" lon="11.43221"><ele>586.0</ele><time>2026-04-17T10:07:12.077Z</time></trkpt><trkpt lat="44.2250317" lon="11.4322783"><ele>586.0</ele><time>2026-04-17T10:07:13.077Z</time></trkpt><trkpt lat="44.22496" lon="11.4323483"><ele>586.0</ele><time>2026-04-17T10:07:14.076Z</time></trkpt><trkpt lat="44.2248883" lon="11.43242"><ele>586.0</ele><time>2026-04-17T10:07:15.076Z</time></trkpt><trkpt lat="44.2248233" lon="11.4324833"><ele>586.0</ele><time>2026-04-17T10:07:16.076Z</time></trkpt><trkpt lat="44.2247633" lon="11.4325467"><ele>586.0</ele><time>2026-04-17T10:07:17.076Z</time></trkpt><trkpt lat="44.224715" lon="11.4326233"><ele>586.0</ele><time>2026-04-17T10:07:18.077Z</time></trkpt><trkpt lat="44.2246733" lon="11.4327133"><ele>584.9999999999999</ele><time>2026-04-17T10:07:19.077Z</time></trkpt><trkpt lat="44.2246433" lon="11.4328133"><ele>584.0</ele><time>2026-04-17T10:07:20.077Z</time></trkpt><trkpt lat="44.2246117" lon="11.43292"><ele>583.0</ele><time>2026-04-17T10:07:21.076Z</time></trkpt><trkpt lat="44.2245833" lon="11.4330183"><ele>582.0</ele><time>2026-04-17T10:07:22.076Z</time></trkpt><trkpt lat="44.2245633" lon="11.4331133"><ele>581.0</ele><time>2026-04-17T10:07:23.077Z</time></trkpt><trkpt lat="44.2245633" lon="11.43321"><ele>579.9999999999999</ele><time>2026-04-17T10:07:24.076Z</time></trkpt><trkpt lat="44.224575" lon="11.4333"><ele>579.0</ele><time>2026-04-17T10:07:25.076Z</time></trkpt><trkpt lat="44.2245867" lon="11.43339"><ele>579.0</ele><time>2026-04-17T10:07:26.076Z</time></trkpt><trkpt lat="44.22459" lon="11.4335383"><ele>579.0</ele><time>2026-04-17T10:07:28.076Z</time></trkpt><trkpt lat="44.2245417" lon="11.4336433"><ele>579.0</ele><time>2026-04-17T10:07:30.077Z</time></trkpt><trkpt lat="44.2244333" lon="11.43367"><ele>579.0</ele><time>2026-04-17T10:07:32.077Z</time></trkpt><trkpt lat="44.224315" lon="11.4336233"><ele>579.0</ele><time>2026-04-17T10:07:34.076Z</time></trkpt><trkpt lat="44.2242533" lon="11.433605"><ele>579.0</ele><time>2026-04-17T10:07:35.076Z</time></trkpt><trkpt lat="44.2241883" lon="11.433605"><ele>579.0</ele><time>2026-04-17T10:07:36.076Z</time></trkpt><trkpt lat="44.22409" lon="11.4336767"><ele>579.0</ele><time>2026-04-17T10:07:38.077Z</time></trkpt><trkpt lat="44.22401" lon="11.4337133"><ele>579.0</ele><time>2026-04-17T10:07:40.077Z</time></trkpt><trkpt lat="44.2239583" lon="11.43364"><ele>579.0</ele><time>2026-04-17T10:07:42.076Z</time></trkpt><trkpt lat="44.2239483" lon="11.4335"><ele>579.0</ele><time>2026-04-17T10:07:44.076Z</time></trkpt><trkpt lat="44.2239767" lon="11.4333367"><ele>578.9999999999999</ele><time>2026-04-17T10:07:46.076Z</time></trkpt><trkpt lat="44.223995" lon="11.4332517"><ele>579.0</ele><time>2026-04-17T10:07:47.077Z</time></trkpt><trkpt lat="44.2240183" lon="11.433155"><ele>579.0</ele><time>2026-04-17T10:07:48.076Z</time></trkpt><trkpt lat="44.22403" lon="11.4330567"><ele>579.0</ele><time>2026-04-17T10:07:49.076Z</time></trkpt><trkpt lat="44.22403" lon="11.43296"><ele>579.0</ele><time>2026-04-17T10:07:50.076Z</time></trkpt><trkpt lat="44.2240217" lon="11.4328567"><ele>578.9999999999999</ele><time>2026-04-17T10:07:51.076Z</time></trkpt><trkpt lat="44.2240083" lon="11.4327567"><ele>579.0</ele><time>2026-04-17T10:07:52.076Z</time></trkpt><trkpt lat="44.22399" lon="11.4326533"><ele>575.2857142857142</ele><time>2026-04-17T10:07:53.076Z</time></trkpt><trkpt lat="44.22396" lon="11.4325667"><ele>571.5714285714286</ele><time>2026-04-17T10:07:54.076Z</time></trkpt><trkpt lat="44.2239283" lon="11.4324667"><ele>567.8571428571429</ele><time>2026-04-17T10:07:55.076Z</time></trkpt><trkpt lat="44.2239067" lon="11.43237"><ele>564.1428571428571</ele><time>2026-04-17T10:07:56.076Z</time></trkpt><trkpt lat="44.2238883" lon="11.432275"><ele>560.4285714285714</ele><time>2026-04-17T10:07:57.077Z</time></trkpt><trkpt lat="44.223875" lon="11.43218"><ele>556.7142857142857</ele><time>2026-04-17T10:07:58.076Z</time></trkpt><trkpt lat="44.2238733" lon="11.4320833"><ele>553.0</ele><time>2026-04-17T10:07:59.076Z</time></trkpt><trkpt lat="44.2238683" lon="11.43198"><ele>552.3333333333334</ele><time>2026-04-17T10:08:00.077Z</time></trkpt><trkpt lat="44.223865" lon="11.4318717"><ele>551.6666666666667</ele><time>2026-04-17T10:08:01.077Z</time></trkpt><trkpt lat="44.2238633" lon="11.4317567"><ele>551.0</ele><time>2026-04-17T10:08:02.076Z</time></trkpt><trkpt lat="44.22386" lon="11.4316433"><ele>550.3333333333334</ele><time>2026-04-17T10:08:03.077Z</time></trkpt><trkpt lat="44.22386" lon="11.4315333"><ele>549.6666666666666</ele><time>2026-04-17T10:08:04.076Z</time></trkpt><trkpt lat="44.2238533" lon="11.4314267"><ele>549.0</ele><time>2026-04-17T10:08:05.076Z</time></trkpt><trkpt lat="44.2238517" lon="11.4313083"><ele>548.0</ele><time>2026-04-17T10:08:06.076Z</time></trkpt><trkpt lat="44.223845" lon="11.431195"><ele>547.0</ele><time>2026-04-17T10:08:07.077Z</time></trkpt><trkpt lat="44.22384" lon="11.431085"><ele>546.0</ele><time>2026-04-17T10:08:08.077Z</time></trkpt><trkpt lat="44.2238267" lon="11.4309767"><ele>545.0</ele><time>2026-04-17T10:08:09.076Z</time></trkpt><trkpt lat="44.22381" lon="11.4308683"><ele>544.0</ele><time>2026-04-17T10:08:10.076Z</time></trkpt><trkpt lat="44.2237933" lon="11.4307617"><ele>543.0</ele><time>2026-04-17T10:08:11.076Z</time></trkpt><trkpt lat="44.223775" lon="11.4306583"><ele>543.0</ele><time>2026-04-17T10:08:12.076Z</time></trkpt><trkpt lat="44.2237633" lon="11.430555"><ele>543.0</ele><time>2026-04-17T10:08:13.076Z</time></trkpt><trkpt lat="44.2237533" lon="11.4304517"><ele>543.0</ele><time>2026-04-17T10:08:14.077Z</time></trkpt><trkpt lat="44.2237383" lon="11.43034"><ele>543.0</ele><time>2026-04-17T10:08:15.076Z</time></trkpt><trkpt lat="44.2237183" lon="11.4302183"><ele>543.0</ele><time>2026-04-17T10:08:16.076Z</time></trkpt><trkpt lat="44.2236983" lon="11.4301"><ele>543.0</ele><time>2026-04-17T10:08:17.077Z</time></trkpt><trkpt lat="44.223675" lon="11.429985"><ele>542.1428571428571</ele><time>2026-04-17T10:08:18.076Z</time></trkpt><trkpt lat="44.2236567" lon="11.4298783"><ele>541.2857142857142</ele><time>2026-04-17T10:08:19.076Z</time></trkpt><trkpt lat="44.2236467" lon="11.4297817"><ele>540.4285714285713</ele><time>2026-04-17T10:08:20.077Z</time></trkpt><trkpt lat="44.2236433" lon="11.4296833"><ele>539.5714285714286</ele><time>2026-04-17T10:08:21.076Z</time></trkpt><trkpt lat="44.223635" lon="11.42959"><ele>538.7142857142857</ele><time>2026-04-17T10:08:22.076Z</time></trkpt><trkpt lat="44.2236233" lon="11.4294867"><ele>537.8571428571428</ele><time>2026-04-17T10:08:23.077Z</time></trkpt><trkpt lat="44.22359" lon="11.4293783"><ele>537.0</ele><time>2026-04-17T10:08:24.076Z</time></trkpt><trkpt lat="44.22357" lon="11.42928"><ele>536.1428571428571</ele><time>2026-04-17T10:08:25.076Z</time></trkpt><trkpt lat="44.2235533" lon="11.42918"><ele>535.2857142857142</ele><time>2026-04-17T10:08:26.077Z</time></trkpt><trkpt lat="44.2235467" lon="11.4290767"><ele>534.4285714285714</ele><time>2026-04-17T10:08:27.076Z</time></trkpt><trkpt lat="44.2235533" lon="11.42898"><ele>533.5714285714286</ele><time>2026-04-17T10:08:28.076Z</time></trkpt><trkpt lat="44.2235733" lon="11.4288833"><ele>532.7142857142858</ele><time>2026-04-17T10:08:29.076Z</time></trkpt><trkpt lat="44.2235917" lon="11.42878"><ele>531.8571428571429</ele><time>2026-04-17T10:08:30.076Z</time></trkpt><trkpt lat="44.2236017" lon="11.4286767"><ele>531.0</ele><time>2026-04-17T10:08:31.076Z</time></trkpt><trkpt lat="44.2235983" lon="11.4285683"><ele>529.6666666666666</ele><time>2026-04-17T10:08:32.077Z</time></trkpt><trkpt lat="44.2235967" lon="11.4284533"><ele>528.3333333333334</ele><time>2026-04-17T10:08:33.076Z</time></trkpt><trkpt lat="44.2236117" lon="11.4283483"><ele>527.0</ele><time>2026-04-17T10:08:34.077Z</time></trkpt><trkpt lat="44.2236417" lon="11.4282483"><ele>525.6666666666667</ele><time>2026-04-17T10:08:35.077Z</time></trkpt><trkpt lat="44.22368" lon="11.4281517"><ele>524.3333333333334</ele><time>2026-04-17T10:08:36.076Z</time></trkpt><trkpt lat="44.2237233" lon="11.42806"><ele>523.0</ele><time>2026-04-17T10:08:37.076Z</time></trkpt><trkpt lat="44.2237617" lon="11.4279683"><ele>521.6666666666667</ele><time>2026-04-17T10:08:38.077Z</time></trkpt><trkpt lat="44.2237967" lon="11.4278783"><ele>520.3333333333334</ele><time>2026-04-17T10:08:39.077Z</time></trkpt><trkpt lat="44.2238317" lon="11.427795"><ele>519.0</ele><time>2026-04-17T10:08:40.077Z</time></trkpt><trkpt lat="44.2238717" lon="11.4277183"><ele>517.6666666666666</ele><time>2026-04-17T10:08:41.076Z</time></trkpt><trkpt lat="44.223915" lon="11.42764"><ele>516.3333333333333</ele><time>2026-04-17T10:08:42.077Z</time></trkpt><trkpt lat="44.22395" lon="11.4275633"><ele>515.0</ele><time>2026-04-17T10:08:43.076Z</time></trkpt><trkpt lat="44.2239667" lon="11.4273967"><ele>515.0</ele><time>2026-04-17T10:08:45.077Z</time></trkpt><trkpt lat="44.223955" lon="11.4272783"><ele>515.0</ele><time>2026-04-17T10:08:46.077Z</time></trkpt><trkpt lat="44.2239283" lon="11.427155"><ele>515.0</ele><time>2026-04-17T10:08:47.076Z</time></trkpt><trkpt lat="44.2238983" lon="11.4270567"><ele>515.0</ele><time>2026-04-17T10:08:48.077Z</time></trkpt><trkpt lat="44.2238667" lon="11.4269567"><ele>515.0</ele><time>2026-04-17T10:08:49.076Z</time></trkpt><trkpt lat="44.223835" lon="11.4268617"><ele>515.0</ele><time>2026-04-17T10:08:50.076Z</time></trkpt><trkpt lat="44.223795" lon="11.4267733"><ele>514.4285714285714</ele><time>2026-04-17T10:08:51.077Z</time></trkpt><trkpt lat="44.2237583" lon="11.42669"><ele>513.8571428571429</ele><time>2026-04-17T10:08:52.077Z</time></trkpt><trkpt lat="44.223725" lon="11.4266067"><ele>513.2857142857142</ele><time>2026-04-17T10:08:53.076Z</time></trkpt><trkpt lat="44.223695" lon="11.4265133"><ele>512.7142857142858</ele><time>2026-04-17T10:08:54.076Z</time></trkpt><trkpt lat="44.2236867" lon="11.4264133"><ele>512.1428571428571</ele><time>2026-04-17T10:08:55.076Z</time></trkpt><trkpt lat="44.2236983" lon="11.4263133"><ele>511.57142857142856</ele><time>2026-04-17T10:08:56.076Z</time></trkpt><trkpt lat="44.2237233" lon="11.4262217"><ele>511.0</ele><time>2026-04-17T10:08:57.076Z</time></trkpt><trkpt lat="44.2237583" lon="11.4261317"><ele>511.00000000000006</ele><time>2026-04-17T10:08:58.076Z</time></trkpt><trkpt lat="44.22379" lon="11.426035"><ele>511.0</ele><time>2026-04-17T10:08:59.076Z</time></trkpt><trkpt lat="44.2237933" lon="11.425945"><ele>511.0</ele><time>2026-04-17T10:09:00.077Z</time></trkpt><trkpt lat="44.2237683" lon="11.425775"><ele>511.0</ele><time>2026-04-17T10:09:02.076Z</time></trkpt><trkpt lat="44.2237317" lon="11.4257017"><ele>511.00000000000006</ele><time>2026-04-17T10:09:03.076Z</time></trkpt><trkpt lat="44.2236733" lon="11.4256433"><ele>511.0</ele><time>2026-04-17T10:09:04.076Z</time></trkpt><trkpt lat="44.2236" lon="11.4256033"><ele>511.0</ele><time>2026-04-17T10:09:05.076Z</time></trkpt><trkpt lat="44.2235183" lon="11.425585"><ele>511.0</ele><time>2026-04-17T10:09:06.077Z</time></trkpt><trkpt lat="44.2234283" lon="11.425615"><ele>511.0</ele><time>2026-04-17T10:09:07.076Z</time></trkpt><trkpt lat="44.2233367" lon="11.4256783"><ele>511.0</ele><time>2026-04-17T10:09:08.076Z</time></trkpt><trkpt lat="44.22325" lon="11.4257183"><ele>511.0</ele><time>2026-04-17T10:09:09.076Z</time></trkpt><trkpt lat="44.2231683" lon="11.42573"><ele>510.33333333333337</ele><time>2026-04-17T10:09:10.077Z</time></trkpt><trkpt lat="44.2230917" lon="11.4257267"><ele>509.6666666666667</ele><time>2026-04-17T10:09:11.075Z</time></trkpt><trkpt lat="44.223015" lon="11.4257083"><ele>509.0</ele><time>2026-04-17T10:09:12.075Z</time></trkpt><trkpt lat="44.2229283" lon="11.4256783"><ele>508.33333333333337</ele><time>2026-04-17T10:09:13.076Z</time></trkpt><trkpt lat="44.2228367" lon="11.4256317"><ele>507.6666666666667</ele><time>2026-04-17T10:09:14.075Z</time></trkpt><trkpt lat="44.2227517" lon="11.425585"><ele>507.0</ele><time>2026-04-17T10:09:15.076Z</time></trkpt><trkpt lat="44.2226733" lon="11.4255367"><ele>507.0</ele><time>2026-04-17T10:09:16.075Z</time></trkpt><trkpt lat="44.222595" lon="11.4254933"><ele>507.0</ele><time>2026-04-17T10:09:17.076Z</time></trkpt><trkpt lat="44.22252" lon="11.42545"><ele>507.0</ele><time>2026-04-17T10:09:18.075Z</time></trkpt><trkpt lat="44.2224483" lon="11.4254167"><ele>507.0</ele><time>2026-04-17T10:09:19.075Z</time></trkpt><trkpt lat="44.2223783" lon="11.425395"><ele>507.0</ele><time>2026-04-17T10:09:20.076Z</time></trkpt><trkpt lat="44.222265" lon="11.4254267"><ele>507.0</ele><time>2026-04-17T10:09:22.075Z</time></trkpt><trkpt lat="44.2222117" lon="11.4254817"><ele>507.0</ele><time>2026-04-17T10:09:23.075Z</time></trkpt><trkpt lat="44.2221667" lon="11.425555"><ele>507.0</ele><time>2026-04-17T10:09:24.075Z</time></trkpt><trkpt lat="44.2221267" lon="11.425635"><ele>507.0</ele><time>2026-04-17T10:09:25.075Z</time></trkpt><trkpt lat="44.22209" lon="11.4257283"><ele>507.0</ele><time>2026-04-17T10:09:26.075Z</time></trkpt><trkpt lat="44.2220467" lon="11.42583"><ele>507.0</ele><time>2026-04-17T10:09:27.075Z</time></trkpt><trkpt lat="44.222005" lon="11.4259467"><ele>507.0</ele><time>2026-04-17T10:09:28.076Z</time></trkpt><trkpt lat="44.2219667" lon="11.4260583"><ele>507.0</ele><time>2026-04-17T10:09:29.075Z</time></trkpt><trkpt lat="44.2219283" lon="11.42616"><ele>507.0</ele><time>2026-04-17T10:09:30.075Z</time></trkpt><trkpt lat="44.2218867" lon="11.4262617"><ele>507.0</ele><time>2026-04-17T10:09:31.075Z</time></trkpt><trkpt lat="44.2218533" lon="11.4263633"><ele>507.0</ele><time>2026-04-17T10:09:32.076Z</time></trkpt><trkpt lat="44.2218267" lon="11.4264633"><ele>507.0</ele><time>2026-04-17T10:09:33.075Z</time></trkpt><trkpt lat="44.2217933" lon="11.4265583"><ele>507.0</ele><time>2026-04-17T10:09:34.076Z</time></trkpt><trkpt lat="44.221755" lon="11.426645"><ele>505.5</ele><time>2026-04-17T10:09:35.075Z</time></trkpt><trkpt lat="44.2217067" lon="11.4267133"><ele>504.0</ele><time>2026-04-17T10:09:36.076Z</time></trkpt><trkpt lat="44.2216433" lon="11.4267583"><ele>502.5</ele><time>2026-04-17T10:09:37.075Z</time></trkpt><trkpt lat="44.2215717" lon="11.4267817"><ele>501.0</ele><time>2026-04-17T10:09:38.075Z</time></trkpt><trkpt lat="44.2214933" lon="11.4267867"><ele>499.5</ele><time>2026-04-17T10:09:39.076Z</time></trkpt><trkpt lat="44.22141" lon="11.4267783"><ele>498.0</ele><time>2026-04-17T10:09:40.075Z</time></trkpt><trkpt lat="44.2213233" lon="11.4267583"><ele>497.6666666666667</ele><time>2026-04-17T10:09:41.075Z</time></trkpt><trkpt lat="44.2212333" lon="11.4267317"><ele>497.33333333333337</ele><time>2026-04-17T10:09:42.075Z</time></trkpt><trkpt lat="44.221145" lon="11.4267067"><ele>497.0</ele><time>2026-04-17T10:09:43.075Z</time></trkpt><trkpt lat="44.2210667" lon="11.426675"><ele>496.6666666666667</ele><time>2026-04-17T10:09:44.075Z</time></trkpt><trkpt lat="44.2209917" lon="11.426655"><ele>496.33333333333337</ele><time>2026-04-17T10:09:45.075Z</time></trkpt><trkpt lat="44.2209133" lon="11.4266583"><ele>496.0</ele><time>2026-04-17T10:09:46.075Z</time></trkpt><trkpt lat="44.22084" lon="11.4266833"><ele>496.00000000000006</ele><time>2026-04-17T10:09:47.076Z</time></trkpt><trkpt lat="44.220775" lon="11.4267433"><ele>496.0</ele><time>2026-04-17T10:09:48.075Z</time></trkpt><trkpt lat="44.2207333" lon="11.4268333"><ele>496.0</ele><time>2026-04-17T10:09:49.075Z</time></trkpt><trkpt lat="44.2207133" lon="11.4269383"><ele>496.0</ele><time>2026-04-17T10:09:50.076Z</time></trkpt><trkpt lat="44.2207083" lon="11.42704"><ele>496.00000000000006</ele><time>2026-04-17T10:09:51.075Z</time></trkpt><trkpt lat="44.220715" lon="11.4271567"><ele>496.0</ele><time>2026-04-17T10:09:52.075Z</time></trkpt><trkpt lat="44.22074" lon="11.4272633"><ele>494.4</ele><time>2026-04-17T10:09:53.075Z</time></trkpt><trkpt lat="44.2207867" lon="11.42737"><ele>492.8</ele><time>2026-04-17T10:09:54.076Z</time></trkpt><trkpt lat="44.2208517" lon="11.4274933"><ele>491.19999999999993</ele><time>2026-04-17T10:09:55.076Z</time></trkpt><trkpt lat="44.2209233" lon="11.4276183"><ele>489.59999999999997</ele><time>2026-04-17T10:09:56.075Z</time></trkpt><trkpt lat="44.2209933" lon="11.42774"><ele>488.0</ele><time>2026-04-17T10:09:57.075Z</time></trkpt><trkpt lat="44.22105" lon="11.4278417"><ele>488.0</ele><time>2026-04-17T10:09:58.075Z</time></trkpt><trkpt lat="44.2210983" lon="11.427935"><ele>487.99999999999994</ele><time>2026-04-17T10:09:59.076Z</time></trkpt><trkpt lat="44.2211383" lon="11.4280917"><ele>487.99999999999994</ele><time>2026-04-17T10:10:01.076Z</time></trkpt><trkpt lat="44.2211083" lon="11.4282483"><ele>488.0</ele><time>2026-04-17T10:10:03.075Z</time></trkpt><trkpt lat="44.22107" lon="11.4283333"><ele>488.0</ele><time>2026-04-17T10:10:04.076Z</time></trkpt><trkpt lat="44.221005" lon="11.42844"><ele>487.2</ele><time>2026-04-17T10:10:05.075Z</time></trkpt><trkpt lat="44.2209433" lon="11.4285583"><ele>486.4</ele><time>2026-04-17T10:10:06.076Z</time></trkpt><trkpt lat="44.2208867" lon="11.4286717"><ele>485.59999999999997</ele><time>2026-04-17T10:10:07.075Z</time></trkpt><trkpt lat="44.2208267" lon="11.4287583"><ele>484.79999999999995</ele><time>2026-04-17T10:10:08.076Z</time></trkpt><trkpt lat="44.22076" lon="11.428825"><ele>484.0</ele><time>2026-04-17T10:10:09.075Z</time></trkpt><trkpt lat="44.2206883" lon="11.4288733"><ele>482.83333333333337</ele><time>2026-04-17T10:10:10.076Z</time></trkpt><trkpt lat="44.22061" lon="11.4289017"><ele>481.6666666666667</ele><time>2026-04-17T10:10:11.075Z</time></trkpt><trkpt lat="44.2205267" lon="11.4289083"><ele>480.5</ele><time>2026-04-17T10:10:12.075Z</time></trkpt><trkpt lat="44.220445" lon="11.4288933"><ele>479.33333333333337</ele><time>2026-04-17T10:10:13.075Z</time></trkpt><trkpt lat="44.2203817" lon="11.42888"><ele>478.1666666666667</ele><time>2026-04-17T10:10:14.076Z</time></trkpt><trkpt lat="44.2203183" lon="11.4288617"><ele>477.0</ele><time>2026-04-17T10:10:15.076Z</time></trkpt><trkpt lat="44.2202117" lon="11.4288317"><ele>477.0</ele><time>2026-04-17T10:10:17.075Z</time></trkpt><trkpt lat="44.2201083" lon="11.4288033"><ele>477.00000000000006</ele><time>2026-04-17T10:10:19.075Z</time></trkpt><trkpt lat="44.2200067" lon="11.4287917"><ele>477.00000000000006</ele><time>2026-04-17T10:10:21.076Z</time></trkpt><trkpt lat="44.2199" lon="11.4287983"><ele>477.0</ele><time>2026-04-17T10:10:23.076Z</time></trkpt><trkpt lat="44.2198267" lon="11.4288217"><ele>477.0</ele><time>2026-04-17T10:10:24.075Z</time></trkpt><trkpt lat="44.21974" lon="11.4288683"><ele>476.20000000000005</ele><time>2026-04-17T10:10:25.075Z</time></trkpt><trkpt lat="44.2196467" lon="11.4289183"><ele>475.40000000000003</ele><time>2026-04-17T10:10:26.075Z</time></trkpt><trkpt lat="44.2195483" lon="11.4289667"><ele>474.59999999999997</ele><time>2026-04-17T10:10:27.076Z</time></trkpt><trkpt lat="44.21946" lon="11.4290167"><ele>473.79999999999995</ele><time>2026-04-17T10:10:28.076Z</time></trkpt><trkpt lat="44.2193817" lon="11.429065"><ele>473.0</ele><time>2026-04-17T10:10:29.075Z</time></trkpt><trkpt lat="44.2193017" lon="11.429135"><ele>473.0</ele><time>2026-04-17T10:10:30.076Z</time></trkpt><trkpt lat="44.2192267" lon="11.4292233"><ele>472.99999999999994</ele><time>2026-04-17T10:10:31.076Z</time></trkpt><trkpt lat="44.21916" lon="11.4293217"><ele>472.99999999999994</ele><time>2026-04-17T10:10:32.076Z</time></trkpt><trkpt lat="44.2191" lon="11.4294283"><ele>473.0</ele><time>2026-04-17T10:10:33.075Z</time></trkpt><trkpt lat="44.21904" lon="11.4295217"><ele>473.0</ele><time>2026-04-17T10:10:34.075Z</time></trkpt><trkpt lat="44.2189833" lon="11.429595"><ele>471.8333333333333</ele><time>2026-04-17T10:10:35.075Z</time></trkpt><trkpt lat="44.2189167" lon="11.4296667"><ele>470.66666666666663</ele><time>2026-04-17T10:10:36.076Z</time></trkpt><trkpt lat="44.2188467" lon="11.4297283"><ele>469.5</ele><time>2026-04-17T10:10:37.075Z</time></trkpt><trkpt lat="44.218775" lon="11.4297667"><ele>468.33333333333337</ele><time>2026-04-17T10:10:38.075Z</time></trkpt><trkpt lat="44.2186967" lon="11.4297983"><ele>467.1666666666667</ele><time>2026-04-17T10:10:39.076Z</time></trkpt><trkpt lat="44.218605" lon="11.4298117"><ele>466.0</ele><time>2026-04-17T10:10:40.075Z</time></trkpt><trkpt lat="44.2185083" lon="11.4298217"><ele>466.0</ele><time>2026-04-17T10:10:41.075Z</time></trkpt><trkpt lat="44.218395" lon="11.4298117"><ele>466.0</ele><time>2026-04-17T10:10:42.076Z</time></trkpt><trkpt lat="44.218275" lon="11.4298"><ele>466.0</ele><time>2026-04-17T10:10:43.076Z</time></trkpt><trkpt lat="44.2181533" lon="11.42978"><ele>466.0</ele><time>2026-04-17T10:10:44.075Z</time></trkpt><trkpt lat="44.218025" lon="11.4297433"><ele>465.4</ele><time>2026-04-17T10:10:45.075Z</time></trkpt><trkpt lat="44.2179083" lon="11.4297317"><ele>464.8</ele><time>2026-04-17T10:10:46.075Z</time></trkpt><trkpt lat="44.2177983" lon="11.429745"><ele>464.19999999999993</ele><time>2026-04-17T10:10:47.076Z</time></trkpt><trkpt lat="44.21769" lon="11.4297767"><ele>463.59999999999997</ele><time>2026-04-17T10:10:48.075Z</time></trkpt><trkpt lat="44.2175883" lon="11.429825"><ele>463.0</ele><time>2026-04-17T10:10:49.075Z</time></trkpt><trkpt lat="44.2174787" lon="11.4298975"><ele>463.0</ele><time>2026-04-17T10:10:50.075Z</time></trkpt><trkpt lat="44.217365" lon="11.4300045"><ele>463.0</ele><time>2026-04-17T10:10:51.075Z</time></trkpt><trkpt lat="44.2172643" lon="11.4301218"><ele>463.0</ele><time>2026-04-17T10:10:52.076Z</time></trkpt><trkpt lat="44.2171841" lon="11.4302439"><ele>463.0</ele><time>2026-04-17T10:10:53.076Z</time></trkpt><trkpt lat="44.2171136" lon="11.4303779"><ele>464.25</ele><time>2026-04-17T10:10:54.075Z</time></trkpt><trkpt lat="44.2170354" lon="11.4305008"><ele>465.5</ele><time>2026-04-17T10:10:55.076Z</time></trkpt><trkpt lat="44.2169447" lon="11.4306117"><ele>466.75</ele><time>2026-04-17T10:10:56.075Z</time></trkpt><trkpt lat="44.2168546" lon="11.430733"><ele>468.0</ele><time>2026-04-17T10:10:57.075Z</time></trkpt><trkpt lat="44.2167781" lon="11.4308623"><ele>468.0</ele><time>2026-04-17T10:10:58.076Z</time></trkpt><trkpt lat="44.2167133" lon="11.4309917"><ele>467.99999999999994</ele><time>2026-04-17T10:10:59.075Z</time></trkpt><trkpt lat="44.2166567" lon="11.4311117"><ele>467.99999999999994</ele><time>2026-04-17T10:11:00.075Z</time></trkpt><trkpt lat="44.2166" lon="11.431235"><ele>468.0</ele><time>2026-04-17T10:11:01.076Z</time></trkpt><trkpt lat="44.2165417" lon="11.4313617"><ele>468.0</ele><time>2026-04-17T10:11:02.075Z</time></trkpt><trkpt lat="44.21648" lon="11.431495"><ele>472.5</ele><time>2026-04-17T10:11:03.075Z</time></trkpt><trkpt lat="44.216405" lon="11.431605"><ele>477.0</ele><time>2026-04-17T10:11:04.076Z</time></trkpt><trkpt lat="44.2163183" lon="11.4317033"><ele>481.5</ele><time>2026-04-17T10:11:05.075Z</time></trkpt><trkpt lat="44.21622" lon="11.4317967"><ele>486.0</ele><time>2026-04-17T10:11:06.075Z</time></trkpt><trkpt lat="44.21611" lon="11.4318967"><ele>486.0</ele><time>2026-04-17T10:11:07.075Z</time></trkpt><trkpt lat="44.2160067" lon="11.4320133"><ele>486.0</ele><time>2026-04-17T10:11:08.075Z</time></trkpt><trkpt lat="44.2159117" lon="11.4321433"><ele>486.0</ele><time>2026-04-17T10:11:09.075Z</time></trkpt><trkpt lat="44.2158183" lon="11.432275"><ele>486.0</ele><time>2026-04-17T10:11:10.075Z</time></trkpt><trkpt lat="44.2157117" lon="11.4323883"><ele>489.25</ele><time>2026-04-17T10:11:11.076Z</time></trkpt><trkpt lat="44.2156067" lon="11.4324883"><ele>492.5</ele><time>2026-04-17T10:11:12.075Z</time></trkpt><trkpt lat="44.2155033" lon="11.4325883"><ele>495.75</ele><time>2026-04-17T10:11:13.075Z</time></trkpt><trkpt lat="44.2154033" lon="11.432665"><ele>499.0</ele><time>2026-04-17T10:11:14.075Z</time></trkpt><trkpt lat="44.2153" lon="11.43272"><ele>499.0</ele><time>2026-04-17T10:11:15.075Z</time></trkpt><trkpt lat="44.2151933" lon="11.4327183"><ele>499.0</ele><time>2026-04-17T10:11:16.075Z</time></trkpt><trkpt lat="44.2150783" lon="11.43268"><ele>499.0</ele><time>2026-04-17T10:11:17.075Z</time></trkpt><trkpt lat="44.2149617" lon="11.4326133"><ele>499.0</ele><time>2026-04-17T10:11:18.075Z</time></trkpt><trkpt lat="44.2148583" lon="11.4325367"><ele>501.4</ele><time>2026-04-17T10:11:19.075Z</time></trkpt><trkpt lat="44.2147667" lon="11.4324583"><ele>503.79999999999995</ele><time>2026-04-17T10:11:20.076Z</time></trkpt><trkpt lat="44.214675" lon="11.4324017"><ele>506.20000000000005</ele><time>2026-04-17T10:11:21.075Z</time></trkpt><trkpt lat="44.2145917" lon="11.4323767"><ele>508.6</ele><time>2026-04-17T10:11:22.076Z</time></trkpt><trkpt lat="44.2145033" lon="11.4323867"><ele>511.0</ele><time>2026-04-17T10:11:23.075Z</time></trkpt><trkpt lat="44.2144117" lon="11.4324233"><ele>511.00000000000006</ele><time>2026-04-17T10:11:24.075Z</time></trkpt><trkpt lat="44.2143167" lon="11.4324533"><ele>511.0</ele><time>2026-04-17T10:11:25.075Z</time></trkpt><trkpt lat="44.2142317" lon="11.43246"><ele>511.0</ele><time>2026-04-17T10:11:26.075Z</time></trkpt><trkpt lat="44.2141667" lon="11.4324617"><ele>511.0</ele><time>2026-04-17T10:11:27.075Z</time></trkpt><trkpt lat="44.214065" lon="11.4324283"><ele>511.00000000000006</ele><time>2026-04-17T10:11:29.075Z</time></trkpt><trkpt lat="44.2139933" lon="11.432375"><ele>511.0</ele><time>2026-04-17T10:11:31.075Z</time></trkpt><trkpt lat="44.21395" lon="11.432235"><ele>518.6</ele><time>2026-04-17T10:11:33.075Z</time></trkpt><trkpt lat="44.21395" lon="11.43212"><ele>526.2</ele><time>2026-04-17T10:11:34.075Z</time></trkpt><trkpt lat="44.2139467" lon="11.431995"><ele>533.8</ele><time>2026-04-17T10:11:35.075Z</time></trkpt><trkpt lat="44.2139433" lon="11.4318683"><ele>541.4</ele><time>2026-04-17T10:11:36.076Z</time></trkpt><trkpt lat="44.213925" lon="11.43174"><ele>549.0</ele><time>2026-04-17T10:11:37.075Z</time></trkpt><trkpt lat="44.2138917" lon="11.4316183"><ele>549.0</ele><time>2026-04-17T10:11:38.075Z</time></trkpt><trkpt lat="44.2138417" lon="11.4315117"><ele>549.0</ele><time>2026-04-17T10:11:39.075Z</time></trkpt><trkpt lat="44.2137867" lon="11.431405"><ele>549.0</ele><time>2026-04-17T10:11:40.075Z</time></trkpt><trkpt lat="44.2137467" lon="11.431295"><ele>549.0</ele><time>2026-04-17T10:11:41.075Z</time></trkpt><trkpt lat="44.2137083" lon="11.431175"><ele>549.0</ele><time>2026-04-17T10:11:42.075Z</time></trkpt><trkpt lat="44.2136783" lon="11.4310367"><ele>548.3333333333334</ele><time>2026-04-17T10:11:43.075Z</time></trkpt><trkpt lat="44.2136483" lon="11.4309"><ele>547.6666666666666</ele><time>2026-04-17T10:11:44.075Z</time></trkpt><trkpt lat="44.21362" lon="11.430805"><ele>547.0</ele><time>2026-04-17T10:11:45.075Z</time></trkpt><trkpt lat="44.2135883" lon="11.4307283"><ele>546.3333333333333</ele><time>2026-04-17T10:11:46.076Z</time></trkpt><trkpt lat="44.21353" lon="11.430675"><ele>545.6666666666666</ele><time>2026-04-17T10:11:47.076Z</time></trkpt><trkpt lat="44.213465" lon="11.430635"><ele>545.0</ele><time>2026-04-17T10:11:48.075Z</time></trkpt><trkpt lat="44.2133567" lon="11.4305167"><ele>542.4</ele><time>2026-04-17T10:11:50.075Z</time></trkpt><trkpt lat="44.2132933" lon="11.4304517"><ele>539.8</ele><time>2026-04-17T10:11:51.075Z</time></trkpt><trkpt lat="44.213235" lon="11.4303517"><ele>537.2</ele><time>2026-04-17T10:11:52.076Z</time></trkpt><trkpt lat="44.213175" lon="11.43024"><ele>534.6</ele><time>2026-04-17T10:11:53.075Z</time></trkpt><trkpt lat="44.21311" lon="11.43013"><ele>532.0</ele><time>2026-04-17T10:11:54.075Z</time></trkpt><trkpt lat="44.21303" lon="11.4300283"><ele>540.75</ele><time>2026-04-17T10:11:55.075Z</time></trkpt><trkpt lat="44.212935" lon="11.429945"><ele>549.5</ele><time>2026-04-17T10:11:56.076Z</time></trkpt><trkpt lat="44.2128383" lon="11.4298567"><ele>558.25</ele><time>2026-04-17T10:11:57.076Z</time></trkpt><trkpt lat="44.21274" lon="11.4297567"><ele>567.0</ele><time>2026-04-17T10:11:58.075Z</time></trkpt><trkpt lat="44.2126483" lon="11.4296633"><ele>571.0</ele><time>2026-04-17T10:11:59.075Z</time></trkpt><trkpt lat="44.2125583" lon="11.4295733"><ele>575.0</ele><time>2026-04-17T10:12:00.076Z</time></trkpt><trkpt lat="44.2124767" lon="11.4294567"><ele>579.0</ele><time>2026-04-17T10:12:01.075Z</time></trkpt><trkpt lat="44.2123883" lon="11.4293433"><ele>583.0</ele><time>2026-04-17T10:12:02.075Z</time></trkpt><trkpt lat="44.2123117" lon="11.42923"><ele>583.0</ele><time>2026-04-17T10:12:03.075Z</time></trkpt><trkpt lat="44.2122267" lon="11.429125"><ele>583.0</ele><time>2026-04-17T10:12:04.076Z</time></trkpt><trkpt lat="44.2121367" lon="11.429015"><ele>583.0</ele><time>2026-04-17T10:12:05.075Z</time></trkpt><trkpt lat="44.212035" lon="11.4289167"><ele>583.0</ele><time>2026-04-17T10:12:06.076Z</time></trkpt><trkpt lat="44.2119383" lon="11.4288"><ele>578.5</ele><time>2026-04-17T10:12:07.075Z</time></trkpt><trkpt lat="44.21183" lon="11.4286733"><ele>574.0</ele><time>2026-04-17T10:12:08.075Z</time></trkpt><trkpt lat="44.2117233" lon="11.4285217"><ele>569.5</ele><time>2026-04-17T10:12:09.075Z</time></trkpt><trkpt lat="44.2116217" lon="11.4283667"><ele>565.0</ele><time>2026-04-17T10:12:10.076Z</time></trkpt><trkpt lat="44.2115233" lon="11.4282083"><ele>570.75</ele><time>2026-04-17T10:12:11.076Z</time></trkpt><trkpt lat="44.211425" lon="11.4280517"><ele>576.5</ele><time>2026-04-17T10:12:12.075Z</time></trkpt><trkpt lat="44.2113333" lon="11.4278983"><ele>582.25</ele><time>2026-04-17T10:12:13.075Z</time></trkpt><trkpt lat="44.211245" lon="11.4277483"><ele>588.0</ele><time>2026-04-17T10:12:14.075Z</time></trkpt><trkpt lat="44.2111683" lon="11.4275917"><ele>588.0</ele><time>2026-04-17T10:12:15.075Z</time></trkpt><trkpt lat="44.2111033" lon="11.42744"><ele>588.0</ele><time>2026-04-17T10:12:16.075Z</time></trkpt><trkpt lat="44.2110317" lon="11.4272783"><ele>588.0</ele><time>2026-04-17T10:12:17.076Z</time></trkpt><trkpt lat="44.21096" lon="11.4271167"><ele>588.0</ele><time>2026-04-17T10:12:18.076Z</time></trkpt><trkpt lat="44.210885" lon="11.4269517"><ele>590.5</ele><time>2026-04-17T10:12:19.076Z</time></trkpt><trkpt lat="44.2108" lon="11.4267917"><ele>593.0</ele><time>2026-04-17T10:12:20.075Z</time></trkpt><trkpt lat="44.2107117" lon="11.4266367"><ele>595.5</ele><time>2026-04-17T10:12:21.076Z</time></trkpt><trkpt lat="44.2106283" lon="11.4264883"><ele>598.0</ele><time>2026-04-17T10:12:22.075Z</time></trkpt><trkpt lat="44.2105467" lon="11.4263367"><ele>590.75</ele><time>2026-04-17T10:12:23.076Z</time></trkpt><trkpt lat="44.210455" lon="11.4261917"><ele>583.5</ele><time>2026-04-17T10:12:24.075Z</time></trkpt><trkpt lat="44.2103767" lon="11.4260517"><ele>576.25</ele><time>2026-04-17T10:12:25.075Z</time></trkpt><trkpt lat="44.21029" lon="11.4259217"><ele>569.0</ele><time>2026-04-17T10:12:26.075Z</time></trkpt><trkpt lat="44.2101933" lon="11.4258183"><ele>569.0</ele><time>2026-04-17T10:12:27.075Z</time></trkpt><trkpt lat="44.210085" lon="11.425745"><ele>569.0</ele><time>2026-04-17T10:12:28.075Z</time></trkpt><trkpt lat="44.2099683" lon="11.4256867"><ele>569.0</ele><time>2026-04-17T10:12:29.076Z</time></trkpt><trkpt lat="44.20985" lon="11.4256283"><ele>569.0</ele><time>2026-04-17T10:12:30.075Z</time></trkpt><trkpt lat="44.20973" lon="11.4255367"><ele>567.25</ele><time>2026-04-17T10:12:31.075Z</time></trkpt><trkpt lat="44.2096217" lon="11.4254067"><ele>565.5</ele><time>2026-04-17T10:12:32.076Z</time></trkpt><trkpt lat="44.2095233" lon="11.4252683"><ele>563.75</ele><time>2026-04-17T10:12:33.075Z</time></trkpt><trkpt lat="44.2094183" lon="11.4251467"><ele>562.0</ele><time>2026-04-17T10:12:34.076Z</time></trkpt><trkpt lat="44.209305" lon="11.4250317"><ele>562.0</ele><time>2026-04-17T10:12:35.075Z</time></trkpt><trkpt lat="44.2092067" lon="11.4249083"><ele>562.0</ele><time>2026-04-17T10:12:36.076Z</time></trkpt><trkpt lat="44.2091233" lon="11.4247733"><ele>562.0</ele><time>2026-04-17T10:12:37.075Z</time></trkpt><trkpt lat="44.2090533" lon="11.42464"><ele>562.0</ele><time>2026-04-17T10:12:38.075Z</time></trkpt><trkpt lat="44.2089833" lon="11.4245133"><ele>564.8000000000001</ele><time>2026-04-17T10:12:39.075Z</time></trkpt><trkpt lat="44.20891" lon="11.4244067"><ele>567.6</ele><time>2026-04-17T10:12:40.075Z</time></trkpt><trkpt lat="44.2088283" lon="11.4243133"><ele>570.4000000000001</ele><time>2026-04-17T10:12:41.075Z</time></trkpt><trkpt lat="44.2087283" lon="11.4242617"><ele>573.2</ele><time>2026-04-17T10:12:42.076Z</time></trkpt><trkpt lat="44.2086367" lon="11.424225"><ele>576.0</ele><time>2026-04-17T10:12:43.075Z</time></trkpt><trkpt lat="44.2085517" lon="11.4241917"><ele>576.0</ele><time>2026-04-17T10:12:44.076Z</time></trkpt><trkpt lat="44.2084983" lon="11.4241283"><ele>576.0</ele><time>2026-04-17T10:12:45.076Z</time></trkpt><trkpt lat="44.2084783" lon="11.4240233"><ele>576.0</ele><time>2026-04-17T10:12:46.075Z</time></trkpt><trkpt lat="44.2084833" lon="11.423895"><ele>576.0</ele><time>2026-04-17T10:12:47.075Z</time></trkpt><trkpt lat="44.2085083" lon="11.4237367"><ele>576.0</ele><time>2026-04-17T10:12:48.075Z</time></trkpt><trkpt lat="44.2085117" lon="11.4235617"><ele>576.0</ele><time>2026-04-17T10:12:49.076Z</time></trkpt><trkpt lat="44.2084783" lon="11.4233583"><ele>576.0</ele><time>2026-04-17T10:12:50.075Z</time></trkpt><trkpt lat="44.2084233" lon="11.4231517"><ele>576.0</ele><time>2026-04-17T10:12:51.075Z</time></trkpt><trkpt lat="44.20836" lon="11.422945"><ele>574.0</ele><time>2026-04-17T10:12:52.075Z</time></trkpt><trkpt lat="44.20829" lon="11.4227367"><ele>572.0</ele><time>2026-04-17T10:12:53.076Z</time></trkpt><trkpt lat="44.2082233" lon="11.4225383"><ele>570.0</ele><time>2026-04-17T10:12:54.076Z</time></trkpt><trkpt lat="44.2081667" lon="11.4223517"><ele>574.75</ele><time>2026-04-17T10:12:55.076Z</time></trkpt><trkpt lat="44.208105" lon="11.4221833"><ele>579.5</ele><time>2026-04-17T10:12:56.075Z</time></trkpt><trkpt lat="44.208035" lon="11.4220233"><ele>584.25</ele><time>2026-04-17T10:12:57.075Z</time></trkpt><trkpt lat="44.2079467" lon="11.4218817"><ele>589.0</ele><time>2026-04-17T10:12:58.075Z</time></trkpt><trkpt lat="44.2078467" lon="11.4217517"><ele>589.0</ele><time>2026-04-17T10:12:59.076Z</time></trkpt><trkpt lat="44.2077567" lon="11.4216283"><ele>589.0</ele><time>2026-04-17T10:13:00.075Z</time></trkpt><trkpt lat="44.2076917" lon="11.4214917"><ele>589.0</ele><time>2026-04-17T10:13:01.075Z</time></trkpt><trkpt lat="44.20766" lon="11.42134"><ele>589.0</ele><time>2026-04-17T10:13:02.075Z</time></trkpt><trkpt lat="44.2076433" lon="11.4211733"><ele>588.0</ele><time>2026-04-17T10:13:03.075Z</time></trkpt><trkpt lat="44.2076267" lon="11.4209917"><ele>587.0</ele><time>2026-04-17T10:13:04.075Z</time></trkpt><trkpt lat="44.207595" lon="11.4208083"><ele>586.0</ele><time>2026-04-17T10:13:05.075Z</time></trkpt><trkpt lat="44.2075483" lon="11.420625"><ele>585.0</ele><time>2026-04-17T10:13:06.076Z</time></trkpt><trkpt lat="44.2074833" lon="11.4204517"><ele>583.75</ele><time>2026-04-17T10:13:07.075Z</time></trkpt><trkpt lat="44.20741" lon="11.42029"><ele>582.5</ele><time>2026-04-17T10:13:08.076Z</time></trkpt><trkpt lat="44.2073283" lon="11.42013"><ele>581.25</ele><time>2026-04-17T10:13:09.075Z</time></trkpt><trkpt lat="44.207235" lon="11.4199733"><ele>580.0</ele><time>2026-04-17T10:13:10.076Z</time></trkpt><trkpt lat="44.2071367" lon="11.419835"><ele>589.0</ele><time>2026-04-17T10:13:11.075Z</time></trkpt><trkpt lat="44.2070333" lon="11.419685"><ele>598.0</ele><time>2026-04-17T10:13:12.076Z</time></trkpt><trkpt lat="44.206925" lon="11.4195383"><ele>607.0</ele><time>2026-04-17T10:13:13.076Z</time></trkpt><trkpt lat="44.2068183" lon="11.4193867"><ele>607.0</ele><time>2026-04-17T10:13:14.075Z</time></trkpt><trkpt lat="44.206715" lon="11.4192317"><ele>607.0</ele><time>2026-04-17T10:13:15.074Z</time></trkpt><trkpt lat="44.20661" lon="11.4190817"><ele>607.0</ele><time>2026-04-17T10:13:16.074Z</time></trkpt><trkpt lat="44.2065017" lon="11.4189317"><ele>611.6666666666667</ele><time>2026-04-17T10:13:17.074Z</time></trkpt><trkpt lat="44.2064017" lon="11.4187717"><ele>616.3333333333334</ele><time>2026-04-17T10:13:18.075Z</time></trkpt><trkpt lat="44.2062983" lon="11.41862"><ele>621.0</ele><time>2026-04-17T10:13:19.074Z</time></trkpt><trkpt lat="44.2061917" lon="11.418475"><ele>621.0</ele><time>2026-04-17T10:13:20.075Z</time></trkpt><trkpt lat="44.2060817" lon="11.418335"><ele>621.0</ele><time>2026-04-17T10:13:21.074Z</time></trkpt><trkpt lat="44.2059667" lon="11.4181967"><ele>621.0</ele><time>2026-04-17T10:13:22.075Z</time></trkpt><trkpt lat="44.2058533" lon="11.4180667"><ele>621.0</ele><time>2026-04-17T10:13:23.074Z</time></trkpt><trkpt lat="44.2057283" lon="11.4179467"><ele>623.75</ele><time>2026-04-17T10:13:24.074Z</time></trkpt><trkpt lat="44.2056033" lon="11.4178317"><ele>626.5</ele><time>2026-04-17T10:13:25.075Z</time></trkpt><trkpt lat="44.20549" lon="11.417705"><ele>629.25</ele><time>2026-04-17T10:13:26.074Z</time></trkpt><trkpt lat="44.2053817" lon="11.41758"><ele>632.0</ele><time>2026-04-17T10:13:27.075Z</time></trkpt><trkpt lat="44.20528" lon="11.4174533"><ele>632.0</ele><time>2026-04-17T10:13:28.075Z</time></trkpt><trkpt lat="44.2051783" lon="11.4173283"><ele>632.0</ele><time>2026-04-17T10:13:29.075Z</time></trkpt><trkpt lat="44.205085" lon="11.4172117"><ele>632.0</ele><time>2026-04-17T10:13:30.074Z</time></trkpt><trkpt lat="44.2049917" lon="11.4171033"><ele>632.0</ele><time>2026-04-17T10:13:31.074Z</time></trkpt><trkpt lat="44.2049067" lon="11.4169983"><ele>635.2</ele><time>2026-04-17T10:13:32.074Z</time></trkpt><trkpt lat="44.20482" lon="11.4169"><ele>638.4000000000001</ele><time>2026-04-17T10:13:33.074Z</time></trkpt><trkpt lat="44.2047333" lon="11.4168067"><ele>641.5999999999999</ele><time>2026-04-17T10:13:34.074Z</time></trkpt><trkpt lat="44.2046483" lon="11.4167267"><ele>644.8</ele><time>2026-04-17T10:13:35.074Z</time></trkpt><trkpt lat="44.2045667" lon="11.41664"><ele>648.0</ele><time>2026-04-17T10:13:36.075Z</time></trkpt><trkpt lat="44.20448" lon="11.4165583"><ele>648.0</ele><time>2026-04-17T10:13:37.075Z</time></trkpt><trkpt lat="44.20439" lon="11.416475"><ele>648.0</ele><time>2026-04-17T10:13:38.074Z</time></trkpt><trkpt lat="44.2043017" lon="11.4163933"><ele>648.0</ele><time>2026-04-17T10:13:39.074Z</time></trkpt><trkpt lat="44.204215" lon="11.4163067"><ele>648.0</ele><time>2026-04-17T10:13:40.074Z</time></trkpt><trkpt lat="44.2041233" lon="11.416215"><ele>648.0</ele><time>2026-04-17T10:13:41.075Z</time></trkpt><trkpt lat="44.2040317" lon="11.4161383"><ele>649.5</ele><time>2026-04-17T10:13:42.074Z</time></trkpt><trkpt lat="44.2039383" lon="11.4160417"><ele>651.0</ele><time>2026-04-17T10:13:43.074Z</time></trkpt><trkpt lat="44.2038433" lon="11.4159567"><ele>652.5</ele><time>2026-04-17T10:13:44.074Z</time></trkpt><trkpt lat="44.2037467" lon="11.415875"><ele>654.0</ele><time>2026-04-17T10:13:45.075Z</time></trkpt><trkpt lat="44.2036367" lon="11.4158"><ele>654.0</ele><time>2026-04-17T10:13:46.075Z</time></trkpt><trkpt lat="44.2035267" lon="11.41572"><ele>654.0</ele><time>2026-04-17T10:13:47.075Z</time></trkpt><trkpt lat="44.2034133" lon="11.4156433"><ele>654.0</ele><time>2026-04-17T10:13:48.074Z</time></trkpt><trkpt lat="44.203305" lon="11.4155583"><ele>654.0</ele><time>2026-04-17T10:13:49.074Z</time></trkpt><trkpt lat="44.2032083" lon="11.4154633"><ele>654.5</ele><time>2026-04-17T10:13:50.074Z</time></trkpt><trkpt lat="44.203115" lon="11.4153667"><ele>655.0</ele><time>2026-04-17T10:13:51.074Z</time></trkpt><trkpt lat="44.2030283" lon="11.4152633"><ele>655.5</ele><time>2026-04-17T10:13:52.075Z</time></trkpt><trkpt lat="44.2029267" lon="11.4151817"><ele>656.0</ele><time>2026-04-17T10:13:53.075Z</time></trkpt><trkpt lat="44.2028183" lon="11.4151217"><ele>656.0</ele><time>2026-04-17T10:13:54.075Z</time></trkpt><trkpt lat="44.2026917" lon="11.41507"><ele>656.0</ele><time>2026-04-17T10:13:55.074Z</time></trkpt><trkpt lat="44.2025617" lon="11.4150217"><ele>656.0</ele><time>2026-04-17T10:13:56.074Z</time></trkpt><trkpt lat="44.2024283" lon="11.4149717"><ele>656.0</ele><time>2026-04-17T10:13:57.075Z</time></trkpt><trkpt lat="44.2022883" lon="11.41492"><ele>658.75</ele><time>2026-04-17T10:13:58.074Z</time></trkpt><trkpt lat="44.2021533" lon="11.4148617"><ele>661.5</ele><time>2026-04-17T10:13:59.075Z</time></trkpt><trkpt lat="44.2020183" lon="11.4148067"><ele>664.25</ele><time>2026-04-17T10:14:00.074Z</time></trkpt><trkpt lat="44.20188" lon="11.4147533"><ele>667.0</ele><time>2026-04-17T10:14:01.074Z</time></trkpt><trkpt lat="44.2017467" lon="11.4147017"><ele>667.0</ele><time>2026-04-17T10:14:02.075Z</time></trkpt><trkpt lat="44.201605" lon="11.4146633"><ele>667.0</ele><time>2026-04-17T10:14:03.074Z</time></trkpt><trkpt lat="44.20146" lon="11.414655"><ele>667.0</ele><time>2026-04-17T10:14:04.075Z</time></trkpt><trkpt lat="44.2013117" lon="11.4146767"><ele>667.0</ele><time>2026-04-17T10:14:05.074Z</time></trkpt><trkpt lat="44.2011667" lon="11.4147267"><ele>668.5</ele><time>2026-04-17T10:14:06.074Z</time></trkpt><trkpt lat="44.2010283" lon="11.41479"><ele>670.0</ele><time>2026-04-17T10:14:07.075Z</time></trkpt><trkpt lat="44.2008983" lon="11.4148633"><ele>671.5</ele><time>2026-04-17T10:14:08.074Z</time></trkpt><trkpt lat="44.2007817" lon="11.4148883"><ele>673.0</ele><time>2026-04-17T10:14:09.074Z</time></trkpt><trkpt lat="44.2006617" lon="11.4148633"><ele>673.5</ele><time>2026-04-17T10:14:10.074Z</time></trkpt><trkpt lat="44.20054" lon="11.4147933"><ele>674.0</ele><time>2026-04-17T10:14:11.075Z</time></trkpt><trkpt lat="44.2004183" lon="11.4147117"><ele>674.5</ele><time>2026-04-17T10:14:12.075Z</time></trkpt><trkpt lat="44.2002967" lon="11.414625"><ele>675.0</ele><time>2026-04-17T10:14:13.075Z</time></trkpt><trkpt lat="44.2001733" lon="11.4145383"><ele>675.0</ele><time>2026-04-17T10:14:14.075Z</time></trkpt><trkpt lat="44.2000517" lon="11.4144433"><ele>675.0</ele><time>2026-04-17T10:14:15.075Z</time></trkpt><trkpt lat="44.1999333" lon="11.4143583"><ele>675.0</ele><time>2026-04-17T10:14:16.075Z</time></trkpt><trkpt lat="44.199805" lon="11.4142733"><ele>675.0</ele><time>2026-04-17T10:14:17.074Z</time></trkpt><trkpt lat="44.1996817" lon="11.41416"><ele>679.5</ele><time>2026-04-17T10:14:18.075Z</time></trkpt><trkpt lat="44.199565" lon="11.4140433"><ele>684.0</ele><time>2026-04-17T10:14:19.075Z</time></trkpt><trkpt lat="44.199455" lon="11.41392"><ele>688.5</ele><time>2026-04-17T10:14:20.074Z</time></trkpt><trkpt lat="44.1993467" lon="11.41377"><ele>693.0</ele><time>2026-04-17T10:14:21.075Z</time></trkpt><trkpt lat="44.199255" lon="11.41362"><ele>693.0</ele><time>2026-04-17T10:14:22.074Z</time></trkpt><trkpt lat="44.1991683" lon="11.41346"><ele>693.0</ele><time>2026-04-17T10:14:23.075Z</time></trkpt><trkpt lat="44.1990883" lon="11.413285"><ele>693.0</ele><time>2026-04-17T10:14:24.074Z</time></trkpt><trkpt lat="44.1990283" lon="11.4130967"><ele>693.0</ele><time>2026-04-17T10:14:25.075Z</time></trkpt><trkpt lat="44.1989867" lon="11.4129067"><ele>697.25</ele><time>2026-04-17T10:14:26.075Z</time></trkpt><trkpt lat="44.1989583" lon="11.4127133"><ele>701.5</ele><time>2026-04-17T10:14:27.075Z</time></trkpt><trkpt lat="44.1989417" lon="11.4125133"><ele>705.75</ele><time>2026-04-17T10:14:28.074Z</time></trkpt><trkpt lat="44.1989133" lon="11.4123183"><ele>710.0</ele><time>2026-04-17T10:14:29.074Z</time></trkpt><trkpt lat="44.1988667" lon="11.41213"><ele>710.0</ele><time>2026-04-17T10:14:30.074Z</time></trkpt><trkpt lat="44.198805" lon="11.41195"><ele>710.0</ele><time>2026-04-17T10:14:31.074Z</time></trkpt><trkpt lat="44.1987317" lon="11.4117783"><ele>710.0</ele><time>2026-04-17T10:14:32.074Z</time></trkpt><trkpt lat="44.1986633" lon="11.4116"><ele>710.0</ele><time>2026-04-17T10:14:33.074Z</time></trkpt><trkpt lat="44.1985967" lon="11.4114133"><ele>709.6666666666666</ele><time>2026-04-17T10:14:34.075Z</time></trkpt><trkpt lat="44.1985333" lon="11.4112217"><ele>709.3333333333334</ele><time>2026-04-17T10:14:35.075Z</time></trkpt><trkpt lat="44.1984767" lon="11.4110267"><ele>709.0</ele><time>2026-04-17T10:14:36.074Z</time></trkpt><trkpt lat="44.1984217" lon="11.4108333"><ele>709.0</ele><time>2026-04-17T10:14:37.074Z</time></trkpt><trkpt lat="44.198365" lon="11.4106417"><ele>709.0</ele><time>2026-04-17T10:14:38.075Z</time></trkpt><trkpt lat="44.1983083" lon="11.4104633"><ele>709.0</ele><time>2026-04-17T10:14:39.075Z</time></trkpt><trkpt lat="44.198275" lon="11.4102767"><ele>709.0</ele><time>2026-04-17T10:14:40.074Z</time></trkpt><trkpt lat="44.19827" lon="11.4100867"><ele>711.5</ele><time>2026-04-17T10:14:41.074Z</time></trkpt><trkpt lat="44.198295" lon="11.40989"><ele>714.0</ele><time>2026-04-17T10:14:42.074Z</time></trkpt><trkpt lat="44.1983433" lon="11.4097033"><ele>716.5</ele><time>2026-04-17T10:14:43.074Z</time></trkpt><trkpt lat="44.1983883" lon="11.4095133"><ele>719.0</ele><time>2026-04-17T10:14:44.075Z</time></trkpt><trkpt lat="44.1984333" lon="11.4093183"><ele>720.25</ele><time>2026-04-17T10:14:45.074Z</time></trkpt><trkpt lat="44.19847" lon="11.4091217"><ele>721.5</ele><time>2026-04-17T10:14:46.075Z</time></trkpt><trkpt lat="44.1984983" lon="11.4089217"><ele>722.75</ele><time>2026-04-17T10:14:47.074Z</time></trkpt><trkpt lat="44.1985233" lon="11.4087317"><ele>724.0</ele><time>2026-04-17T10:14:48.074Z</time></trkpt><trkpt lat="44.1985467" lon="11.4085383"><ele>725.75</ele><time>2026-04-17T10:14:49.074Z</time></trkpt><trkpt lat="44.1985617" lon="11.4083533"><ele>727.5</ele><time>2026-04-17T10:14:50.075Z</time></trkpt><trkpt lat="44.198575" lon="11.4081633"><ele>729.25</ele><time>2026-04-17T10:14:51.075Z</time></trkpt><trkpt lat="44.19859" lon="11.4079717"><ele>731.0</ele><time>2026-04-17T10:14:52.074Z</time></trkpt><trkpt lat="44.1986067" lon="11.4077767"><ele>733.0</ele><time>2026-04-17T10:14:53.074Z</time></trkpt><trkpt lat="44.1986267" lon="11.4075783"><ele>735.0</ele><time>2026-04-17T10:14:54.074Z</time></trkpt><trkpt lat="44.19863" lon="11.4073767"><ele>737.0</ele><time>2026-04-17T10:14:55.074Z</time></trkpt><trkpt lat="44.198625" lon="11.4071783"><ele>739.0</ele><time>2026-04-17T10:14:56.075Z</time></trkpt><trkpt lat="44.19862" lon="11.4069867"><ele>740.75</ele><time>2026-04-17T10:14:57.075Z</time></trkpt><trkpt lat="44.1986083" lon="11.4067933"><ele>742.5</ele><time>2026-04-17T10:14:58.075Z</time></trkpt><trkpt lat="44.19859" lon="11.4066017"><ele>744.25</ele><time>2026-04-17T10:14:59.074Z</time></trkpt><trkpt lat="44.1985767" lon="11.4064083"><ele>746.0</ele><time>2026-04-17T10:15:00.075Z</time></trkpt><trkpt lat="44.1985783" lon="11.4062117"><ele>747.5</ele><time>2026-04-17T10:15:01.074Z</time></trkpt><trkpt lat="44.198605" lon="11.4060133"><ele>749.0</ele><time>2026-04-17T10:15:02.074Z</time></trkpt><trkpt lat="44.198655" lon="11.405825"><ele>750.5</ele><time>2026-04-17T10:15:03.074Z</time></trkpt><trkpt lat="44.19872" lon="11.4056417"><ele>752.0</ele><time>2026-04-17T10:15:04.074Z</time></trkpt><trkpt lat="44.1987867" lon="11.40545"><ele>753.0</ele><time>2026-04-17T10:15:05.074Z</time></trkpt><trkpt lat="44.1988483" lon="11.4052567"><ele>754.0</ele><time>2026-04-17T10:15:06.074Z</time></trkpt><trkpt lat="44.19891" lon="11.40507"><ele>755.0</ele><time>2026-04-17T10:15:07.074Z</time></trkpt><trkpt lat="44.1989733" lon="11.4048833"><ele>756.0</ele><time>2026-04-17T10:15:08.074Z</time></trkpt><trkpt lat="44.19904" lon="11.404705"><ele>757.75</ele><time>2026-04-17T10:15:09.075Z</time></trkpt><trkpt lat="44.19912" lon="11.40455"><ele>759.5</ele><time>2026-04-17T10:15:10.074Z</time></trkpt><trkpt lat="44.1992167" lon="11.4044017"><ele>761.25</ele><time>2026-04-17T10:15:11.074Z</time></trkpt><trkpt lat="44.1993283" lon="11.4042867"><ele>763.0</ele><time>2026-04-17T10:15:12.074Z</time></trkpt><trkpt lat="44.199455" lon="11.4041967"><ele>763.0</ele><time>2026-04-17T10:15:13.075Z</time></trkpt><trkpt lat="44.199595" lon="11.40413"><ele>763.0</ele><time>2026-04-17T10:15:14.074Z</time></trkpt><trkpt lat="44.19974" lon="11.4041"><ele>763.0</ele><time>2026-04-17T10:15:15.074Z</time></trkpt><trkpt lat="44.199895" lon="11.4040867"><ele>764.0</ele><time>2026-04-17T10:15:16.074Z</time></trkpt><trkpt lat="44.2000367" lon="11.4040733"><ele>765.0</ele><time>2026-04-17T10:15:17.074Z</time></trkpt><trkpt lat="44.200175" lon="11.4040367"><ele>766.0</ele><time>2026-04-17T10:15:18.074Z</time></trkpt><trkpt lat="44.2003117" lon="11.403975"><ele>767.0</ele><time>2026-04-17T10:15:19.074Z</time></trkpt><trkpt lat="44.2004367" lon="11.4038683"><ele>769.0</ele><time>2026-04-17T10:15:20.075Z</time></trkpt><trkpt lat="44.20055" lon="11.4037333"><ele>771.0</ele><time>2026-04-17T10:15:21.075Z</time></trkpt><trkpt lat="44.20066" lon="11.403585"><ele>773.0</ele><time>2026-04-17T10:15:22.074Z</time></trkpt><trkpt lat="44.200755" lon="11.403435"><ele>775.0</ele><time>2026-04-17T10:15:23.075Z</time></trkpt><trkpt lat="44.2008483" lon="11.4032767"><ele>775.0</ele><time>2026-04-17T10:15:24.074Z</time></trkpt><trkpt lat="44.2009333" lon="11.4031083"><ele>775.0</ele><time>2026-04-17T10:15:25.075Z</time></trkpt><trkpt lat="44.2010017" lon="11.4029333"><ele>775.0</ele><time>2026-04-17T10:15:26.074Z</time></trkpt><trkpt lat="44.2010667" lon="11.4027367"><ele>775.0</ele><time>2026-04-17T10:15:27.075Z</time></trkpt><trkpt lat="44.201115" lon="11.402535"><ele>779.0</ele><time>2026-04-17T10:15:28.075Z</time></trkpt><trkpt lat="44.2011617" lon="11.4023267"><ele>783.0</ele><time>2026-04-17T10:15:29.074Z</time></trkpt><trkpt lat="44.2012117" lon="11.4021183"><ele>787.0</ele><time>2026-04-17T10:15:30.074Z</time></trkpt><trkpt lat="44.20125" lon="11.4019117"><ele>789.0</ele><time>2026-04-17T10:15:31.074Z</time></trkpt><trkpt lat="44.20129" lon="11.4017083"><ele>791.0</ele><time>2026-04-17T10:15:32.074Z</time></trkpt><trkpt lat="44.201335" lon="11.401505"><ele>793.0</ele><time>2026-04-17T10:15:33.074Z</time></trkpt><trkpt lat="44.2013717" lon="11.4013117"><ele>795.0</ele><time>2026-04-17T10:15:34.075Z</time></trkpt><trkpt lat="44.2014033" lon="11.4011117"><ele>795.5</ele><time>2026-04-17T10:15:35.075Z</time></trkpt><trkpt lat="44.20143" lon="11.4009117"><ele>796.0</ele><time>2026-04-17T10:15:36.074Z</time></trkpt><trkpt lat="44.2014483" lon="11.4007033"><ele>796.5</ele><time>2026-04-17T10:15:37.074Z</time></trkpt><trkpt lat="44.201465" lon="11.4005033"><ele>797.0</ele><time>2026-04-17T10:15:38.075Z</time></trkpt><trkpt lat="44.20148" lon="11.4003117"><ele>797.75</ele><time>2026-04-17T10:15:39.075Z</time></trkpt><trkpt lat="44.2014917" lon="11.40013"><ele>798.5</ele><time>2026-04-17T10:15:40.074Z</time></trkpt><trkpt lat="44.201495" lon="11.3999483"><ele>799.25</ele><time>2026-04-17T10:15:41.074Z</time></trkpt><trkpt lat="44.2014783" lon="11.3997667"><ele>800.0</ele><time>2026-04-17T10:15:42.075Z</time></trkpt><trkpt lat="44.2014383" lon="11.3996033"><ele>801.75</ele><time>2026-04-17T10:15:43.075Z</time></trkpt><trkpt lat="44.2013667" lon="11.399465"><ele>803.5</ele><time>2026-04-17T10:15:44.074Z</time></trkpt><trkpt lat="44.2012583" lon="11.3993467"><ele>805.25</ele><time>2026-04-17T10:15:45.074Z</time></trkpt><trkpt lat="44.2011333" lon="11.3992383"><ele>807.0</ele><time>2026-04-17T10:15:46.074Z</time></trkpt><trkpt lat="44.2010033" lon="11.3991333"><ele>807.0</ele><time>2026-04-17T10:15:47.074Z</time></trkpt><trkpt lat="44.200875" lon="11.39901"><ele>807.0</ele><time>2026-04-17T10:15:48.074Z</time></trkpt><trkpt lat="44.2007583" lon="11.398875"><ele>807.0</ele><time>2026-04-17T10:15:49.074Z</time></trkpt><trkpt lat="44.200655" lon="11.3987233"><ele>806.0</ele><time>2026-04-17T10:15:50.074Z</time></trkpt><trkpt lat="44.200565" lon="11.3985583"><ele>805.0</ele><time>2026-04-17T10:15:51.074Z</time></trkpt><trkpt lat="44.2004817" lon="11.398375"><ele>804.0</ele><time>2026-04-17T10:15:52.074Z</time></trkpt><trkpt lat="44.2004067" lon="11.3981967"><ele>804.0</ele><time>2026-04-17T10:15:53.074Z</time></trkpt><trkpt lat="44.2003283" lon="11.3980217"><ele>804.0</ele><time>2026-04-17T10:15:54.074Z</time></trkpt><trkpt lat="44.2002517" lon="11.39786"><ele>804.0</ele><time>2026-04-17T10:15:55.075Z</time></trkpt><trkpt lat="44.200185" lon="11.3976933"><ele>804.0</ele><time>2026-04-17T10:15:56.075Z</time></trkpt><trkpt lat="44.200135" lon="11.3975417"><ele>806.5</ele><time>2026-04-17T10:15:57.075Z</time></trkpt><trkpt lat="44.2001167" lon="11.3973817"><ele>809.0</ele><time>2026-04-17T10:15:58.074Z</time></trkpt><trkpt lat="44.20014" lon="11.3972117"><ele>811.5</ele><time>2026-04-17T10:15:59.074Z</time></trkpt><trkpt lat="44.2001967" lon="11.39706"><ele>814.0</ele><time>2026-04-17T10:16:00.074Z</time></trkpt><trkpt lat="44.2002783" lon="11.3969433"><ele>814.0</ele><time>2026-04-17T10:16:01.074Z</time></trkpt><trkpt lat="44.20038" lon="11.396835"><ele>814.0</ele><time>2026-04-17T10:16:02.074Z</time></trkpt><trkpt lat="44.2004883" lon="11.3967083"><ele>814.0</ele><time>2026-04-17T10:16:03.075Z</time></trkpt><trkpt lat="44.200605" lon="11.3965817"><ele>814.0</ele><time>2026-04-17T10:16:04.074Z</time></trkpt><trkpt lat="44.2007267" lon="11.39647"><ele>816.25</ele><time>2026-04-17T10:16:05.075Z</time></trkpt><trkpt lat="44.2008583" lon="11.39637"><ele>818.5</ele><time>2026-04-17T10:16:06.075Z</time></trkpt><trkpt lat="44.2009933" lon="11.3962867"><ele>820.75</ele><time>2026-04-17T10:16:07.074Z</time></trkpt><trkpt lat="44.2011317" lon="11.39622"><ele>823.0</ele><time>2026-04-17T10:16:08.074Z</time></trkpt><trkpt lat="44.20126" lon="11.3961283"><ele>823.0</ele><time>2026-04-17T10:16:09.074Z</time></trkpt><trkpt lat="44.2013717" lon="11.396005"><ele>823.0</ele><time>2026-04-17T10:16:10.075Z</time></trkpt><trkpt lat="44.201475" lon="11.3958567"><ele>823.0</ele><time>2026-04-17T10:16:11.075Z</time></trkpt><trkpt lat="44.20156" lon="11.3956933"><ele>823.0</ele><time>2026-04-17T10:16:12.074Z</time></trkpt><trkpt lat="44.20163" lon="11.3955183"><ele>826.3333333333333</ele><time>2026-04-17T10:16:13.074Z</time></trkpt><trkpt lat="44.2016983" lon="11.39534"><ele>829.6666666666667</ele><time>2026-04-17T10:16:14.075Z</time></trkpt><trkpt lat="44.20178" lon="11.395165"><ele>833.0</ele><time>2026-04-17T10:16:15.074Z</time></trkpt><trkpt lat="44.2018783" lon="11.3949967"><ele>833.0</ele><time>2026-04-17T10:16:16.074Z</time></trkpt><trkpt lat="44.2019833" lon="11.3948333"><ele>833.0</ele><time>2026-04-17T10:16:17.075Z</time></trkpt><trkpt lat="44.2021" lon="11.3946667"><ele>833.0</ele><time>2026-04-17T10:16:18.074Z</time></trkpt><trkpt lat="44.2022083" lon="11.39449"><ele>830.6666666666667</ele><time>2026-04-17T10:16:19.075Z</time></trkpt><trkpt lat="44.2023" lon="11.3943033"><ele>828.3333333333333</ele><time>2026-04-17T10:16:20.075Z</time></trkpt><trkpt lat="44.2023683" lon="11.3941133"><ele>826.0</ele><time>2026-04-17T10:16:21.074Z</time></trkpt><trkpt lat="44.2024183" lon="11.3939267"><ele>831.0</ele><time>2026-04-17T10:16:22.075Z</time></trkpt><trkpt lat="44.20246" lon="11.39373"><ele>836.0</ele><time>2026-04-17T10:16:23.074Z</time></trkpt><trkpt lat="44.2024817" lon="11.3935383"><ele>841.0</ele><time>2026-04-17T10:16:24.074Z</time></trkpt><trkpt lat="44.20249" lon="11.3933583"><ele>846.0</ele><time>2026-04-17T10:16:25.075Z</time></trkpt><trkpt lat="44.20246" lon="11.3932"><ele>846.0</ele><time>2026-04-17T10:16:26.074Z</time></trkpt><trkpt lat="44.2023883" lon="11.3930317"><ele>846.0</ele><time>2026-04-17T10:16:27.075Z</time></trkpt><trkpt lat="44.202305" lon="11.3928583"><ele>846.0</ele><time>2026-04-17T10:16:28.074Z</time></trkpt><trkpt lat="44.2022267" lon="11.3926717"><ele>846.0</ele><time>2026-04-17T10:16:29.074Z</time></trkpt><trkpt lat="44.2021683" lon="11.3924917"><ele>845.5</ele><time>2026-04-17T10:16:30.075Z</time></trkpt><trkpt lat="44.2021233" lon="11.3923017"><ele>845.0</ele><time>2026-04-17T10:16:31.075Z</time></trkpt><trkpt lat="44.2020917" lon="11.3921033"><ele>844.5</ele><time>2026-04-17T10:16:32.075Z</time></trkpt><trkpt lat="44.20206" lon="11.39191"><ele>844.0</ele><time>2026-04-17T10:16:33.074Z</time></trkpt><trkpt lat="44.20203" lon="11.3917233"><ele>844.0</ele><time>2026-04-17T10:16:34.074Z</time></trkpt><trkpt lat="44.2020067" lon="11.3915367"><ele>844.0</ele><time>2026-04-17T10:16:35.075Z</time></trkpt><trkpt lat="44.202" lon="11.3913517"><ele>844.0</ele><time>2026-04-17T10:16:36.075Z</time></trkpt><trkpt lat="44.2020117" lon="11.3911617"><ele>844.0</ele><time>2026-04-17T10:16:37.074Z</time></trkpt><trkpt lat="44.202055" lon="11.3909783"><ele>845.25</ele><time>2026-04-17T10:16:38.075Z</time></trkpt><trkpt lat="44.202105" lon="11.3907867"><ele>846.5</ele><time>2026-04-17T10:16:39.074Z</time></trkpt><trkpt lat="44.2021617" lon="11.3905967"><ele>847.75</ele><time>2026-04-17T10:16:40.075Z</time></trkpt><trkpt lat="44.202215" lon="11.39041"><ele>849.0</ele><time>2026-04-17T10:16:41.075Z</time></trkpt><trkpt lat="44.2022633" lon="11.3902217"><ele>849.0</ele><time>2026-04-17T10:16:42.074Z</time></trkpt><trkpt lat="44.202295" lon="11.3900333"><ele>849.0</ele><time>2026-04-17T10:16:43.075Z</time></trkpt><trkpt lat="44.202305" lon="11.38984"><ele>849.0</ele><time>2026-04-17T10:16:44.074Z</time></trkpt><trkpt lat="44.2022917" lon="11.3896467"><ele>849.0</ele><time>2026-04-17T10:16:45.074Z</time></trkpt><trkpt lat="44.2022417" lon="11.3894617"><ele>850.75</ele><time>2026-04-17T10:16:46.074Z</time></trkpt><trkpt lat="44.2021667" lon="11.3892867"><ele>852.5</ele><time>2026-04-17T10:16:47.075Z</time></trkpt><trkpt lat="44.2021" lon="11.3891133"><ele>854.25</ele><time>2026-04-17T10:16:48.074Z</time></trkpt><trkpt lat="44.2020417" lon="11.3889233"><ele>856.0</ele><time>2026-04-17T10:16:49.075Z</time></trkpt><trkpt lat="44.2019933" lon="11.38872"><ele>859.0</ele><time>2026-04-17T10:16:50.075Z</time></trkpt><trkpt lat="44.20195" lon="11.3885167"><ele>862.0</ele><time>2026-04-17T10:16:51.074Z</time></trkpt><trkpt lat="44.2019083" lon="11.3883067"><ele>865.0</ele><time>2026-04-17T10:16:52.074Z</time></trkpt><trkpt lat="44.201865" lon="11.3881033"><ele>867.5</ele><time>2026-04-17T10:16:53.074Z</time></trkpt><trkpt lat="44.2018083" lon="11.3879117"><ele>870.0</ele><time>2026-04-17T10:16:54.074Z</time></trkpt><trkpt lat="44.201725" lon="11.3877433"><ele>872.5</ele><time>2026-04-17T10:16:55.074Z</time></trkpt><trkpt lat="44.2016233" lon="11.387595"><ele>875.0</ele><time>2026-04-17T10:16:56.075Z</time></trkpt><trkpt lat="44.2015133" lon="11.3874617"><ele>876.0</ele><time>2026-04-17T10:16:57.074Z</time></trkpt><trkpt lat="44.2014033" lon="11.3873267"><ele>877.0</ele><time>2026-04-17T10:16:58.074Z</time></trkpt><trkpt lat="44.2012883" lon="11.3872033"><ele>878.0</ele><time>2026-04-17T10:16:59.074Z</time></trkpt><trkpt lat="44.20117" lon="11.3870867"><ele>879.0</ele><time>2026-04-17T10:17:00.074Z</time></trkpt><trkpt lat="44.2010567" lon="11.3869683"><ele>879.0</ele><time>2026-04-17T10:17:01.075Z</time></trkpt><trkpt lat="44.20093" lon="11.386865"><ele>879.0</ele><time>2026-04-17T10:17:02.074Z</time></trkpt><trkpt lat="44.200795" lon="11.38679"><ele>879.0</ele><time>2026-04-17T10:17:03.074Z</time></trkpt><trkpt lat="44.20065" lon="11.386765"><ele>879.0</ele><time>2026-04-17T10:17:04.074Z</time></trkpt><trkpt lat="44.2005" lon="11.386775"><ele>876.5</ele><time>2026-04-17T10:17:05.074Z</time></trkpt><trkpt lat="44.2003633" lon="11.3867967"><ele>874.0</ele><time>2026-04-17T10:17:06.074Z</time></trkpt><trkpt lat="44.2002367" lon="11.38679"><ele>871.5</ele><time>2026-04-17T10:17:07.074Z</time></trkpt><trkpt lat="44.2001183" lon="11.3867233"><ele>869.0</ele><time>2026-04-17T10:17:08.075Z</time></trkpt><trkpt lat="44.2000133" lon="11.386615"><ele>869.0</ele><time>2026-04-17T10:17:09.075Z</time></trkpt><trkpt lat="44.1999267" lon="11.38647"><ele>869.0</ele><time>2026-04-17T10:17:10.075Z</time></trkpt><trkpt lat="44.1998483" lon="11.38631"><ele>869.0</ele><time>2026-04-17T10:17:11.074Z</time></trkpt><trkpt lat="44.1997883" lon="11.3861417"><ele>869.0</ele><time>2026-04-17T10:17:12.074Z</time></trkpt><trkpt lat="44.19974" lon="11.3859517"><ele>868.5</ele><time>2026-04-17T10:17:13.074Z</time></trkpt><trkpt lat="44.199705" lon="11.3857667"><ele>868.0</ele><time>2026-04-17T10:17:14.075Z</time></trkpt><trkpt lat="44.1996733" lon="11.3855883"><ele>867.5</ele><time>2026-04-17T10:17:15.074Z</time></trkpt><trkpt lat="44.1996367" lon="11.3854033"><ele>867.0</ele><time>2026-04-17T10:17:16.075Z</time></trkpt><trkpt lat="44.199585" lon="11.3852217"><ele>867.0</ele><time>2026-04-17T10:17:17.074Z</time></trkpt><trkpt lat="44.1995233" lon="11.38505"><ele>867.0</ele><time>2026-04-17T10:17:18.074Z</time></trkpt><trkpt lat="44.1994467" lon="11.38488"><ele>867.0</ele><time>2026-04-17T10:17:19.075Z</time></trkpt><trkpt lat="44.1993633" lon="11.384715"><ele>867.0</ele><time>2026-04-17T10:17:20.074Z</time></trkpt><trkpt lat="44.1992683" lon="11.384565"><ele>867.5</ele><time>2026-04-17T10:17:21.074Z</time></trkpt><trkpt lat="44.199165" lon="11.3844283"><ele>868.0</ele><time>2026-04-17T10:17:22.074Z</time></trkpt><trkpt lat="44.1990567" lon="11.384305"><ele>868.5</ele><time>2026-04-17T10:17:23.075Z</time></trkpt><trkpt lat="44.1989383" lon="11.3841833"><ele>869.0</ele><time>2026-04-17T10:17:24.075Z</time></trkpt><trkpt lat="44.1988117" lon="11.3840733"><ele>869.0</ele><time>2026-04-17T10:17:25.074Z</time></trkpt><trkpt lat="44.1986817" lon="11.384"><ele>869.0</ele><time>2026-04-17T10:17:26.074Z</time></trkpt><trkpt lat="44.1985367" lon="11.3839767"><ele>869.0</ele><time>2026-04-17T10:17:27.074Z</time></trkpt><trkpt lat="44.1983867" lon="11.3839933"><ele>869.0</ele><time>2026-04-17T10:17:28.074Z</time></trkpt><trkpt lat="44.1982417" lon="11.3840233"><ele>869.25</ele><time>2026-04-17T10:17:29.075Z</time></trkpt><trkpt lat="44.1981033" lon="11.3840533"><ele>869.5</ele><time>2026-04-17T10:17:30.075Z</time></trkpt><trkpt lat="44.19797" lon="11.38409"><ele>869.75</ele><time>2026-04-17T10:17:31.075Z</time></trkpt><trkpt lat="44.1978467" lon="11.38412"><ele>870.0</ele><time>2026-04-17T10:17:32.074Z</time></trkpt><trkpt lat="44.1977267" lon="11.3841183"><ele>870.0</ele><time>2026-04-17T10:17:33.074Z</time></trkpt><trkpt lat="44.1976017" lon="11.3840617"><ele>870.0</ele><time>2026-04-17T10:17:34.075Z</time></trkpt><trkpt lat="44.1974867" lon="11.383955"><ele>870.0</ele><time>2026-04-17T10:17:35.074Z</time></trkpt><trkpt lat="44.19738" lon="11.38381"><ele>870.0</ele><time>2026-04-17T10:17:36.074Z</time></trkpt><trkpt lat="44.1972767" lon="11.3836517"><ele>870.6666666666667</ele><time>2026-04-17T10:17:37.075Z</time></trkpt><trkpt lat="44.1971667" lon="11.3834883"><ele>871.3333333333334</ele><time>2026-04-17T10:17:38.074Z</time></trkpt><trkpt lat="44.1970467" lon="11.3833333"><ele>872.0</ele><time>2026-04-17T10:17:39.073Z</time></trkpt><trkpt lat="44.1969183" lon="11.383195"><ele>872.0</ele><time>2026-04-17T10:17:40.074Z</time></trkpt><trkpt lat="44.1967817" lon="11.3830783"><ele>872.0</ele><time>2026-04-17T10:17:41.074Z</time></trkpt><trkpt lat="44.1966533" lon="11.38298"><ele>872.0</ele><time>2026-04-17T10:17:42.074Z</time></trkpt><trkpt lat="44.196535" lon="11.3828683"><ele>872.0</ele><time>2026-04-17T10:17:43.074Z</time></trkpt><trkpt lat="44.196455" lon="11.3827317"><ele>872.0</ele><time>2026-04-17T10:17:44.074Z</time></trkpt><trkpt lat="44.1963983" lon="11.3825567"><ele>872.0</ele><time>2026-04-17T10:17:45.073Z</time></trkpt><trkpt lat="44.1963533" lon="11.3823467"><ele>872.0</ele><time>2026-04-17T10:17:46.073Z</time></trkpt><trkpt lat="44.196315" lon="11.3821183"><ele>872.0</ele><time>2026-04-17T10:17:47.073Z</time></trkpt><trkpt lat="44.1962933" lon="11.38188"><ele>872.0</ele><time>2026-04-17T10:17:48.074Z</time></trkpt><trkpt lat="44.1962533" lon="11.3816417"><ele>872.0</ele><time>2026-04-17T10:17:49.073Z</time></trkpt><trkpt lat="44.1961983" lon="11.381425"><ele>874.3333333333334</ele><time>2026-04-17T10:17:50.073Z</time></trkpt><trkpt lat="44.196115" lon="11.3812267"><ele>876.6666666666667</ele><time>2026-04-17T10:17:51.074Z</time></trkpt><trkpt lat="44.195995" lon="11.38105"><ele>879.0</ele><time>2026-04-17T10:17:52.073Z</time></trkpt><trkpt lat="44.19587" lon="11.3808933"><ele>879.0</ele><time>2026-04-17T10:17:53.073Z</time></trkpt><trkpt lat="44.1957267" lon="11.38074"><ele>879.0</ele><time>2026-04-17T10:17:54.074Z</time></trkpt><trkpt lat="44.1955717" lon="11.38058"><ele>879.0</ele><time>2026-04-17T10:17:55.073Z</time></trkpt><trkpt lat="44.1954167" lon="11.38042"><ele>880.6666666666667</ele><time>2026-04-17T10:17:56.074Z</time></trkpt><trkpt lat="44.1952667" lon="11.3802783"><ele>882.3333333333334</ele><time>2026-04-17T10:17:57.074Z</time></trkpt><trkpt lat="44.1951217" lon="11.3801483"><ele>884.0</ele><time>2026-04-17T10:17:58.073Z</time></trkpt><trkpt lat="44.19497" lon="11.3800567"><ele>882.3333333333334</ele><time>2026-04-17T10:17:59.073Z</time></trkpt><trkpt lat="44.194805" lon="11.37997"><ele>880.6666666666667</ele><time>2026-04-17T10:18:00.074Z</time></trkpt><trkpt lat="44.19464" lon="11.3798883"><ele>879.0</ele><time>2026-04-17T10:18:01.073Z</time></trkpt><trkpt lat="44.19448" lon="11.3798133"><ele>879.0</ele><time>2026-04-17T10:18:02.073Z</time></trkpt><trkpt lat="44.194315" lon="11.3797333"><ele>879.0</ele><time>2026-04-17T10:18:03.073Z</time></trkpt><trkpt lat="44.1941533" lon="11.379655"><ele>879.0</ele><time>2026-04-17T10:18:04.073Z</time></trkpt><trkpt lat="44.19399" lon="11.379575"><ele>881.0</ele><time>2026-04-17T10:18:05.073Z</time></trkpt><trkpt lat="44.19383" lon="11.379495"><ele>883.0</ele><time>2026-04-17T10:18:06.073Z</time></trkpt><trkpt lat="44.193675" lon="11.3794233"><ele>885.0</ele><time>2026-04-17T10:18:07.073Z</time></trkpt><trkpt lat="44.1935367" lon="11.37936"><ele>885.0</ele><time>2026-04-17T10:18:08.074Z</time></trkpt><trkpt lat="44.193405" lon="11.3792983"><ele>885.0</ele><time>2026-04-17T10:18:09.073Z</time></trkpt><trkpt lat="44.1932933" lon="11.3792"><ele>885.0</ele><time>2026-04-17T10:18:10.073Z</time></trkpt><trkpt lat="44.193215" lon="11.3790617"><ele>885.0</ele><time>2026-04-17T10:18:11.073Z</time></trkpt><trkpt lat="44.1931567" lon="11.3788883"><ele>883.0</ele><time>2026-04-17T10:18:12.074Z</time></trkpt><trkpt lat="44.1931117" lon="11.3786967"><ele>881.0</ele><time>2026-04-17T10:18:13.074Z</time></trkpt><trkpt lat="44.1930633" lon="11.378505"><ele>879.0</ele><time>2026-04-17T10:18:14.073Z</time></trkpt><trkpt lat="44.1929967" lon="11.3783217"><ele>877.0</ele><time>2026-04-17T10:18:15.073Z</time></trkpt><trkpt lat="44.1929067" lon="11.3781617"><ele>879.25</ele><time>2026-04-17T10:18:16.073Z</time></trkpt><trkpt lat="44.1928033" lon="11.37801"><ele>881.5</ele><time>2026-04-17T10:18:17.074Z</time></trkpt><trkpt lat="44.1927133" lon="11.3778617"><ele>883.75</ele><time>2026-04-17T10:18:18.073Z</time></trkpt><trkpt lat="44.1926317" lon="11.377715"><ele>886.0</ele><time>2026-04-17T10:18:19.073Z</time></trkpt><trkpt lat="44.1925867" lon="11.3775617"><ele>886.0</ele><time>2026-04-17T10:18:20.073Z</time></trkpt><trkpt lat="44.1925733" lon="11.3773883"><ele>886.0</ele><time>2026-04-17T10:18:21.073Z</time></trkpt><trkpt lat="44.1925917" lon="11.3772"><ele>886.0</ele><time>2026-04-17T10:18:22.073Z</time></trkpt><trkpt lat="44.1926467" lon="11.3770267"><ele>886.0</ele><time>2026-04-17T10:18:23.073Z</time></trkpt><trkpt lat="44.1927167" lon="11.3768533"><ele>886.25</ele><time>2026-04-17T10:18:24.074Z</time></trkpt><trkpt lat="44.1927683" lon="11.3766783"><ele>886.5</ele><time>2026-04-17T10:18:25.074Z</time></trkpt><trkpt lat="44.1927883" lon="11.3764983"><ele>886.75</ele><time>2026-04-17T10:18:26.073Z</time></trkpt><trkpt lat="44.1927533" lon="11.376325"><ele>887.0</ele><time>2026-04-17T10:18:27.073Z</time></trkpt><trkpt lat="44.1926917" lon="11.37614"><ele>887.0</ele><time>2026-04-17T10:18:28.074Z</time></trkpt><trkpt lat="44.1926083" lon="11.3759533"><ele>887.0</ele><time>2026-04-17T10:18:29.074Z</time></trkpt><trkpt lat="44.192515" lon="11.3757533"><ele>887.0</ele><time>2026-04-17T10:18:30.074Z</time></trkpt><trkpt lat="44.1924217" lon="11.3755533"><ele>889.6666666666667</ele><time>2026-04-17T10:18:31.073Z</time></trkpt><trkpt lat="44.19234" lon="11.3753633"><ele>892.3333333333333</ele><time>2026-04-17T10:18:32.073Z</time></trkpt><trkpt lat="44.1922583" lon="11.3751833"><ele>895.0</ele><time>2026-04-17T10:18:33.073Z</time></trkpt><trkpt lat="44.19219" lon="11.3750033"><ele>892.3333333333333</ele><time>2026-04-17T10:18:34.074Z</time></trkpt><trkpt lat="44.1921367" lon="11.3747983"><ele>889.6666666666667</ele><time>2026-04-17T10:18:35.073Z</time></trkpt><trkpt lat="44.1920883" lon="11.3745917"><ele>887.0</ele><time>2026-04-17T10:18:36.074Z</time></trkpt><trkpt lat="44.1920467" lon="11.3743717"><ele>887.0</ele><time>2026-04-17T10:18:37.073Z</time></trkpt><trkpt lat="44.1919967" lon="11.374165"><ele>887.0</ele><time>2026-04-17T10:18:38.073Z</time></trkpt><trkpt lat="44.191925" lon="11.37396"><ele>887.0</ele><time>2026-04-17T10:18:39.073Z</time></trkpt><trkpt lat="44.1918333" lon="11.3737617"><ele>890.0</ele><time>2026-04-17T10:18:40.073Z</time></trkpt><trkpt lat="44.191725" lon="11.3735717"><ele>893.0</ele><time>2026-04-17T10:18:41.073Z</time></trkpt><trkpt lat="44.1916183" lon="11.3733883"><ele>896.0</ele><time>2026-04-17T10:18:42.073Z</time></trkpt><trkpt lat="44.1915117" lon="11.3732017"><ele>890.3333333333334</ele><time>2026-04-17T10:18:43.074Z</time></trkpt><trkpt lat="44.19141" lon="11.3730017"><ele>884.6666666666667</ele><time>2026-04-17T10:18:44.074Z</time></trkpt><trkpt lat="44.191315" lon="11.37279"><ele>879.0</ele><time>2026-04-17T10:18:45.073Z</time></trkpt><trkpt lat="44.1912267" lon="11.3725767"><ele>879.0</ele><time>2026-04-17T10:18:46.073Z</time></trkpt><trkpt lat="44.1911417" lon="11.3723617"><ele>879.0</ele><time>2026-04-17T10:18:47.073Z</time></trkpt><trkpt lat="44.1910667" lon="11.37214"><ele>879.0</ele><time>2026-04-17T10:18:48.073Z</time></trkpt><trkpt lat="44.1910067" lon="11.3719117"><ele>880.3333333333333</ele><time>2026-04-17T10:18:49.073Z</time></trkpt><trkpt lat="44.1909583" lon="11.3716733"><ele>881.6666666666666</ele><time>2026-04-17T10:18:50.074Z</time></trkpt><trkpt lat="44.1909167" lon="11.371435"><ele>883.0</ele><time>2026-04-17T10:18:51.074Z</time></trkpt><trkpt lat="44.1908733" lon="11.3712083"><ele>881.3333333333333</ele><time>2026-04-17T10:18:52.074Z</time></trkpt><trkpt lat="44.1908283" lon="11.3709983"><ele>879.6666666666667</ele><time>2026-04-17T10:18:53.073Z</time></trkpt><trkpt lat="44.19076" lon="11.3708083"><ele>878.0</ele><time>2026-04-17T10:18:54.073Z</time></trkpt><trkpt lat="44.1906633" lon="11.3706333"><ele>880.0</ele><time>2026-04-17T10:18:55.073Z</time></trkpt><trkpt lat="44.190545" lon="11.3704683"><ele>882.0</ele><time>2026-04-17T10:18:56.073Z</time></trkpt><trkpt lat="44.1904267" lon="11.370315"><ele>884.0</ele><time>2026-04-17T10:18:57.074Z</time></trkpt><trkpt lat="44.1903317" lon="11.3701533"><ele>884.0</ele><time>2026-04-17T10:18:58.073Z</time></trkpt><trkpt lat="44.1902633" lon="11.36998"><ele>884.0</ele><time>2026-04-17T10:18:59.074Z</time></trkpt><trkpt lat="44.19021" lon="11.3697883"><ele>884.0</ele><time>2026-04-17T10:19:00.074Z</time></trkpt><trkpt lat="44.1901583" lon="11.3696"><ele>884.0</ele><time>2026-04-17T10:19:01.074Z</time></trkpt><trkpt lat="44.190105" lon="11.369415"><ele>884.25</ele><time>2026-04-17T10:19:02.073Z</time></trkpt><trkpt lat="44.19005" lon="11.36923"><ele>884.5</ele><time>2026-04-17T10:19:03.074Z</time></trkpt><trkpt lat="44.1899833" lon="11.3690517"><ele>884.75</ele><time>2026-04-17T10:19:04.073Z</time></trkpt><trkpt lat="44.1899" lon="11.36889"><ele>885.0</ele><time>2026-04-17T10:19:05.074Z</time></trkpt><trkpt lat="44.1897967" lon="11.36874"><ele>885.0</ele><time>2026-04-17T10:19:06.074Z</time></trkpt><trkpt lat="44.189675" lon="11.3685967"><ele>885.0</ele><time>2026-04-17T10:19:07.073Z</time></trkpt><trkpt lat="44.189555" lon="11.36846"><ele>885.0</ele><time>2026-04-17T10:19:08.073Z</time></trkpt><trkpt lat="44.18943" lon="11.368325"><ele>885.0</ele><time>2026-04-17T10:19:09.074Z</time></trkpt><trkpt lat="44.1893017" lon="11.3681817"><ele>885.0</ele><time>2026-04-17T10:19:10.074Z</time></trkpt><trkpt lat="44.1891783" lon="11.3680533"><ele>885.0</ele><time>2026-04-17T10:19:11.074Z</time></trkpt><trkpt lat="44.1890717" lon="11.367935"><ele>883.75</ele><time>2026-04-17T10:19:12.073Z</time></trkpt><trkpt lat="44.1889767" lon="11.3678183"><ele>882.5</ele><time>2026-04-17T10:19:13.073Z</time></trkpt><trkpt lat="44.18888" lon="11.36769"><ele>881.25</ele><time>2026-04-17T10:19:14.073Z</time></trkpt><trkpt lat="44.1887917" lon="11.367555"><ele>880.0</ele><time>2026-04-17T10:19:15.073Z</time></trkpt><trkpt lat="44.188715" lon="11.3674117"><ele>880.0</ele><time>2026-04-17T10:19:16.073Z</time></trkpt><trkpt lat="44.1886433" lon="11.36727"><ele>880.0</ele><time>2026-04-17T10:19:17.074Z</time></trkpt><trkpt lat="44.1885633" lon="11.36713"><ele>880.0</ele><time>2026-04-17T10:19:18.073Z</time></trkpt><trkpt lat="44.1884667" lon="11.3670067"><ele>880.0</ele><time>2026-04-17T10:19:19.074Z</time></trkpt><trkpt lat="44.18835" lon="11.3669017"><ele>881.6666666666666</ele><time>2026-04-17T10:19:20.074Z</time></trkpt><trkpt lat="44.1882183" lon="11.36681"><ele>883.3333333333333</ele><time>2026-04-17T10:19:21.074Z</time></trkpt><trkpt lat="44.1880917" lon="11.3666917"><ele>885.0</ele><time>2026-04-17T10:19:22.074Z</time></trkpt><trkpt lat="44.18797" lon="11.3665533"><ele>885.0</ele><time>2026-04-17T10:19:23.073Z</time></trkpt><trkpt lat="44.1878767" lon="11.366395"><ele>885.0</ele><time>2026-04-17T10:19:24.073Z</time></trkpt><trkpt lat="44.187805" lon="11.3662067"><ele>885.0</ele><time>2026-04-17T10:19:25.074Z</time></trkpt><trkpt lat="44.187745" lon="11.3659967"><ele>886.25</ele><time>2026-04-17T10:19:26.074Z</time></trkpt><trkpt lat="44.187695" lon="11.3657867"><ele>887.5</ele><time>2026-04-17T10:19:27.074Z</time></trkpt><trkpt lat="44.18764" lon="11.3656033"><ele>888.75</ele><time>2026-04-17T10:19:28.074Z</time></trkpt><trkpt lat="44.187575" lon="11.3654633"><ele>890.0</ele><time>2026-04-17T10:19:29.073Z</time></trkpt><trkpt lat="44.1874833" lon="11.3653617"><ele>890.0</ele><time>2026-04-17T10:19:30.074Z</time></trkpt><trkpt lat="44.18737" lon="11.3653067"><ele>890.0</ele><time>2026-04-17T10:19:31.073Z</time></trkpt><trkpt lat="44.1872333" lon="11.3653067"><ele>890.0</ele><time>2026-04-17T10:19:32.073Z</time></trkpt><trkpt lat="44.1870967" lon="11.365335"><ele>890.0</ele><time>2026-04-17T10:19:33.073Z</time></trkpt><trkpt lat="44.1869633" lon="11.3653567"><ele>891.0</ele><time>2026-04-17T10:19:34.073Z</time></trkpt><trkpt lat="44.1868367" lon="11.36535"><ele>892.0</ele><time>2026-04-17T10:19:35.074Z</time></trkpt><trkpt lat="44.1867183" lon="11.3652867"><ele>893.0</ele><time>2026-04-17T10:19:36.074Z</time></trkpt><trkpt lat="44.1866217" lon="11.3651617"><ele>894.0</ele><time>2026-04-17T10:19:37.073Z</time></trkpt><trkpt lat="44.1865417" lon="11.3650183"><ele>894.5</ele><time>2026-04-17T10:19:38.074Z</time></trkpt><trkpt lat="44.1864667" lon="11.3648517"><ele>895.0</ele><time>2026-04-17T10:19:39.073Z</time></trkpt><trkpt lat="44.186395" lon="11.36469"><ele>895.5</ele><time>2026-04-17T10:19:40.073Z</time></trkpt><trkpt lat="44.1863267" lon="11.3645433"><ele>896.0</ele><time>2026-04-17T10:19:41.074Z</time></trkpt><trkpt lat="44.1862667" lon="11.3644167"><ele>896.0</ele><time>2026-04-17T10:19:42.073Z</time></trkpt><trkpt lat="44.1862083" lon="11.3643167"><ele>895.9999999999999</ele><time>2026-04-17T10:19:43.074Z</time></trkpt><trkpt lat="44.1861467" lon="11.3642317"><ele>895.9999999999999</ele><time>2026-04-17T10:19:44.074Z</time></trkpt><trkpt lat="44.1860817" lon="11.36416"><ele>896.0</ele><time>2026-04-17T10:19:45.073Z</time></trkpt><trkpt lat="44.186" lon="11.3640783"><ele>896.0</ele><time>2026-04-17T10:19:46.073Z</time></trkpt><trkpt lat="44.1859033" lon="11.3639867"><ele>896.0</ele><time>2026-04-17T10:19:47.073Z</time></trkpt><trkpt lat="44.1858" lon="11.3639117"><ele>895.9999999999999</ele><time>2026-04-17T10:19:48.073Z</time></trkpt><trkpt lat="44.1857017" lon="11.36385"><ele>895.9999999999999</ele><time>2026-04-17T10:19:49.073Z</time></trkpt><trkpt lat="44.1856067" lon="11.3637833"><ele>896.0</ele><time>2026-04-17T10:19:50.073Z</time></trkpt><trkpt lat="44.1855083" lon="11.363705"><ele>896.0</ele><time>2026-04-17T10:19:51.073Z</time></trkpt><trkpt lat="44.18542" lon="11.363615"><ele>896.75</ele><time>2026-04-17T10:19:52.073Z</time></trkpt><trkpt lat="44.185325" lon="11.36351"><ele>897.5</ele><time>2026-04-17T10:19:53.073Z</time></trkpt><trkpt lat="44.1852283" lon="11.3633867"><ele>898.25</ele><time>2026-04-17T10:19:54.074Z</time></trkpt><trkpt lat="44.1851267" lon="11.3632417"><ele>899.0</ele><time>2026-04-17T10:19:55.074Z</time></trkpt><trkpt lat="44.18504" lon="11.36308"><ele>899.5</ele><time>2026-04-17T10:19:56.073Z</time></trkpt><trkpt lat="44.18497" lon="11.3629"><ele>900.0</ele><time>2026-04-17T10:19:57.074Z</time></trkpt><trkpt lat="44.1849133" lon="11.3627133"><ele>900.5</ele><time>2026-04-17T10:19:58.074Z</time></trkpt><trkpt lat="44.1848617" lon="11.3625217"><ele>901.0</ele><time>2026-04-17T10:19:59.074Z</time></trkpt><trkpt lat="44.1848167" lon="11.3623167"><ele>907.5</ele><time>2026-04-17T10:20:00.073Z</time></trkpt><trkpt lat="44.1847683" lon="11.36212"><ele>914.0</ele><time>2026-04-17T10:20:01.074Z</time></trkpt><trkpt lat="44.1847217" lon="11.3619283"><ele>920.5</ele><time>2026-04-17T10:20:02.074Z</time></trkpt><trkpt lat="44.1846883" lon="11.3617267"><ele>927.0</ele><time>2026-04-17T10:20:03.073Z</time></trkpt><trkpt lat="44.1846767" lon="11.3615167"><ele>930.6666666666667</ele><time>2026-04-17T10:20:04.073Z</time></trkpt><trkpt lat="44.18468" lon="11.36129"><ele>934.3333333333334</ele><time>2026-04-17T10:20:05.073Z</time></trkpt><trkpt lat="44.1846933" lon="11.3610667"><ele>938.0</ele><time>2026-04-17T10:20:06.073Z</time></trkpt><trkpt lat="44.1847167" lon="11.36085"><ele>938.0</ele><time>2026-04-17T10:20:07.073Z</time></trkpt><trkpt lat="44.1847567" lon="11.3606317"><ele>938.0</ele><time>2026-04-17T10:20:08.073Z</time></trkpt><trkpt lat="44.1848017" lon="11.3604117"><ele>938.0</ele><time>2026-04-17T10:20:09.073Z</time></trkpt><trkpt lat="44.1848517" lon="11.3601817"><ele>929.3333333333334</ele><time>2026-04-17T10:20:10.073Z</time></trkpt><trkpt lat="44.1848967" lon="11.3599617"><ele>920.6666666666667</ele><time>2026-04-17T10:20:11.074Z</time></trkpt><trkpt lat="44.1849383" lon="11.3597467"><ele>912.0</ele><time>2026-04-17T10:20:12.074Z</time></trkpt><trkpt lat="44.184985" lon="11.35953"><ele>912.0</ele><time>2026-04-17T10:20:13.073Z</time></trkpt><trkpt lat="44.1850333" lon="11.359325"><ele>912.0</ele><time>2026-04-17T10:20:14.074Z</time></trkpt><trkpt lat="44.18507" lon="11.3591283"><ele>912.0</ele><time>2026-04-17T10:20:15.073Z</time></trkpt><trkpt lat="44.1850983" lon="11.3589283"><ele>912.0</ele><time>2026-04-17T10:20:16.073Z</time></trkpt><trkpt lat="44.18512" lon="11.35872"><ele>913.75</ele><time>2026-04-17T10:20:17.074Z</time></trkpt><trkpt lat="44.1851383" lon="11.35851"><ele>915.5</ele><time>2026-04-17T10:20:18.073Z</time></trkpt><trkpt lat="44.185155" lon="11.35831"><ele>917.25</ele><time>2026-04-17T10:20:19.073Z</time></trkpt><trkpt lat="44.1851683" lon="11.3581267"><ele>919.0</ele><time>2026-04-17T10:20:20.073Z</time></trkpt><trkpt lat="44.1851833" lon="11.3579517"><ele>920.25</ele><time>2026-04-17T10:20:21.073Z</time></trkpt><trkpt lat="44.185235" lon="11.3577967"><ele>921.5</ele><time>2026-04-17T10:20:22.073Z</time></trkpt><trkpt lat="44.185315" lon="11.3576683"><ele>922.75</ele><time>2026-04-17T10:20:23.073Z</time></trkpt><trkpt lat="44.1854283" lon="11.35757"><ele>924.0</ele><time>2026-04-17T10:20:24.074Z</time></trkpt><trkpt lat="44.185535" lon="11.357475"><ele>924.0</ele><time>2026-04-17T10:20:25.073Z</time></trkpt><trkpt lat="44.18562" lon="11.3573433"><ele>924.0</ele><time>2026-04-17T10:20:26.074Z</time></trkpt><trkpt lat="44.185665" lon="11.3571667"><ele>924.0</ele><time>2026-04-17T10:20:27.074Z</time></trkpt><trkpt lat="44.1856783" lon="11.35698"><ele>924.0</ele><time>2026-04-17T10:20:28.073Z</time></trkpt><trkpt lat="44.1856533" lon="11.3567833"><ele>923.0</ele><time>2026-04-17T10:20:29.073Z</time></trkpt><trkpt lat="44.1856083" lon="11.35659"><ele>922.0</ele><time>2026-04-17T10:20:30.073Z</time></trkpt><trkpt lat="44.1855467" lon="11.3564233"><ele>921.0</ele><time>2026-04-17T10:20:31.073Z</time></trkpt><trkpt lat="44.185455" lon="11.3562617"><ele>920.0</ele><time>2026-04-17T10:20:32.073Z</time></trkpt><trkpt lat="44.1853483" lon="11.3561183"><ele>916.3333333333334</ele><time>2026-04-17T10:20:33.073Z</time></trkpt><trkpt lat="44.1852283" lon="11.3559883"><ele>912.6666666666667</ele><time>2026-04-17T10:20:34.074Z</time></trkpt><trkpt lat="44.1850967" lon="11.3558683"><ele>909.0</ele><time>2026-04-17T10:20:35.073Z</time></trkpt><trkpt lat="44.1849567" lon="11.3557483"><ele>908.3333333333333</ele><time>2026-04-17T10:20:36.073Z</time></trkpt><trkpt lat="44.1848167" lon="11.3556317"><ele>907.6666666666666</ele><time>2026-04-17T10:20:37.073Z</time></trkpt><trkpt lat="44.1846867" lon="11.3555183"><ele>907.0</ele><time>2026-04-17T10:20:38.073Z</time></trkpt><trkpt lat="44.1845617" lon="11.3553967"><ele>907.0</ele><time>2026-04-17T10:20:39.073Z</time></trkpt><trkpt lat="44.18445" lon="11.35526"><ele>907.0</ele><time>2026-04-17T10:20:40.073Z</time></trkpt><trkpt lat="44.18435" lon="11.355095"><ele>907.0</ele><time>2026-04-17T10:20:41.074Z</time></trkpt><trkpt lat="44.1842617" lon="11.3549083"><ele>907.0</ele><time>2026-04-17T10:20:42.073Z</time></trkpt><trkpt lat="44.1841767" lon="11.35471"><ele>907.0</ele><time>2026-04-17T10:20:43.074Z</time></trkpt><trkpt lat="44.1840933" lon="11.3545233"><ele>907.0</ele><time>2026-04-17T10:20:44.073Z</time></trkpt><trkpt lat="44.1840183" lon="11.3543367"><ele>908.0</ele><time>2026-04-17T10:20:45.073Z</time></trkpt><trkpt lat="44.1839383" lon="11.3541533"><ele>909.0</ele><time>2026-04-17T10:20:46.074Z</time></trkpt><trkpt lat="44.1838567" lon="11.35396"><ele>910.0</ele><time>2026-04-17T10:20:47.073Z</time></trkpt><trkpt lat="44.1837733" lon="11.353755"><ele>910.0</ele><time>2026-04-17T10:20:48.074Z</time></trkpt><trkpt lat="44.1836883" lon="11.3535683"><ele>910.0</ele><time>2026-04-17T10:20:49.073Z</time></trkpt><trkpt lat="44.1836033" lon="11.353375"><ele>910.0</ele><time>2026-04-17T10:20:50.073Z</time></trkpt><trkpt lat="44.18353" lon="11.353185"><ele>910.25</ele><time>2026-04-17T10:20:51.074Z</time></trkpt><trkpt lat="44.1834517" lon="11.3530033"><ele>910.5</ele><time>2026-04-17T10:20:52.073Z</time></trkpt><trkpt lat="44.1833733" lon="11.352835"><ele>910.75</ele><time>2026-04-17T10:20:53.073Z</time></trkpt><trkpt lat="44.1832783" lon="11.35269"><ele>911.0</ele><time>2026-04-17T10:20:54.074Z</time></trkpt><trkpt lat="44.1831717" lon="11.3525767"><ele>911.0</ele><time>2026-04-17T10:20:55.073Z</time></trkpt><trkpt lat="44.1830533" lon="11.35248"><ele>911.0</ele><time>2026-04-17T10:20:56.073Z</time></trkpt><trkpt lat="44.1829183" lon="11.352405"><ele>911.0</ele><time>2026-04-17T10:20:57.073Z</time></trkpt><trkpt lat="44.1827967" lon="11.35234"><ele>911.0</ele><time>2026-04-17T10:20:58.073Z</time></trkpt><trkpt lat="44.1826817" lon="11.3522617"><ele>908.0</ele><time>2026-04-17T10:20:59.073Z</time></trkpt><trkpt lat="44.18258" lon="11.3521483"><ele>905.0</ele><time>2026-04-17T10:21:00.073Z</time></trkpt><trkpt lat="44.182505" lon="11.3519917"><ele>902.0</ele><time>2026-04-17T10:21:01.073Z</time></trkpt><trkpt lat="44.1824833" lon="11.3517983"><ele>899.0</ele><time>2026-04-17T10:21:02.074Z</time></trkpt><trkpt lat="44.1825" lon="11.351595"><ele>899.0</ele><time>2026-04-17T10:21:03.073Z</time></trkpt><trkpt lat="44.1825267" lon="11.3513917"><ele>899.0</ele><time>2026-04-17T10:21:04.074Z</time></trkpt><trkpt lat="44.1825433" lon="11.3511983"><ele>899.0</ele><time>2026-04-17T10:21:05.074Z</time></trkpt><trkpt lat="44.182525" lon="11.3509967"><ele>899.0</ele><time>2026-04-17T10:21:06.073Z</time></trkpt><trkpt lat="44.1824667" lon="11.3508067"><ele>897.75</ele><time>2026-04-17T10:21:07.073Z</time></trkpt><trkpt lat="44.1823983" lon="11.3506383"><ele>896.5</ele><time>2026-04-17T10:21:08.074Z</time></trkpt><trkpt lat="44.1823183" lon="11.35047"><ele>895.25</ele><time>2026-04-17T10:21:09.073Z</time></trkpt><trkpt lat="44.1822567" lon="11.350295"><ele>894.0</ele><time>2026-04-17T10:21:10.074Z</time></trkpt><trkpt lat="44.18223" lon="11.350095"><ele>897.25</ele><time>2026-04-17T10:21:11.073Z</time></trkpt><trkpt lat="44.1822067" lon="11.3498917"><ele>900.5</ele><time>2026-04-17T10:21:12.073Z</time></trkpt><trkpt lat="44.18219" lon="11.3497"><ele>903.75</ele><time>2026-04-17T10:21:13.073Z</time></trkpt><trkpt lat="44.1821767" lon="11.3495117"><ele>907.0</ele><time>2026-04-17T10:21:14.073Z</time></trkpt><trkpt lat="44.18215" lon="11.3493083"><ele>907.0</ele><time>2026-04-17T10:21:15.073Z</time></trkpt><trkpt lat="44.1821267" lon="11.349115"><ele>907.0</ele><time>2026-04-17T10:21:16.074Z</time></trkpt><trkpt lat="44.18209" lon="11.3489367"><ele>907.0</ele><time>2026-04-17T10:21:17.073Z</time></trkpt><trkpt lat="44.182025" lon="11.34878"><ele>907.0</ele><time>2026-04-17T10:21:18.073Z</time></trkpt><trkpt lat="44.181925" lon="11.3486317"><ele>901.3333333333333</ele><time>2026-04-17T10:21:19.074Z</time></trkpt><trkpt lat="44.1818067" lon="11.3485033"><ele>895.6666666666667</ele><time>2026-04-17T10:21:20.073Z</time></trkpt><trkpt lat="44.1816717" lon="11.3483783"><ele>890.0</ele><time>2026-04-17T10:21:21.074Z</time></trkpt><trkpt lat="44.1815317" lon="11.3482617"><ele>888.6666666666667</ele><time>2026-04-17T10:21:22.073Z</time></trkpt><trkpt lat="44.1813967" lon="11.3481483"><ele>887.3333333333333</ele><time>2026-04-17T10:21:23.073Z</time></trkpt><trkpt lat="44.1812617" lon="11.34803"><ele>886.0</ele><time>2026-04-17T10:21:24.073Z</time></trkpt><trkpt lat="44.1811317" lon="11.3479183"><ele>886.0</ele><time>2026-04-17T10:21:25.073Z</time></trkpt><trkpt lat="44.1809933" lon="11.3478217"><ele>886.0</ele><time>2026-04-17T10:21:26.073Z</time></trkpt><trkpt lat="44.1808533" lon="11.347745"><ele>886.0</ele><time>2026-04-17T10:21:27.074Z</time></trkpt><trkpt lat="44.1807033" lon="11.347705"><ele>890.0</ele><time>2026-04-17T10:21:28.074Z</time></trkpt><trkpt lat="44.1805467" lon="11.34768"><ele>894.0</ele><time>2026-04-17T10:21:29.073Z</time></trkpt><trkpt lat="44.18039" lon="11.3476717"><ele>898.0</ele><time>2026-04-17T10:21:30.073Z</time></trkpt><trkpt lat="44.1802283" lon="11.34767"><ele>898.0</ele><time>2026-04-17T10:21:31.074Z</time></trkpt><trkpt lat="44.18007" lon="11.347665"><ele>898.0</ele><time>2026-04-17T10:21:32.073Z</time></trkpt><trkpt lat="44.17993" lon="11.3476333"><ele>898.0</ele><time>2026-04-17T10:21:33.074Z</time></trkpt><trkpt lat="44.1798133" lon="11.34755"><ele>898.0</ele><time>2026-04-17T10:21:34.073Z</time></trkpt><trkpt lat="44.179725" lon="11.3474183"><ele>899.0</ele><time>2026-04-17T10:21:35.074Z</time></trkpt><trkpt lat="44.1796717" lon="11.3472567"><ele>900.0</ele><time>2026-04-17T10:21:36.073Z</time></trkpt><trkpt lat="44.1796017" lon="11.347105"><ele>901.0</ele><time>2026-04-17T10:21:37.073Z</time></trkpt><trkpt lat="44.179515" lon="11.34698"><ele>902.0</ele><time>2026-04-17T10:21:38.073Z</time></trkpt><trkpt lat="44.1793983" lon="11.3468983"><ele>902.0</ele><time>2026-04-17T10:21:39.074Z</time></trkpt><trkpt lat="44.1792567" lon="11.3468717"><ele>902.0</ele><time>2026-04-17T10:21:40.074Z</time></trkpt><trkpt lat="44.17911" lon="11.3468667"><ele>902.0</ele><time>2026-04-17T10:21:41.074Z</time></trkpt><trkpt lat="44.1789817" lon="11.3468567"><ele>902.0</ele><time>2026-04-17T10:21:42.073Z</time></trkpt><trkpt lat="44.1788633" lon="11.346845"><ele>905.2</ele><time>2026-04-17T10:21:43.073Z</time></trkpt><trkpt lat="44.1787583" lon="11.346825"><ele>908.4000000000001</ele><time>2026-04-17T10:21:44.074Z</time></trkpt><trkpt lat="44.17866" lon="11.3467733"><ele>911.5999999999999</ele><time>2026-04-17T10:21:45.073Z</time></trkpt><trkpt lat="44.1785667" lon="11.3466783"><ele>914.8</ele><time>2026-04-17T10:21:46.073Z</time></trkpt><trkpt lat="44.178495" lon="11.3465433"><ele>918.0</ele><time>2026-04-17T10:21:47.074Z</time></trkpt><trkpt lat="44.1784483" lon="11.346405"><ele>918.5</ele><time>2026-04-17T10:21:48.074Z</time></trkpt><trkpt lat="44.1784117" lon="11.3462417"><ele>919.0</ele><time>2026-04-17T10:21:49.074Z</time></trkpt><trkpt lat="44.17836" lon="11.3461017"><ele>919.5</ele><time>2026-04-17T10:21:50.073Z</time></trkpt><trkpt lat="44.1782767" lon="11.3459817"><ele>920.0</ele><time>2026-04-17T10:21:51.074Z</time></trkpt><trkpt lat="44.1781667" lon="11.3458967"><ele>920.0</ele><time>2026-04-17T10:21:52.073Z</time></trkpt><trkpt lat="44.1780333" lon="11.3458533"><ele>920.0</ele><time>2026-04-17T10:21:53.073Z</time></trkpt><trkpt lat="44.1778817" lon="11.345835"><ele>920.0</ele><time>2026-04-17T10:21:54.073Z</time></trkpt><trkpt lat="44.1777317" lon="11.3458233"><ele>920.0</ele><time>2026-04-17T10:21:55.073Z</time></trkpt><trkpt lat="44.1775867" lon="11.3458083"><ele>920.0</ele><time>2026-04-17T10:21:56.074Z</time></trkpt><trkpt lat="44.1774533" lon="11.3457833"><ele>920.0</ele><time>2026-04-17T10:21:57.074Z</time></trkpt><trkpt lat="44.177335" lon="11.34572"><ele>920.0</ele><time>2026-04-17T10:21:58.073Z</time></trkpt><trkpt lat="44.1772217" lon="11.34562"><ele>920.0</ele><time>2026-04-17T10:21:59.073Z</time></trkpt><trkpt lat="44.17712" lon="11.345485"><ele>921.75</ele><time>2026-04-17T10:22:00.073Z</time></trkpt><trkpt lat="44.1770183" lon="11.34535"><ele>923.5</ele><time>2026-04-17T10:22:01.074Z</time></trkpt><trkpt lat="44.1769133" lon="11.34522"><ele>925.25</ele><time>2026-04-17T10:22:02.073Z</time></trkpt><trkpt lat="44.1768033" lon="11.3451067"><ele>927.0</ele><time>2026-04-17T10:22:03.074Z</time></trkpt><trkpt lat="44.1766833" lon="11.345"><ele>927.0</ele><time>2026-04-17T10:22:04.073Z</time></trkpt><trkpt lat="44.17656" lon="11.3448983"><ele>927.0</ele><time>2026-04-17T10:22:05.073Z</time></trkpt><trkpt lat="44.17644" lon="11.3448033"><ele>927.0</ele><time>2026-04-17T10:22:06.073Z</time></trkpt><trkpt lat="44.176315" lon="11.3447083"><ele>927.0</ele><time>2026-04-17T10:22:07.073Z</time></trkpt><trkpt lat="44.1761883" lon="11.3446233"><ele>926.5</ele><time>2026-04-17T10:22:08.073Z</time></trkpt><trkpt lat="44.176055" lon="11.3445433"><ele>926.0</ele><time>2026-04-17T10:22:09.073Z</time></trkpt><trkpt lat="44.1759117" lon="11.3444733"><ele>925.5</ele><time>2026-04-17T10:22:10.073Z</time></trkpt><trkpt lat="44.17577" lon="11.3444083"><ele>925.0</ele><time>2026-04-17T10:22:11.073Z</time></trkpt><trkpt lat="44.175625" lon="11.3443533"><ele>928.6666666666666</ele><time>2026-04-17T10:22:12.074Z</time></trkpt><trkpt lat="44.1754767" lon="11.3443033"><ele>932.3333333333333</ele><time>2026-04-17T10:22:13.073Z</time></trkpt><trkpt lat="44.17532" lon="11.34426"><ele>936.0</ele><time>2026-04-17T10:22:14.074Z</time></trkpt><trkpt lat="44.1751683" lon="11.3442217"><ele>936.0</ele><time>2026-04-17T10:22:15.073Z</time></trkpt><trkpt lat="44.175015" lon="11.3441833"><ele>936.0</ele><time>2026-04-17T10:22:16.073Z</time></trkpt><trkpt lat="44.174865" lon="11.34414"><ele>936.0</ele><time>2026-04-17T10:22:17.073Z</time></trkpt><trkpt lat="44.1747167" lon="11.3440933"><ele>939.3333333333333</ele><time>2026-04-17T10:22:18.073Z</time></trkpt><trkpt lat="44.1745683" lon="11.3440383"><ele>942.6666666666666</ele><time>2026-04-17T10:22:19.074Z</time></trkpt><trkpt lat="44.1744267" lon="11.34397"><ele>946.0</ele><time>2026-04-17T10:22:20.074Z</time></trkpt><trkpt lat="44.1742883" lon="11.3438883"><ele>943.0</ele><time>2026-04-17T10:22:21.074Z</time></trkpt><trkpt lat="44.1741533" lon="11.3437867"><ele>940.0</ele><time>2026-04-17T10:22:22.073Z</time></trkpt><trkpt lat="44.174025" lon="11.3436617"><ele>937.0</ele><time>2026-04-17T10:22:23.073Z</time></trkpt><trkpt lat="44.1739217" lon="11.34351"><ele>941.25</ele><time>2026-04-17T10:22:24.074Z</time></trkpt><trkpt lat="44.17383" lon="11.3433483"><ele>945.5</ele><time>2026-04-17T10:22:25.074Z</time></trkpt><trkpt lat="44.1737417" lon="11.3431867"><ele>949.75</ele><time>2026-04-17T10:22:26.073Z</time></trkpt><trkpt lat="44.1736683" lon="11.3430133"><ele>954.0</ele><time>2026-04-17T10:22:27.074Z</time></trkpt><trkpt lat="44.1735933" lon="11.34284"><ele>954.0</ele><time>2026-04-17T10:22:28.074Z</time></trkpt><trkpt lat="44.17352" lon="11.342675"><ele>954.0</ele><time>2026-04-17T10:22:29.073Z</time></trkpt><trkpt lat="44.1734517" lon="11.3425033"><ele>954.0</ele><time>2026-04-17T10:22:30.073Z</time></trkpt><trkpt lat="44.17339" lon="11.3423367"><ele>954.0</ele><time>2026-04-17T10:22:31.074Z</time></trkpt><trkpt lat="44.173345" lon="11.34217"><ele>954.0</ele><time>2026-04-17T10:22:32.073Z</time></trkpt><trkpt lat="44.17334" lon="11.3420017"><ele>954.0</ele><time>2026-04-17T10:22:33.073Z</time></trkpt><trkpt lat="44.1733733" lon="11.3418417"><ele>954.0</ele><time>2026-04-17T10:22:34.074Z</time></trkpt><trkpt lat="44.1734367" lon="11.3417"><ele>954.0</ele><time>2026-04-17T10:22:35.073Z</time></trkpt><trkpt lat="44.173535" lon="11.3415717"><ele>954.0</ele><time>2026-04-17T10:22:36.073Z</time></trkpt><trkpt lat="44.173645" lon="11.3414567"><ele>954.0</ele><time>2026-04-17T10:22:37.073Z</time></trkpt><trkpt lat="44.1737533" lon="11.34135"><ele>954.0</ele><time>2026-04-17T10:22:38.073Z</time></trkpt><trkpt lat="44.173845" lon="11.3412317"><ele>954.0</ele><time>2026-04-17T10:22:39.074Z</time></trkpt><trkpt lat="44.17392" lon="11.3411067"><ele>956.6</ele><time>2026-04-17T10:22:40.072Z</time></trkpt><trkpt lat="44.1739667" lon="11.3409683"><ele>959.2</ele><time>2026-04-17T10:22:41.072Z</time></trkpt><trkpt lat="44.173975" lon="11.3408267"><ele>961.8000000000001</ele><time>2026-04-17T10:22:42.072Z</time></trkpt><trkpt lat="44.1739583" lon="11.34067"><ele>964.4000000000001</ele><time>2026-04-17T10:22:43.072Z</time></trkpt><trkpt lat="44.1739083" lon="11.340525"><ele>967.0</ele><time>2026-04-17T10:22:44.072Z</time></trkpt><trkpt lat="44.1738367" lon="11.34039"><ele>967.2</ele><time>2026-04-17T10:22:45.072Z</time></trkpt><trkpt lat="44.17375" lon="11.340275"><ele>967.4000000000001</ele><time>2026-04-17T10:22:46.072Z</time></trkpt><trkpt lat="44.173675" lon="11.3401683"><ele>967.5999999999999</ele><time>2026-04-17T10:22:47.073Z</time></trkpt><trkpt lat="44.1736083" lon="11.3400783"><ele>967.8</ele><time>2026-04-17T10:22:48.072Z</time></trkpt><trkpt lat="44.1735417" lon="11.3399833"><ele>968.0</ele><time>2026-04-17T10:22:49.072Z</time></trkpt><trkpt lat="44.173485" lon="11.3398883"><ele>968.0000000000001</ele><time>2026-04-17T10:22:50.072Z</time></trkpt><trkpt lat="44.17343" lon="11.3397917"><ele>968.0</ele><time>2026-04-17T10:22:51.072Z</time></trkpt><trkpt lat="44.17338" lon="11.3396933"><ele>968.0</ele><time>2026-04-17T10:22:52.072Z</time></trkpt><trkpt lat="44.1733267" lon="11.33959"><ele>968.0</ele><time>2026-04-17T10:22:53.073Z</time></trkpt><trkpt lat="44.1732783" lon="11.3394817"><ele>968.0000000000001</ele><time>2026-04-17T10:22:54.073Z</time></trkpt><trkpt lat="44.1732333" lon="11.33938"><ele>968.0</ele><time>2026-04-17T10:22:55.072Z</time></trkpt><trkpt lat="44.1731917" lon="11.3392733"><ele>963.0</ele><time>2026-04-17T10:22:56.072Z</time></trkpt><trkpt lat="44.1731433" lon="11.3391717"><ele>965.0</ele><time>2026-04-17T10:22:57.073Z</time></trkpt><trkpt lat="44.1730967" lon="11.339075"><ele>965.0</ele><time>2026-04-17T10:22:58.072Z</time></trkpt><trkpt lat="44.173055" lon="11.3389883"><ele>965.0</ele><time>2026-04-17T10:22:59.072Z</time></trkpt><trkpt lat="44.1730217" lon="11.3389117"><ele>965.0</ele><time>2026-04-17T10:23:00.073Z</time></trkpt><trkpt lat="44.1729683" lon="11.3388117"><ele>961.0</ele><time>2026-04-17T10:23:02.073Z</time></trkpt></trkseg></trk></gpx>